<?xml version="1.0" encoding="UTF-8" standalone="no" ?>
<gpx xmlns="http://www.topografix.com/GPX/1/1" xmlns:xsi="http://www.w3.org/2001/XMLSchema-instance" xsi:schemaLocation="http://www.topografix.com/GPX/1/1 http://www.topografix.com/GPX/1/1/gpx.xsd" version="1.1" creator="VisuGPX - https://www.visugpx.com">
  <metadata>
    <name>2018-11-06 Bike ride-Verdun O v34k</name>
    <desc><![CDATA[2018-11-06 Bike ride-Verdun O v34k]]></desc>
  </metadata>
  <wpt lat="45.92448" lon="4.7372">
    <ele>174</ele>
    <name><![CDATA[2018-11-06 10:23 (Start)]]></name>
  </wpt>
  <wpt lat="45.92462" lon="4.73706">
    <ele>174</ele>
    <name><![CDATA[2018-11-06 10:23 (End)]]></name>
  </wpt>
  <trk>
    <name><![CDATA[2018-11-06 10:23]]></name>
    <trkseg>
      <trkpt lat="45.92448" lon="4.7372">
        <ele>174</ele>
        <time>2018-11-06T09:23:01.005Z</time>
      </trkpt>
      <trkpt lat="45.92449" lon="4.7372">
        <ele>174</ele>
        <time>2018-11-06T09:23:07.255Z</time>
      </trkpt>
      <trkpt lat="45.9245" lon="4.7372">
        <ele>174</ele>
        <time>2018-11-06T09:23:08Z</time>
      </trkpt>
      <trkpt lat="45.92459" lon="4.73721">
        <ele>174</ele>
        <time>2018-11-06T09:23:19Z</time>
      </trkpt>
      <trkpt lat="45.92459" lon="4.73721">
        <ele>174</ele>
        <time>2018-11-06T09:23:20Z</time>
      </trkpt>
      <trkpt lat="45.92465" lon="4.73714">
        <ele>174</ele>
        <time>2018-11-06T09:23:41Z</time>
      </trkpt>
      <trkpt lat="45.92466" lon="4.73711">
        <ele>174</ele>
        <time>2018-11-06T09:23:42Z</time>
      </trkpt>
      <trkpt lat="45.92467" lon="4.737">
        <ele>174</ele>
        <time>2018-11-06T09:23:45Z</time>
      </trkpt>
      <trkpt lat="45.92467" lon="4.73697">
        <ele>174</ele>
        <time>2018-11-06T09:23:46Z</time>
      </trkpt>
      <trkpt lat="45.92468" lon="4.73686">
        <ele>174</ele>
        <time>2018-11-06T09:23:49Z</time>
      </trkpt>
      <trkpt lat="45.9247" lon="4.73682">
        <ele>174</ele>
        <time>2018-11-06T09:23:50Z</time>
      </trkpt>
      <trkpt lat="45.92471" lon="4.73672">
        <ele>174</ele>
        <time>2018-11-06T09:23:52Z</time>
      </trkpt>
      <trkpt lat="45.92472" lon="4.73667">
        <ele>174</ele>
        <time>2018-11-06T09:23:53Z</time>
      </trkpt>
      <trkpt lat="45.92472" lon="4.73662">
        <ele>174</ele>
        <time>2018-11-06T09:23:54Z</time>
      </trkpt>
      <trkpt lat="45.92474" lon="4.73653">
        <ele>174</ele>
        <time>2018-11-06T09:23:55Z</time>
      </trkpt>
      <trkpt lat="45.92479" lon="4.73645">
        <ele>174</ele>
        <time>2018-11-06T09:23:57Z</time>
      </trkpt>
      <trkpt lat="45.92482" lon="4.73643">
        <ele>174</ele>
        <time>2018-11-06T09:23:58Z</time>
      </trkpt>
      <trkpt lat="45.9249" lon="4.73642">
        <ele>174</ele>
        <time>2018-11-06T09:24:00Z</time>
      </trkpt>
      <trkpt lat="45.92495" lon="4.73642">
        <ele>174</ele>
        <time>2018-11-06T09:24:01Z</time>
      </trkpt>
      <trkpt lat="45.92503" lon="4.73643">
        <ele>174</ele>
        <time>2018-11-06T09:24:03Z</time>
      </trkpt>
      <trkpt lat="45.92507" lon="4.73643">
        <ele>174</ele>
        <time>2018-11-06T09:24:04Z</time>
      </trkpt>
      <trkpt lat="45.92515" lon="4.73643">
        <ele>174</ele>
        <time>2018-11-06T09:24:06Z</time>
      </trkpt>
      <trkpt lat="45.92519" lon="4.73643">
        <ele>173</ele>
        <time>2018-11-06T09:24:07Z</time>
      </trkpt>
      <trkpt lat="45.92525" lon="4.73643">
        <ele>173</ele>
        <time>2018-11-06T09:24:09Z</time>
      </trkpt>
      <trkpt lat="45.92528" lon="4.73642">
        <ele>173</ele>
        <time>2018-11-06T09:24:10Z</time>
      </trkpt>
      <trkpt lat="45.92537" lon="4.73643">
        <ele>173</ele>
        <time>2018-11-06T09:24:19Z</time>
      </trkpt>
      <trkpt lat="45.92537" lon="4.73643">
        <ele>173</ele>
        <time>2018-11-06T09:24:20Z</time>
      </trkpt>
      <trkpt lat="45.92544" lon="4.7364">
        <ele>173</ele>
        <time>2018-11-06T09:24:37Z</time>
      </trkpt>
      <trkpt lat="45.92546" lon="4.73639">
        <ele>173</ele>
        <time>2018-11-06T09:24:38Z</time>
      </trkpt>
      <trkpt lat="45.92554" lon="4.73636">
        <ele>173</ele>
        <time>2018-11-06T09:24:41Z</time>
      </trkpt>
      <trkpt lat="45.92556" lon="4.73636">
        <ele>173</ele>
        <time>2018-11-06T09:24:42Z</time>
      </trkpt>
      <trkpt lat="45.92565" lon="4.73634">
        <ele>173</ele>
        <time>2018-11-06T09:24:45Z</time>
      </trkpt>
      <trkpt lat="45.92571" lon="4.73633">
        <ele>173</ele>
        <time>2018-11-06T09:24:46Z</time>
      </trkpt>
      <trkpt lat="45.92579" lon="4.73631">
        <ele>173</ele>
        <time>2018-11-06T09:24:48Z</time>
      </trkpt>
      <trkpt lat="45.92583" lon="4.73631">
        <ele>173</ele>
        <time>2018-11-06T09:24:49Z</time>
      </trkpt>
      <trkpt lat="45.92587" lon="4.73632">
        <ele>172</ele>
        <time>2018-11-06T09:24:50Z</time>
      </trkpt>
      <trkpt lat="45.92592" lon="4.73631">
        <ele>172</ele>
        <time>2018-11-06T09:24:51Z</time>
      </trkpt>
      <trkpt lat="45.926" lon="4.73632">
        <ele>172</ele>
        <time>2018-11-06T09:24:53Z</time>
      </trkpt>
      <trkpt lat="45.92604" lon="4.73632">
        <ele>172</ele>
        <time>2018-11-06T09:24:54Z</time>
      </trkpt>
      <trkpt lat="45.9261" lon="4.73637">
        <ele>173</ele>
        <time>2018-11-06T09:24:56Z</time>
      </trkpt>
      <trkpt lat="45.92614" lon="4.73641">
        <ele>173</ele>
        <time>2018-11-06T09:24:57Z</time>
      </trkpt>
      <trkpt lat="45.92617" lon="4.73646">
        <ele>173</ele>
        <time>2018-11-06T09:24:58Z</time>
      </trkpt>
      <trkpt lat="45.92619" lon="4.73653">
        <ele>173</ele>
        <time>2018-11-06T09:24:59Z</time>
      </trkpt>
      <trkpt lat="45.92622" lon="4.73659">
        <ele>173</ele>
        <time>2018-11-06T09:25:00Z</time>
      </trkpt>
      <trkpt lat="45.92626" lon="4.73665">
        <ele>173</ele>
        <time>2018-11-06T09:25:01Z</time>
      </trkpt>
      <trkpt lat="45.9263" lon="4.73671">
        <ele>173</ele>
        <time>2018-11-06T09:25:02Z</time>
      </trkpt>
      <trkpt lat="45.92633" lon="4.73677">
        <ele>173</ele>
        <time>2018-11-06T09:25:03Z</time>
      </trkpt>
      <trkpt lat="45.92638" lon="4.73683">
        <ele>173</ele>
        <time>2018-11-06T09:25:04Z</time>
      </trkpt>
      <trkpt lat="45.92641" lon="4.73689">
        <ele>173</ele>
        <time>2018-11-06T09:25:05Z</time>
      </trkpt>
      <trkpt lat="45.92646" lon="4.73693">
        <ele>173</ele>
        <time>2018-11-06T09:25:06Z</time>
      </trkpt>
      <trkpt lat="45.9265" lon="4.73697">
        <ele>173</ele>
        <time>2018-11-06T09:25:07Z</time>
      </trkpt>
      <trkpt lat="45.92654" lon="4.73701">
        <ele>173</ele>
        <time>2018-11-06T09:25:08Z</time>
      </trkpt>
      <trkpt lat="45.9266" lon="4.73705">
        <ele>173</ele>
        <time>2018-11-06T09:25:09Z</time>
      </trkpt>
      <trkpt lat="45.92665" lon="4.73707">
        <ele>173</ele>
        <time>2018-11-06T09:25:10Z</time>
      </trkpt>
      <trkpt lat="45.9267" lon="4.7371">
        <ele>174</ele>
        <time>2018-11-06T09:25:11Z</time>
      </trkpt>
      <trkpt lat="45.92675" lon="4.73711">
        <ele>174</ele>
        <time>2018-11-06T09:25:12Z</time>
      </trkpt>
      <trkpt lat="45.9268" lon="4.73713">
        <ele>173</ele>
        <time>2018-11-06T09:25:13Z</time>
      </trkpt>
      <trkpt lat="45.92686" lon="4.73715">
        <ele>173</ele>
        <time>2018-11-06T09:25:14Z</time>
      </trkpt>
      <trkpt lat="45.92691" lon="4.73717">
        <ele>173</ele>
        <time>2018-11-06T09:25:15Z</time>
      </trkpt>
      <trkpt lat="45.92697" lon="4.73718">
        <ele>173</ele>
        <time>2018-11-06T09:25:16Z</time>
      </trkpt>
      <trkpt lat="45.92703" lon="4.7372">
        <ele>173</ele>
        <time>2018-11-06T09:25:17Z</time>
      </trkpt>
      <trkpt lat="45.92709" lon="4.73721">
        <ele>173</ele>
        <time>2018-11-06T09:25:18Z</time>
      </trkpt>
      <trkpt lat="45.92714" lon="4.73721">
        <ele>173</ele>
        <time>2018-11-06T09:25:19Z</time>
      </trkpt>
      <trkpt lat="45.92719" lon="4.73722">
        <ele>173</ele>
        <time>2018-11-06T09:25:20Z</time>
      </trkpt>
      <trkpt lat="45.92724" lon="4.73723">
        <ele>173</ele>
        <time>2018-11-06T09:25:21Z</time>
      </trkpt>
      <trkpt lat="45.92728" lon="4.73724">
        <ele>173</ele>
        <time>2018-11-06T09:25:22Z</time>
      </trkpt>
      <trkpt lat="45.92734" lon="4.73725">
        <ele>173</ele>
        <time>2018-11-06T09:25:23Z</time>
      </trkpt>
      <trkpt lat="45.92742" lon="4.73727">
        <ele>173</ele>
        <time>2018-11-06T09:25:25Z</time>
      </trkpt>
      <trkpt lat="45.92746" lon="4.73729">
        <ele>173</ele>
        <time>2018-11-06T09:25:26Z</time>
      </trkpt>
      <trkpt lat="45.92753" lon="4.73732">
        <ele>172</ele>
        <time>2018-11-06T09:25:28Z</time>
      </trkpt>
      <trkpt lat="45.92756" lon="4.73734">
        <ele>173</ele>
        <time>2018-11-06T09:25:29Z</time>
      </trkpt>
      <trkpt lat="45.92762" lon="4.73737">
        <ele>172</ele>
        <time>2018-11-06T09:25:31Z</time>
      </trkpt>
      <trkpt lat="45.92765" lon="4.73738">
        <ele>172</ele>
        <time>2018-11-06T09:25:32Z</time>
      </trkpt>
      <trkpt lat="45.92772" lon="4.73742">
        <ele>172</ele>
        <time>2018-11-06T09:25:35Z</time>
      </trkpt>
      <trkpt lat="45.92774" lon="4.73745">
        <ele>172</ele>
        <time>2018-11-06T09:25:36Z</time>
      </trkpt>
      <trkpt lat="45.92777" lon="4.73754">
        <ele>173</ele>
        <time>2018-11-06T09:25:39Z</time>
      </trkpt>
      <trkpt lat="45.92779" lon="4.73758">
        <ele>173</ele>
        <time>2018-11-06T09:25:40Z</time>
      </trkpt>
      <trkpt lat="45.92781" lon="4.73762">
        <ele>173</ele>
        <time>2018-11-06T09:25:41Z</time>
      </trkpt>
      <trkpt lat="45.92786" lon="4.73766">
        <ele>173</ele>
        <time>2018-11-06T09:25:42Z</time>
      </trkpt>
      <trkpt lat="45.9279" lon="4.73767">
        <ele>173</ele>
        <time>2018-11-06T09:25:43Z</time>
      </trkpt>
      <trkpt lat="45.92796" lon="4.73766">
        <ele>173</ele>
        <time>2018-11-06T09:25:44Z</time>
      </trkpt>
      <trkpt lat="45.92801" lon="4.73768">
        <ele>173</ele>
        <time>2018-11-06T09:25:45Z</time>
      </trkpt>
      <trkpt lat="45.92806" lon="4.7377">
        <ele>173</ele>
        <time>2018-11-06T09:25:46Z</time>
      </trkpt>
      <trkpt lat="45.9281" lon="4.73773">
        <ele>173</ele>
        <time>2018-11-06T09:25:47Z</time>
      </trkpt>
      <trkpt lat="45.92815" lon="4.73776">
        <ele>173</ele>
        <time>2018-11-06T09:25:48Z</time>
      </trkpt>
      <trkpt lat="45.92821" lon="4.7378">
        <ele>173</ele>
        <time>2018-11-06T09:25:49Z</time>
      </trkpt>
      <trkpt lat="45.92826" lon="4.73783">
        <ele>173</ele>
        <time>2018-11-06T09:25:50Z</time>
      </trkpt>
      <trkpt lat="45.92832" lon="4.73786">
        <ele>173</ele>
        <time>2018-11-06T09:25:51Z</time>
      </trkpt>
      <trkpt lat="45.92837" lon="4.7379">
        <ele>173</ele>
        <time>2018-11-06T09:25:52Z</time>
      </trkpt>
      <trkpt lat="45.92841" lon="4.73793">
        <ele>173</ele>
        <time>2018-11-06T09:25:53Z</time>
      </trkpt>
      <trkpt lat="45.92846" lon="4.73797">
        <ele>173</ele>
        <time>2018-11-06T09:25:54Z</time>
      </trkpt>
      <trkpt lat="45.92849" lon="4.73803">
        <ele>173</ele>
        <time>2018-11-06T09:25:55Z</time>
      </trkpt>
      <trkpt lat="45.92852" lon="4.73808">
        <ele>173</ele>
        <time>2018-11-06T09:25:56Z</time>
      </trkpt>
      <trkpt lat="45.92854" lon="4.73814">
        <ele>173</ele>
        <time>2018-11-06T09:25:57Z</time>
      </trkpt>
      <trkpt lat="45.92856" lon="4.7382">
        <ele>173</ele>
        <time>2018-11-06T09:25:58Z</time>
      </trkpt>
      <trkpt lat="45.92858" lon="4.73826">
        <ele>173</ele>
        <time>2018-11-06T09:25:59Z</time>
      </trkpt>
      <trkpt lat="45.92861" lon="4.73834">
        <ele>173</ele>
        <time>2018-11-06T09:26:00Z</time>
      </trkpt>
      <trkpt lat="45.92863" lon="4.7384">
        <ele>173</ele>
        <time>2018-11-06T09:26:01Z</time>
      </trkpt>
      <trkpt lat="45.92865" lon="4.73847">
        <ele>173</ele>
        <time>2018-11-06T09:26:02Z</time>
      </trkpt>
      <trkpt lat="45.92866" lon="4.73855">
        <ele>173</ele>
        <time>2018-11-06T09:26:03Z</time>
      </trkpt>
      <trkpt lat="45.92868" lon="4.73863">
        <ele>173</ele>
        <time>2018-11-06T09:26:04Z</time>
      </trkpt>
      <trkpt lat="45.92871" lon="4.73873">
        <ele>173</ele>
        <time>2018-11-06T09:26:05Z</time>
      </trkpt>
      <trkpt lat="45.92872" lon="4.73881">
        <ele>173</ele>
        <time>2018-11-06T09:26:06Z</time>
      </trkpt>
      <trkpt lat="45.92872" lon="4.73889">
        <ele>173</ele>
        <time>2018-11-06T09:26:07Z</time>
      </trkpt>
      <trkpt lat="45.92875" lon="4.73897">
        <ele>173</ele>
        <time>2018-11-06T09:26:08Z</time>
      </trkpt>
      <trkpt lat="45.92877" lon="4.73904">
        <ele>173</ele>
        <time>2018-11-06T09:26:09Z</time>
      </trkpt>
      <trkpt lat="45.92878" lon="4.73912">
        <ele>173</ele>
        <time>2018-11-06T09:26:10Z</time>
      </trkpt>
      <trkpt lat="45.9288" lon="4.73919">
        <ele>172</ele>
        <time>2018-11-06T09:26:11Z</time>
      </trkpt>
      <trkpt lat="45.92881" lon="4.73927">
        <ele>172</ele>
        <time>2018-11-06T09:26:12Z</time>
      </trkpt>
      <trkpt lat="45.92882" lon="4.73935">
        <ele>172</ele>
        <time>2018-11-06T09:26:13Z</time>
      </trkpt>
      <trkpt lat="45.92883" lon="4.73943">
        <ele>172</ele>
        <time>2018-11-06T09:26:14Z</time>
      </trkpt>
      <trkpt lat="45.92883" lon="4.73951">
        <ele>172</ele>
        <time>2018-11-06T09:26:15Z</time>
      </trkpt>
      <trkpt lat="45.92883" lon="4.73958">
        <ele>172</ele>
        <time>2018-11-06T09:26:16Z</time>
      </trkpt>
      <trkpt lat="45.92882" lon="4.73966">
        <ele>172</ele>
        <time>2018-11-06T09:26:17Z</time>
      </trkpt>
      <trkpt lat="45.92882" lon="4.73974">
        <ele>172</ele>
        <time>2018-11-06T09:26:18Z</time>
      </trkpt>
      <trkpt lat="45.92881" lon="4.7398">
        <ele>172</ele>
        <time>2018-11-06T09:26:19Z</time>
      </trkpt>
      <trkpt lat="45.92881" lon="4.73987">
        <ele>172</ele>
        <time>2018-11-06T09:26:20Z</time>
      </trkpt>
      <trkpt lat="45.9288" lon="4.73995">
        <ele>172</ele>
        <time>2018-11-06T09:26:21Z</time>
      </trkpt>
      <trkpt lat="45.92879" lon="4.74002">
        <ele>172</ele>
        <time>2018-11-06T09:26:22Z</time>
      </trkpt>
      <trkpt lat="45.92877" lon="4.74009">
        <ele>172</ele>
        <time>2018-11-06T09:26:23Z</time>
      </trkpt>
      <trkpt lat="45.92875" lon="4.74016">
        <ele>172</ele>
        <time>2018-11-06T09:26:24Z</time>
      </trkpt>
      <trkpt lat="45.92873" lon="4.74023">
        <ele>172</ele>
        <time>2018-11-06T09:26:25Z</time>
      </trkpt>
      <trkpt lat="45.92872" lon="4.74031">
        <ele>172</ele>
        <time>2018-11-06T09:26:26Z</time>
      </trkpt>
      <trkpt lat="45.9287" lon="4.74038">
        <ele>172</ele>
        <time>2018-11-06T09:26:27Z</time>
      </trkpt>
      <trkpt lat="45.92868" lon="4.74045">
        <ele>172</ele>
        <time>2018-11-06T09:26:28Z</time>
      </trkpt>
      <trkpt lat="45.92865" lon="4.74052">
        <ele>172</ele>
        <time>2018-11-06T09:26:29Z</time>
      </trkpt>
      <trkpt lat="45.92861" lon="4.74058">
        <ele>172</ele>
        <time>2018-11-06T09:26:30Z</time>
      </trkpt>
      <trkpt lat="45.92857" lon="4.74064">
        <ele>172</ele>
        <time>2018-11-06T09:26:31Z</time>
      </trkpt>
      <trkpt lat="45.92852" lon="4.74068">
        <ele>172</ele>
        <time>2018-11-06T09:26:32Z</time>
      </trkpt>
      <trkpt lat="45.92848" lon="4.74073">
        <ele>172</ele>
        <time>2018-11-06T09:26:33Z</time>
      </trkpt>
      <trkpt lat="45.92843" lon="4.74079">
        <ele>171</ele>
        <time>2018-11-06T09:26:34Z</time>
      </trkpt>
      <trkpt lat="45.92839" lon="4.74084">
        <ele>171</ele>
        <time>2018-11-06T09:26:35Z</time>
      </trkpt>
      <trkpt lat="45.92834" lon="4.74089">
        <ele>171</ele>
        <time>2018-11-06T09:26:36Z</time>
      </trkpt>
      <trkpt lat="45.92829" lon="4.74094">
        <ele>171</ele>
        <time>2018-11-06T09:26:37Z</time>
      </trkpt>
      <trkpt lat="45.92825" lon="4.741">
        <ele>171</ele>
        <time>2018-11-06T09:26:38Z</time>
      </trkpt>
      <trkpt lat="45.9282" lon="4.74106">
        <ele>171</ele>
        <time>2018-11-06T09:26:39Z</time>
      </trkpt>
      <trkpt lat="45.92815" lon="4.74111">
        <ele>172</ele>
        <time>2018-11-06T09:26:40Z</time>
      </trkpt>
      <trkpt lat="45.9281" lon="4.74116">
        <ele>172</ele>
        <time>2018-11-06T09:26:41Z</time>
      </trkpt>
      <trkpt lat="45.92805" lon="4.74122">
        <ele>172</ele>
        <time>2018-11-06T09:26:42Z</time>
      </trkpt>
      <trkpt lat="45.928" lon="4.74128">
        <ele>172</ele>
        <time>2018-11-06T09:26:43Z</time>
      </trkpt>
      <trkpt lat="45.92795" lon="4.74133">
        <ele>172</ele>
        <time>2018-11-06T09:26:44Z</time>
      </trkpt>
      <trkpt lat="45.9279" lon="4.74139">
        <ele>172</ele>
        <time>2018-11-06T09:26:45Z</time>
      </trkpt>
      <trkpt lat="45.92785" lon="4.74143">
        <ele>172</ele>
        <time>2018-11-06T09:26:46Z</time>
      </trkpt>
      <trkpt lat="45.9278" lon="4.74148">
        <ele>172</ele>
        <time>2018-11-06T09:26:47Z</time>
      </trkpt>
      <trkpt lat="45.92775" lon="4.74154">
        <ele>172</ele>
        <time>2018-11-06T09:26:48Z</time>
      </trkpt>
      <trkpt lat="45.9277" lon="4.74158">
        <ele>172</ele>
        <time>2018-11-06T09:26:49Z</time>
      </trkpt>
      <trkpt lat="45.92764" lon="4.74164">
        <ele>172</ele>
        <time>2018-11-06T09:26:50Z</time>
      </trkpt>
      <trkpt lat="45.92759" lon="4.74169">
        <ele>172</ele>
        <time>2018-11-06T09:26:51Z</time>
      </trkpt>
      <trkpt lat="45.92754" lon="4.74174">
        <ele>172</ele>
        <time>2018-11-06T09:26:52Z</time>
      </trkpt>
      <trkpt lat="45.92749" lon="4.74179">
        <ele>172</ele>
        <time>2018-11-06T09:26:53Z</time>
      </trkpt>
      <trkpt lat="45.92744" lon="4.74184">
        <ele>172</ele>
        <time>2018-11-06T09:26:54Z</time>
      </trkpt>
      <trkpt lat="45.9274" lon="4.7419">
        <ele>171</ele>
        <time>2018-11-06T09:26:55Z</time>
      </trkpt>
      <trkpt lat="45.92736" lon="4.74195">
        <ele>171</ele>
        <time>2018-11-06T09:26:56Z</time>
      </trkpt>
      <trkpt lat="45.92732" lon="4.74201">
        <ele>171</ele>
        <time>2018-11-06T09:26:57Z</time>
      </trkpt>
      <trkpt lat="45.92728" lon="4.74206">
        <ele>171</ele>
        <time>2018-11-06T09:26:58Z</time>
      </trkpt>
      <trkpt lat="45.92724" lon="4.74211">
        <ele>171</ele>
        <time>2018-11-06T09:26:59Z</time>
      </trkpt>
      <trkpt lat="45.9272" lon="4.74217">
        <ele>171</ele>
        <time>2018-11-06T09:27:00Z</time>
      </trkpt>
      <trkpt lat="45.92717" lon="4.74222">
        <ele>171</ele>
        <time>2018-11-06T09:27:01Z</time>
      </trkpt>
      <trkpt lat="45.92713" lon="4.74229">
        <ele>171</ele>
        <time>2018-11-06T09:27:02Z</time>
      </trkpt>
      <trkpt lat="45.92708" lon="4.74235">
        <ele>171</ele>
        <time>2018-11-06T09:27:03Z</time>
      </trkpt>
      <trkpt lat="45.92705" lon="4.74242">
        <ele>171</ele>
        <time>2018-11-06T09:27:04Z</time>
      </trkpt>
      <trkpt lat="45.92701" lon="4.74248">
        <ele>171</ele>
        <time>2018-11-06T09:27:05Z</time>
      </trkpt>
      <trkpt lat="45.92697" lon="4.74255">
        <ele>171</ele>
        <time>2018-11-06T09:27:06Z</time>
      </trkpt>
      <trkpt lat="45.92694" lon="4.74261">
        <ele>171</ele>
        <time>2018-11-06T09:27:07Z</time>
      </trkpt>
      <trkpt lat="45.9269" lon="4.74268">
        <ele>171</ele>
        <time>2018-11-06T09:27:08Z</time>
      </trkpt>
      <trkpt lat="45.92686" lon="4.74276">
        <ele>171</ele>
        <time>2018-11-06T09:27:09Z</time>
      </trkpt>
      <trkpt lat="45.92682" lon="4.74283">
        <ele>171</ele>
        <time>2018-11-06T09:27:10Z</time>
      </trkpt>
      <trkpt lat="45.92678" lon="4.7429">
        <ele>171</ele>
        <time>2018-11-06T09:27:11Z</time>
      </trkpt>
      <trkpt lat="45.92675" lon="4.74298">
        <ele>171</ele>
        <time>2018-11-06T09:27:12Z</time>
      </trkpt>
      <trkpt lat="45.9267" lon="4.74305">
        <ele>171</ele>
        <time>2018-11-06T09:27:13Z</time>
      </trkpt>
      <trkpt lat="45.92666" lon="4.74312">
        <ele>171</ele>
        <time>2018-11-06T09:27:14Z</time>
      </trkpt>
      <trkpt lat="45.92663" lon="4.74319">
        <ele>171</ele>
        <time>2018-11-06T09:27:15Z</time>
      </trkpt>
      <trkpt lat="45.92658" lon="4.74326">
        <ele>171</ele>
        <time>2018-11-06T09:27:16Z</time>
      </trkpt>
      <trkpt lat="45.92654" lon="4.74333">
        <ele>171</ele>
        <time>2018-11-06T09:27:17Z</time>
      </trkpt>
      <trkpt lat="45.9265" lon="4.7434">
        <ele>171</ele>
        <time>2018-11-06T09:27:18Z</time>
      </trkpt>
      <trkpt lat="45.92646" lon="4.74348">
        <ele>171</ele>
        <time>2018-11-06T09:27:19Z</time>
      </trkpt>
      <trkpt lat="45.92642" lon="4.74356">
        <ele>171</ele>
        <time>2018-11-06T09:27:20Z</time>
      </trkpt>
      <trkpt lat="45.92638" lon="4.74363">
        <ele>171</ele>
        <time>2018-11-06T09:27:21Z</time>
      </trkpt>
      <trkpt lat="45.92633" lon="4.74371">
        <ele>171</ele>
        <time>2018-11-06T09:27:22Z</time>
      </trkpt>
      <trkpt lat="45.92629" lon="4.74379">
        <ele>170</ele>
        <time>2018-11-06T09:27:23Z</time>
      </trkpt>
      <trkpt lat="45.92625" lon="4.74387">
        <ele>170</ele>
        <time>2018-11-06T09:27:24Z</time>
      </trkpt>
      <trkpt lat="45.92621" lon="4.74394">
        <ele>170</ele>
        <time>2018-11-06T09:27:25Z</time>
      </trkpt>
      <trkpt lat="45.92618" lon="4.74401">
        <ele>170</ele>
        <time>2018-11-06T09:27:26Z</time>
      </trkpt>
      <trkpt lat="45.92614" lon="4.74409">
        <ele>170</ele>
        <time>2018-11-06T09:27:27Z</time>
      </trkpt>
      <trkpt lat="45.9261" lon="4.74415">
        <ele>170</ele>
        <time>2018-11-06T09:27:28Z</time>
      </trkpt>
      <trkpt lat="45.92606" lon="4.74421">
        <ele>170</ele>
        <time>2018-11-06T09:27:29Z</time>
      </trkpt>
      <trkpt lat="45.92602" lon="4.74428">
        <ele>170</ele>
        <time>2018-11-06T09:27:30Z</time>
      </trkpt>
      <trkpt lat="45.92599" lon="4.74435">
        <ele>170</ele>
        <time>2018-11-06T09:27:31Z</time>
      </trkpt>
      <trkpt lat="45.92594" lon="4.74442">
        <ele>170</ele>
        <time>2018-11-06T09:27:32Z</time>
      </trkpt>
      <trkpt lat="45.92591" lon="4.74449">
        <ele>170</ele>
        <time>2018-11-06T09:27:33Z</time>
      </trkpt>
      <trkpt lat="45.92587" lon="4.74456">
        <ele>170</ele>
        <time>2018-11-06T09:27:34Z</time>
      </trkpt>
      <trkpt lat="45.92583" lon="4.74462">
        <ele>170</ele>
        <time>2018-11-06T09:27:35Z</time>
      </trkpt>
      <trkpt lat="45.92579" lon="4.74469">
        <ele>170</ele>
        <time>2018-11-06T09:27:36Z</time>
      </trkpt>
      <trkpt lat="45.92575" lon="4.74477">
        <ele>170</ele>
        <time>2018-11-06T09:27:37Z</time>
      </trkpt>
      <trkpt lat="45.92571" lon="4.74484">
        <ele>170</ele>
        <time>2018-11-06T09:27:38Z</time>
      </trkpt>
      <trkpt lat="45.92567" lon="4.74492">
        <ele>170</ele>
        <time>2018-11-06T09:27:39Z</time>
      </trkpt>
      <trkpt lat="45.92562" lon="4.74499">
        <ele>170</ele>
        <time>2018-11-06T09:27:40Z</time>
      </trkpt>
      <trkpt lat="45.92558" lon="4.74505">
        <ele>170</ele>
        <time>2018-11-06T09:27:41Z</time>
      </trkpt>
      <trkpt lat="45.92554" lon="4.74513">
        <ele>170</ele>
        <time>2018-11-06T09:27:42Z</time>
      </trkpt>
      <trkpt lat="45.9255" lon="4.7452">
        <ele>170</ele>
        <time>2018-11-06T09:27:43Z</time>
      </trkpt>
      <trkpt lat="45.92547" lon="4.74529">
        <ele>170</ele>
        <time>2018-11-06T09:27:44Z</time>
      </trkpt>
      <trkpt lat="45.92543" lon="4.74537">
        <ele>170</ele>
        <time>2018-11-06T09:27:45Z</time>
      </trkpt>
      <trkpt lat="45.92539" lon="4.74545">
        <ele>171</ele>
        <time>2018-11-06T09:27:46Z</time>
      </trkpt>
      <trkpt lat="45.92534" lon="4.74552">
        <ele>171</ele>
        <time>2018-11-06T09:27:47Z</time>
      </trkpt>
      <trkpt lat="45.92529" lon="4.74559">
        <ele>171</ele>
        <time>2018-11-06T09:27:48Z</time>
      </trkpt>
      <trkpt lat="45.92524" lon="4.74566">
        <ele>171</ele>
        <time>2018-11-06T09:27:49Z</time>
      </trkpt>
      <trkpt lat="45.92519" lon="4.74572">
        <ele>171</ele>
        <time>2018-11-06T09:27:50Z</time>
      </trkpt>
      <trkpt lat="45.92514" lon="4.74578">
        <ele>171</ele>
        <time>2018-11-06T09:27:51Z</time>
      </trkpt>
      <trkpt lat="45.92509" lon="4.74583">
        <ele>171</ele>
        <time>2018-11-06T09:27:52Z</time>
      </trkpt>
      <trkpt lat="45.92504" lon="4.74589">
        <ele>171</ele>
        <time>2018-11-06T09:27:53Z</time>
      </trkpt>
      <trkpt lat="45.925" lon="4.74594">
        <ele>171</ele>
        <time>2018-11-06T09:27:54Z</time>
      </trkpt>
      <trkpt lat="45.92496" lon="4.74599">
        <ele>171</ele>
        <time>2018-11-06T09:27:55Z</time>
      </trkpt>
      <trkpt lat="45.92492" lon="4.74603">
        <ele>171</ele>
        <time>2018-11-06T09:27:56Z</time>
      </trkpt>
      <trkpt lat="45.92487" lon="4.74609">
        <ele>171</ele>
        <time>2018-11-06T09:27:57Z</time>
      </trkpt>
      <trkpt lat="45.92483" lon="4.74614">
        <ele>171</ele>
        <time>2018-11-06T09:27:58Z</time>
      </trkpt>
      <trkpt lat="45.92479" lon="4.7462">
        <ele>171</ele>
        <time>2018-11-06T09:27:59Z</time>
      </trkpt>
      <trkpt lat="45.92475" lon="4.74626">
        <ele>171</ele>
        <time>2018-11-06T09:28:00Z</time>
      </trkpt>
      <trkpt lat="45.92471" lon="4.74632">
        <ele>171</ele>
        <time>2018-11-06T09:28:01Z</time>
      </trkpt>
      <trkpt lat="45.92467" lon="4.74638">
        <ele>171</ele>
        <time>2018-11-06T09:28:02Z</time>
      </trkpt>
      <trkpt lat="45.92462" lon="4.74645">
        <ele>171</ele>
        <time>2018-11-06T09:28:03Z</time>
      </trkpt>
      <trkpt lat="45.92458" lon="4.74653">
        <ele>171</ele>
        <time>2018-11-06T09:28:04Z</time>
      </trkpt>
      <trkpt lat="45.92455" lon="4.7466">
        <ele>171</ele>
        <time>2018-11-06T09:28:05Z</time>
      </trkpt>
      <trkpt lat="45.92451" lon="4.74666">
        <ele>171</ele>
        <time>2018-11-06T09:28:06Z</time>
      </trkpt>
      <trkpt lat="45.92448" lon="4.74672">
        <ele>171</ele>
        <time>2018-11-06T09:28:07Z</time>
      </trkpt>
      <trkpt lat="45.92445" lon="4.7468">
        <ele>171</ele>
        <time>2018-11-06T09:28:08Z</time>
      </trkpt>
      <trkpt lat="45.92441" lon="4.74688">
        <ele>171</ele>
        <time>2018-11-06T09:28:09Z</time>
      </trkpt>
      <trkpt lat="45.92437" lon="4.74694">
        <ele>171</ele>
        <time>2018-11-06T09:28:10Z</time>
      </trkpt>
      <trkpt lat="45.92434" lon="4.74702">
        <ele>171</ele>
        <time>2018-11-06T09:28:11Z</time>
      </trkpt>
      <trkpt lat="45.92431" lon="4.74711">
        <ele>171</ele>
        <time>2018-11-06T09:28:12Z</time>
      </trkpt>
      <trkpt lat="45.92429" lon="4.74721">
        <ele>171</ele>
        <time>2018-11-06T09:28:13Z</time>
      </trkpt>
      <trkpt lat="45.92426" lon="4.74728">
        <ele>171</ele>
        <time>2018-11-06T09:28:14Z</time>
      </trkpt>
      <trkpt lat="45.92424" lon="4.74738">
        <ele>171</ele>
        <time>2018-11-06T09:28:15Z</time>
      </trkpt>
      <trkpt lat="45.92421" lon="4.74747">
        <ele>172</ele>
        <time>2018-11-06T09:28:16Z</time>
      </trkpt>
      <trkpt lat="45.92417" lon="4.74756">
        <ele>172</ele>
        <time>2018-11-06T09:28:17Z</time>
      </trkpt>
      <trkpt lat="45.92415" lon="4.74765">
        <ele>172</ele>
        <time>2018-11-06T09:28:18Z</time>
      </trkpt>
      <trkpt lat="45.92412" lon="4.74774">
        <ele>171</ele>
        <time>2018-11-06T09:28:19Z</time>
      </trkpt>
      <trkpt lat="45.9241" lon="4.74783">
        <ele>171</ele>
        <time>2018-11-06T09:28:20Z</time>
      </trkpt>
      <trkpt lat="45.92407" lon="4.74792">
        <ele>171</ele>
        <time>2018-11-06T09:28:21Z</time>
      </trkpt>
      <trkpt lat="45.92404" lon="4.74801">
        <ele>171</ele>
        <time>2018-11-06T09:28:22Z</time>
      </trkpt>
      <trkpt lat="45.92403" lon="4.7481">
        <ele>171</ele>
        <time>2018-11-06T09:28:23Z</time>
      </trkpt>
      <trkpt lat="45.92401" lon="4.74819">
        <ele>171</ele>
        <time>2018-11-06T09:28:24Z</time>
      </trkpt>
      <trkpt lat="45.92399" lon="4.74827">
        <ele>171</ele>
        <time>2018-11-06T09:28:25Z</time>
      </trkpt>
      <trkpt lat="45.92397" lon="4.74836">
        <ele>171</ele>
        <time>2018-11-06T09:28:26Z</time>
      </trkpt>
      <trkpt lat="45.92394" lon="4.74845">
        <ele>171</ele>
        <time>2018-11-06T09:28:27Z</time>
      </trkpt>
      <trkpt lat="45.92391" lon="4.74855">
        <ele>171</ele>
        <time>2018-11-06T09:28:28Z</time>
      </trkpt>
      <trkpt lat="45.92389" lon="4.74863">
        <ele>171</ele>
        <time>2018-11-06T09:28:29Z</time>
      </trkpt>
      <trkpt lat="45.92385" lon="4.74871">
        <ele>171</ele>
        <time>2018-11-06T09:28:30Z</time>
      </trkpt>
      <trkpt lat="45.92382" lon="4.74881">
        <ele>171</ele>
        <time>2018-11-06T09:28:31Z</time>
      </trkpt>
      <trkpt lat="45.92379" lon="4.74889">
        <ele>171</ele>
        <time>2018-11-06T09:28:32Z</time>
      </trkpt>
      <trkpt lat="45.92375" lon="4.74899">
        <ele>171</ele>
        <time>2018-11-06T09:28:33Z</time>
      </trkpt>
      <trkpt lat="45.92372" lon="4.74908">
        <ele>171</ele>
        <time>2018-11-06T09:28:34Z</time>
      </trkpt>
      <trkpt lat="45.92369" lon="4.74918">
        <ele>170</ele>
        <time>2018-11-06T09:28:35Z</time>
      </trkpt>
      <trkpt lat="45.92365" lon="4.74926">
        <ele>170</ele>
        <time>2018-11-06T09:28:36Z</time>
      </trkpt>
      <trkpt lat="45.92362" lon="4.74935">
        <ele>170</ele>
        <time>2018-11-06T09:28:37Z</time>
      </trkpt>
      <trkpt lat="45.92358" lon="4.74943">
        <ele>170</ele>
        <time>2018-11-06T09:28:38Z</time>
      </trkpt>
      <trkpt lat="45.92355" lon="4.74951">
        <ele>170</ele>
        <time>2018-11-06T09:28:39Z</time>
      </trkpt>
      <trkpt lat="45.92353" lon="4.74959">
        <ele>170</ele>
        <time>2018-11-06T09:28:40Z</time>
      </trkpt>
      <trkpt lat="45.9235" lon="4.74967">
        <ele>170</ele>
        <time>2018-11-06T09:28:41Z</time>
      </trkpt>
      <trkpt lat="45.92347" lon="4.74974">
        <ele>170</ele>
        <time>2018-11-06T09:28:42Z</time>
      </trkpt>
      <trkpt lat="45.92344" lon="4.74983">
        <ele>170</ele>
        <time>2018-11-06T09:28:43Z</time>
      </trkpt>
      <trkpt lat="45.92342" lon="4.7499">
        <ele>170</ele>
        <time>2018-11-06T09:28:44Z</time>
      </trkpt>
      <trkpt lat="45.92339" lon="4.74998">
        <ele>170</ele>
        <time>2018-11-06T09:28:45Z</time>
      </trkpt>
      <trkpt lat="45.92337" lon="4.75005">
        <ele>170</ele>
        <time>2018-11-06T09:28:46Z</time>
      </trkpt>
      <trkpt lat="45.92334" lon="4.75013">
        <ele>170</ele>
        <time>2018-11-06T09:28:47Z</time>
      </trkpt>
      <trkpt lat="45.92331" lon="4.7502">
        <ele>171</ele>
        <time>2018-11-06T09:28:48Z</time>
      </trkpt>
      <trkpt lat="45.92327" lon="4.75028">
        <ele>171</ele>
        <time>2018-11-06T09:28:49Z</time>
      </trkpt>
      <trkpt lat="45.92324" lon="4.75035">
        <ele>171</ele>
        <time>2018-11-06T09:28:50Z</time>
      </trkpt>
      <trkpt lat="45.9232" lon="4.75042">
        <ele>172</ele>
        <time>2018-11-06T09:28:51Z</time>
      </trkpt>
      <trkpt lat="45.92315" lon="4.75048">
        <ele>172</ele>
        <time>2018-11-06T09:28:52Z</time>
      </trkpt>
      <trkpt lat="45.92311" lon="4.75055">
        <ele>172</ele>
        <time>2018-11-06T09:28:53Z</time>
      </trkpt>
      <trkpt lat="45.92306" lon="4.75062">
        <ele>172</ele>
        <time>2018-11-06T09:28:54Z</time>
      </trkpt>
      <trkpt lat="45.92302" lon="4.75068">
        <ele>172</ele>
        <time>2018-11-06T09:28:55Z</time>
      </trkpt>
      <trkpt lat="45.92298" lon="4.75075">
        <ele>172</ele>
        <time>2018-11-06T09:28:56Z</time>
      </trkpt>
      <trkpt lat="45.92294" lon="4.75081">
        <ele>172</ele>
        <time>2018-11-06T09:28:57Z</time>
      </trkpt>
      <trkpt lat="45.92289" lon="4.75086">
        <ele>173</ele>
        <time>2018-11-06T09:28:58Z</time>
      </trkpt>
      <trkpt lat="45.92284" lon="4.75092">
        <ele>173</ele>
        <time>2018-11-06T09:28:59Z</time>
      </trkpt>
      <trkpt lat="45.92279" lon="4.75098">
        <ele>173</ele>
        <time>2018-11-06T09:29:00Z</time>
      </trkpt>
      <trkpt lat="45.92274" lon="4.75103">
        <ele>173</ele>
        <time>2018-11-06T09:29:01Z</time>
      </trkpt>
      <trkpt lat="45.92269" lon="4.75107">
        <ele>174</ele>
        <time>2018-11-06T09:29:02Z</time>
      </trkpt>
      <trkpt lat="45.92264" lon="4.75112">
        <ele>174</ele>
        <time>2018-11-06T09:29:03Z</time>
      </trkpt>
      <trkpt lat="45.92259" lon="4.75117">
        <ele>174</ele>
        <time>2018-11-06T09:29:04Z</time>
      </trkpt>
      <trkpt lat="45.92255" lon="4.75122">
        <ele>174</ele>
        <time>2018-11-06T09:29:05Z</time>
      </trkpt>
      <trkpt lat="45.92251" lon="4.75127">
        <ele>174</ele>
        <time>2018-11-06T09:29:06Z</time>
      </trkpt>
      <trkpt lat="45.92246" lon="4.75132">
        <ele>174</ele>
        <time>2018-11-06T09:29:07Z</time>
      </trkpt>
      <trkpt lat="45.92241" lon="4.75139">
        <ele>174</ele>
        <time>2018-11-06T09:29:08Z</time>
      </trkpt>
      <trkpt lat="45.92237" lon="4.75146">
        <ele>174</ele>
        <time>2018-11-06T09:29:09Z</time>
      </trkpt>
      <trkpt lat="45.92234" lon="4.75153">
        <ele>174</ele>
        <time>2018-11-06T09:29:10Z</time>
      </trkpt>
      <trkpt lat="45.92231" lon="4.7516">
        <ele>174</ele>
        <time>2018-11-06T09:29:11Z</time>
      </trkpt>
      <trkpt lat="45.92228" lon="4.75166">
        <ele>174</ele>
        <time>2018-11-06T09:29:12Z</time>
      </trkpt>
      <trkpt lat="45.92225" lon="4.75173">
        <ele>175</ele>
        <time>2018-11-06T09:29:13Z</time>
      </trkpt>
      <trkpt lat="45.92222" lon="4.7518">
        <ele>175</ele>
        <time>2018-11-06T09:29:14Z</time>
      </trkpt>
      <trkpt lat="45.9222" lon="4.75188">
        <ele>175</ele>
        <time>2018-11-06T09:29:15Z</time>
      </trkpt>
      <trkpt lat="45.92218" lon="4.75196">
        <ele>175</ele>
        <time>2018-11-06T09:29:16Z</time>
      </trkpt>
      <trkpt lat="45.92216" lon="4.75204">
        <ele>175</ele>
        <time>2018-11-06T09:29:17Z</time>
      </trkpt>
      <trkpt lat="45.92214" lon="4.75211">
        <ele>175</ele>
        <time>2018-11-06T09:29:18Z</time>
      </trkpt>
      <trkpt lat="45.92212" lon="4.7522">
        <ele>175</ele>
        <time>2018-11-06T09:29:19Z</time>
      </trkpt>
      <trkpt lat="45.92212" lon="4.75228">
        <ele>175</ele>
        <time>2018-11-06T09:29:20Z</time>
      </trkpt>
      <trkpt lat="45.92211" lon="4.75235">
        <ele>175</ele>
        <time>2018-11-06T09:29:21Z</time>
      </trkpt>
      <trkpt lat="45.92211" lon="4.75244">
        <ele>175</ele>
        <time>2018-11-06T09:29:22Z</time>
      </trkpt>
      <trkpt lat="45.92211" lon="4.75252">
        <ele>175</ele>
        <time>2018-11-06T09:29:23Z</time>
      </trkpt>
      <trkpt lat="45.92211" lon="4.75259">
        <ele>176</ele>
        <time>2018-11-06T09:29:24Z</time>
      </trkpt>
      <trkpt lat="45.9221" lon="4.75267">
        <ele>176</ele>
        <time>2018-11-06T09:29:25Z</time>
      </trkpt>
      <trkpt lat="45.9221" lon="4.75276">
        <ele>176</ele>
        <time>2018-11-06T09:29:26Z</time>
      </trkpt>
      <trkpt lat="45.92209" lon="4.75284">
        <ele>176</ele>
        <time>2018-11-06T09:29:27Z</time>
      </trkpt>
      <trkpt lat="45.92209" lon="4.75292">
        <ele>176</ele>
        <time>2018-11-06T09:29:28Z</time>
      </trkpt>
      <trkpt lat="45.92208" lon="4.75299">
        <ele>176</ele>
        <time>2018-11-06T09:29:29Z</time>
      </trkpt>
      <trkpt lat="45.92208" lon="4.75307">
        <ele>176</ele>
        <time>2018-11-06T09:29:30Z</time>
      </trkpt>
      <trkpt lat="45.92208" lon="4.75314">
        <ele>176</ele>
        <time>2018-11-06T09:29:31Z</time>
      </trkpt>
      <trkpt lat="45.92208" lon="4.75321">
        <ele>176</ele>
        <time>2018-11-06T09:29:32Z</time>
      </trkpt>
      <trkpt lat="45.92205" lon="4.7533">
        <ele>176</ele>
        <time>2018-11-06T09:29:33Z</time>
      </trkpt>
      <trkpt lat="45.92204" lon="4.75338">
        <ele>177</ele>
        <time>2018-11-06T09:29:34Z</time>
      </trkpt>
      <trkpt lat="45.92202" lon="4.75345">
        <ele>177</ele>
        <time>2018-11-06T09:29:35Z</time>
      </trkpt>
      <trkpt lat="45.92201" lon="4.75353">
        <ele>177</ele>
        <time>2018-11-06T09:29:36Z</time>
      </trkpt>
      <trkpt lat="45.92198" lon="4.7536">
        <ele>177</ele>
        <time>2018-11-06T09:29:37Z</time>
      </trkpt>
      <trkpt lat="45.92196" lon="4.75367">
        <ele>177</ele>
        <time>2018-11-06T09:29:38Z</time>
      </trkpt>
      <trkpt lat="45.92194" lon="4.75374">
        <ele>177</ele>
        <time>2018-11-06T09:29:39Z</time>
      </trkpt>
      <trkpt lat="45.92193" lon="4.75382">
        <ele>177</ele>
        <time>2018-11-06T09:29:40Z</time>
      </trkpt>
      <trkpt lat="45.92189" lon="4.75389">
        <ele>177</ele>
        <time>2018-11-06T09:29:41Z</time>
      </trkpt>
      <trkpt lat="45.92186" lon="4.75397">
        <ele>177</ele>
        <time>2018-11-06T09:29:42Z</time>
      </trkpt>
      <trkpt lat="45.92183" lon="4.75405">
        <ele>177</ele>
        <time>2018-11-06T09:29:43Z</time>
      </trkpt>
      <trkpt lat="45.9218" lon="4.75413">
        <ele>177</ele>
        <time>2018-11-06T09:29:44Z</time>
      </trkpt>
      <trkpt lat="45.92176" lon="4.75421">
        <ele>177</ele>
        <time>2018-11-06T09:29:45Z</time>
      </trkpt>
      <trkpt lat="45.92173" lon="4.7543">
        <ele>177</ele>
        <time>2018-11-06T09:29:46Z</time>
      </trkpt>
      <trkpt lat="45.9217" lon="4.75438">
        <ele>177</ele>
        <time>2018-11-06T09:29:47Z</time>
      </trkpt>
      <trkpt lat="45.92166" lon="4.75446">
        <ele>177</ele>
        <time>2018-11-06T09:29:48Z</time>
      </trkpt>
      <trkpt lat="45.92163" lon="4.75454">
        <ele>176</ele>
        <time>2018-11-06T09:29:49Z</time>
      </trkpt>
      <trkpt lat="45.92159" lon="4.75462">
        <ele>176</ele>
        <time>2018-11-06T09:29:50Z</time>
      </trkpt>
      <trkpt lat="45.92156" lon="4.75469">
        <ele>176</ele>
        <time>2018-11-06T09:29:51Z</time>
      </trkpt>
      <trkpt lat="45.92153" lon="4.75477">
        <ele>176</ele>
        <time>2018-11-06T09:29:52Z</time>
      </trkpt>
      <trkpt lat="45.92149" lon="4.75487">
        <ele>176</ele>
        <time>2018-11-06T09:29:53Z</time>
      </trkpt>
      <trkpt lat="45.92146" lon="4.75495">
        <ele>175</ele>
        <time>2018-11-06T09:29:54Z</time>
      </trkpt>
      <trkpt lat="45.92141" lon="4.75503">
        <ele>174</ele>
        <time>2018-11-06T09:29:55Z</time>
      </trkpt>
      <trkpt lat="45.92138" lon="4.75511">
        <ele>174</ele>
        <time>2018-11-06T09:29:56Z</time>
      </trkpt>
      <trkpt lat="45.92133" lon="4.75519">
        <ele>174</ele>
        <time>2018-11-06T09:29:57Z</time>
      </trkpt>
      <trkpt lat="45.92129" lon="4.75526">
        <ele>174</ele>
        <time>2018-11-06T09:29:58Z</time>
      </trkpt>
      <trkpt lat="45.92124" lon="4.75536">
        <ele>174</ele>
        <time>2018-11-06T09:29:59Z</time>
      </trkpt>
      <trkpt lat="45.92119" lon="4.75544">
        <ele>174</ele>
        <time>2018-11-06T09:30:00Z</time>
      </trkpt>
      <trkpt lat="45.92115" lon="4.75552">
        <ele>174</ele>
        <time>2018-11-06T09:30:01Z</time>
      </trkpt>
      <trkpt lat="45.9211" lon="4.7556">
        <ele>174</ele>
        <time>2018-11-06T09:30:02Z</time>
      </trkpt>
      <trkpt lat="45.92106" lon="4.75568">
        <ele>174</ele>
        <time>2018-11-06T09:30:03Z</time>
      </trkpt>
      <trkpt lat="45.92102" lon="4.75577">
        <ele>174</ele>
        <time>2018-11-06T09:30:04Z</time>
      </trkpt>
      <trkpt lat="45.92097" lon="4.75585">
        <ele>174</ele>
        <time>2018-11-06T09:30:05Z</time>
      </trkpt>
      <trkpt lat="45.92093" lon="4.75592">
        <ele>174</ele>
        <time>2018-11-06T09:30:06Z</time>
      </trkpt>
      <trkpt lat="45.92089" lon="4.75601">
        <ele>174</ele>
        <time>2018-11-06T09:30:07Z</time>
      </trkpt>
      <trkpt lat="45.92085" lon="4.75608">
        <ele>174</ele>
        <time>2018-11-06T09:30:08Z</time>
      </trkpt>
      <trkpt lat="45.92081" lon="4.75616">
        <ele>175</ele>
        <time>2018-11-06T09:30:09Z</time>
      </trkpt>
      <trkpt lat="45.92078" lon="4.75622">
        <ele>175</ele>
        <time>2018-11-06T09:30:10Z</time>
      </trkpt>
      <trkpt lat="45.92073" lon="4.75629">
        <ele>175</ele>
        <time>2018-11-06T09:30:11Z</time>
      </trkpt>
      <trkpt lat="45.92069" lon="4.75636">
        <ele>175</ele>
        <time>2018-11-06T09:30:12Z</time>
      </trkpt>
      <trkpt lat="45.92066" lon="4.75643">
        <ele>175</ele>
        <time>2018-11-06T09:30:13Z</time>
      </trkpt>
      <trkpt lat="45.92062" lon="4.7565">
        <ele>175</ele>
        <time>2018-11-06T09:30:14Z</time>
      </trkpt>
      <trkpt lat="45.92058" lon="4.75656">
        <ele>175</ele>
        <time>2018-11-06T09:30:15Z</time>
      </trkpt>
      <trkpt lat="45.92055" lon="4.75662">
        <ele>175</ele>
        <time>2018-11-06T09:30:16Z</time>
      </trkpt>
      <trkpt lat="45.92052" lon="4.75668">
        <ele>175</ele>
        <time>2018-11-06T09:30:17Z</time>
      </trkpt>
      <trkpt lat="45.92048" lon="4.75674">
        <ele>175</ele>
        <time>2018-11-06T09:30:18Z</time>
      </trkpt>
      <trkpt lat="45.92044" lon="4.75681">
        <ele>175</ele>
        <time>2018-11-06T09:30:19Z</time>
      </trkpt>
      <trkpt lat="45.92041" lon="4.75689">
        <ele>175</ele>
        <time>2018-11-06T09:30:20Z</time>
      </trkpt>
      <trkpt lat="45.92037" lon="4.75696">
        <ele>175</ele>
        <time>2018-11-06T09:30:21Z</time>
      </trkpt>
      <trkpt lat="45.92033" lon="4.75704">
        <ele>175</ele>
        <time>2018-11-06T09:30:22Z</time>
      </trkpt>
      <trkpt lat="45.92028" lon="4.75711">
        <ele>175</ele>
        <time>2018-11-06T09:30:23Z</time>
      </trkpt>
      <trkpt lat="45.92023" lon="4.75718">
        <ele>175</ele>
        <time>2018-11-06T09:30:24Z</time>
      </trkpt>
      <trkpt lat="45.92019" lon="4.75725">
        <ele>175</ele>
        <time>2018-11-06T09:30:25Z</time>
      </trkpt>
      <trkpt lat="45.92015" lon="4.75733">
        <ele>175</ele>
        <time>2018-11-06T09:30:26Z</time>
      </trkpt>
      <trkpt lat="45.9201" lon="4.75742">
        <ele>174</ele>
        <time>2018-11-06T09:30:27Z</time>
      </trkpt>
      <trkpt lat="45.92006" lon="4.7575">
        <ele>174</ele>
        <time>2018-11-06T09:30:28Z</time>
      </trkpt>
      <trkpt lat="45.92002" lon="4.75757">
        <ele>174</ele>
        <time>2018-11-06T09:30:29Z</time>
      </trkpt>
      <trkpt lat="45.91998" lon="4.75764">
        <ele>174</ele>
        <time>2018-11-06T09:30:30Z</time>
      </trkpt>
      <trkpt lat="45.91993" lon="4.75771">
        <ele>174</ele>
        <time>2018-11-06T09:30:31Z</time>
      </trkpt>
      <trkpt lat="45.91989" lon="4.75778">
        <ele>174</ele>
        <time>2018-11-06T09:30:32Z</time>
      </trkpt>
      <trkpt lat="45.91986" lon="4.75784">
        <ele>173</ele>
        <time>2018-11-06T09:30:33Z</time>
      </trkpt>
      <trkpt lat="45.91982" lon="4.75791">
        <ele>173</ele>
        <time>2018-11-06T09:30:34Z</time>
      </trkpt>
      <trkpt lat="45.91979" lon="4.75797">
        <ele>173</ele>
        <time>2018-11-06T09:30:35Z</time>
      </trkpt>
      <trkpt lat="45.91975" lon="4.75803">
        <ele>173</ele>
        <time>2018-11-06T09:30:36Z</time>
      </trkpt>
      <trkpt lat="45.91972" lon="4.75811">
        <ele>173</ele>
        <time>2018-11-06T09:30:37Z</time>
      </trkpt>
      <trkpt lat="45.91968" lon="4.75818">
        <ele>173</ele>
        <time>2018-11-06T09:30:38Z</time>
      </trkpt>
      <trkpt lat="45.91964" lon="4.75825">
        <ele>173</ele>
        <time>2018-11-06T09:30:39Z</time>
      </trkpt>
      <trkpt lat="45.9196" lon="4.75832">
        <ele>173</ele>
        <time>2018-11-06T09:30:40Z</time>
      </trkpt>
      <trkpt lat="45.91956" lon="4.75839">
        <ele>172</ele>
        <time>2018-11-06T09:30:41Z</time>
      </trkpt>
      <trkpt lat="45.91952" lon="4.75847">
        <ele>172</ele>
        <time>2018-11-06T09:30:42Z</time>
      </trkpt>
      <trkpt lat="45.91948" lon="4.75854">
        <ele>172</ele>
        <time>2018-11-06T09:30:43Z</time>
      </trkpt>
      <trkpt lat="45.91944" lon="4.75861">
        <ele>172</ele>
        <time>2018-11-06T09:30:44Z</time>
      </trkpt>
      <trkpt lat="45.9194" lon="4.75871">
        <ele>172</ele>
        <time>2018-11-06T09:30:45Z</time>
      </trkpt>
      <trkpt lat="45.91936" lon="4.75879">
        <ele>172</ele>
        <time>2018-11-06T09:30:46Z</time>
      </trkpt>
      <trkpt lat="45.91933" lon="4.75887">
        <ele>172</ele>
        <time>2018-11-06T09:30:47Z</time>
      </trkpt>
      <trkpt lat="45.91929" lon="4.75895">
        <ele>172</ele>
        <time>2018-11-06T09:30:48Z</time>
      </trkpt>
      <trkpt lat="45.91925" lon="4.75903">
        <ele>172</ele>
        <time>2018-11-06T09:30:49Z</time>
      </trkpt>
      <trkpt lat="45.91922" lon="4.75912">
        <ele>172</ele>
        <time>2018-11-06T09:30:50Z</time>
      </trkpt>
      <trkpt lat="45.91921" lon="4.7592">
        <ele>172</ele>
        <time>2018-11-06T09:30:51Z</time>
      </trkpt>
      <trkpt lat="45.91917" lon="4.75931">
        <ele>172</ele>
        <time>2018-11-06T09:30:52Z</time>
      </trkpt>
      <trkpt lat="45.91915" lon="4.75938">
        <ele>173</ele>
        <time>2018-11-06T09:30:53Z</time>
      </trkpt>
      <trkpt lat="45.91913" lon="4.75946">
        <ele>173</ele>
        <time>2018-11-06T09:30:54Z</time>
      </trkpt>
      <trkpt lat="45.91911" lon="4.75957">
        <ele>173</ele>
        <time>2018-11-06T09:30:55Z</time>
      </trkpt>
      <trkpt lat="45.91908" lon="4.75966">
        <ele>173</ele>
        <time>2018-11-06T09:30:56Z</time>
      </trkpt>
      <trkpt lat="45.91906" lon="4.75976">
        <ele>173</ele>
        <time>2018-11-06T09:30:57Z</time>
      </trkpt>
      <trkpt lat="45.91904" lon="4.75984">
        <ele>173</ele>
        <time>2018-11-06T09:30:58Z</time>
      </trkpt>
      <trkpt lat="45.91902" lon="4.75993">
        <ele>173</ele>
        <time>2018-11-06T09:30:59Z</time>
      </trkpt>
      <trkpt lat="45.91899" lon="4.76002">
        <ele>173</ele>
        <time>2018-11-06T09:31:00Z</time>
      </trkpt>
      <trkpt lat="45.91896" lon="4.76011">
        <ele>173</ele>
        <time>2018-11-06T09:31:01Z</time>
      </trkpt>
      <trkpt lat="45.91895" lon="4.76019">
        <ele>173</ele>
        <time>2018-11-06T09:31:02Z</time>
      </trkpt>
      <trkpt lat="45.91892" lon="4.76028">
        <ele>173</ele>
        <time>2018-11-06T09:31:03Z</time>
      </trkpt>
      <trkpt lat="45.9189" lon="4.76037">
        <ele>173</ele>
        <time>2018-11-06T09:31:04Z</time>
      </trkpt>
      <trkpt lat="45.91888" lon="4.76046">
        <ele>173</ele>
        <time>2018-11-06T09:31:05Z</time>
      </trkpt>
      <trkpt lat="45.91885" lon="4.76056">
        <ele>173</ele>
        <time>2018-11-06T09:31:06Z</time>
      </trkpt>
      <trkpt lat="45.91883" lon="4.76065">
        <ele>173</ele>
        <time>2018-11-06T09:31:07Z</time>
      </trkpt>
      <trkpt lat="45.9188" lon="4.76073">
        <ele>173</ele>
        <time>2018-11-06T09:31:08Z</time>
      </trkpt>
      <trkpt lat="45.91878" lon="4.76081">
        <ele>173</ele>
        <time>2018-11-06T09:31:09Z</time>
      </trkpt>
      <trkpt lat="45.91876" lon="4.7609">
        <ele>173</ele>
        <time>2018-11-06T09:31:10Z</time>
      </trkpt>
      <trkpt lat="45.91874" lon="4.76099">
        <ele>173</ele>
        <time>2018-11-06T09:31:11Z</time>
      </trkpt>
      <trkpt lat="45.91871" lon="4.76109">
        <ele>173</ele>
        <time>2018-11-06T09:31:12Z</time>
      </trkpt>
      <trkpt lat="45.91869" lon="4.76118">
        <ele>173</ele>
        <time>2018-11-06T09:31:13Z</time>
      </trkpt>
      <trkpt lat="45.91867" lon="4.76126">
        <ele>173</ele>
        <time>2018-11-06T09:31:14Z</time>
      </trkpt>
      <trkpt lat="45.91864" lon="4.76136">
        <ele>173</ele>
        <time>2018-11-06T09:31:15Z</time>
      </trkpt>
      <trkpt lat="45.91862" lon="4.76144">
        <ele>173</ele>
        <time>2018-11-06T09:31:16Z</time>
      </trkpt>
      <trkpt lat="45.9186" lon="4.76153">
        <ele>173</ele>
        <time>2018-11-06T09:31:17Z</time>
      </trkpt>
      <trkpt lat="45.91857" lon="4.76163">
        <ele>173</ele>
        <time>2018-11-06T09:31:18Z</time>
      </trkpt>
      <trkpt lat="45.91854" lon="4.76171">
        <ele>172</ele>
        <time>2018-11-06T09:31:19Z</time>
      </trkpt>
      <trkpt lat="45.91851" lon="4.7618">
        <ele>172</ele>
        <time>2018-11-06T09:31:20Z</time>
      </trkpt>
      <trkpt lat="45.91849" lon="4.76188">
        <ele>172</ele>
        <time>2018-11-06T09:31:21Z</time>
      </trkpt>
      <trkpt lat="45.91846" lon="4.76197">
        <ele>172</ele>
        <time>2018-11-06T09:31:22Z</time>
      </trkpt>
      <trkpt lat="45.91844" lon="4.76206">
        <ele>172</ele>
        <time>2018-11-06T09:31:23Z</time>
      </trkpt>
      <trkpt lat="45.91841" lon="4.76216">
        <ele>172</ele>
        <time>2018-11-06T09:31:24Z</time>
      </trkpt>
      <trkpt lat="45.91839" lon="4.76225">
        <ele>172</ele>
        <time>2018-11-06T09:31:25Z</time>
      </trkpt>
      <trkpt lat="45.91837" lon="4.76235">
        <ele>173</ele>
        <time>2018-11-06T09:31:26Z</time>
      </trkpt>
      <trkpt lat="45.91834" lon="4.76245">
        <ele>173</ele>
        <time>2018-11-06T09:31:27Z</time>
      </trkpt>
      <trkpt lat="45.91832" lon="4.76256">
        <ele>173</ele>
        <time>2018-11-06T09:31:28Z</time>
      </trkpt>
      <trkpt lat="45.91829" lon="4.76264">
        <ele>174</ele>
        <time>2018-11-06T09:31:29Z</time>
      </trkpt>
      <trkpt lat="45.91827" lon="4.76274">
        <ele>174</ele>
        <time>2018-11-06T09:31:30Z</time>
      </trkpt>
      <trkpt lat="45.91825" lon="4.76284">
        <ele>174</ele>
        <time>2018-11-06T09:31:31Z</time>
      </trkpt>
      <trkpt lat="45.91822" lon="4.76294">
        <ele>174</ele>
        <time>2018-11-06T09:31:32Z</time>
      </trkpt>
      <trkpt lat="45.91819" lon="4.76304">
        <ele>174</ele>
        <time>2018-11-06T09:31:33Z</time>
      </trkpt>
      <trkpt lat="45.91817" lon="4.76313">
        <ele>174</ele>
        <time>2018-11-06T09:31:34Z</time>
      </trkpt>
      <trkpt lat="45.91816" lon="4.76322">
        <ele>174</ele>
        <time>2018-11-06T09:31:35Z</time>
      </trkpt>
      <trkpt lat="45.91814" lon="4.76332">
        <ele>174</ele>
        <time>2018-11-06T09:31:36Z</time>
      </trkpt>
      <trkpt lat="45.91812" lon="4.76341">
        <ele>174</ele>
        <time>2018-11-06T09:31:37Z</time>
      </trkpt>
      <trkpt lat="45.91811" lon="4.76351">
        <ele>174</ele>
        <time>2018-11-06T09:31:38Z</time>
      </trkpt>
      <trkpt lat="45.9181" lon="4.76361">
        <ele>174</ele>
        <time>2018-11-06T09:31:39Z</time>
      </trkpt>
      <trkpt lat="45.91809" lon="4.7637">
        <ele>174</ele>
        <time>2018-11-06T09:31:40Z</time>
      </trkpt>
      <trkpt lat="45.91807" lon="4.76379">
        <ele>174</ele>
        <time>2018-11-06T09:31:41Z</time>
      </trkpt>
      <trkpt lat="45.91808" lon="4.76388">
        <ele>174</ele>
        <time>2018-11-06T09:31:42Z</time>
      </trkpt>
      <trkpt lat="45.91807" lon="4.76396">
        <ele>174</ele>
        <time>2018-11-06T09:31:43Z</time>
      </trkpt>
      <trkpt lat="45.91807" lon="4.76405">
        <ele>173</ele>
        <time>2018-11-06T09:31:44Z</time>
      </trkpt>
      <trkpt lat="45.91806" lon="4.76414">
        <ele>173</ele>
        <time>2018-11-06T09:31:45Z</time>
      </trkpt>
      <trkpt lat="45.91806" lon="4.76423">
        <ele>173</ele>
        <time>2018-11-06T09:31:46Z</time>
      </trkpt>
      <trkpt lat="45.91806" lon="4.76433">
        <ele>173</ele>
        <time>2018-11-06T09:31:47Z</time>
      </trkpt>
      <trkpt lat="45.91806" lon="4.76443">
        <ele>173</ele>
        <time>2018-11-06T09:31:48Z</time>
      </trkpt>
      <trkpt lat="45.91805" lon="4.76451">
        <ele>173</ele>
        <time>2018-11-06T09:31:49Z</time>
      </trkpt>
      <trkpt lat="45.91804" lon="4.76461">
        <ele>173</ele>
        <time>2018-11-06T09:31:50Z</time>
      </trkpt>
      <trkpt lat="45.91803" lon="4.7647">
        <ele>173</ele>
        <time>2018-11-06T09:31:51Z</time>
      </trkpt>
      <trkpt lat="45.91802" lon="4.76479">
        <ele>173</ele>
        <time>2018-11-06T09:31:52Z</time>
      </trkpt>
      <trkpt lat="45.91802" lon="4.76489">
        <ele>173</ele>
        <time>2018-11-06T09:31:53Z</time>
      </trkpt>
      <trkpt lat="45.91801" lon="4.76498">
        <ele>173</ele>
        <time>2018-11-06T09:31:54Z</time>
      </trkpt>
      <trkpt lat="45.918" lon="4.76507">
        <ele>173</ele>
        <time>2018-11-06T09:31:55Z</time>
      </trkpt>
      <trkpt lat="45.918" lon="4.76516">
        <ele>173</ele>
        <time>2018-11-06T09:31:56Z</time>
      </trkpt>
      <trkpt lat="45.91799" lon="4.76526">
        <ele>173</ele>
        <time>2018-11-06T09:31:57Z</time>
      </trkpt>
      <trkpt lat="45.91799" lon="4.76535">
        <ele>173</ele>
        <time>2018-11-06T09:31:58Z</time>
      </trkpt>
      <trkpt lat="45.91797" lon="4.76542">
        <ele>173</ele>
        <time>2018-11-06T09:31:59Z</time>
      </trkpt>
      <trkpt lat="45.91796" lon="4.76551">
        <ele>173</ele>
        <time>2018-11-06T09:32:00Z</time>
      </trkpt>
      <trkpt lat="45.91796" lon="4.76562">
        <ele>173</ele>
        <time>2018-11-06T09:32:01Z</time>
      </trkpt>
      <trkpt lat="45.91794" lon="4.76573">
        <ele>173</ele>
        <time>2018-11-06T09:32:02Z</time>
      </trkpt>
      <trkpt lat="45.91794" lon="4.76584">
        <ele>173</ele>
        <time>2018-11-06T09:32:03Z</time>
      </trkpt>
      <trkpt lat="45.91793" lon="4.76592">
        <ele>173</ele>
        <time>2018-11-06T09:32:04Z</time>
      </trkpt>
      <trkpt lat="45.91792" lon="4.76602">
        <ele>173</ele>
        <time>2018-11-06T09:32:05Z</time>
      </trkpt>
      <trkpt lat="45.91791" lon="4.76611">
        <ele>173</ele>
        <time>2018-11-06T09:32:06Z</time>
      </trkpt>
      <trkpt lat="45.91789" lon="4.76621">
        <ele>173</ele>
        <time>2018-11-06T09:32:07Z</time>
      </trkpt>
      <trkpt lat="45.91788" lon="4.76631">
        <ele>173</ele>
        <time>2018-11-06T09:32:08Z</time>
      </trkpt>
      <trkpt lat="45.91788" lon="4.76642">
        <ele>173</ele>
        <time>2018-11-06T09:32:09Z</time>
      </trkpt>
      <trkpt lat="45.91786" lon="4.76651">
        <ele>173</ele>
        <time>2018-11-06T09:32:10Z</time>
      </trkpt>
      <trkpt lat="45.91784" lon="4.7666">
        <ele>173</ele>
        <time>2018-11-06T09:32:11Z</time>
      </trkpt>
      <trkpt lat="45.91783" lon="4.7667">
        <ele>172</ele>
        <time>2018-11-06T09:32:12Z</time>
      </trkpt>
      <trkpt lat="45.91783" lon="4.76679">
        <ele>172</ele>
        <time>2018-11-06T09:32:13Z</time>
      </trkpt>
      <trkpt lat="45.91782" lon="4.76689">
        <ele>172</ele>
        <time>2018-11-06T09:32:14Z</time>
      </trkpt>
      <trkpt lat="45.9178" lon="4.76698">
        <ele>172</ele>
        <time>2018-11-06T09:32:15Z</time>
      </trkpt>
      <trkpt lat="45.91779" lon="4.76707">
        <ele>172</ele>
        <time>2018-11-06T09:32:16Z</time>
      </trkpt>
      <trkpt lat="45.91779" lon="4.76716">
        <ele>172</ele>
        <time>2018-11-06T09:32:17Z</time>
      </trkpt>
      <trkpt lat="45.91778" lon="4.76726">
        <ele>172</ele>
        <time>2018-11-06T09:32:18Z</time>
      </trkpt>
      <trkpt lat="45.91777" lon="4.76735">
        <ele>172</ele>
        <time>2018-11-06T09:32:19Z</time>
      </trkpt>
      <trkpt lat="45.91777" lon="4.76746">
        <ele>172</ele>
        <time>2018-11-06T09:32:20Z</time>
      </trkpt>
      <trkpt lat="45.91776" lon="4.76756">
        <ele>171</ele>
        <time>2018-11-06T09:32:21Z</time>
      </trkpt>
      <trkpt lat="45.91776" lon="4.76765">
        <ele>171</ele>
        <time>2018-11-06T09:32:22Z</time>
      </trkpt>
      <trkpt lat="45.91775" lon="4.76776">
        <ele>171</ele>
        <time>2018-11-06T09:32:23Z</time>
      </trkpt>
      <trkpt lat="45.91774" lon="4.76785">
        <ele>171</ele>
        <time>2018-11-06T09:32:24Z</time>
      </trkpt>
      <trkpt lat="45.91774" lon="4.76797">
        <ele>171</ele>
        <time>2018-11-06T09:32:25Z</time>
      </trkpt>
      <trkpt lat="45.91774" lon="4.76807">
        <ele>171</ele>
        <time>2018-11-06T09:32:26Z</time>
      </trkpt>
      <trkpt lat="45.91774" lon="4.76819">
        <ele>171</ele>
        <time>2018-11-06T09:32:27Z</time>
      </trkpt>
      <trkpt lat="45.91774" lon="4.76829">
        <ele>171</ele>
        <time>2018-11-06T09:32:28Z</time>
      </trkpt>
      <trkpt lat="45.91774" lon="4.7684">
        <ele>171</ele>
        <time>2018-11-06T09:32:29Z</time>
      </trkpt>
      <trkpt lat="45.91773" lon="4.7685">
        <ele>170</ele>
        <time>2018-11-06T09:32:30Z</time>
      </trkpt>
      <trkpt lat="45.91774" lon="4.7686">
        <ele>170</ele>
        <time>2018-11-06T09:32:31Z</time>
      </trkpt>
      <trkpt lat="45.91773" lon="4.76871">
        <ele>170</ele>
        <time>2018-11-06T09:32:32Z</time>
      </trkpt>
      <trkpt lat="45.91773" lon="4.76882">
        <ele>170</ele>
        <time>2018-11-06T09:32:33Z</time>
      </trkpt>
      <trkpt lat="45.91773" lon="4.76892">
        <ele>170</ele>
        <time>2018-11-06T09:32:34Z</time>
      </trkpt>
      <trkpt lat="45.91773" lon="4.76902">
        <ele>170</ele>
        <time>2018-11-06T09:32:35Z</time>
      </trkpt>
      <trkpt lat="45.91773" lon="4.76913">
        <ele>170</ele>
        <time>2018-11-06T09:32:36Z</time>
      </trkpt>
      <trkpt lat="45.91774" lon="4.76922">
        <ele>170</ele>
        <time>2018-11-06T09:32:37Z</time>
      </trkpt>
      <trkpt lat="45.91773" lon="4.76933">
        <ele>169</ele>
        <time>2018-11-06T09:32:38Z</time>
      </trkpt>
      <trkpt lat="45.91772" lon="4.76942">
        <ele>169</ele>
        <time>2018-11-06T09:32:39Z</time>
      </trkpt>
      <trkpt lat="45.9177" lon="4.76953">
        <ele>169</ele>
        <time>2018-11-06T09:32:40Z</time>
      </trkpt>
      <trkpt lat="45.91769" lon="4.76961">
        <ele>169</ele>
        <time>2018-11-06T09:32:41Z</time>
      </trkpt>
      <trkpt lat="45.91767" lon="4.76971">
        <ele>169</ele>
        <time>2018-11-06T09:32:42Z</time>
      </trkpt>
      <trkpt lat="45.91766" lon="4.76982">
        <ele>169</ele>
        <time>2018-11-06T09:32:43Z</time>
      </trkpt>
      <trkpt lat="45.91765" lon="4.76992">
        <ele>169</ele>
        <time>2018-11-06T09:32:44Z</time>
      </trkpt>
      <trkpt lat="45.91764" lon="4.77002">
        <ele>169</ele>
        <time>2018-11-06T09:32:45Z</time>
      </trkpt>
      <trkpt lat="45.91762" lon="4.77012">
        <ele>169</ele>
        <time>2018-11-06T09:32:46Z</time>
      </trkpt>
      <trkpt lat="45.91759" lon="4.77023">
        <ele>169</ele>
        <time>2018-11-06T09:32:47Z</time>
      </trkpt>
      <trkpt lat="45.91758" lon="4.77033">
        <ele>169</ele>
        <time>2018-11-06T09:32:48Z</time>
      </trkpt>
      <trkpt lat="45.91757" lon="4.77043">
        <ele>169</ele>
        <time>2018-11-06T09:32:49Z</time>
      </trkpt>
      <trkpt lat="45.91756" lon="4.77052">
        <ele>169</ele>
        <time>2018-11-06T09:32:50Z</time>
      </trkpt>
      <trkpt lat="45.91754" lon="4.77063">
        <ele>169</ele>
        <time>2018-11-06T09:32:51Z</time>
      </trkpt>
      <trkpt lat="45.91754" lon="4.77073">
        <ele>169</ele>
        <time>2018-11-06T09:32:52Z</time>
      </trkpt>
      <trkpt lat="45.91752" lon="4.77082">
        <ele>169</ele>
        <time>2018-11-06T09:32:53Z</time>
      </trkpt>
      <trkpt lat="45.91751" lon="4.77092">
        <ele>169</ele>
        <time>2018-11-06T09:32:54Z</time>
      </trkpt>
      <trkpt lat="45.91749" lon="4.771">
        <ele>170</ele>
        <time>2018-11-06T09:32:55Z</time>
      </trkpt>
      <trkpt lat="45.91748" lon="4.77109">
        <ele>170</ele>
        <time>2018-11-06T09:32:56Z</time>
      </trkpt>
      <trkpt lat="45.91747" lon="4.77117">
        <ele>170</ele>
        <time>2018-11-06T09:32:57Z</time>
      </trkpt>
      <trkpt lat="45.91746" lon="4.77126">
        <ele>170</ele>
        <time>2018-11-06T09:32:58Z</time>
      </trkpt>
      <trkpt lat="45.91745" lon="4.77134">
        <ele>170</ele>
        <time>2018-11-06T09:32:59Z</time>
      </trkpt>
      <trkpt lat="45.91743" lon="4.7714">
        <ele>170</ele>
        <time>2018-11-06T09:33:00Z</time>
      </trkpt>
      <trkpt lat="45.91742" lon="4.77149">
        <ele>170</ele>
        <time>2018-11-06T09:33:01Z</time>
      </trkpt>
      <trkpt lat="45.9174" lon="4.77155">
        <ele>170</ele>
        <time>2018-11-06T09:33:02Z</time>
      </trkpt>
      <trkpt lat="45.91742" lon="4.77164">
        <ele>170</ele>
        <time>2018-11-06T09:33:03Z</time>
      </trkpt>
      <trkpt lat="45.91741" lon="4.77171">
        <ele>170</ele>
        <time>2018-11-06T09:33:04Z</time>
      </trkpt>
      <trkpt lat="45.9174" lon="4.77177">
        <ele>170</ele>
        <time>2018-11-06T09:33:05Z</time>
      </trkpt>
      <trkpt lat="45.91738" lon="4.77185">
        <ele>170</ele>
        <time>2018-11-06T09:33:06Z</time>
      </trkpt>
      <trkpt lat="45.91736" lon="4.77192">
        <ele>170</ele>
        <time>2018-11-06T09:33:07Z</time>
      </trkpt>
      <trkpt lat="45.91736" lon="4.772">
        <ele>170</ele>
        <time>2018-11-06T09:33:08Z</time>
      </trkpt>
      <trkpt lat="45.91734" lon="4.77207">
        <ele>170</ele>
        <time>2018-11-06T09:33:09Z</time>
      </trkpt>
      <trkpt lat="45.91733" lon="4.77217">
        <ele>170</ele>
        <time>2018-11-06T09:33:10Z</time>
      </trkpt>
      <trkpt lat="45.91732" lon="4.77224">
        <ele>170</ele>
        <time>2018-11-06T09:33:11Z</time>
      </trkpt>
      <trkpt lat="45.9173" lon="4.77232">
        <ele>170</ele>
        <time>2018-11-06T09:33:12Z</time>
      </trkpt>
      <trkpt lat="45.91729" lon="4.77239">
        <ele>169</ele>
        <time>2018-11-06T09:33:13Z</time>
      </trkpt>
      <trkpt lat="45.91727" lon="4.77248">
        <ele>169</ele>
        <time>2018-11-06T09:33:14Z</time>
      </trkpt>
      <trkpt lat="45.91725" lon="4.77257">
        <ele>170</ele>
        <time>2018-11-06T09:33:15Z</time>
      </trkpt>
      <trkpt lat="45.91724" lon="4.77265">
        <ele>170</ele>
        <time>2018-11-06T09:33:16Z</time>
      </trkpt>
      <trkpt lat="45.91722" lon="4.77275">
        <ele>170</ele>
        <time>2018-11-06T09:33:17Z</time>
      </trkpt>
      <trkpt lat="45.91721" lon="4.77285">
        <ele>170</ele>
        <time>2018-11-06T09:33:18Z</time>
      </trkpt>
      <trkpt lat="45.9172" lon="4.77295">
        <ele>170</ele>
        <time>2018-11-06T09:33:19Z</time>
      </trkpt>
      <trkpt lat="45.91718" lon="4.77305">
        <ele>170</ele>
        <time>2018-11-06T09:33:20Z</time>
      </trkpt>
      <trkpt lat="45.91717" lon="4.77313">
        <ele>170</ele>
        <time>2018-11-06T09:33:21Z</time>
      </trkpt>
      <trkpt lat="45.91715" lon="4.77322">
        <ele>170</ele>
        <time>2018-11-06T09:33:22Z</time>
      </trkpt>
      <trkpt lat="45.91713" lon="4.77331">
        <ele>170</ele>
        <time>2018-11-06T09:33:23Z</time>
      </trkpt>
      <trkpt lat="45.91713" lon="4.77341">
        <ele>171</ele>
        <time>2018-11-06T09:33:24Z</time>
      </trkpt>
      <trkpt lat="45.91711" lon="4.7735">
        <ele>171</ele>
        <time>2018-11-06T09:33:25Z</time>
      </trkpt>
      <trkpt lat="45.91709" lon="4.77359">
        <ele>171</ele>
        <time>2018-11-06T09:33:26Z</time>
      </trkpt>
      <trkpt lat="45.91709" lon="4.77367">
        <ele>171</ele>
        <time>2018-11-06T09:33:27Z</time>
      </trkpt>
      <trkpt lat="45.91708" lon="4.77375">
        <ele>171</ele>
        <time>2018-11-06T09:33:28Z</time>
      </trkpt>
      <trkpt lat="45.91706" lon="4.77384">
        <ele>171</ele>
        <time>2018-11-06T09:33:29Z</time>
      </trkpt>
      <trkpt lat="45.91704" lon="4.77394">
        <ele>171</ele>
        <time>2018-11-06T09:33:30Z</time>
      </trkpt>
      <trkpt lat="45.91702" lon="4.77404">
        <ele>171</ele>
        <time>2018-11-06T09:33:31Z</time>
      </trkpt>
      <trkpt lat="45.917" lon="4.77414">
        <ele>171</ele>
        <time>2018-11-06T09:33:32Z</time>
      </trkpt>
      <trkpt lat="45.91699" lon="4.77423">
        <ele>171</ele>
        <time>2018-11-06T09:33:33Z</time>
      </trkpt>
      <trkpt lat="45.91699" lon="4.77434">
        <ele>171</ele>
        <time>2018-11-06T09:33:34Z</time>
      </trkpt>
      <trkpt lat="45.91698" lon="4.77443">
        <ele>171</ele>
        <time>2018-11-06T09:33:35Z</time>
      </trkpt>
      <trkpt lat="45.91698" lon="4.77451">
        <ele>171</ele>
        <time>2018-11-06T09:33:36Z</time>
      </trkpt>
      <trkpt lat="45.91697" lon="4.7746">
        <ele>171</ele>
        <time>2018-11-06T09:33:37Z</time>
      </trkpt>
      <trkpt lat="45.91694" lon="4.77467">
        <ele>170</ele>
        <time>2018-11-06T09:33:38Z</time>
      </trkpt>
      <trkpt lat="45.91692" lon="4.77475">
        <ele>170</ele>
        <time>2018-11-06T09:33:39Z</time>
      </trkpt>
      <trkpt lat="45.9169" lon="4.77485">
        <ele>170</ele>
        <time>2018-11-06T09:33:40Z</time>
      </trkpt>
      <trkpt lat="45.91689" lon="4.77493">
        <ele>170</ele>
        <time>2018-11-06T09:33:41Z</time>
      </trkpt>
      <trkpt lat="45.91688" lon="4.77501">
        <ele>170</ele>
        <time>2018-11-06T09:33:42Z</time>
      </trkpt>
      <trkpt lat="45.91689" lon="4.77508">
        <ele>170</ele>
        <time>2018-11-06T09:33:43Z</time>
      </trkpt>
      <trkpt lat="45.91689" lon="4.77516">
        <ele>170</ele>
        <time>2018-11-06T09:33:44Z</time>
      </trkpt>
      <trkpt lat="45.91691" lon="4.77524">
        <ele>169</ele>
        <time>2018-11-06T09:33:45Z</time>
      </trkpt>
      <trkpt lat="45.9169" lon="4.77534">
        <ele>169</ele>
        <time>2018-11-06T09:33:46Z</time>
      </trkpt>
      <trkpt lat="45.91689" lon="4.77542">
        <ele>169</ele>
        <time>2018-11-06T09:33:47Z</time>
      </trkpt>
      <trkpt lat="45.91687" lon="4.77549">
        <ele>169</ele>
        <time>2018-11-06T09:33:48Z</time>
      </trkpt>
      <trkpt lat="45.91685" lon="4.77558">
        <ele>169</ele>
        <time>2018-11-06T09:33:49Z</time>
      </trkpt>
      <trkpt lat="45.91684" lon="4.77567">
        <ele>169</ele>
        <time>2018-11-06T09:33:50Z</time>
      </trkpt>
      <trkpt lat="45.91682" lon="4.77575">
        <ele>169</ele>
        <time>2018-11-06T09:33:51Z</time>
      </trkpt>
      <trkpt lat="45.9168" lon="4.77583">
        <ele>169</ele>
        <time>2018-11-06T09:33:52Z</time>
      </trkpt>
      <trkpt lat="45.91678" lon="4.77595">
        <ele>169</ele>
        <time>2018-11-06T09:33:53Z</time>
      </trkpt>
      <trkpt lat="45.91676" lon="4.77603">
        <ele>169</ele>
        <time>2018-11-06T09:33:54Z</time>
      </trkpt>
      <trkpt lat="45.91674" lon="4.77612">
        <ele>169</ele>
        <time>2018-11-06T09:33:55Z</time>
      </trkpt>
      <trkpt lat="45.91672" lon="4.77621">
        <ele>169</ele>
        <time>2018-11-06T09:33:56Z</time>
      </trkpt>
      <trkpt lat="45.9167" lon="4.77629">
        <ele>169</ele>
        <time>2018-11-06T09:33:57Z</time>
      </trkpt>
      <trkpt lat="45.91668" lon="4.77638">
        <ele>169</ele>
        <time>2018-11-06T09:33:58Z</time>
      </trkpt>
      <trkpt lat="45.91666" lon="4.77647">
        <ele>170</ele>
        <time>2018-11-06T09:33:59Z</time>
      </trkpt>
      <trkpt lat="45.91664" lon="4.77656">
        <ele>170</ele>
        <time>2018-11-06T09:34:00Z</time>
      </trkpt>
      <trkpt lat="45.91662" lon="4.77666">
        <ele>169</ele>
        <time>2018-11-06T09:34:01Z</time>
      </trkpt>
      <trkpt lat="45.9166" lon="4.77674">
        <ele>170</ele>
        <time>2018-11-06T09:34:02Z</time>
      </trkpt>
      <trkpt lat="45.91658" lon="4.77683">
        <ele>170</ele>
        <time>2018-11-06T09:34:03Z</time>
      </trkpt>
      <trkpt lat="45.91656" lon="4.77692">
        <ele>170</ele>
        <time>2018-11-06T09:34:04Z</time>
      </trkpt>
      <trkpt lat="45.91654" lon="4.77701">
        <ele>170</ele>
        <time>2018-11-06T09:34:05Z</time>
      </trkpt>
      <trkpt lat="45.91651" lon="4.7771">
        <ele>170</ele>
        <time>2018-11-06T09:34:06Z</time>
      </trkpt>
      <trkpt lat="45.91649" lon="4.77718">
        <ele>170</ele>
        <time>2018-11-06T09:34:07Z</time>
      </trkpt>
      <trkpt lat="45.91647" lon="4.77726">
        <ele>170</ele>
        <time>2018-11-06T09:34:08Z</time>
      </trkpt>
      <trkpt lat="45.91645" lon="4.77736">
        <ele>170</ele>
        <time>2018-11-06T09:34:09Z</time>
      </trkpt>
      <trkpt lat="45.91643" lon="4.77746">
        <ele>170</ele>
        <time>2018-11-06T09:34:10Z</time>
      </trkpt>
      <trkpt lat="45.9164" lon="4.77753">
        <ele>171</ele>
        <time>2018-11-06T09:34:11Z</time>
      </trkpt>
      <trkpt lat="45.91637" lon="4.77761">
        <ele>171</ele>
        <time>2018-11-06T09:34:12Z</time>
      </trkpt>
      <trkpt lat="45.91634" lon="4.77771">
        <ele>171</ele>
        <time>2018-11-06T09:34:13Z</time>
      </trkpt>
      <trkpt lat="45.91632" lon="4.77779">
        <ele>171</ele>
        <time>2018-11-06T09:34:14Z</time>
      </trkpt>
      <trkpt lat="45.91629" lon="4.77787">
        <ele>172</ele>
        <time>2018-11-06T09:34:15Z</time>
      </trkpt>
      <trkpt lat="45.91626" lon="4.77796">
        <ele>172</ele>
        <time>2018-11-06T09:34:16Z</time>
      </trkpt>
      <trkpt lat="45.91623" lon="4.77804">
        <ele>172</ele>
        <time>2018-11-06T09:34:17Z</time>
      </trkpt>
      <trkpt lat="45.9162" lon="4.77812">
        <ele>172</ele>
        <time>2018-11-06T09:34:18Z</time>
      </trkpt>
      <trkpt lat="45.91617" lon="4.77819">
        <ele>172</ele>
        <time>2018-11-06T09:34:19Z</time>
      </trkpt>
      <trkpt lat="45.91614" lon="4.77825">
        <ele>173</ele>
        <time>2018-11-06T09:34:20Z</time>
      </trkpt>
      <trkpt lat="45.91612" lon="4.77832">
        <ele>173</ele>
        <time>2018-11-06T09:34:21Z</time>
      </trkpt>
      <trkpt lat="45.91609" lon="4.77839">
        <ele>173</ele>
        <time>2018-11-06T09:34:22Z</time>
      </trkpt>
      <trkpt lat="45.91606" lon="4.77844">
        <ele>173</ele>
        <time>2018-11-06T09:34:23Z</time>
      </trkpt>
      <trkpt lat="45.91602" lon="4.7785">
        <ele>173</ele>
        <time>2018-11-06T09:34:24Z</time>
      </trkpt>
      <trkpt lat="45.916" lon="4.77857">
        <ele>173</ele>
        <time>2018-11-06T09:34:25Z</time>
      </trkpt>
      <trkpt lat="45.91597" lon="4.77863">
        <ele>173</ele>
        <time>2018-11-06T09:34:26Z</time>
      </trkpt>
      <trkpt lat="45.91593" lon="4.77869">
        <ele>173</ele>
        <time>2018-11-06T09:34:27Z</time>
      </trkpt>
      <trkpt lat="45.91591" lon="4.77876">
        <ele>173</ele>
        <time>2018-11-06T09:34:28Z</time>
      </trkpt>
      <trkpt lat="45.91589" lon="4.77883">
        <ele>173</ele>
        <time>2018-11-06T09:34:29Z</time>
      </trkpt>
      <trkpt lat="45.91585" lon="4.7789">
        <ele>173</ele>
        <time>2018-11-06T09:34:30Z</time>
      </trkpt>
      <trkpt lat="45.91582" lon="4.77897">
        <ele>175</ele>
        <time>2018-11-06T09:34:31Z</time>
      </trkpt>
      <trkpt lat="45.91579" lon="4.77904">
        <ele>175</ele>
        <time>2018-11-06T09:34:32Z</time>
      </trkpt>
      <trkpt lat="45.91576" lon="4.77912">
        <ele>174</ele>
        <time>2018-11-06T09:34:33Z</time>
      </trkpt>
      <trkpt lat="45.91572" lon="4.77919">
        <ele>174</ele>
        <time>2018-11-06T09:34:34Z</time>
      </trkpt>
      <trkpt lat="45.91569" lon="4.77927">
        <ele>174</ele>
        <time>2018-11-06T09:34:35Z</time>
      </trkpt>
      <trkpt lat="45.91566" lon="4.77935">
        <ele>175</ele>
        <time>2018-11-06T09:34:36Z</time>
      </trkpt>
      <trkpt lat="45.91563" lon="4.77942">
        <ele>175</ele>
        <time>2018-11-06T09:34:37Z</time>
      </trkpt>
      <trkpt lat="45.91559" lon="4.7795">
        <ele>175</ele>
        <time>2018-11-06T09:34:38Z</time>
      </trkpt>
      <trkpt lat="45.91557" lon="4.77958">
        <ele>175</ele>
        <time>2018-11-06T09:34:39Z</time>
      </trkpt>
      <trkpt lat="45.91553" lon="4.77966">
        <ele>175</ele>
        <time>2018-11-06T09:34:40Z</time>
      </trkpt>
      <trkpt lat="45.9155" lon="4.77973">
        <ele>175</ele>
        <time>2018-11-06T09:34:41Z</time>
      </trkpt>
      <trkpt lat="45.91547" lon="4.7798">
        <ele>175</ele>
        <time>2018-11-06T09:34:42Z</time>
      </trkpt>
      <trkpt lat="45.91543" lon="4.77988">
        <ele>175</ele>
        <time>2018-11-06T09:34:43Z</time>
      </trkpt>
      <trkpt lat="45.91539" lon="4.77995">
        <ele>175</ele>
        <time>2018-11-06T09:34:44Z</time>
      </trkpt>
      <trkpt lat="45.91536" lon="4.78002">
        <ele>175</ele>
        <time>2018-11-06T09:34:45Z</time>
      </trkpt>
      <trkpt lat="45.91532" lon="4.78009">
        <ele>175</ele>
        <time>2018-11-06T09:34:46Z</time>
      </trkpt>
      <trkpt lat="45.91529" lon="4.78016">
        <ele>175</ele>
        <time>2018-11-06T09:34:47Z</time>
      </trkpt>
      <trkpt lat="45.91525" lon="4.78024">
        <ele>175</ele>
        <time>2018-11-06T09:34:48Z</time>
      </trkpt>
      <trkpt lat="45.91522" lon="4.78032">
        <ele>175</ele>
        <time>2018-11-06T09:34:49Z</time>
      </trkpt>
      <trkpt lat="45.91518" lon="4.7804">
        <ele>175</ele>
        <time>2018-11-06T09:34:50Z</time>
      </trkpt>
      <trkpt lat="45.91515" lon="4.78048">
        <ele>175</ele>
        <time>2018-11-06T09:34:51Z</time>
      </trkpt>
      <trkpt lat="45.91512" lon="4.78055">
        <ele>175</ele>
        <time>2018-11-06T09:34:52Z</time>
      </trkpt>
      <trkpt lat="45.91507" lon="4.78062">
        <ele>175</ele>
        <time>2018-11-06T09:34:53Z</time>
      </trkpt>
      <trkpt lat="45.91504" lon="4.78069">
        <ele>176</ele>
        <time>2018-11-06T09:34:54Z</time>
      </trkpt>
      <trkpt lat="45.91501" lon="4.78076">
        <ele>176</ele>
        <time>2018-11-06T09:34:55Z</time>
      </trkpt>
      <trkpt lat="45.91498" lon="4.78084">
        <ele>177</ele>
        <time>2018-11-06T09:34:56Z</time>
      </trkpt>
      <trkpt lat="45.91495" lon="4.78091">
        <ele>177</ele>
        <time>2018-11-06T09:34:57Z</time>
      </trkpt>
      <trkpt lat="45.91491" lon="4.78098">
        <ele>177</ele>
        <time>2018-11-06T09:34:58Z</time>
      </trkpt>
      <trkpt lat="45.91488" lon="4.78105">
        <ele>177</ele>
        <time>2018-11-06T09:34:59Z</time>
      </trkpt>
      <trkpt lat="45.91484" lon="4.78112">
        <ele>177</ele>
        <time>2018-11-06T09:35:00Z</time>
      </trkpt>
      <trkpt lat="45.91481" lon="4.78119">
        <ele>177</ele>
        <time>2018-11-06T09:35:01Z</time>
      </trkpt>
      <trkpt lat="45.91478" lon="4.78126">
        <ele>177</ele>
        <time>2018-11-06T09:35:02Z</time>
      </trkpt>
      <trkpt lat="45.91474" lon="4.78134">
        <ele>177</ele>
        <time>2018-11-06T09:35:03Z</time>
      </trkpt>
      <trkpt lat="45.9147" lon="4.7814">
        <ele>177</ele>
        <time>2018-11-06T09:35:04Z</time>
      </trkpt>
      <trkpt lat="45.91467" lon="4.78147">
        <ele>177</ele>
        <time>2018-11-06T09:35:05Z</time>
      </trkpt>
      <trkpt lat="45.91462" lon="4.78155">
        <ele>177</ele>
        <time>2018-11-06T09:35:06Z</time>
      </trkpt>
      <trkpt lat="45.91459" lon="4.78162">
        <ele>177</ele>
        <time>2018-11-06T09:35:07Z</time>
      </trkpt>
      <trkpt lat="45.91457" lon="4.78169">
        <ele>177</ele>
        <time>2018-11-06T09:35:08Z</time>
      </trkpt>
      <trkpt lat="45.91453" lon="4.78176">
        <ele>177</ele>
        <time>2018-11-06T09:35:09Z</time>
      </trkpt>
      <trkpt lat="45.91449" lon="4.78183">
        <ele>177</ele>
        <time>2018-11-06T09:35:10Z</time>
      </trkpt>
      <trkpt lat="45.91447" lon="4.78189">
        <ele>177</ele>
        <time>2018-11-06T09:35:11Z</time>
      </trkpt>
      <trkpt lat="45.91444" lon="4.78197">
        <ele>177</ele>
        <time>2018-11-06T09:35:12Z</time>
      </trkpt>
      <trkpt lat="45.91442" lon="4.78204">
        <ele>177</ele>
        <time>2018-11-06T09:35:13Z</time>
      </trkpt>
      <trkpt lat="45.91438" lon="4.7821">
        <ele>177</ele>
        <time>2018-11-06T09:35:14Z</time>
      </trkpt>
      <trkpt lat="45.91435" lon="4.78217">
        <ele>177</ele>
        <time>2018-11-06T09:35:15Z</time>
      </trkpt>
      <trkpt lat="45.91431" lon="4.78223">
        <ele>177</ele>
        <time>2018-11-06T09:35:16Z</time>
      </trkpt>
      <trkpt lat="45.91427" lon="4.7823">
        <ele>177</ele>
        <time>2018-11-06T09:35:17Z</time>
      </trkpt>
      <trkpt lat="45.91424" lon="4.78237">
        <ele>177</ele>
        <time>2018-11-06T09:35:18Z</time>
      </trkpt>
      <trkpt lat="45.91421" lon="4.78244">
        <ele>177</ele>
        <time>2018-11-06T09:35:19Z</time>
      </trkpt>
      <trkpt lat="45.91419" lon="4.78251">
        <ele>177</ele>
        <time>2018-11-06T09:35:20Z</time>
      </trkpt>
      <trkpt lat="45.91416" lon="4.78257">
        <ele>177</ele>
        <time>2018-11-06T09:35:21Z</time>
      </trkpt>
      <trkpt lat="45.91413" lon="4.78263">
        <ele>177</ele>
        <time>2018-11-06T09:35:22Z</time>
      </trkpt>
      <trkpt lat="45.9141" lon="4.78271">
        <ele>177</ele>
        <time>2018-11-06T09:35:23Z</time>
      </trkpt>
      <trkpt lat="45.91407" lon="4.78277">
        <ele>177</ele>
        <time>2018-11-06T09:35:24Z</time>
      </trkpt>
      <trkpt lat="45.91405" lon="4.78283">
        <ele>177</ele>
        <time>2018-11-06T09:35:25Z</time>
      </trkpt>
      <trkpt lat="45.91402" lon="4.78291">
        <ele>177</ele>
        <time>2018-11-06T09:35:26Z</time>
      </trkpt>
      <trkpt lat="45.91399" lon="4.78297">
        <ele>177</ele>
        <time>2018-11-06T09:35:27Z</time>
      </trkpt>
      <trkpt lat="45.91395" lon="4.78302">
        <ele>177</ele>
        <time>2018-11-06T09:35:28Z</time>
      </trkpt>
      <trkpt lat="45.91393" lon="4.7831">
        <ele>177</ele>
        <time>2018-11-06T09:35:29Z</time>
      </trkpt>
      <trkpt lat="45.9139" lon="4.78315">
        <ele>177</ele>
        <time>2018-11-06T09:35:30Z</time>
      </trkpt>
      <trkpt lat="45.91388" lon="4.78322">
        <ele>177</ele>
        <time>2018-11-06T09:35:31Z</time>
      </trkpt>
      <trkpt lat="45.91385" lon="4.78329">
        <ele>177</ele>
        <time>2018-11-06T09:35:32Z</time>
      </trkpt>
      <trkpt lat="45.91382" lon="4.78335">
        <ele>177</ele>
        <time>2018-11-06T09:35:33Z</time>
      </trkpt>
      <trkpt lat="45.91379" lon="4.78341">
        <ele>177</ele>
        <time>2018-11-06T09:35:34Z</time>
      </trkpt>
      <trkpt lat="45.91376" lon="4.78348">
        <ele>177</ele>
        <time>2018-11-06T09:35:35Z</time>
      </trkpt>
      <trkpt lat="45.91373" lon="4.78354">
        <ele>177</ele>
        <time>2018-11-06T09:35:36Z</time>
      </trkpt>
      <trkpt lat="45.9137" lon="4.7836">
        <ele>177</ele>
        <time>2018-11-06T09:35:37Z</time>
      </trkpt>
      <trkpt lat="45.91367" lon="4.78366">
        <ele>177</ele>
        <time>2018-11-06T09:35:38Z</time>
      </trkpt>
      <trkpt lat="45.91365" lon="4.78373">
        <ele>177</ele>
        <time>2018-11-06T09:35:39Z</time>
      </trkpt>
      <trkpt lat="45.91362" lon="4.78378">
        <ele>177</ele>
        <time>2018-11-06T09:35:40Z</time>
      </trkpt>
      <trkpt lat="45.9136" lon="4.78386">
        <ele>176</ele>
        <time>2018-11-06T09:35:41Z</time>
      </trkpt>
      <trkpt lat="45.91357" lon="4.78392">
        <ele>176</ele>
        <time>2018-11-06T09:35:42Z</time>
      </trkpt>
      <trkpt lat="45.91354" lon="4.78399">
        <ele>176</ele>
        <time>2018-11-06T09:35:43Z</time>
      </trkpt>
      <trkpt lat="45.9135" lon="4.78405">
        <ele>176</ele>
        <time>2018-11-06T09:35:44Z</time>
      </trkpt>
      <trkpt lat="45.91347" lon="4.78412">
        <ele>176</ele>
        <time>2018-11-06T09:35:45Z</time>
      </trkpt>
      <trkpt lat="45.91345" lon="4.78419">
        <ele>176</ele>
        <time>2018-11-06T09:35:46Z</time>
      </trkpt>
      <trkpt lat="45.91342" lon="4.78426">
        <ele>176</ele>
        <time>2018-11-06T09:35:47Z</time>
      </trkpt>
      <trkpt lat="45.91338" lon="4.78433">
        <ele>176</ele>
        <time>2018-11-06T09:35:48Z</time>
      </trkpt>
      <trkpt lat="45.91335" lon="4.78439">
        <ele>176</ele>
        <time>2018-11-06T09:35:49Z</time>
      </trkpt>
      <trkpt lat="45.91331" lon="4.78446">
        <ele>176</ele>
        <time>2018-11-06T09:35:50Z</time>
      </trkpt>
      <trkpt lat="45.91329" lon="4.78452">
        <ele>176</ele>
        <time>2018-11-06T09:35:51Z</time>
      </trkpt>
      <trkpt lat="45.91325" lon="4.78459">
        <ele>176</ele>
        <time>2018-11-06T09:35:52Z</time>
      </trkpt>
      <trkpt lat="45.91322" lon="4.78466">
        <ele>176</ele>
        <time>2018-11-06T09:35:53Z</time>
      </trkpt>
      <trkpt lat="45.91319" lon="4.78472">
        <ele>176</ele>
        <time>2018-11-06T09:35:54Z</time>
      </trkpt>
      <trkpt lat="45.91317" lon="4.78478">
        <ele>176</ele>
        <time>2018-11-06T09:35:55Z</time>
      </trkpt>
      <trkpt lat="45.91314" lon="4.78484">
        <ele>176</ele>
        <time>2018-11-06T09:35:56Z</time>
      </trkpt>
      <trkpt lat="45.91311" lon="4.78491">
        <ele>175</ele>
        <time>2018-11-06T09:35:57Z</time>
      </trkpt>
      <trkpt lat="45.91308" lon="4.78497">
        <ele>176</ele>
        <time>2018-11-06T09:35:58Z</time>
      </trkpt>
      <trkpt lat="45.91305" lon="4.78503">
        <ele>175</ele>
        <time>2018-11-06T09:35:59Z</time>
      </trkpt>
      <trkpt lat="45.91301" lon="4.78509">
        <ele>175</ele>
        <time>2018-11-06T09:36:00Z</time>
      </trkpt>
      <trkpt lat="45.91298" lon="4.78515">
        <ele>175</ele>
        <time>2018-11-06T09:36:01Z</time>
      </trkpt>
      <trkpt lat="45.91295" lon="4.78523">
        <ele>175</ele>
        <time>2018-11-06T09:36:02Z</time>
      </trkpt>
      <trkpt lat="45.91292" lon="4.7853">
        <ele>175</ele>
        <time>2018-11-06T09:36:03Z</time>
      </trkpt>
      <trkpt lat="45.91289" lon="4.78537">
        <ele>176</ele>
        <time>2018-11-06T09:36:04Z</time>
      </trkpt>
      <trkpt lat="45.91285" lon="4.78543">
        <ele>176</ele>
        <time>2018-11-06T09:36:05Z</time>
      </trkpt>
      <trkpt lat="45.91282" lon="4.78549">
        <ele>176</ele>
        <time>2018-11-06T09:36:06Z</time>
      </trkpt>
      <trkpt lat="45.91279" lon="4.78557">
        <ele>176</ele>
        <time>2018-11-06T09:36:07Z</time>
      </trkpt>
      <trkpt lat="45.91276" lon="4.78564">
        <ele>176</ele>
        <time>2018-11-06T09:36:08Z</time>
      </trkpt>
      <trkpt lat="45.91273" lon="4.78571">
        <ele>176</ele>
        <time>2018-11-06T09:36:09Z</time>
      </trkpt>
      <trkpt lat="45.9127" lon="4.78579">
        <ele>176</ele>
        <time>2018-11-06T09:36:10Z</time>
      </trkpt>
      <trkpt lat="45.91267" lon="4.78585">
        <ele>176</ele>
        <time>2018-11-06T09:36:11Z</time>
      </trkpt>
      <trkpt lat="45.91265" lon="4.78593">
        <ele>176</ele>
        <time>2018-11-06T09:36:12Z</time>
      </trkpt>
      <trkpt lat="45.91261" lon="4.786">
        <ele>176</ele>
        <time>2018-11-06T09:36:13Z</time>
      </trkpt>
      <trkpt lat="45.91258" lon="4.78607">
        <ele>176</ele>
        <time>2018-11-06T09:36:14Z</time>
      </trkpt>
      <trkpt lat="45.91254" lon="4.78614">
        <ele>176</ele>
        <time>2018-11-06T09:36:15Z</time>
      </trkpt>
      <trkpt lat="45.91252" lon="4.78621">
        <ele>176</ele>
        <time>2018-11-06T09:36:16Z</time>
      </trkpt>
      <trkpt lat="45.91248" lon="4.78628">
        <ele>177</ele>
        <time>2018-11-06T09:36:17Z</time>
      </trkpt>
      <trkpt lat="45.91245" lon="4.78636">
        <ele>177</ele>
        <time>2018-11-06T09:36:18Z</time>
      </trkpt>
      <trkpt lat="45.91243" lon="4.78642">
        <ele>177</ele>
        <time>2018-11-06T09:36:19Z</time>
      </trkpt>
      <trkpt lat="45.9124" lon="4.78651">
        <ele>177</ele>
        <time>2018-11-06T09:36:20Z</time>
      </trkpt>
      <trkpt lat="45.91237" lon="4.78657">
        <ele>177</ele>
        <time>2018-11-06T09:36:21Z</time>
      </trkpt>
      <trkpt lat="45.91232" lon="4.78663">
        <ele>177</ele>
        <time>2018-11-06T09:36:22Z</time>
      </trkpt>
      <trkpt lat="45.91228" lon="4.78672">
        <ele>177</ele>
        <time>2018-11-06T09:36:23Z</time>
      </trkpt>
      <trkpt lat="45.91224" lon="4.78678">
        <ele>177</ele>
        <time>2018-11-06T09:36:24Z</time>
      </trkpt>
      <trkpt lat="45.9122" lon="4.78684">
        <ele>177</ele>
        <time>2018-11-06T09:36:25Z</time>
      </trkpt>
      <trkpt lat="45.91217" lon="4.78691">
        <ele>177</ele>
        <time>2018-11-06T09:36:26Z</time>
      </trkpt>
      <trkpt lat="45.91213" lon="4.78698">
        <ele>177</ele>
        <time>2018-11-06T09:36:27Z</time>
      </trkpt>
      <trkpt lat="45.9121" lon="4.78704">
        <ele>177</ele>
        <time>2018-11-06T09:36:28Z</time>
      </trkpt>
      <trkpt lat="45.91208" lon="4.78711">
        <ele>177</ele>
        <time>2018-11-06T09:36:29Z</time>
      </trkpt>
      <trkpt lat="45.91204" lon="4.7872">
        <ele>177</ele>
        <time>2018-11-06T09:36:30Z</time>
      </trkpt>
      <trkpt lat="45.91201" lon="4.78728">
        <ele>177</ele>
        <time>2018-11-06T09:36:31Z</time>
      </trkpt>
      <trkpt lat="45.91198" lon="4.78734">
        <ele>177</ele>
        <time>2018-11-06T09:36:32Z</time>
      </trkpt>
      <trkpt lat="45.91195" lon="4.78743">
        <ele>177</ele>
        <time>2018-11-06T09:36:33Z</time>
      </trkpt>
      <trkpt lat="45.91191" lon="4.78749">
        <ele>177</ele>
        <time>2018-11-06T09:36:34Z</time>
      </trkpt>
      <trkpt lat="45.91188" lon="4.78757">
        <ele>177</ele>
        <time>2018-11-06T09:36:35Z</time>
      </trkpt>
      <trkpt lat="45.91183" lon="4.78762">
        <ele>177</ele>
        <time>2018-11-06T09:36:36Z</time>
      </trkpt>
      <trkpt lat="45.91182" lon="4.78771">
        <ele>177</ele>
        <time>2018-11-06T09:36:37Z</time>
      </trkpt>
      <trkpt lat="45.91178" lon="4.78778">
        <ele>177</ele>
        <time>2018-11-06T09:36:38Z</time>
      </trkpt>
      <trkpt lat="45.91174" lon="4.78784">
        <ele>177</ele>
        <time>2018-11-06T09:36:39Z</time>
      </trkpt>
      <trkpt lat="45.9117" lon="4.78792">
        <ele>177</ele>
        <time>2018-11-06T09:36:40Z</time>
      </trkpt>
      <trkpt lat="45.91167" lon="4.78799">
        <ele>176</ele>
        <time>2018-11-06T09:36:41Z</time>
      </trkpt>
      <trkpt lat="45.91163" lon="4.78806">
        <ele>176</ele>
        <time>2018-11-06T09:36:42Z</time>
      </trkpt>
      <trkpt lat="45.91158" lon="4.78812">
        <ele>176</ele>
        <time>2018-11-06T09:36:43Z</time>
      </trkpt>
      <trkpt lat="45.91154" lon="4.78818">
        <ele>176</ele>
        <time>2018-11-06T09:36:44Z</time>
      </trkpt>
      <trkpt lat="45.9115" lon="4.78825">
        <ele>176</ele>
        <time>2018-11-06T09:36:45Z</time>
      </trkpt>
      <trkpt lat="45.91147" lon="4.78832">
        <ele>176</ele>
        <time>2018-11-06T09:36:46Z</time>
      </trkpt>
      <trkpt lat="45.91143" lon="4.7884">
        <ele>176</ele>
        <time>2018-11-06T09:36:47Z</time>
      </trkpt>
      <trkpt lat="45.91139" lon="4.78847">
        <ele>176</ele>
        <time>2018-11-06T09:36:48Z</time>
      </trkpt>
      <trkpt lat="45.91136" lon="4.78854">
        <ele>176</ele>
        <time>2018-11-06T09:36:49Z</time>
      </trkpt>
      <trkpt lat="45.91132" lon="4.78861">
        <ele>176</ele>
        <time>2018-11-06T09:36:50Z</time>
      </trkpt>
      <trkpt lat="45.91128" lon="4.78867">
        <ele>176</ele>
        <time>2018-11-06T09:36:51Z</time>
      </trkpt>
      <trkpt lat="45.91124" lon="4.78874">
        <ele>176</ele>
        <time>2018-11-06T09:36:52Z</time>
      </trkpt>
      <trkpt lat="45.91121" lon="4.78881">
        <ele>176</ele>
        <time>2018-11-06T09:36:53Z</time>
      </trkpt>
      <trkpt lat="45.91117" lon="4.78887">
        <ele>176</ele>
        <time>2018-11-06T09:36:54Z</time>
      </trkpt>
      <trkpt lat="45.91112" lon="4.78894">
        <ele>176</ele>
        <time>2018-11-06T09:36:55Z</time>
      </trkpt>
      <trkpt lat="45.91109" lon="4.789">
        <ele>176</ele>
        <time>2018-11-06T09:36:56Z</time>
      </trkpt>
      <trkpt lat="45.91104" lon="4.78907">
        <ele>177</ele>
        <time>2018-11-06T09:36:57Z</time>
      </trkpt>
      <trkpt lat="45.91101" lon="4.78913">
        <ele>177</ele>
        <time>2018-11-06T09:36:58Z</time>
      </trkpt>
      <trkpt lat="45.91097" lon="4.7892">
        <ele>177</ele>
        <time>2018-11-06T09:36:59Z</time>
      </trkpt>
      <trkpt lat="45.91093" lon="4.78928">
        <ele>177</ele>
        <time>2018-11-06T09:37:00Z</time>
      </trkpt>
      <trkpt lat="45.91089" lon="4.78934">
        <ele>177</ele>
        <time>2018-11-06T09:37:01Z</time>
      </trkpt>
      <trkpt lat="45.91084" lon="4.78939">
        <ele>177</ele>
        <time>2018-11-06T09:37:02Z</time>
      </trkpt>
      <trkpt lat="45.9108" lon="4.78947">
        <ele>177</ele>
        <time>2018-11-06T09:37:03Z</time>
      </trkpt>
      <trkpt lat="45.91077" lon="4.78954">
        <ele>177</ele>
        <time>2018-11-06T09:37:04Z</time>
      </trkpt>
      <trkpt lat="45.91074" lon="4.78962">
        <ele>177</ele>
        <time>2018-11-06T09:37:05Z</time>
      </trkpt>
      <trkpt lat="45.9107" lon="4.78968">
        <ele>177</ele>
        <time>2018-11-06T09:37:06Z</time>
      </trkpt>
      <trkpt lat="45.91066" lon="4.78974">
        <ele>177</ele>
        <time>2018-11-06T09:37:07Z</time>
      </trkpt>
      <trkpt lat="45.91062" lon="4.78981">
        <ele>177</ele>
        <time>2018-11-06T09:37:08Z</time>
      </trkpt>
      <trkpt lat="45.91059" lon="4.78987">
        <ele>177</ele>
        <time>2018-11-06T09:37:09Z</time>
      </trkpt>
      <trkpt lat="45.91055" lon="4.78994">
        <ele>177</ele>
        <time>2018-11-06T09:37:10Z</time>
      </trkpt>
      <trkpt lat="45.91052" lon="4.79">
        <ele>177</ele>
        <time>2018-11-06T09:37:11Z</time>
      </trkpt>
      <trkpt lat="45.91048" lon="4.79007">
        <ele>177</ele>
        <time>2018-11-06T09:37:12Z</time>
      </trkpt>
      <trkpt lat="45.91045" lon="4.79014">
        <ele>176</ele>
        <time>2018-11-06T09:37:13Z</time>
      </trkpt>
      <trkpt lat="45.91041" lon="4.79021">
        <ele>176</ele>
        <time>2018-11-06T09:37:14Z</time>
      </trkpt>
      <trkpt lat="45.91038" lon="4.79028">
        <ele>176</ele>
        <time>2018-11-06T09:37:15Z</time>
      </trkpt>
      <trkpt lat="45.91035" lon="4.79035">
        <ele>176</ele>
        <time>2018-11-06T09:37:16Z</time>
      </trkpt>
      <trkpt lat="45.91031" lon="4.79041">
        <ele>176</ele>
        <time>2018-11-06T09:37:17Z</time>
      </trkpt>
      <trkpt lat="45.91028" lon="4.79048">
        <ele>176</ele>
        <time>2018-11-06T09:37:18Z</time>
      </trkpt>
      <trkpt lat="45.91024" lon="4.79054">
        <ele>176</ele>
        <time>2018-11-06T09:37:19Z</time>
      </trkpt>
      <trkpt lat="45.9102" lon="4.7906">
        <ele>176</ele>
        <time>2018-11-06T09:37:20Z</time>
      </trkpt>
      <trkpt lat="45.91017" lon="4.79068">
        <ele>176</ele>
        <time>2018-11-06T09:37:21Z</time>
      </trkpt>
      <trkpt lat="45.91013" lon="4.79075">
        <ele>177</ele>
        <time>2018-11-06T09:37:22Z</time>
      </trkpt>
      <trkpt lat="45.91009" lon="4.79081">
        <ele>177</ele>
        <time>2018-11-06T09:37:23Z</time>
      </trkpt>
      <trkpt lat="45.91005" lon="4.79088">
        <ele>177</ele>
        <time>2018-11-06T09:37:24Z</time>
      </trkpt>
      <trkpt lat="45.91002" lon="4.79093">
        <ele>177</ele>
        <time>2018-11-06T09:37:25Z</time>
      </trkpt>
      <trkpt lat="45.90997" lon="4.79101">
        <ele>177</ele>
        <time>2018-11-06T09:37:26Z</time>
      </trkpt>
      <trkpt lat="45.90994" lon="4.79108">
        <ele>177</ele>
        <time>2018-11-06T09:37:27Z</time>
      </trkpt>
      <trkpt lat="45.9099" lon="4.79114">
        <ele>177</ele>
        <time>2018-11-06T09:37:28Z</time>
      </trkpt>
      <trkpt lat="45.90987" lon="4.7912">
        <ele>177</ele>
        <time>2018-11-06T09:37:29Z</time>
      </trkpt>
      <trkpt lat="45.90983" lon="4.79126">
        <ele>177</ele>
        <time>2018-11-06T09:37:30Z</time>
      </trkpt>
      <trkpt lat="45.90979" lon="4.79133">
        <ele>177</ele>
        <time>2018-11-06T09:37:31Z</time>
      </trkpt>
      <trkpt lat="45.90975" lon="4.7914">
        <ele>177</ele>
        <time>2018-11-06T09:37:32Z</time>
      </trkpt>
      <trkpt lat="45.90971" lon="4.79146">
        <ele>177</ele>
        <time>2018-11-06T09:37:33Z</time>
      </trkpt>
      <trkpt lat="45.90968" lon="4.79153">
        <ele>177</ele>
        <time>2018-11-06T09:37:34Z</time>
      </trkpt>
      <trkpt lat="45.90965" lon="4.7916">
        <ele>177</ele>
        <time>2018-11-06T09:37:35Z</time>
      </trkpt>
      <trkpt lat="45.90961" lon="4.79167">
        <ele>177</ele>
        <time>2018-11-06T09:37:36Z</time>
      </trkpt>
      <trkpt lat="45.90957" lon="4.79174">
        <ele>177</ele>
        <time>2018-11-06T09:37:37Z</time>
      </trkpt>
      <trkpt lat="45.90954" lon="4.79181">
        <ele>177</ele>
        <time>2018-11-06T09:37:38Z</time>
      </trkpt>
      <trkpt lat="45.9095" lon="4.79189">
        <ele>177</ele>
        <time>2018-11-06T09:37:39Z</time>
      </trkpt>
      <trkpt lat="45.90945" lon="4.79195">
        <ele>176</ele>
        <time>2018-11-06T09:37:40Z</time>
      </trkpt>
      <trkpt lat="45.90942" lon="4.79202">
        <ele>176</ele>
        <time>2018-11-06T09:37:41Z</time>
      </trkpt>
      <trkpt lat="45.90939" lon="4.79208">
        <ele>176</ele>
        <time>2018-11-06T09:37:42Z</time>
      </trkpt>
      <trkpt lat="45.90934" lon="4.79215">
        <ele>176</ele>
        <time>2018-11-06T09:37:43Z</time>
      </trkpt>
      <trkpt lat="45.9093" lon="4.79222">
        <ele>176</ele>
        <time>2018-11-06T09:37:44Z</time>
      </trkpt>
      <trkpt lat="45.90926" lon="4.79229">
        <ele>176</ele>
        <time>2018-11-06T09:37:45Z</time>
      </trkpt>
      <trkpt lat="45.90923" lon="4.79236">
        <ele>176</ele>
        <time>2018-11-06T09:37:46Z</time>
      </trkpt>
      <trkpt lat="45.90919" lon="4.79243">
        <ele>176</ele>
        <time>2018-11-06T09:37:47Z</time>
      </trkpt>
      <trkpt lat="45.90916" lon="4.79251">
        <ele>176</ele>
        <time>2018-11-06T09:37:48Z</time>
      </trkpt>
      <trkpt lat="45.90911" lon="4.79258">
        <ele>176</ele>
        <time>2018-11-06T09:37:49Z</time>
      </trkpt>
      <trkpt lat="45.90908" lon="4.79264">
        <ele>176</ele>
        <time>2018-11-06T09:37:50Z</time>
      </trkpt>
      <trkpt lat="45.90904" lon="4.79272">
        <ele>176</ele>
        <time>2018-11-06T09:37:51Z</time>
      </trkpt>
      <trkpt lat="45.90901" lon="4.7928">
        <ele>176</ele>
        <time>2018-11-06T09:37:52Z</time>
      </trkpt>
      <trkpt lat="45.90896" lon="4.79287">
        <ele>176</ele>
        <time>2018-11-06T09:37:53Z</time>
      </trkpt>
      <trkpt lat="45.90892" lon="4.79294">
        <ele>176</ele>
        <time>2018-11-06T09:37:54Z</time>
      </trkpt>
      <trkpt lat="45.90886" lon="4.79301">
        <ele>176</ele>
        <time>2018-11-06T09:37:55Z</time>
      </trkpt>
      <trkpt lat="45.90882" lon="4.79308">
        <ele>176</ele>
        <time>2018-11-06T09:37:56Z</time>
      </trkpt>
      <trkpt lat="45.90877" lon="4.79315">
        <ele>176</ele>
        <time>2018-11-06T09:37:57Z</time>
      </trkpt>
      <trkpt lat="45.90873" lon="4.79322">
        <ele>176</ele>
        <time>2018-11-06T09:37:58Z</time>
      </trkpt>
      <trkpt lat="45.90868" lon="4.7933">
        <ele>176</ele>
        <time>2018-11-06T09:37:59Z</time>
      </trkpt>
      <trkpt lat="45.90864" lon="4.79336">
        <ele>175</ele>
        <time>2018-11-06T09:38:00Z</time>
      </trkpt>
      <trkpt lat="45.90859" lon="4.79341">
        <ele>175</ele>
        <time>2018-11-06T09:38:01Z</time>
      </trkpt>
      <trkpt lat="45.90854" lon="4.79348">
        <ele>175</ele>
        <time>2018-11-06T09:38:02Z</time>
      </trkpt>
      <trkpt lat="45.9085" lon="4.79354">
        <ele>175</ele>
        <time>2018-11-06T09:38:03Z</time>
      </trkpt>
      <trkpt lat="45.90845" lon="4.7936">
        <ele>175</ele>
        <time>2018-11-06T09:38:04Z</time>
      </trkpt>
      <trkpt lat="45.9084" lon="4.79365">
        <ele>175</ele>
        <time>2018-11-06T09:38:05Z</time>
      </trkpt>
      <trkpt lat="45.90835" lon="4.79371">
        <ele>175</ele>
        <time>2018-11-06T09:38:06Z</time>
      </trkpt>
      <trkpt lat="45.90831" lon="4.79378">
        <ele>175</ele>
        <time>2018-11-06T09:38:07Z</time>
      </trkpt>
      <trkpt lat="45.90826" lon="4.79384">
        <ele>175</ele>
        <time>2018-11-06T09:38:08Z</time>
      </trkpt>
      <trkpt lat="45.9082" lon="4.79389">
        <ele>175</ele>
        <time>2018-11-06T09:38:09Z</time>
      </trkpt>
      <trkpt lat="45.90815" lon="4.79395">
        <ele>175</ele>
        <time>2018-11-06T09:38:10Z</time>
      </trkpt>
      <trkpt lat="45.90809" lon="4.79399">
        <ele>175</ele>
        <time>2018-11-06T09:38:11Z</time>
      </trkpt>
      <trkpt lat="45.90804" lon="4.79406">
        <ele>175</ele>
        <time>2018-11-06T09:38:12Z</time>
      </trkpt>
      <trkpt lat="45.90798" lon="4.79411">
        <ele>175</ele>
        <time>2018-11-06T09:38:13Z</time>
      </trkpt>
      <trkpt lat="45.90792" lon="4.79416">
        <ele>175</ele>
        <time>2018-11-06T09:38:14Z</time>
      </trkpt>
      <trkpt lat="45.90786" lon="4.79421">
        <ele>174</ele>
        <time>2018-11-06T09:38:15Z</time>
      </trkpt>
      <trkpt lat="45.9078" lon="4.79424">
        <ele>174</ele>
        <time>2018-11-06T09:38:16Z</time>
      </trkpt>
      <trkpt lat="45.90773" lon="4.79429">
        <ele>174</ele>
        <time>2018-11-06T09:38:17Z</time>
      </trkpt>
      <trkpt lat="45.90767" lon="4.79434">
        <ele>174</ele>
        <time>2018-11-06T09:38:18Z</time>
      </trkpt>
      <trkpt lat="45.90761" lon="4.79437">
        <ele>174</ele>
        <time>2018-11-06T09:38:19Z</time>
      </trkpt>
      <trkpt lat="45.90755" lon="4.79441">
        <ele>174</ele>
        <time>2018-11-06T09:38:20Z</time>
      </trkpt>
      <trkpt lat="45.90749" lon="4.79446">
        <ele>174</ele>
        <time>2018-11-06T09:38:21Z</time>
      </trkpt>
      <trkpt lat="45.90743" lon="4.79448">
        <ele>174</ele>
        <time>2018-11-06T09:38:22Z</time>
      </trkpt>
      <trkpt lat="45.90737" lon="4.79452">
        <ele>174</ele>
        <time>2018-11-06T09:38:23Z</time>
      </trkpt>
      <trkpt lat="45.9073" lon="4.79455">
        <ele>174</ele>
        <time>2018-11-06T09:38:24Z</time>
      </trkpt>
      <trkpt lat="45.90724" lon="4.79458">
        <ele>174</ele>
        <time>2018-11-06T09:38:25Z</time>
      </trkpt>
      <trkpt lat="45.90717" lon="4.79463">
        <ele>174</ele>
        <time>2018-11-06T09:38:26Z</time>
      </trkpt>
      <trkpt lat="45.9071" lon="4.79466">
        <ele>174</ele>
        <time>2018-11-06T09:38:27Z</time>
      </trkpt>
      <trkpt lat="45.90704" lon="4.7947">
        <ele>174</ele>
        <time>2018-11-06T09:38:28Z</time>
      </trkpt>
      <trkpt lat="45.90698" lon="4.79474">
        <ele>174</ele>
        <time>2018-11-06T09:38:29Z</time>
      </trkpt>
      <trkpt lat="45.90691" lon="4.79478">
        <ele>174</ele>
        <time>2018-11-06T09:38:30Z</time>
      </trkpt>
      <trkpt lat="45.90685" lon="4.79482">
        <ele>174</ele>
        <time>2018-11-06T09:38:31Z</time>
      </trkpt>
      <trkpt lat="45.90679" lon="4.79485">
        <ele>174</ele>
        <time>2018-11-06T09:38:32Z</time>
      </trkpt>
      <trkpt lat="45.90673" lon="4.79488">
        <ele>174</ele>
        <time>2018-11-06T09:38:33Z</time>
      </trkpt>
      <trkpt lat="45.90668" lon="4.7949">
        <ele>174</ele>
        <time>2018-11-06T09:38:34Z</time>
      </trkpt>
      <trkpt lat="45.90661" lon="4.79494">
        <ele>174</ele>
        <time>2018-11-06T09:38:35Z</time>
      </trkpt>
      <trkpt lat="45.90655" lon="4.79498">
        <ele>175</ele>
        <time>2018-11-06T09:38:36Z</time>
      </trkpt>
      <trkpt lat="45.90649" lon="4.79501">
        <ele>173</ele>
        <time>2018-11-06T09:38:37Z</time>
      </trkpt>
      <trkpt lat="45.90642" lon="4.79505">
        <ele>174</ele>
        <time>2018-11-06T09:38:38Z</time>
      </trkpt>
      <trkpt lat="45.90635" lon="4.7951">
        <ele>174</ele>
        <time>2018-11-06T09:38:39Z</time>
      </trkpt>
      <trkpt lat="45.90629" lon="4.79514">
        <ele>174</ele>
        <time>2018-11-06T09:38:40Z</time>
      </trkpt>
      <trkpt lat="45.90622" lon="4.79518">
        <ele>174</ele>
        <time>2018-11-06T09:38:41Z</time>
      </trkpt>
      <trkpt lat="45.90616" lon="4.79522">
        <ele>174</ele>
        <time>2018-11-06T09:38:42Z</time>
      </trkpt>
      <trkpt lat="45.9061" lon="4.79526">
        <ele>174</ele>
        <time>2018-11-06T09:38:43Z</time>
      </trkpt>
      <trkpt lat="45.90603" lon="4.79529">
        <ele>174</ele>
        <time>2018-11-06T09:38:44Z</time>
      </trkpt>
      <trkpt lat="45.90598" lon="4.79533">
        <ele>174</ele>
        <time>2018-11-06T09:38:45Z</time>
      </trkpt>
      <trkpt lat="45.90593" lon="4.79537">
        <ele>174</ele>
        <time>2018-11-06T09:38:46Z</time>
      </trkpt>
      <trkpt lat="45.90586" lon="4.7954">
        <ele>174</ele>
        <time>2018-11-06T09:38:47Z</time>
      </trkpt>
      <trkpt lat="45.90581" lon="4.79544">
        <ele>176</ele>
        <time>2018-11-06T09:38:48Z</time>
      </trkpt>
      <trkpt lat="45.90574" lon="4.79547">
        <ele>176</ele>
        <time>2018-11-06T09:38:49Z</time>
      </trkpt>
      <trkpt lat="45.90569" lon="4.79551">
        <ele>176</ele>
        <time>2018-11-06T09:38:50Z</time>
      </trkpt>
      <trkpt lat="45.90562" lon="4.79555">
        <ele>176</ele>
        <time>2018-11-06T09:38:51Z</time>
      </trkpt>
      <trkpt lat="45.90557" lon="4.79559">
        <ele>176</ele>
        <time>2018-11-06T09:38:52Z</time>
      </trkpt>
      <trkpt lat="45.90551" lon="4.79563">
        <ele>176</ele>
        <time>2018-11-06T09:38:53Z</time>
      </trkpt>
      <trkpt lat="45.90546" lon="4.79566">
        <ele>176</ele>
        <time>2018-11-06T09:38:54Z</time>
      </trkpt>
      <trkpt lat="45.90542" lon="4.79571">
        <ele>176</ele>
        <time>2018-11-06T09:38:55Z</time>
      </trkpt>
      <trkpt lat="45.90536" lon="4.79575">
        <ele>176</ele>
        <time>2018-11-06T09:38:56Z</time>
      </trkpt>
      <trkpt lat="45.90531" lon="4.79579">
        <ele>177</ele>
        <time>2018-11-06T09:38:57Z</time>
      </trkpt>
      <trkpt lat="45.90527" lon="4.79583">
        <ele>177</ele>
        <time>2018-11-06T09:38:58Z</time>
      </trkpt>
      <trkpt lat="45.90522" lon="4.79587">
        <ele>174</ele>
        <time>2018-11-06T09:38:59Z</time>
      </trkpt>
      <trkpt lat="45.90517" lon="4.79592">
        <ele>175</ele>
        <time>2018-11-06T09:39:00Z</time>
      </trkpt>
      <trkpt lat="45.90512" lon="4.79597">
        <ele>175</ele>
        <time>2018-11-06T09:39:01Z</time>
      </trkpt>
      <trkpt lat="45.90507" lon="4.79601">
        <ele>175</ele>
        <time>2018-11-06T09:39:02Z</time>
      </trkpt>
      <trkpt lat="45.90503" lon="4.79605">
        <ele>174</ele>
        <time>2018-11-06T09:39:03Z</time>
      </trkpt>
      <trkpt lat="45.90497" lon="4.7961">
        <ele>176</ele>
        <time>2018-11-06T09:39:04Z</time>
      </trkpt>
      <trkpt lat="45.90492" lon="4.79614">
        <ele>176</ele>
        <time>2018-11-06T09:39:05Z</time>
      </trkpt>
      <trkpt lat="45.90488" lon="4.79619">
        <ele>176</ele>
        <time>2018-11-06T09:39:06Z</time>
      </trkpt>
      <trkpt lat="45.90483" lon="4.79622">
        <ele>176</ele>
        <time>2018-11-06T09:39:07Z</time>
      </trkpt>
      <trkpt lat="45.90479" lon="4.79628">
        <ele>176</ele>
        <time>2018-11-06T09:39:08Z</time>
      </trkpt>
      <trkpt lat="45.90475" lon="4.79633">
        <ele>176</ele>
        <time>2018-11-06T09:39:09Z</time>
      </trkpt>
      <trkpt lat="45.90471" lon="4.79638">
        <ele>176</ele>
        <time>2018-11-06T09:39:10Z</time>
      </trkpt>
      <trkpt lat="45.90467" lon="4.79642">
        <ele>176</ele>
        <time>2018-11-06T09:39:11Z</time>
      </trkpt>
      <trkpt lat="45.90462" lon="4.79646">
        <ele>176</ele>
        <time>2018-11-06T09:39:12Z</time>
      </trkpt>
      <trkpt lat="45.90458" lon="4.79652">
        <ele>176</ele>
        <time>2018-11-06T09:39:13Z</time>
      </trkpt>
      <trkpt lat="45.90454" lon="4.79657">
        <ele>176</ele>
        <time>2018-11-06T09:39:14Z</time>
      </trkpt>
      <trkpt lat="45.9045" lon="4.79663">
        <ele>176</ele>
        <time>2018-11-06T09:39:15Z</time>
      </trkpt>
      <trkpt lat="45.90446" lon="4.79671">
        <ele>173</ele>
        <time>2018-11-06T09:39:16Z</time>
      </trkpt>
      <trkpt lat="45.90441" lon="4.79676">
        <ele>174</ele>
        <time>2018-11-06T09:39:17Z</time>
      </trkpt>
      <trkpt lat="45.90437" lon="4.79681">
        <ele>174</ele>
        <time>2018-11-06T09:39:18Z</time>
      </trkpt>
      <trkpt lat="45.90433" lon="4.79687">
        <ele>174</ele>
        <time>2018-11-06T09:39:19Z</time>
      </trkpt>
      <trkpt lat="45.90429" lon="4.79693">
        <ele>173</ele>
        <time>2018-11-06T09:39:20Z</time>
      </trkpt>
      <trkpt lat="45.90425" lon="4.79698">
        <ele>173</ele>
        <time>2018-11-06T09:39:21Z</time>
      </trkpt>
      <trkpt lat="45.90421" lon="4.79703">
        <ele>173</ele>
        <time>2018-11-06T09:39:22Z</time>
      </trkpt>
      <trkpt lat="45.90417" lon="4.79707">
        <ele>173</ele>
        <time>2018-11-06T09:39:23Z</time>
      </trkpt>
      <trkpt lat="45.90412" lon="4.79712">
        <ele>176</ele>
        <time>2018-11-06T09:39:24Z</time>
      </trkpt>
      <trkpt lat="45.90408" lon="4.79717">
        <ele>176</ele>
        <time>2018-11-06T09:39:25Z</time>
      </trkpt>
      <trkpt lat="45.90404" lon="4.79723">
        <ele>175</ele>
        <time>2018-11-06T09:39:26Z</time>
      </trkpt>
      <trkpt lat="45.90401" lon="4.7973">
        <ele>175</ele>
        <time>2018-11-06T09:39:27Z</time>
      </trkpt>
      <trkpt lat="45.90396" lon="4.79736">
        <ele>175</ele>
        <time>2018-11-06T09:39:28Z</time>
      </trkpt>
      <trkpt lat="45.90392" lon="4.79741">
        <ele>175</ele>
        <time>2018-11-06T09:39:29Z</time>
      </trkpt>
      <trkpt lat="45.90387" lon="4.79748">
        <ele>176</ele>
        <time>2018-11-06T09:39:30Z</time>
      </trkpt>
      <trkpt lat="45.90382" lon="4.79754">
        <ele>173</ele>
        <time>2018-11-06T09:39:31Z</time>
      </trkpt>
      <trkpt lat="45.90377" lon="4.7976">
        <ele>173</ele>
        <time>2018-11-06T09:39:32Z</time>
      </trkpt>
      <trkpt lat="45.90373" lon="4.79767">
        <ele>173</ele>
        <time>2018-11-06T09:39:33Z</time>
      </trkpt>
      <trkpt lat="45.90368" lon="4.79773">
        <ele>173</ele>
        <time>2018-11-06T09:39:34Z</time>
      </trkpt>
      <trkpt lat="45.90363" lon="4.79779">
        <ele>173</ele>
        <time>2018-11-06T09:39:35Z</time>
      </trkpt>
      <trkpt lat="45.90357" lon="4.79785">
        <ele>173</ele>
        <time>2018-11-06T09:39:36Z</time>
      </trkpt>
      <trkpt lat="45.90352" lon="4.79791">
        <ele>173</ele>
        <time>2018-11-06T09:39:37Z</time>
      </trkpt>
      <trkpt lat="45.90346" lon="4.79797">
        <ele>172</ele>
        <time>2018-11-06T09:39:38Z</time>
      </trkpt>
      <trkpt lat="45.90341" lon="4.79803">
        <ele>172</ele>
        <time>2018-11-06T09:39:39Z</time>
      </trkpt>
      <trkpt lat="45.90335" lon="4.7981">
        <ele>172</ele>
        <time>2018-11-06T09:39:40Z</time>
      </trkpt>
      <trkpt lat="45.90331" lon="4.79817">
        <ele>174</ele>
        <time>2018-11-06T09:39:41Z</time>
      </trkpt>
      <trkpt lat="45.90326" lon="4.79824">
        <ele>173</ele>
        <time>2018-11-06T09:39:42Z</time>
      </trkpt>
      <trkpt lat="45.90321" lon="4.79829">
        <ele>173</ele>
        <time>2018-11-06T09:39:43Z</time>
      </trkpt>
      <trkpt lat="45.90316" lon="4.79834">
        <ele>171</ele>
        <time>2018-11-06T09:39:44Z</time>
      </trkpt>
      <trkpt lat="45.90311" lon="4.79841">
        <ele>172</ele>
        <time>2018-11-06T09:39:45Z</time>
      </trkpt>
      <trkpt lat="45.90307" lon="4.79847">
        <ele>172</ele>
        <time>2018-11-06T09:39:46Z</time>
      </trkpt>
      <trkpt lat="45.90303" lon="4.79852">
        <ele>172</ele>
        <time>2018-11-06T09:39:47Z</time>
      </trkpt>
      <trkpt lat="45.90299" lon="4.79858">
        <ele>172</ele>
        <time>2018-11-06T09:39:48Z</time>
      </trkpt>
      <trkpt lat="45.90294" lon="4.79863">
        <ele>173</ele>
        <time>2018-11-06T09:39:49Z</time>
      </trkpt>
      <trkpt lat="45.9029" lon="4.79868">
        <ele>173</ele>
        <time>2018-11-06T09:39:50Z</time>
      </trkpt>
      <trkpt lat="45.90285" lon="4.79874">
        <ele>173</ele>
        <time>2018-11-06T09:39:51Z</time>
      </trkpt>
      <trkpt lat="45.9028" lon="4.79879">
        <ele>173</ele>
        <time>2018-11-06T09:39:52Z</time>
      </trkpt>
      <trkpt lat="45.90275" lon="4.79884">
        <ele>173</ele>
        <time>2018-11-06T09:39:53Z</time>
      </trkpt>
      <trkpt lat="45.90269" lon="4.79889">
        <ele>173</ele>
        <time>2018-11-06T09:39:54Z</time>
      </trkpt>
      <trkpt lat="45.90264" lon="4.79893">
        <ele>173</ele>
        <time>2018-11-06T09:39:55Z</time>
      </trkpt>
      <trkpt lat="45.90258" lon="4.79897">
        <ele>172</ele>
        <time>2018-11-06T09:39:56Z</time>
      </trkpt>
      <trkpt lat="45.90252" lon="4.79901">
        <ele>172</ele>
        <time>2018-11-06T09:39:57Z</time>
      </trkpt>
      <trkpt lat="45.90246" lon="4.79906">
        <ele>174</ele>
        <time>2018-11-06T09:39:58Z</time>
      </trkpt>
      <trkpt lat="45.9024" lon="4.7991">
        <ele>174</ele>
        <time>2018-11-06T09:39:59Z</time>
      </trkpt>
      <trkpt lat="45.90234" lon="4.79914">
        <ele>175</ele>
        <time>2018-11-06T09:40:00Z</time>
      </trkpt>
      <trkpt lat="45.90228" lon="4.79917">
        <ele>172</ele>
        <time>2018-11-06T09:40:01Z</time>
      </trkpt>
      <trkpt lat="45.90221" lon="4.7992">
        <ele>172</ele>
        <time>2018-11-06T09:40:02Z</time>
      </trkpt>
      <trkpt lat="45.90216" lon="4.79924">
        <ele>173</ele>
        <time>2018-11-06T09:40:03Z</time>
      </trkpt>
      <trkpt lat="45.9021" lon="4.79927">
        <ele>173</ele>
        <time>2018-11-06T09:40:04Z</time>
      </trkpt>
      <trkpt lat="45.90204" lon="4.79929">
        <ele>173</ele>
        <time>2018-11-06T09:40:05Z</time>
      </trkpt>
      <trkpt lat="45.90199" lon="4.79932">
        <ele>173</ele>
        <time>2018-11-06T09:40:06Z</time>
      </trkpt>
      <trkpt lat="45.90193" lon="4.79934">
        <ele>173</ele>
        <time>2018-11-06T09:40:07Z</time>
      </trkpt>
      <trkpt lat="45.90187" lon="4.79936">
        <ele>174</ele>
        <time>2018-11-06T09:40:08Z</time>
      </trkpt>
      <trkpt lat="45.90182" lon="4.79938">
        <ele>174</ele>
        <time>2018-11-06T09:40:09Z</time>
      </trkpt>
      <trkpt lat="45.90176" lon="4.7994">
        <ele>174</ele>
        <time>2018-11-06T09:40:10Z</time>
      </trkpt>
      <trkpt lat="45.9017" lon="4.79944">
        <ele>174</ele>
        <time>2018-11-06T09:40:11Z</time>
      </trkpt>
      <trkpt lat="45.90164" lon="4.79946">
        <ele>175</ele>
        <time>2018-11-06T09:40:12Z</time>
      </trkpt>
      <trkpt lat="45.90159" lon="4.79949">
        <ele>175</ele>
        <time>2018-11-06T09:40:13Z</time>
      </trkpt>
      <trkpt lat="45.90153" lon="4.79951">
        <ele>175</ele>
        <time>2018-11-06T09:40:14Z</time>
      </trkpt>
      <trkpt lat="45.90148" lon="4.79954">
        <ele>175</ele>
        <time>2018-11-06T09:40:15Z</time>
      </trkpt>
      <trkpt lat="45.90142" lon="4.79956">
        <ele>175</ele>
        <time>2018-11-06T09:40:16Z</time>
      </trkpt>
      <trkpt lat="45.90136" lon="4.79959">
        <ele>175</ele>
        <time>2018-11-06T09:40:17Z</time>
      </trkpt>
      <trkpt lat="45.9013" lon="4.79961">
        <ele>175</ele>
        <time>2018-11-06T09:40:18Z</time>
      </trkpt>
      <trkpt lat="45.90125" lon="4.79963">
        <ele>175</ele>
        <time>2018-11-06T09:40:19Z</time>
      </trkpt>
      <trkpt lat="45.90118" lon="4.79965">
        <ele>175</ele>
        <time>2018-11-06T09:40:20Z</time>
      </trkpt>
      <trkpt lat="45.90112" lon="4.79968">
        <ele>175</ele>
        <time>2018-11-06T09:40:21Z</time>
      </trkpt>
      <trkpt lat="45.90106" lon="4.79971">
        <ele>174</ele>
        <time>2018-11-06T09:40:22Z</time>
      </trkpt>
      <trkpt lat="45.901" lon="4.79973">
        <ele>174</ele>
        <time>2018-11-06T09:40:23Z</time>
      </trkpt>
      <trkpt lat="45.90094" lon="4.79976">
        <ele>174</ele>
        <time>2018-11-06T09:40:24Z</time>
      </trkpt>
      <trkpt lat="45.90088" lon="4.79979">
        <ele>174</ele>
        <time>2018-11-06T09:40:25Z</time>
      </trkpt>
      <trkpt lat="45.90081" lon="4.79982">
        <ele>174</ele>
        <time>2018-11-06T09:40:26Z</time>
      </trkpt>
      <trkpt lat="45.90075" lon="4.79984">
        <ele>174</ele>
        <time>2018-11-06T09:40:27Z</time>
      </trkpt>
      <trkpt lat="45.90069" lon="4.79987">
        <ele>174</ele>
        <time>2018-11-06T09:40:28Z</time>
      </trkpt>
      <trkpt lat="45.90063" lon="4.7999">
        <ele>175</ele>
        <time>2018-11-06T09:40:29Z</time>
      </trkpt>
      <trkpt lat="45.90057" lon="4.79993">
        <ele>175</ele>
        <time>2018-11-06T09:40:30Z</time>
      </trkpt>
      <trkpt lat="45.9005" lon="4.79996">
        <ele>175</ele>
        <time>2018-11-06T09:40:31Z</time>
      </trkpt>
      <trkpt lat="45.90043" lon="4.79999">
        <ele>175</ele>
        <time>2018-11-06T09:40:32Z</time>
      </trkpt>
      <trkpt lat="45.90037" lon="4.80001">
        <ele>170</ele>
        <time>2018-11-06T09:40:33Z</time>
      </trkpt>
      <trkpt lat="45.9003" lon="4.80004">
        <ele>170</ele>
        <time>2018-11-06T09:40:34Z</time>
      </trkpt>
      <trkpt lat="45.90024" lon="4.80006">
        <ele>170</ele>
        <time>2018-11-06T09:40:35Z</time>
      </trkpt>
      <trkpt lat="45.90017" lon="4.80007">
        <ele>171</ele>
        <time>2018-11-06T09:40:36Z</time>
      </trkpt>
      <trkpt lat="45.90011" lon="4.8001">
        <ele>171</ele>
        <time>2018-11-06T09:40:37Z</time>
      </trkpt>
      <trkpt lat="45.90004" lon="4.80013">
        <ele>171</ele>
        <time>2018-11-06T09:40:38Z</time>
      </trkpt>
      <trkpt lat="45.89998" lon="4.80016">
        <ele>171</ele>
        <time>2018-11-06T09:40:39Z</time>
      </trkpt>
      <trkpt lat="45.89992" lon="4.80019">
        <ele>171</ele>
        <time>2018-11-06T09:40:40Z</time>
      </trkpt>
      <trkpt lat="45.89986" lon="4.80022">
        <ele>171</ele>
        <time>2018-11-06T09:40:41Z</time>
      </trkpt>
      <trkpt lat="45.8998" lon="4.80025">
        <ele>171</ele>
        <time>2018-11-06T09:40:42Z</time>
      </trkpt>
      <trkpt lat="45.89975" lon="4.80027">
        <ele>171</ele>
        <time>2018-11-06T09:40:43Z</time>
      </trkpt>
      <trkpt lat="45.89968" lon="4.80029">
        <ele>170</ele>
        <time>2018-11-06T09:40:44Z</time>
      </trkpt>
      <trkpt lat="45.89962" lon="4.80033">
        <ele>170</ele>
        <time>2018-11-06T09:40:45Z</time>
      </trkpt>
      <trkpt lat="45.89955" lon="4.80036">
        <ele>170</ele>
        <time>2018-11-06T09:40:46Z</time>
      </trkpt>
      <trkpt lat="45.89949" lon="4.80038">
        <ele>170</ele>
        <time>2018-11-06T09:40:47Z</time>
      </trkpt>
      <trkpt lat="45.89943" lon="4.8004">
        <ele>170</ele>
        <time>2018-11-06T09:40:48Z</time>
      </trkpt>
      <trkpt lat="45.89936" lon="4.80044">
        <ele>170</ele>
        <time>2018-11-06T09:40:49Z</time>
      </trkpt>
      <trkpt lat="45.89929" lon="4.80046">
        <ele>170</ele>
        <time>2018-11-06T09:40:50Z</time>
      </trkpt>
      <trkpt lat="45.89923" lon="4.80048">
        <ele>170</ele>
        <time>2018-11-06T09:40:51Z</time>
      </trkpt>
      <trkpt lat="45.89917" lon="4.8005">
        <ele>170</ele>
        <time>2018-11-06T09:40:52Z</time>
      </trkpt>
      <trkpt lat="45.89912" lon="4.80053">
        <ele>171</ele>
        <time>2018-11-06T09:40:53Z</time>
      </trkpt>
      <trkpt lat="45.89905" lon="4.80056">
        <ele>170</ele>
        <time>2018-11-06T09:40:54Z</time>
      </trkpt>
      <trkpt lat="45.89899" lon="4.80059">
        <ele>170</ele>
        <time>2018-11-06T09:40:55Z</time>
      </trkpt>
      <trkpt lat="45.89894" lon="4.80062">
        <ele>170</ele>
        <time>2018-11-06T09:40:56Z</time>
      </trkpt>
      <trkpt lat="45.89888" lon="4.80065">
        <ele>170</ele>
        <time>2018-11-06T09:40:57Z</time>
      </trkpt>
      <trkpt lat="45.89882" lon="4.80068">
        <ele>170</ele>
        <time>2018-11-06T09:40:58Z</time>
      </trkpt>
      <trkpt lat="45.89876" lon="4.8007">
        <ele>170</ele>
        <time>2018-11-06T09:40:59Z</time>
      </trkpt>
      <trkpt lat="45.8987" lon="4.80072">
        <ele>170</ele>
        <time>2018-11-06T09:41:00Z</time>
      </trkpt>
      <trkpt lat="45.89865" lon="4.80074">
        <ele>170</ele>
        <time>2018-11-06T09:41:01Z</time>
      </trkpt>
      <trkpt lat="45.89859" lon="4.80077">
        <ele>170</ele>
        <time>2018-11-06T09:41:02Z</time>
      </trkpt>
      <trkpt lat="45.89854" lon="4.80079">
        <ele>170</ele>
        <time>2018-11-06T09:41:03Z</time>
      </trkpt>
      <trkpt lat="45.89849" lon="4.80082">
        <ele>170</ele>
        <time>2018-11-06T09:41:04Z</time>
      </trkpt>
      <trkpt lat="45.89843" lon="4.80084">
        <ele>170</ele>
        <time>2018-11-06T09:41:05Z</time>
      </trkpt>
      <trkpt lat="45.89838" lon="4.80086">
        <ele>170</ele>
        <time>2018-11-06T09:41:06Z</time>
      </trkpt>
      <trkpt lat="45.89831" lon="4.80088">
        <ele>170</ele>
        <time>2018-11-06T09:41:07Z</time>
      </trkpt>
      <trkpt lat="45.89825" lon="4.80091">
        <ele>170</ele>
        <time>2018-11-06T09:41:08Z</time>
      </trkpt>
      <trkpt lat="45.89819" lon="4.80094">
        <ele>170</ele>
        <time>2018-11-06T09:41:09Z</time>
      </trkpt>
      <trkpt lat="45.89814" lon="4.80096">
        <ele>169</ele>
        <time>2018-11-06T09:41:10Z</time>
      </trkpt>
      <trkpt lat="45.89808" lon="4.80097">
        <ele>169</ele>
        <time>2018-11-06T09:41:11Z</time>
      </trkpt>
      <trkpt lat="45.89802" lon="4.801">
        <ele>169</ele>
        <time>2018-11-06T09:41:12Z</time>
      </trkpt>
      <trkpt lat="45.89797" lon="4.80103">
        <ele>169</ele>
        <time>2018-11-06T09:41:13Z</time>
      </trkpt>
      <trkpt lat="45.89791" lon="4.80105">
        <ele>169</ele>
        <time>2018-11-06T09:41:14Z</time>
      </trkpt>
      <trkpt lat="45.89786" lon="4.80108">
        <ele>169</ele>
        <time>2018-11-06T09:41:15Z</time>
      </trkpt>
      <trkpt lat="45.89781" lon="4.80111">
        <ele>169</ele>
        <time>2018-11-06T09:41:16Z</time>
      </trkpt>
      <trkpt lat="45.89775" lon="4.80114">
        <ele>169</ele>
        <time>2018-11-06T09:41:17Z</time>
      </trkpt>
      <trkpt lat="45.89769" lon="4.80116">
        <ele>169</ele>
        <time>2018-11-06T09:41:18Z</time>
      </trkpt>
      <trkpt lat="45.89764" lon="4.80117">
        <ele>169</ele>
        <time>2018-11-06T09:41:19Z</time>
      </trkpt>
      <trkpt lat="45.89758" lon="4.8012">
        <ele>169</ele>
        <time>2018-11-06T09:41:20Z</time>
      </trkpt>
      <trkpt lat="45.89752" lon="4.80122">
        <ele>169</ele>
        <time>2018-11-06T09:41:21Z</time>
      </trkpt>
      <trkpt lat="45.89747" lon="4.80125">
        <ele>170</ele>
        <time>2018-11-06T09:41:22Z</time>
      </trkpt>
      <trkpt lat="45.89741" lon="4.80128">
        <ele>171</ele>
        <time>2018-11-06T09:41:23Z</time>
      </trkpt>
      <trkpt lat="45.89735" lon="4.8013">
        <ele>171</ele>
        <time>2018-11-06T09:41:24Z</time>
      </trkpt>
      <trkpt lat="45.89729" lon="4.80133">
        <ele>171</ele>
        <time>2018-11-06T09:41:25Z</time>
      </trkpt>
      <trkpt lat="45.89723" lon="4.80137">
        <ele>171</ele>
        <time>2018-11-06T09:41:26Z</time>
      </trkpt>
      <trkpt lat="45.89717" lon="4.8014">
        <ele>171</ele>
        <time>2018-11-06T09:41:27Z</time>
      </trkpt>
      <trkpt lat="45.89711" lon="4.80143">
        <ele>171</ele>
        <time>2018-11-06T09:41:28Z</time>
      </trkpt>
      <trkpt lat="45.89706" lon="4.80144">
        <ele>171</ele>
        <time>2018-11-06T09:41:29Z</time>
      </trkpt>
      <trkpt lat="45.897" lon="4.80147">
        <ele>171</ele>
        <time>2018-11-06T09:41:30Z</time>
      </trkpt>
      <trkpt lat="45.89694" lon="4.80147">
        <ele>172</ele>
        <time>2018-11-06T09:41:31Z</time>
      </trkpt>
      <trkpt lat="45.89688" lon="4.8015">
        <ele>172</ele>
        <time>2018-11-06T09:41:32Z</time>
      </trkpt>
      <trkpt lat="45.89682" lon="4.80153">
        <ele>172</ele>
        <time>2018-11-06T09:41:33Z</time>
      </trkpt>
      <trkpt lat="45.89676" lon="4.80156">
        <ele>172</ele>
        <time>2018-11-06T09:41:34Z</time>
      </trkpt>
      <trkpt lat="45.89674" lon="4.80157">
        <ele>172</ele>
        <time>2018-11-06T09:41:35Z</time>
      </trkpt>
      <trkpt lat="45.89667" lon="4.8016">
        <ele>173</ele>
        <time>2018-11-06T09:41:36Z</time>
      </trkpt>
      <trkpt lat="45.89662" lon="4.80162">
        <ele>173</ele>
        <time>2018-11-06T09:41:37Z</time>
      </trkpt>
      <trkpt lat="45.89656" lon="4.80165">
        <ele>173</ele>
        <time>2018-11-06T09:41:38Z</time>
      </trkpt>
      <trkpt lat="45.89651" lon="4.80168">
        <ele>172</ele>
        <time>2018-11-06T09:41:39Z</time>
      </trkpt>
      <trkpt lat="45.89644" lon="4.8017">
        <ele>172</ele>
        <time>2018-11-06T09:41:40Z</time>
      </trkpt>
      <trkpt lat="45.89638" lon="4.80173">
        <ele>172</ele>
        <time>2018-11-06T09:41:41Z</time>
      </trkpt>
      <trkpt lat="45.8963" lon="4.80174">
        <ele>172</ele>
        <time>2018-11-06T09:41:42Z</time>
      </trkpt>
      <trkpt lat="45.89624" lon="4.80177">
        <ele>172</ele>
        <time>2018-11-06T09:41:43Z</time>
      </trkpt>
      <trkpt lat="45.89618" lon="4.80179">
        <ele>172</ele>
        <time>2018-11-06T09:41:44Z</time>
      </trkpt>
      <trkpt lat="45.89612" lon="4.80181">
        <ele>172</ele>
        <time>2018-11-06T09:41:45Z</time>
      </trkpt>
      <trkpt lat="45.89606" lon="4.80184">
        <ele>172</ele>
        <time>2018-11-06T09:41:46Z</time>
      </trkpt>
      <trkpt lat="45.89601" lon="4.80187">
        <ele>172</ele>
        <time>2018-11-06T09:41:47Z</time>
      </trkpt>
      <trkpt lat="45.89596" lon="4.80189">
        <ele>172</ele>
        <time>2018-11-06T09:41:48Z</time>
      </trkpt>
      <trkpt lat="45.8959" lon="4.80191">
        <ele>172</ele>
        <time>2018-11-06T09:41:49Z</time>
      </trkpt>
      <trkpt lat="45.89583" lon="4.80194">
        <ele>173</ele>
        <time>2018-11-06T09:41:50Z</time>
      </trkpt>
      <trkpt lat="45.89578" lon="4.80197">
        <ele>173</ele>
        <time>2018-11-06T09:41:51Z</time>
      </trkpt>
      <trkpt lat="45.89573" lon="4.802">
        <ele>173</ele>
        <time>2018-11-06T09:41:52Z</time>
      </trkpt>
      <trkpt lat="45.89567" lon="4.80202">
        <ele>173</ele>
        <time>2018-11-06T09:41:53Z</time>
      </trkpt>
      <trkpt lat="45.89561" lon="4.80205">
        <ele>173</ele>
        <time>2018-11-06T09:41:54Z</time>
      </trkpt>
      <trkpt lat="45.89556" lon="4.80207">
        <ele>173</ele>
        <time>2018-11-06T09:41:55Z</time>
      </trkpt>
      <trkpt lat="45.89549" lon="4.80209">
        <ele>173</ele>
        <time>2018-11-06T09:41:56Z</time>
      </trkpt>
      <trkpt lat="45.89542" lon="4.80211">
        <ele>173</ele>
        <time>2018-11-06T09:41:57Z</time>
      </trkpt>
      <trkpt lat="45.89537" lon="4.80212">
        <ele>173</ele>
        <time>2018-11-06T09:41:58Z</time>
      </trkpt>
      <trkpt lat="45.89531" lon="4.80215">
        <ele>173</ele>
        <time>2018-11-06T09:41:59Z</time>
      </trkpt>
      <trkpt lat="45.89525" lon="4.80218">
        <ele>173</ele>
        <time>2018-11-06T09:42:00Z</time>
      </trkpt>
      <trkpt lat="45.89519" lon="4.80222">
        <ele>173</ele>
        <time>2018-11-06T09:42:01Z</time>
      </trkpt>
      <trkpt lat="45.89513" lon="4.80225">
        <ele>173</ele>
        <time>2018-11-06T09:42:02Z</time>
      </trkpt>
      <trkpt lat="45.89507" lon="4.80228">
        <ele>173</ele>
        <time>2018-11-06T09:42:03Z</time>
      </trkpt>
      <trkpt lat="45.89501" lon="4.80231">
        <ele>173</ele>
        <time>2018-11-06T09:42:04Z</time>
      </trkpt>
      <trkpt lat="45.89496" lon="4.80234">
        <ele>175</ele>
        <time>2018-11-06T09:42:05Z</time>
      </trkpt>
      <trkpt lat="45.8949" lon="4.80236">
        <ele>175</ele>
        <time>2018-11-06T09:42:06Z</time>
      </trkpt>
      <trkpt lat="45.89485" lon="4.80238">
        <ele>175</ele>
        <time>2018-11-06T09:42:07Z</time>
      </trkpt>
      <trkpt lat="45.8948" lon="4.80241">
        <ele>175</ele>
        <time>2018-11-06T09:42:08Z</time>
      </trkpt>
      <trkpt lat="45.89475" lon="4.80243">
        <ele>176</ele>
        <time>2018-11-06T09:42:09Z</time>
      </trkpt>
      <trkpt lat="45.89469" lon="4.80244">
        <ele>176</ele>
        <time>2018-11-06T09:42:10Z</time>
      </trkpt>
      <trkpt lat="45.89463" lon="4.80247">
        <ele>176</ele>
        <time>2018-11-06T09:42:11Z</time>
      </trkpt>
      <trkpt lat="45.89456" lon="4.8025">
        <ele>177</ele>
        <time>2018-11-06T09:42:12Z</time>
      </trkpt>
      <trkpt lat="45.89451" lon="4.80253">
        <ele>175</ele>
        <time>2018-11-06T09:42:13Z</time>
      </trkpt>
      <trkpt lat="45.89445" lon="4.80256">
        <ele>175</ele>
        <time>2018-11-06T09:42:14Z</time>
      </trkpt>
      <trkpt lat="45.89439" lon="4.80259">
        <ele>175</ele>
        <time>2018-11-06T09:42:15Z</time>
      </trkpt>
      <trkpt lat="45.89433" lon="4.80262">
        <ele>176</ele>
        <time>2018-11-06T09:42:16Z</time>
      </trkpt>
      <trkpt lat="45.89427" lon="4.80265">
        <ele>176</ele>
        <time>2018-11-06T09:42:17Z</time>
      </trkpt>
      <trkpt lat="45.89421" lon="4.80269">
        <ele>176</ele>
        <time>2018-11-06T09:42:18Z</time>
      </trkpt>
      <trkpt lat="45.89415" lon="4.80272">
        <ele>177</ele>
        <time>2018-11-06T09:42:19Z</time>
      </trkpt>
      <trkpt lat="45.8941" lon="4.80277">
        <ele>177</ele>
        <time>2018-11-06T09:42:20Z</time>
      </trkpt>
      <trkpt lat="45.89406" lon="4.80279">
        <ele>177</ele>
        <time>2018-11-06T09:42:21Z</time>
      </trkpt>
      <trkpt lat="45.894" lon="4.80284">
        <ele>177</ele>
        <time>2018-11-06T09:42:22Z</time>
      </trkpt>
      <trkpt lat="45.89394" lon="4.80288">
        <ele>176</ele>
        <time>2018-11-06T09:42:23Z</time>
      </trkpt>
      <trkpt lat="45.89389" lon="4.80292">
        <ele>176</ele>
        <time>2018-11-06T09:42:24Z</time>
      </trkpt>
      <trkpt lat="45.89383" lon="4.80296">
        <ele>176</ele>
        <time>2018-11-06T09:42:25Z</time>
      </trkpt>
      <trkpt lat="45.89377" lon="4.80299">
        <ele>176</ele>
        <time>2018-11-06T09:42:26Z</time>
      </trkpt>
      <trkpt lat="45.89372" lon="4.80304">
        <ele>176</ele>
        <time>2018-11-06T09:42:27Z</time>
      </trkpt>
      <trkpt lat="45.89366" lon="4.80308">
        <ele>176</ele>
        <time>2018-11-06T09:42:28Z</time>
      </trkpt>
      <trkpt lat="45.89361" lon="4.80313">
        <ele>176</ele>
        <time>2018-11-06T09:42:29Z</time>
      </trkpt>
      <trkpt lat="45.89355" lon="4.80317">
        <ele>176</ele>
        <time>2018-11-06T09:42:30Z</time>
      </trkpt>
      <trkpt lat="45.89349" lon="4.80322">
        <ele>176</ele>
        <time>2018-11-06T09:42:31Z</time>
      </trkpt>
      <trkpt lat="45.89342" lon="4.80326">
        <ele>175</ele>
        <time>2018-11-06T09:42:32Z</time>
      </trkpt>
      <trkpt lat="45.89336" lon="4.80331">
        <ele>175</ele>
        <time>2018-11-06T09:42:33Z</time>
      </trkpt>
      <trkpt lat="45.89331" lon="4.80336">
        <ele>175</ele>
        <time>2018-11-06T09:42:34Z</time>
      </trkpt>
      <trkpt lat="45.89326" lon="4.8034">
        <ele>175</ele>
        <time>2018-11-06T09:42:35Z</time>
      </trkpt>
      <trkpt lat="45.89321" lon="4.80345">
        <ele>175</ele>
        <time>2018-11-06T09:42:36Z</time>
      </trkpt>
      <trkpt lat="45.89316" lon="4.80349">
        <ele>175</ele>
        <time>2018-11-06T09:42:37Z</time>
      </trkpt>
      <trkpt lat="45.8931" lon="4.80354">
        <ele>175</ele>
        <time>2018-11-06T09:42:38Z</time>
      </trkpt>
      <trkpt lat="45.89305" lon="4.8036">
        <ele>174</ele>
        <time>2018-11-06T09:42:39Z</time>
      </trkpt>
      <trkpt lat="45.893" lon="4.80365">
        <ele>174</ele>
        <time>2018-11-06T09:42:40Z</time>
      </trkpt>
      <trkpt lat="45.89294" lon="4.80371">
        <ele>174</ele>
        <time>2018-11-06T09:42:41Z</time>
      </trkpt>
      <trkpt lat="45.89288" lon="4.80375">
        <ele>174</ele>
        <time>2018-11-06T09:42:42Z</time>
      </trkpt>
      <trkpt lat="45.89283" lon="4.80381">
        <ele>174</ele>
        <time>2018-11-06T09:42:43Z</time>
      </trkpt>
      <trkpt lat="45.89278" lon="4.80386">
        <ele>174</ele>
        <time>2018-11-06T09:42:44Z</time>
      </trkpt>
      <trkpt lat="45.89272" lon="4.80391">
        <ele>174</ele>
        <time>2018-11-06T09:42:45Z</time>
      </trkpt>
      <trkpt lat="45.89267" lon="4.80397">
        <ele>174</ele>
        <time>2018-11-06T09:42:46Z</time>
      </trkpt>
      <trkpt lat="45.89261" lon="4.80401">
        <ele>174</ele>
        <time>2018-11-06T09:42:47Z</time>
      </trkpt>
      <trkpt lat="45.89257" lon="4.80406">
        <ele>174</ele>
        <time>2018-11-06T09:42:48Z</time>
      </trkpt>
      <trkpt lat="45.89252" lon="4.80411">
        <ele>173</ele>
        <time>2018-11-06T09:42:49Z</time>
      </trkpt>
      <trkpt lat="45.89246" lon="4.80416">
        <ele>174</ele>
        <time>2018-11-06T09:42:50Z</time>
      </trkpt>
      <trkpt lat="45.89242" lon="4.80421">
        <ele>173</ele>
        <time>2018-11-06T09:42:51Z</time>
      </trkpt>
      <trkpt lat="45.89237" lon="4.80425">
        <ele>173</ele>
        <time>2018-11-06T09:42:52Z</time>
      </trkpt>
      <trkpt lat="45.89231" lon="4.80429">
        <ele>173</ele>
        <time>2018-11-06T09:42:53Z</time>
      </trkpt>
      <trkpt lat="45.89226" lon="4.80433">
        <ele>174</ele>
        <time>2018-11-06T09:42:54Z</time>
      </trkpt>
      <trkpt lat="45.8922" lon="4.80438">
        <ele>174</ele>
        <time>2018-11-06T09:42:55Z</time>
      </trkpt>
      <trkpt lat="45.89215" lon="4.80443">
        <ele>174</ele>
        <time>2018-11-06T09:42:56Z</time>
      </trkpt>
      <trkpt lat="45.89209" lon="4.80447">
        <ele>174</ele>
        <time>2018-11-06T09:42:57Z</time>
      </trkpt>
      <trkpt lat="45.89203" lon="4.80452">
        <ele>174</ele>
        <time>2018-11-06T09:42:58Z</time>
      </trkpt>
      <trkpt lat="45.89197" lon="4.80457">
        <ele>174</ele>
        <time>2018-11-06T09:42:59Z</time>
      </trkpt>
      <trkpt lat="45.89192" lon="4.80463">
        <ele>174</ele>
        <time>2018-11-06T09:43:00Z</time>
      </trkpt>
      <trkpt lat="45.89186" lon="4.80468">
        <ele>174</ele>
        <time>2018-11-06T09:43:01Z</time>
      </trkpt>
      <trkpt lat="45.89181" lon="4.80472">
        <ele>174</ele>
        <time>2018-11-06T09:43:02Z</time>
      </trkpt>
      <trkpt lat="45.89175" lon="4.80476">
        <ele>174</ele>
        <time>2018-11-06T09:43:03Z</time>
      </trkpt>
      <trkpt lat="45.89169" lon="4.80482">
        <ele>173</ele>
        <time>2018-11-06T09:43:04Z</time>
      </trkpt>
      <trkpt lat="45.89163" lon="4.80486">
        <ele>175</ele>
        <time>2018-11-06T09:43:05Z</time>
      </trkpt>
      <trkpt lat="45.89157" lon="4.8049">
        <ele>175</ele>
        <time>2018-11-06T09:43:06Z</time>
      </trkpt>
      <trkpt lat="45.89151" lon="4.80493">
        <ele>175</ele>
        <time>2018-11-06T09:43:07Z</time>
      </trkpt>
      <trkpt lat="45.89145" lon="4.80497">
        <ele>176</ele>
        <time>2018-11-06T09:43:08Z</time>
      </trkpt>
      <trkpt lat="45.89138" lon="4.80499">
        <ele>176</ele>
        <time>2018-11-06T09:43:09Z</time>
      </trkpt>
      <trkpt lat="45.89132" lon="4.80503">
        <ele>173</ele>
        <time>2018-11-06T09:43:10Z</time>
      </trkpt>
      <trkpt lat="45.89127" lon="4.80507">
        <ele>173</ele>
        <time>2018-11-06T09:43:11Z</time>
      </trkpt>
      <trkpt lat="45.89121" lon="4.80507">
        <ele>173</ele>
        <time>2018-11-06T09:43:12Z</time>
      </trkpt>
      <trkpt lat="45.89115" lon="4.80509">
        <ele>173</ele>
        <time>2018-11-06T09:43:13Z</time>
      </trkpt>
      <trkpt lat="45.89109" lon="4.80512">
        <ele>173</ele>
        <time>2018-11-06T09:43:14Z</time>
      </trkpt>
      <trkpt lat="45.89104" lon="4.80514">
        <ele>174</ele>
        <time>2018-11-06T09:43:15Z</time>
      </trkpt>
      <trkpt lat="45.89098" lon="4.80515">
        <ele>174</ele>
        <time>2018-11-06T09:43:16Z</time>
      </trkpt>
      <trkpt lat="45.89091" lon="4.80517">
        <ele>174</ele>
        <time>2018-11-06T09:43:17Z</time>
      </trkpt>
      <trkpt lat="45.89086" lon="4.8052">
        <ele>174</ele>
        <time>2018-11-06T09:43:18Z</time>
      </trkpt>
      <trkpt lat="45.89079" lon="4.80523">
        <ele>174</ele>
        <time>2018-11-06T09:43:19Z</time>
      </trkpt>
      <trkpt lat="45.89073" lon="4.80524">
        <ele>174</ele>
        <time>2018-11-06T09:43:20Z</time>
      </trkpt>
      <trkpt lat="45.89067" lon="4.80526">
        <ele>174</ele>
        <time>2018-11-06T09:43:21Z</time>
      </trkpt>
      <trkpt lat="45.89062" lon="4.80527">
        <ele>174</ele>
        <time>2018-11-06T09:43:22Z</time>
      </trkpt>
      <trkpt lat="45.89056" lon="4.80529">
        <ele>173</ele>
        <time>2018-11-06T09:43:23Z</time>
      </trkpt>
      <trkpt lat="45.89051" lon="4.80531">
        <ele>173</ele>
        <time>2018-11-06T09:43:24Z</time>
      </trkpt>
      <trkpt lat="45.89046" lon="4.80533">
        <ele>173</ele>
        <time>2018-11-06T09:43:25Z</time>
      </trkpt>
      <trkpt lat="45.89041" lon="4.80536">
        <ele>173</ele>
        <time>2018-11-06T09:43:26Z</time>
      </trkpt>
      <trkpt lat="45.89035" lon="4.80538">
        <ele>173</ele>
        <time>2018-11-06T09:43:27Z</time>
      </trkpt>
      <trkpt lat="45.8903" lon="4.80541">
        <ele>173</ele>
        <time>2018-11-06T09:43:28Z</time>
      </trkpt>
      <trkpt lat="45.89024" lon="4.80544">
        <ele>173</ele>
        <time>2018-11-06T09:43:29Z</time>
      </trkpt>
      <trkpt lat="45.89017" lon="4.80547">
        <ele>173</ele>
        <time>2018-11-06T09:43:30Z</time>
      </trkpt>
      <trkpt lat="45.89012" lon="4.80549">
        <ele>173</ele>
        <time>2018-11-06T09:43:31Z</time>
      </trkpt>
      <trkpt lat="45.89007" lon="4.80551">
        <ele>173</ele>
        <time>2018-11-06T09:43:32Z</time>
      </trkpt>
      <trkpt lat="45.89002" lon="4.80554">
        <ele>172</ele>
        <time>2018-11-06T09:43:33Z</time>
      </trkpt>
      <trkpt lat="45.88997" lon="4.80556">
        <ele>172</ele>
        <time>2018-11-06T09:43:34Z</time>
      </trkpt>
      <trkpt lat="45.88991" lon="4.80558">
        <ele>172</ele>
        <time>2018-11-06T09:43:35Z</time>
      </trkpt>
      <trkpt lat="45.88985" lon="4.80559">
        <ele>172</ele>
        <time>2018-11-06T09:43:36Z</time>
      </trkpt>
      <trkpt lat="45.88976" lon="4.80562">
        <ele>172</ele>
        <time>2018-11-06T09:43:38Z</time>
      </trkpt>
      <trkpt lat="45.88973" lon="4.80563">
        <ele>172</ele>
        <time>2018-11-06T09:43:39Z</time>
      </trkpt>
      <trkpt lat="45.88966" lon="4.80564">
        <ele>173</ele>
        <time>2018-11-06T09:43:41Z</time>
      </trkpt>
      <trkpt lat="45.88964" lon="4.80564">
        <ele>173</ele>
        <time>2018-11-06T09:43:42Z</time>
      </trkpt>
      <trkpt lat="45.88955" lon="4.80564">
        <ele>173</ele>
        <time>2018-11-06T09:43:45Z</time>
      </trkpt>
      <trkpt lat="45.88949" lon="4.80563">
        <ele>173</ele>
        <time>2018-11-06T09:43:46Z</time>
      </trkpt>
      <trkpt lat="45.88943" lon="4.80563">
        <ele>173</ele>
        <time>2018-11-06T09:43:48Z</time>
      </trkpt>
      <trkpt lat="45.8894" lon="4.80566">
        <ele>172</ele>
        <time>2018-11-06T09:43:49Z</time>
      </trkpt>
      <trkpt lat="45.88937" lon="4.80571">
        <ele>172</ele>
        <time>2018-11-06T09:43:50Z</time>
      </trkpt>
      <trkpt lat="45.88933" lon="4.80576">
        <ele>172</ele>
        <time>2018-11-06T09:43:51Z</time>
      </trkpt>
      <trkpt lat="45.88929" lon="4.8058">
        <ele>172</ele>
        <time>2018-11-06T09:43:52Z</time>
      </trkpt>
      <trkpt lat="45.88925" lon="4.80585">
        <ele>171</ele>
        <time>2018-11-06T09:43:53Z</time>
      </trkpt>
      <trkpt lat="45.88921" lon="4.80591">
        <ele>171</ele>
        <time>2018-11-06T09:43:54Z</time>
      </trkpt>
      <trkpt lat="45.88916" lon="4.80594">
        <ele>171</ele>
        <time>2018-11-06T09:43:55Z</time>
      </trkpt>
      <trkpt lat="45.88911" lon="4.80597">
        <ele>172</ele>
        <time>2018-11-06T09:43:56Z</time>
      </trkpt>
      <trkpt lat="45.88906" lon="4.806">
        <ele>172</ele>
        <time>2018-11-06T09:43:57Z</time>
      </trkpt>
      <trkpt lat="45.88901" lon="4.80603">
        <ele>172</ele>
        <time>2018-11-06T09:43:58Z</time>
      </trkpt>
      <trkpt lat="45.88896" lon="4.80605">
        <ele>172</ele>
        <time>2018-11-06T09:43:59Z</time>
      </trkpt>
      <trkpt lat="45.8889" lon="4.80609">
        <ele>172</ele>
        <time>2018-11-06T09:44:00Z</time>
      </trkpt>
      <trkpt lat="45.88884" lon="4.80612">
        <ele>172</ele>
        <time>2018-11-06T09:44:01Z</time>
      </trkpt>
      <trkpt lat="45.88879" lon="4.80615">
        <ele>172</ele>
        <time>2018-11-06T09:44:02Z</time>
      </trkpt>
      <trkpt lat="45.88873" lon="4.80618">
        <ele>172</ele>
        <time>2018-11-06T09:44:03Z</time>
      </trkpt>
      <trkpt lat="45.88868" lon="4.80623">
        <ele>172</ele>
        <time>2018-11-06T09:44:04Z</time>
      </trkpt>
      <trkpt lat="45.88864" lon="4.80627">
        <ele>173</ele>
        <time>2018-11-06T09:44:05Z</time>
      </trkpt>
      <trkpt lat="45.88859" lon="4.80631">
        <ele>173</ele>
        <time>2018-11-06T09:44:06Z</time>
      </trkpt>
      <trkpt lat="45.88853" lon="4.80635">
        <ele>173</ele>
        <time>2018-11-06T09:44:07Z</time>
      </trkpt>
      <trkpt lat="45.88848" lon="4.80639">
        <ele>173</ele>
        <time>2018-11-06T09:44:08Z</time>
      </trkpt>
      <trkpt lat="45.88843" lon="4.80644">
        <ele>173</ele>
        <time>2018-11-06T09:44:09Z</time>
      </trkpt>
      <trkpt lat="45.88838" lon="4.8065">
        <ele>173</ele>
        <time>2018-11-06T09:44:10Z</time>
      </trkpt>
      <trkpt lat="45.88833" lon="4.80654">
        <ele>174</ele>
        <time>2018-11-06T09:44:11Z</time>
      </trkpt>
      <trkpt lat="45.88828" lon="4.80659">
        <ele>174</ele>
        <time>2018-11-06T09:44:12Z</time>
      </trkpt>
      <trkpt lat="45.88823" lon="4.80664">
        <ele>174</ele>
        <time>2018-11-06T09:44:13Z</time>
      </trkpt>
      <trkpt lat="45.88819" lon="4.8067">
        <ele>173</ele>
        <time>2018-11-06T09:44:14Z</time>
      </trkpt>
      <trkpt lat="45.88814" lon="4.80675">
        <ele>172</ele>
        <time>2018-11-06T09:44:15Z</time>
      </trkpt>
      <trkpt lat="45.8881" lon="4.8068">
        <ele>172</ele>
        <time>2018-11-06T09:44:16Z</time>
      </trkpt>
      <trkpt lat="45.88806" lon="4.80684">
        <ele>172</ele>
        <time>2018-11-06T09:44:17Z</time>
      </trkpt>
      <trkpt lat="45.88802" lon="4.80689">
        <ele>172</ele>
        <time>2018-11-06T09:44:18Z</time>
      </trkpt>
      <trkpt lat="45.88798" lon="4.80694">
        <ele>172</ele>
        <time>2018-11-06T09:44:19Z</time>
      </trkpt>
      <trkpt lat="45.88793" lon="4.80698">
        <ele>172</ele>
        <time>2018-11-06T09:44:20Z</time>
      </trkpt>
      <trkpt lat="45.88788" lon="4.80703">
        <ele>172</ele>
        <time>2018-11-06T09:44:21Z</time>
      </trkpt>
      <trkpt lat="45.88783" lon="4.80708">
        <ele>172</ele>
        <time>2018-11-06T09:44:22Z</time>
      </trkpt>
      <trkpt lat="45.88779" lon="4.80713">
        <ele>172</ele>
        <time>2018-11-06T09:44:23Z</time>
      </trkpt>
      <trkpt lat="45.88774" lon="4.80719">
        <ele>171</ele>
        <time>2018-11-06T09:44:24Z</time>
      </trkpt>
      <trkpt lat="45.88769" lon="4.80725">
        <ele>171</ele>
        <time>2018-11-06T09:44:25Z</time>
      </trkpt>
      <trkpt lat="45.88763" lon="4.80729">
        <ele>171</ele>
        <time>2018-11-06T09:44:26Z</time>
      </trkpt>
      <trkpt lat="45.88759" lon="4.80735">
        <ele>170</ele>
        <time>2018-11-06T09:44:27Z</time>
      </trkpt>
      <trkpt lat="45.88754" lon="4.8074">
        <ele>170</ele>
        <time>2018-11-06T09:44:28Z</time>
      </trkpt>
      <trkpt lat="45.88749" lon="4.80744">
        <ele>170</ele>
        <time>2018-11-06T09:44:29Z</time>
      </trkpt>
      <trkpt lat="45.88744" lon="4.80749">
        <ele>170</ele>
        <time>2018-11-06T09:44:30Z</time>
      </trkpt>
      <trkpt lat="45.88739" lon="4.80753">
        <ele>170</ele>
        <time>2018-11-06T09:44:31Z</time>
      </trkpt>
      <trkpt lat="45.88735" lon="4.80758">
        <ele>170</ele>
        <time>2018-11-06T09:44:32Z</time>
      </trkpt>
      <trkpt lat="45.88732" lon="4.80762">
        <ele>170</ele>
        <time>2018-11-06T09:44:33Z</time>
      </trkpt>
      <trkpt lat="45.88728" lon="4.80767">
        <ele>170</ele>
        <time>2018-11-06T09:44:34Z</time>
      </trkpt>
      <trkpt lat="45.88724" lon="4.8077">
        <ele>170</ele>
        <time>2018-11-06T09:44:35Z</time>
      </trkpt>
      <trkpt lat="45.8872" lon="4.80775">
        <ele>170</ele>
        <time>2018-11-06T09:44:36Z</time>
      </trkpt>
      <trkpt lat="45.88716" lon="4.80779">
        <ele>170</ele>
        <time>2018-11-06T09:44:37Z</time>
      </trkpt>
      <trkpt lat="45.88711" lon="4.80784">
        <ele>170</ele>
        <time>2018-11-06T09:44:38Z</time>
      </trkpt>
      <trkpt lat="45.88707" lon="4.80788">
        <ele>171</ele>
        <time>2018-11-06T09:44:39Z</time>
      </trkpt>
      <trkpt lat="45.88703" lon="4.80792">
        <ele>171</ele>
        <time>2018-11-06T09:44:40Z</time>
      </trkpt>
      <trkpt lat="45.88698" lon="4.80798">
        <ele>171</ele>
        <time>2018-11-06T09:44:41Z</time>
      </trkpt>
      <trkpt lat="45.88694" lon="4.80804">
        <ele>171</ele>
        <time>2018-11-06T09:44:42Z</time>
      </trkpt>
      <trkpt lat="45.88689" lon="4.80809">
        <ele>171</ele>
        <time>2018-11-06T09:44:43Z</time>
      </trkpt>
      <trkpt lat="45.88684" lon="4.80813">
        <ele>171</ele>
        <time>2018-11-06T09:44:44Z</time>
      </trkpt>
      <trkpt lat="45.8868" lon="4.80818">
        <ele>171</ele>
        <time>2018-11-06T09:44:45Z</time>
      </trkpt>
      <trkpt lat="45.88677" lon="4.80823">
        <ele>171</ele>
        <time>2018-11-06T09:44:46Z</time>
      </trkpt>
      <trkpt lat="45.88672" lon="4.80828">
        <ele>171</ele>
        <time>2018-11-06T09:44:47Z</time>
      </trkpt>
      <trkpt lat="45.88668" lon="4.80833">
        <ele>171</ele>
        <time>2018-11-06T09:44:48Z</time>
      </trkpt>
      <trkpt lat="45.88664" lon="4.80839">
        <ele>171</ele>
        <time>2018-11-06T09:44:49Z</time>
      </trkpt>
      <trkpt lat="45.88659" lon="4.80843">
        <ele>171</ele>
        <time>2018-11-06T09:44:50Z</time>
      </trkpt>
      <trkpt lat="45.88655" lon="4.80847">
        <ele>171</ele>
        <time>2018-11-06T09:44:51Z</time>
      </trkpt>
      <trkpt lat="45.88651" lon="4.80852">
        <ele>171</ele>
        <time>2018-11-06T09:44:52Z</time>
      </trkpt>
      <trkpt lat="45.88647" lon="4.80856">
        <ele>171</ele>
        <time>2018-11-06T09:44:53Z</time>
      </trkpt>
      <trkpt lat="45.88643" lon="4.80861">
        <ele>171</ele>
        <time>2018-11-06T09:44:54Z</time>
      </trkpt>
      <trkpt lat="45.88639" lon="4.80865">
        <ele>171</ele>
        <time>2018-11-06T09:44:55Z</time>
      </trkpt>
      <trkpt lat="45.88634" lon="4.80869">
        <ele>171</ele>
        <time>2018-11-06T09:44:56Z</time>
      </trkpt>
      <trkpt lat="45.8863" lon="4.80874">
        <ele>171</ele>
        <time>2018-11-06T09:44:57Z</time>
      </trkpt>
      <trkpt lat="45.88626" lon="4.80878">
        <ele>171</ele>
        <time>2018-11-06T09:44:58Z</time>
      </trkpt>
      <trkpt lat="45.88622" lon="4.80883">
        <ele>171</ele>
        <time>2018-11-06T09:44:59Z</time>
      </trkpt>
      <trkpt lat="45.88618" lon="4.80888">
        <ele>171</ele>
        <time>2018-11-06T09:45:00Z</time>
      </trkpt>
      <trkpt lat="45.88614" lon="4.80894">
        <ele>171</ele>
        <time>2018-11-06T09:45:01Z</time>
      </trkpt>
      <trkpt lat="45.8861" lon="4.80898">
        <ele>170</ele>
        <time>2018-11-06T09:45:02Z</time>
      </trkpt>
      <trkpt lat="45.88605" lon="4.80903">
        <ele>170</ele>
        <time>2018-11-06T09:45:03Z</time>
      </trkpt>
      <trkpt lat="45.886" lon="4.80907">
        <ele>170</ele>
        <time>2018-11-06T09:45:04Z</time>
      </trkpt>
      <trkpt lat="45.88595" lon="4.80913">
        <ele>169</ele>
        <time>2018-11-06T09:45:05Z</time>
      </trkpt>
      <trkpt lat="45.88591" lon="4.80919">
        <ele>168</ele>
        <time>2018-11-06T09:45:06Z</time>
      </trkpt>
      <trkpt lat="45.88585" lon="4.80924">
        <ele>168</ele>
        <time>2018-11-06T09:45:07Z</time>
      </trkpt>
      <trkpt lat="45.88581" lon="4.80929">
        <ele>168</ele>
        <time>2018-11-06T09:45:08Z</time>
      </trkpt>
      <trkpt lat="45.88576" lon="4.80934">
        <ele>169</ele>
        <time>2018-11-06T09:45:09Z</time>
      </trkpt>
      <trkpt lat="45.88571" lon="4.8094">
        <ele>169</ele>
        <time>2018-11-06T09:45:10Z</time>
      </trkpt>
      <trkpt lat="45.88567" lon="4.80945">
        <ele>169</ele>
        <time>2018-11-06T09:45:11Z</time>
      </trkpt>
      <trkpt lat="45.88562" lon="4.8095">
        <ele>169</ele>
        <time>2018-11-06T09:45:12Z</time>
      </trkpt>
      <trkpt lat="45.88555" lon="4.80955">
        <ele>169</ele>
        <time>2018-11-06T09:45:13Z</time>
      </trkpt>
      <trkpt lat="45.88551" lon="4.8096">
        <ele>169</ele>
        <time>2018-11-06T09:45:14Z</time>
      </trkpt>
      <trkpt lat="45.88548" lon="4.80968">
        <ele>169</ele>
        <time>2018-11-06T09:45:15Z</time>
      </trkpt>
      <trkpt lat="45.88543" lon="4.80974">
        <ele>169</ele>
        <time>2018-11-06T09:45:16Z</time>
      </trkpt>
      <trkpt lat="45.88538" lon="4.80979">
        <ele>169</ele>
        <time>2018-11-06T09:45:17Z</time>
      </trkpt>
      <trkpt lat="45.88534" lon="4.80985">
        <ele>169</ele>
        <time>2018-11-06T09:45:18Z</time>
      </trkpt>
      <trkpt lat="45.88529" lon="4.8099">
        <ele>169</ele>
        <time>2018-11-06T09:45:19Z</time>
      </trkpt>
      <trkpt lat="45.88524" lon="4.80996">
        <ele>169</ele>
        <time>2018-11-06T09:45:20Z</time>
      </trkpt>
      <trkpt lat="45.88519" lon="4.81">
        <ele>169</ele>
        <time>2018-11-06T09:45:21Z</time>
      </trkpt>
      <trkpt lat="45.88515" lon="4.81006">
        <ele>169</ele>
        <time>2018-11-06T09:45:22Z</time>
      </trkpt>
      <trkpt lat="45.88511" lon="4.81012">
        <ele>169</ele>
        <time>2018-11-06T09:45:23Z</time>
      </trkpt>
      <trkpt lat="45.88507" lon="4.81018">
        <ele>169</ele>
        <time>2018-11-06T09:45:24Z</time>
      </trkpt>
      <trkpt lat="45.88503" lon="4.81024">
        <ele>169</ele>
        <time>2018-11-06T09:45:25Z</time>
      </trkpt>
      <trkpt lat="45.88499" lon="4.8103">
        <ele>168</ele>
        <time>2018-11-06T09:45:26Z</time>
      </trkpt>
      <trkpt lat="45.88494" lon="4.81036">
        <ele>168</ele>
        <time>2018-11-06T09:45:27Z</time>
      </trkpt>
      <trkpt lat="45.8849" lon="4.81042">
        <ele>168</ele>
        <time>2018-11-06T09:45:28Z</time>
      </trkpt>
      <trkpt lat="45.88486" lon="4.81049">
        <ele>168</ele>
        <time>2018-11-06T09:45:29Z</time>
      </trkpt>
      <trkpt lat="45.88481" lon="4.81054">
        <ele>168</ele>
        <time>2018-11-06T09:45:30Z</time>
      </trkpt>
      <trkpt lat="45.88477" lon="4.8106">
        <ele>168</ele>
        <time>2018-11-06T09:45:31Z</time>
      </trkpt>
      <trkpt lat="45.88472" lon="4.81067">
        <ele>168</ele>
        <time>2018-11-06T09:45:32Z</time>
      </trkpt>
      <trkpt lat="45.88468" lon="4.81073">
        <ele>168</ele>
        <time>2018-11-06T09:45:33Z</time>
      </trkpt>
      <trkpt lat="45.88463" lon="4.81079">
        <ele>168</ele>
        <time>2018-11-06T09:45:34Z</time>
      </trkpt>
      <trkpt lat="45.88459" lon="4.81085">
        <ele>168</ele>
        <time>2018-11-06T09:45:35Z</time>
      </trkpt>
      <trkpt lat="45.88455" lon="4.8109">
        <ele>168</ele>
        <time>2018-11-06T09:45:36Z</time>
      </trkpt>
      <trkpt lat="45.88451" lon="4.81097">
        <ele>168</ele>
        <time>2018-11-06T09:45:37Z</time>
      </trkpt>
      <trkpt lat="45.88447" lon="4.81104">
        <ele>168</ele>
        <time>2018-11-06T09:45:38Z</time>
      </trkpt>
      <trkpt lat="45.88443" lon="4.8111">
        <ele>168</ele>
        <time>2018-11-06T09:45:39Z</time>
      </trkpt>
      <trkpt lat="45.88439" lon="4.81116">
        <ele>168</ele>
        <time>2018-11-06T09:45:40Z</time>
      </trkpt>
      <trkpt lat="45.88435" lon="4.81123">
        <ele>168</ele>
        <time>2018-11-06T09:45:41Z</time>
      </trkpt>
      <trkpt lat="45.88432" lon="4.8113">
        <ele>168</ele>
        <time>2018-11-06T09:45:42Z</time>
      </trkpt>
      <trkpt lat="45.88428" lon="4.81136">
        <ele>168</ele>
        <time>2018-11-06T09:45:43Z</time>
      </trkpt>
      <trkpt lat="45.88425" lon="4.81142">
        <ele>169</ele>
        <time>2018-11-06T09:45:44Z</time>
      </trkpt>
      <trkpt lat="45.8842" lon="4.81148">
        <ele>169</ele>
        <time>2018-11-06T09:45:45Z</time>
      </trkpt>
      <trkpt lat="45.88416" lon="4.81155">
        <ele>170</ele>
        <time>2018-11-06T09:45:46Z</time>
      </trkpt>
      <trkpt lat="45.88412" lon="4.81161">
        <ele>170</ele>
        <time>2018-11-06T09:45:47Z</time>
      </trkpt>
      <trkpt lat="45.88408" lon="4.81167">
        <ele>170</ele>
        <time>2018-11-06T09:45:48Z</time>
      </trkpt>
      <trkpt lat="45.88405" lon="4.81173">
        <ele>170</ele>
        <time>2018-11-06T09:45:49Z</time>
      </trkpt>
      <trkpt lat="45.88401" lon="4.81179">
        <ele>170</ele>
        <time>2018-11-06T09:45:50Z</time>
      </trkpt>
      <trkpt lat="45.88396" lon="4.81184">
        <ele>170</ele>
        <time>2018-11-06T09:45:51Z</time>
      </trkpt>
      <trkpt lat="45.88392" lon="4.81191">
        <ele>170</ele>
        <time>2018-11-06T09:45:52Z</time>
      </trkpt>
      <trkpt lat="45.88388" lon="4.81197">
        <ele>170</ele>
        <time>2018-11-06T09:45:53Z</time>
      </trkpt>
      <trkpt lat="45.88385" lon="4.81204">
        <ele>170</ele>
        <time>2018-11-06T09:45:54Z</time>
      </trkpt>
      <trkpt lat="45.88381" lon="4.8121">
        <ele>170</ele>
        <time>2018-11-06T09:45:55Z</time>
      </trkpt>
      <trkpt lat="45.88377" lon="4.81218">
        <ele>170</ele>
        <time>2018-11-06T09:45:56Z</time>
      </trkpt>
      <trkpt lat="45.88373" lon="4.81224">
        <ele>170</ele>
        <time>2018-11-06T09:45:57Z</time>
      </trkpt>
      <trkpt lat="45.88369" lon="4.81231">
        <ele>170</ele>
        <time>2018-11-06T09:45:58Z</time>
      </trkpt>
      <trkpt lat="45.88365" lon="4.81237">
        <ele>170</ele>
        <time>2018-11-06T09:45:59Z</time>
      </trkpt>
      <trkpt lat="45.88362" lon="4.81245">
        <ele>170</ele>
        <time>2018-11-06T09:46:00Z</time>
      </trkpt>
      <trkpt lat="45.88359" lon="4.81253">
        <ele>170</ele>
        <time>2018-11-06T09:46:01Z</time>
      </trkpt>
      <trkpt lat="45.88355" lon="4.8126">
        <ele>170</ele>
        <time>2018-11-06T09:46:02Z</time>
      </trkpt>
      <trkpt lat="45.88351" lon="4.81267">
        <ele>170</ele>
        <time>2018-11-06T09:46:03Z</time>
      </trkpt>
      <trkpt lat="45.88347" lon="4.81274">
        <ele>170</ele>
        <time>2018-11-06T09:46:04Z</time>
      </trkpt>
      <trkpt lat="45.88342" lon="4.81281">
        <ele>170</ele>
        <time>2018-11-06T09:46:05Z</time>
      </trkpt>
      <trkpt lat="45.88338" lon="4.81288">
        <ele>170</ele>
        <time>2018-11-06T09:46:06Z</time>
      </trkpt>
      <trkpt lat="45.88334" lon="4.81295">
        <ele>171</ele>
        <time>2018-11-06T09:46:07Z</time>
      </trkpt>
      <trkpt lat="45.88329" lon="4.81301">
        <ele>172</ele>
        <time>2018-11-06T09:46:08Z</time>
      </trkpt>
      <trkpt lat="45.88325" lon="4.81309">
        <ele>172</ele>
        <time>2018-11-06T09:46:09Z</time>
      </trkpt>
      <trkpt lat="45.88321" lon="4.81318">
        <ele>172</ele>
        <time>2018-11-06T09:46:10Z</time>
      </trkpt>
      <trkpt lat="45.88317" lon="4.81326">
        <ele>172</ele>
        <time>2018-11-06T09:46:11Z</time>
      </trkpt>
      <trkpt lat="45.88315" lon="4.81334">
        <ele>171</ele>
        <time>2018-11-06T09:46:12Z</time>
      </trkpt>
      <trkpt lat="45.88311" lon="4.81341">
        <ele>170</ele>
        <time>2018-11-06T09:46:13Z</time>
      </trkpt>
      <trkpt lat="45.88307" lon="4.81349">
        <ele>170</ele>
        <time>2018-11-06T09:46:14Z</time>
      </trkpt>
      <trkpt lat="45.88304" lon="4.81355">
        <ele>169</ele>
        <time>2018-11-06T09:46:15Z</time>
      </trkpt>
      <trkpt lat="45.88304" lon="4.81361">
        <ele>169</ele>
        <time>2018-11-06T09:46:16Z</time>
      </trkpt>
      <trkpt lat="45.883" lon="4.8137">
        <ele>169</ele>
        <time>2018-11-06T09:46:17Z</time>
      </trkpt>
      <trkpt lat="45.88298" lon="4.81377">
        <ele>168</ele>
        <time>2018-11-06T09:46:18Z</time>
      </trkpt>
      <trkpt lat="45.88294" lon="4.81384">
        <ele>168</ele>
        <time>2018-11-06T09:46:19Z</time>
      </trkpt>
      <trkpt lat="45.88291" lon="4.81391">
        <ele>168</ele>
        <time>2018-11-06T09:46:20Z</time>
      </trkpt>
      <trkpt lat="45.88288" lon="4.81398">
        <ele>168</ele>
        <time>2018-11-06T09:46:21Z</time>
      </trkpt>
      <trkpt lat="45.88284" lon="4.81405">
        <ele>167</ele>
        <time>2018-11-06T09:46:22Z</time>
      </trkpt>
      <trkpt lat="45.88281" lon="4.81413">
        <ele>167</ele>
        <time>2018-11-06T09:46:23Z</time>
      </trkpt>
      <trkpt lat="45.88277" lon="4.8142">
        <ele>166</ele>
        <time>2018-11-06T09:46:24Z</time>
      </trkpt>
      <trkpt lat="45.88273" lon="4.81428">
        <ele>166</ele>
        <time>2018-11-06T09:46:25Z</time>
      </trkpt>
      <trkpt lat="45.8827" lon="4.81436">
        <ele>166</ele>
        <time>2018-11-06T09:46:26Z</time>
      </trkpt>
      <trkpt lat="45.88266" lon="4.81443">
        <ele>166</ele>
        <time>2018-11-06T09:46:27Z</time>
      </trkpt>
      <trkpt lat="45.88262" lon="4.8145">
        <ele>166</ele>
        <time>2018-11-06T09:46:28Z</time>
      </trkpt>
      <trkpt lat="45.88258" lon="4.81458">
        <ele>166</ele>
        <time>2018-11-06T09:46:29Z</time>
      </trkpt>
      <trkpt lat="45.88254" lon="4.81465">
        <ele>166</ele>
        <time>2018-11-06T09:46:30Z</time>
      </trkpt>
      <trkpt lat="45.88251" lon="4.81472">
        <ele>167</ele>
        <time>2018-11-06T09:46:31Z</time>
      </trkpt>
      <trkpt lat="45.88246" lon="4.8148">
        <ele>169</ele>
        <time>2018-11-06T09:46:32Z</time>
      </trkpt>
      <trkpt lat="45.88242" lon="4.81488">
        <ele>169</ele>
        <time>2018-11-06T09:46:33Z</time>
      </trkpt>
      <trkpt lat="45.88238" lon="4.81496">
        <ele>169</ele>
        <time>2018-11-06T09:46:34Z</time>
      </trkpt>
      <trkpt lat="45.88236" lon="4.81503">
        <ele>169</ele>
        <time>2018-11-06T09:46:35Z</time>
      </trkpt>
      <trkpt lat="45.88233" lon="4.8151">
        <ele>170</ele>
        <time>2018-11-06T09:46:36Z</time>
      </trkpt>
      <trkpt lat="45.88228" lon="4.81518">
        <ele>170</ele>
        <time>2018-11-06T09:46:37Z</time>
      </trkpt>
      <trkpt lat="45.88226" lon="4.81526">
        <ele>170</ele>
        <time>2018-11-06T09:46:38Z</time>
      </trkpt>
      <trkpt lat="45.88223" lon="4.81536">
        <ele>170</ele>
        <time>2018-11-06T09:46:39Z</time>
      </trkpt>
      <trkpt lat="45.88219" lon="4.81543">
        <ele>170</ele>
        <time>2018-11-06T09:46:40Z</time>
      </trkpt>
      <trkpt lat="45.88216" lon="4.81552">
        <ele>170</ele>
        <time>2018-11-06T09:46:41Z</time>
      </trkpt>
      <trkpt lat="45.88213" lon="4.8156">
        <ele>171</ele>
        <time>2018-11-06T09:46:42Z</time>
      </trkpt>
      <trkpt lat="45.88209" lon="4.81568">
        <ele>171</ele>
        <time>2018-11-06T09:46:43Z</time>
      </trkpt>
      <trkpt lat="45.88206" lon="4.81576">
        <ele>171</ele>
        <time>2018-11-06T09:46:44Z</time>
      </trkpt>
      <trkpt lat="45.88203" lon="4.81584">
        <ele>171</ele>
        <time>2018-11-06T09:46:45Z</time>
      </trkpt>
      <trkpt lat="45.88199" lon="4.81592">
        <ele>171</ele>
        <time>2018-11-06T09:46:46Z</time>
      </trkpt>
      <trkpt lat="45.88195" lon="4.816">
        <ele>171</ele>
        <time>2018-11-06T09:46:47Z</time>
      </trkpt>
      <trkpt lat="45.88192" lon="4.81608">
        <ele>171</ele>
        <time>2018-11-06T09:46:48Z</time>
      </trkpt>
      <trkpt lat="45.88186" lon="4.81615">
        <ele>171</ele>
        <time>2018-11-06T09:46:49Z</time>
      </trkpt>
      <trkpt lat="45.88182" lon="4.81622">
        <ele>171</ele>
        <time>2018-11-06T09:46:50Z</time>
      </trkpt>
      <trkpt lat="45.88179" lon="4.81633">
        <ele>171</ele>
        <time>2018-11-06T09:46:51Z</time>
      </trkpt>
      <trkpt lat="45.88173" lon="4.81639">
        <ele>171</ele>
        <time>2018-11-06T09:46:52Z</time>
      </trkpt>
      <trkpt lat="45.8817" lon="4.81647">
        <ele>172</ele>
        <time>2018-11-06T09:46:53Z</time>
      </trkpt>
      <trkpt lat="45.88169" lon="4.81657">
        <ele>172</ele>
        <time>2018-11-06T09:46:54Z</time>
      </trkpt>
      <trkpt lat="45.88165" lon="4.81665">
        <ele>173</ele>
        <time>2018-11-06T09:46:55Z</time>
      </trkpt>
      <trkpt lat="45.88163" lon="4.81671">
        <ele>173</ele>
        <time>2018-11-06T09:46:56Z</time>
      </trkpt>
      <trkpt lat="45.8816" lon="4.81678">
        <ele>172</ele>
        <time>2018-11-06T09:46:57Z</time>
      </trkpt>
      <trkpt lat="45.88155" lon="4.81687">
        <ele>172</ele>
        <time>2018-11-06T09:46:58Z</time>
      </trkpt>
      <trkpt lat="45.88153" lon="4.81695">
        <ele>171</ele>
        <time>2018-11-06T09:46:59Z</time>
      </trkpt>
      <trkpt lat="45.8815" lon="4.81703">
        <ele>171</ele>
        <time>2018-11-06T09:47:00Z</time>
      </trkpt>
      <trkpt lat="45.88146" lon="4.81712">
        <ele>170</ele>
        <time>2018-11-06T09:47:01Z</time>
      </trkpt>
      <trkpt lat="45.88143" lon="4.81721">
        <ele>170</ele>
        <time>2018-11-06T09:47:02Z</time>
      </trkpt>
      <trkpt lat="45.88139" lon="4.81729">
        <ele>170</ele>
        <time>2018-11-06T09:47:03Z</time>
      </trkpt>
      <trkpt lat="45.88135" lon="4.81738">
        <ele>170</ele>
        <time>2018-11-06T09:47:04Z</time>
      </trkpt>
      <trkpt lat="45.88133" lon="4.81746">
        <ele>169</ele>
        <time>2018-11-06T09:47:05Z</time>
      </trkpt>
      <trkpt lat="45.8813" lon="4.81755">
        <ele>167</ele>
        <time>2018-11-06T09:47:06Z</time>
      </trkpt>
      <trkpt lat="45.88127" lon="4.81763">
        <ele>167</ele>
        <time>2018-11-06T09:47:07Z</time>
      </trkpt>
      <trkpt lat="45.88123" lon="4.81772">
        <ele>167</ele>
        <time>2018-11-06T09:47:08Z</time>
      </trkpt>
      <trkpt lat="45.8812" lon="4.8178">
        <ele>167</ele>
        <time>2018-11-06T09:47:09Z</time>
      </trkpt>
      <trkpt lat="45.88118" lon="4.81787">
        <ele>167</ele>
        <time>2018-11-06T09:47:10Z</time>
      </trkpt>
      <trkpt lat="45.88114" lon="4.81797">
        <ele>167</ele>
        <time>2018-11-06T09:47:11Z</time>
      </trkpt>
      <trkpt lat="45.88112" lon="4.81806">
        <ele>167</ele>
        <time>2018-11-06T09:47:12Z</time>
      </trkpt>
      <trkpt lat="45.88109" lon="4.81814">
        <ele>167</ele>
        <time>2018-11-06T09:47:13Z</time>
      </trkpt>
      <trkpt lat="45.88106" lon="4.81823">
        <ele>167</ele>
        <time>2018-11-06T09:47:14Z</time>
      </trkpt>
      <trkpt lat="45.88102" lon="4.81831">
        <ele>167</ele>
        <time>2018-11-06T09:47:15Z</time>
      </trkpt>
      <trkpt lat="45.881" lon="4.81839">
        <ele>166</ele>
        <time>2018-11-06T09:47:16Z</time>
      </trkpt>
      <trkpt lat="45.88096" lon="4.81848">
        <ele>166</ele>
        <time>2018-11-06T09:47:17Z</time>
      </trkpt>
      <trkpt lat="45.88093" lon="4.81857">
        <ele>166</ele>
        <time>2018-11-06T09:47:18Z</time>
      </trkpt>
      <trkpt lat="45.8809" lon="4.81865">
        <ele>166</ele>
        <time>2018-11-06T09:47:19Z</time>
      </trkpt>
      <trkpt lat="45.88087" lon="4.81874">
        <ele>166</ele>
        <time>2018-11-06T09:47:20Z</time>
      </trkpt>
      <trkpt lat="45.88084" lon="4.81883">
        <ele>166</ele>
        <time>2018-11-06T09:47:21Z</time>
      </trkpt>
      <trkpt lat="45.88081" lon="4.81891">
        <ele>167</ele>
        <time>2018-11-06T09:47:22Z</time>
      </trkpt>
      <trkpt lat="45.88078" lon="4.81899">
        <ele>167</ele>
        <time>2018-11-06T09:47:23Z</time>
      </trkpt>
      <trkpt lat="45.88075" lon="4.81908">
        <ele>166</ele>
        <time>2018-11-06T09:47:24Z</time>
      </trkpt>
      <trkpt lat="45.88071" lon="4.81917">
        <ele>166</ele>
        <time>2018-11-06T09:47:25Z</time>
      </trkpt>
      <trkpt lat="45.88071" lon="4.81927">
        <ele>167</ele>
        <time>2018-11-06T09:47:26Z</time>
      </trkpt>
      <trkpt lat="45.88068" lon="4.81936">
        <ele>167</ele>
        <time>2018-11-06T09:47:27Z</time>
      </trkpt>
      <trkpt lat="45.88064" lon="4.81945">
        <ele>168</ele>
        <time>2018-11-06T09:47:28Z</time>
      </trkpt>
      <trkpt lat="45.88061" lon="4.81952">
        <ele>168</ele>
        <time>2018-11-06T09:47:29Z</time>
      </trkpt>
      <trkpt lat="45.88058" lon="4.8196">
        <ele>168</ele>
        <time>2018-11-06T09:47:30Z</time>
      </trkpt>
      <trkpt lat="45.88055" lon="4.8197">
        <ele>168</ele>
        <time>2018-11-06T09:47:31Z</time>
      </trkpt>
      <trkpt lat="45.88052" lon="4.81979">
        <ele>168</ele>
        <time>2018-11-06T09:47:32Z</time>
      </trkpt>
      <trkpt lat="45.88049" lon="4.81986">
        <ele>168</ele>
        <time>2018-11-06T09:47:33Z</time>
      </trkpt>
      <trkpt lat="45.88046" lon="4.81994">
        <ele>169</ele>
        <time>2018-11-06T09:47:34Z</time>
      </trkpt>
      <trkpt lat="45.88043" lon="4.82003">
        <ele>168</ele>
        <time>2018-11-06T09:47:35Z</time>
      </trkpt>
      <trkpt lat="45.8804" lon="4.82011">
        <ele>169</ele>
        <time>2018-11-06T09:47:36Z</time>
      </trkpt>
      <trkpt lat="45.88037" lon="4.82019">
        <ele>169</ele>
        <time>2018-11-06T09:47:37Z</time>
      </trkpt>
      <trkpt lat="45.88034" lon="4.82027">
        <ele>169</ele>
        <time>2018-11-06T09:47:38Z</time>
      </trkpt>
      <trkpt lat="45.88031" lon="4.82035">
        <ele>169</ele>
        <time>2018-11-06T09:47:39Z</time>
      </trkpt>
      <trkpt lat="45.88028" lon="4.82043">
        <ele>169</ele>
        <time>2018-11-06T09:47:40Z</time>
      </trkpt>
      <trkpt lat="45.88025" lon="4.82049">
        <ele>169</ele>
        <time>2018-11-06T09:47:41Z</time>
      </trkpt>
      <trkpt lat="45.88022" lon="4.82055">
        <ele>169</ele>
        <time>2018-11-06T09:47:42Z</time>
      </trkpt>
      <trkpt lat="45.88018" lon="4.8206">
        <ele>169</ele>
        <time>2018-11-06T09:47:43Z</time>
      </trkpt>
      <trkpt lat="45.88014" lon="4.82065">
        <ele>169</ele>
        <time>2018-11-06T09:47:44Z</time>
      </trkpt>
      <trkpt lat="45.88011" lon="4.82068">
        <ele>169</ele>
        <time>2018-11-06T09:47:45Z</time>
      </trkpt>
      <trkpt lat="45.88006" lon="4.82071">
        <ele>169</ele>
        <time>2018-11-06T09:47:46Z</time>
      </trkpt>
      <trkpt lat="45.88001" lon="4.82072">
        <ele>169</ele>
        <time>2018-11-06T09:47:47Z</time>
      </trkpt>
      <trkpt lat="45.87995" lon="4.82072">
        <ele>171</ele>
        <time>2018-11-06T09:47:48Z</time>
      </trkpt>
      <trkpt lat="45.87992" lon="4.82074">
        <ele>172</ele>
        <time>2018-11-06T09:47:49Z</time>
      </trkpt>
      <trkpt lat="45.87987" lon="4.82078">
        <ele>172</ele>
        <time>2018-11-06T09:47:50Z</time>
      </trkpt>
      <trkpt lat="45.87984" lon="4.82082">
        <ele>172</ele>
        <time>2018-11-06T09:47:51Z</time>
      </trkpt>
      <trkpt lat="45.87981" lon="4.82089">
        <ele>171</ele>
        <time>2018-11-06T09:47:52Z</time>
      </trkpt>
      <trkpt lat="45.87978" lon="4.82096">
        <ele>171</ele>
        <time>2018-11-06T09:47:53Z</time>
      </trkpt>
      <trkpt lat="45.87976" lon="4.82104">
        <ele>171</ele>
        <time>2018-11-06T09:47:54Z</time>
      </trkpt>
      <trkpt lat="45.87973" lon="4.82112">
        <ele>171</ele>
        <time>2018-11-06T09:47:55Z</time>
      </trkpt>
      <trkpt lat="45.87969" lon="4.82119">
        <ele>172</ele>
        <time>2018-11-06T09:47:56Z</time>
      </trkpt>
      <trkpt lat="45.87967" lon="4.82127">
        <ele>172</ele>
        <time>2018-11-06T09:47:57Z</time>
      </trkpt>
      <trkpt lat="45.87964" lon="4.82135">
        <ele>171</ele>
        <time>2018-11-06T09:47:58Z</time>
      </trkpt>
      <trkpt lat="45.87963" lon="4.82143">
        <ele>171</ele>
        <time>2018-11-06T09:47:59Z</time>
      </trkpt>
      <trkpt lat="45.87962" lon="4.82152">
        <ele>171</ele>
        <time>2018-11-06T09:48:00Z</time>
      </trkpt>
      <trkpt lat="45.87961" lon="4.8216">
        <ele>171</ele>
        <time>2018-11-06T09:48:01Z</time>
      </trkpt>
      <trkpt lat="45.8796" lon="4.82168">
        <ele>170</ele>
        <time>2018-11-06T09:48:02Z</time>
      </trkpt>
      <trkpt lat="45.8796" lon="4.82177">
        <ele>170</ele>
        <time>2018-11-06T09:48:03Z</time>
      </trkpt>
      <trkpt lat="45.87959" lon="4.82185">
        <ele>170</ele>
        <time>2018-11-06T09:48:04Z</time>
      </trkpt>
      <trkpt lat="45.87957" lon="4.82195">
        <ele>170</ele>
        <time>2018-11-06T09:48:05Z</time>
      </trkpt>
      <trkpt lat="45.87956" lon="4.82205">
        <ele>170</ele>
        <time>2018-11-06T09:48:06Z</time>
      </trkpt>
      <trkpt lat="45.87955" lon="4.82214">
        <ele>170</ele>
        <time>2018-11-06T09:48:07Z</time>
      </trkpt>
      <trkpt lat="45.87953" lon="4.82223">
        <ele>170</ele>
        <time>2018-11-06T09:48:08Z</time>
      </trkpt>
      <trkpt lat="45.87952" lon="4.82231">
        <ele>170</ele>
        <time>2018-11-06T09:48:09Z</time>
      </trkpt>
      <trkpt lat="45.87951" lon="4.8224">
        <ele>170</ele>
        <time>2018-11-06T09:48:10Z</time>
      </trkpt>
      <trkpt lat="45.87951" lon="4.82248">
        <ele>170</ele>
        <time>2018-11-06T09:48:11Z</time>
      </trkpt>
      <trkpt lat="45.87949" lon="4.82256">
        <ele>169</ele>
        <time>2018-11-06T09:48:12Z</time>
      </trkpt>
      <trkpt lat="45.87948" lon="4.82264">
        <ele>169</ele>
        <time>2018-11-06T09:48:13Z</time>
      </trkpt>
      <trkpt lat="45.87946" lon="4.82271">
        <ele>169</ele>
        <time>2018-11-06T09:48:14Z</time>
      </trkpt>
      <trkpt lat="45.87944" lon="4.82281">
        <ele>169</ele>
        <time>2018-11-06T09:48:15Z</time>
      </trkpt>
      <trkpt lat="45.87944" lon="4.82289">
        <ele>169</ele>
        <time>2018-11-06T09:48:16Z</time>
      </trkpt>
      <trkpt lat="45.87942" lon="4.82296">
        <ele>169</ele>
        <time>2018-11-06T09:48:17Z</time>
      </trkpt>
      <trkpt lat="45.87942" lon="4.82304">
        <ele>168</ele>
        <time>2018-11-06T09:48:18Z</time>
      </trkpt>
      <trkpt lat="45.87941" lon="4.82313">
        <ele>169</ele>
        <time>2018-11-06T09:48:19Z</time>
      </trkpt>
      <trkpt lat="45.8794" lon="4.82322">
        <ele>169</ele>
        <time>2018-11-06T09:48:20Z</time>
      </trkpt>
      <trkpt lat="45.8794" lon="4.82331">
        <ele>169</ele>
        <time>2018-11-06T09:48:21Z</time>
      </trkpt>
      <trkpt lat="45.87939" lon="4.82339">
        <ele>168</ele>
        <time>2018-11-06T09:48:22Z</time>
      </trkpt>
      <trkpt lat="45.87937" lon="4.82348">
        <ele>168</ele>
        <time>2018-11-06T09:48:23Z</time>
      </trkpt>
      <trkpt lat="45.87936" lon="4.82356">
        <ele>168</ele>
        <time>2018-11-06T09:48:24Z</time>
      </trkpt>
      <trkpt lat="45.87935" lon="4.82365">
        <ele>167</ele>
        <time>2018-11-06T09:48:25Z</time>
      </trkpt>
      <trkpt lat="45.87934" lon="4.82374">
        <ele>167</ele>
        <time>2018-11-06T09:48:26Z</time>
      </trkpt>
      <trkpt lat="45.87933" lon="4.82381">
        <ele>167</ele>
        <time>2018-11-06T09:48:27Z</time>
      </trkpt>
      <trkpt lat="45.87932" lon="4.82389">
        <ele>167</ele>
        <time>2018-11-06T09:48:28Z</time>
      </trkpt>
      <trkpt lat="45.87931" lon="4.82396">
        <ele>167</ele>
        <time>2018-11-06T09:48:29Z</time>
      </trkpt>
      <trkpt lat="45.87931" lon="4.82405">
        <ele>167</ele>
        <time>2018-11-06T09:48:30Z</time>
      </trkpt>
      <trkpt lat="45.87931" lon="4.82413">
        <ele>167</ele>
        <time>2018-11-06T09:48:31Z</time>
      </trkpt>
      <trkpt lat="45.8793" lon="4.82422">
        <ele>167</ele>
        <time>2018-11-06T09:48:32Z</time>
      </trkpt>
      <trkpt lat="45.87928" lon="4.8243">
        <ele>167</ele>
        <time>2018-11-06T09:48:33Z</time>
      </trkpt>
      <trkpt lat="45.87928" lon="4.82438">
        <ele>167</ele>
        <time>2018-11-06T09:48:34Z</time>
      </trkpt>
      <trkpt lat="45.87926" lon="4.82446">
        <ele>167</ele>
        <time>2018-11-06T09:48:35Z</time>
      </trkpt>
      <trkpt lat="45.87925" lon="4.82455">
        <ele>167</ele>
        <time>2018-11-06T09:48:36Z</time>
      </trkpt>
      <trkpt lat="45.87923" lon="4.82464">
        <ele>167</ele>
        <time>2018-11-06T09:48:37Z</time>
      </trkpt>
      <trkpt lat="45.87921" lon="4.82473">
        <ele>167</ele>
        <time>2018-11-06T09:48:38Z</time>
      </trkpt>
      <trkpt lat="45.87919" lon="4.82483">
        <ele>167</ele>
        <time>2018-11-06T09:48:39Z</time>
      </trkpt>
      <trkpt lat="45.87917" lon="4.82491">
        <ele>167</ele>
        <time>2018-11-06T09:48:40Z</time>
      </trkpt>
      <trkpt lat="45.87918" lon="4.82499">
        <ele>168</ele>
        <time>2018-11-06T09:48:41Z</time>
      </trkpt>
      <trkpt lat="45.87916" lon="4.82508">
        <ele>168</ele>
        <time>2018-11-06T09:48:42Z</time>
      </trkpt>
      <trkpt lat="45.87915" lon="4.82515">
        <ele>168</ele>
        <time>2018-11-06T09:48:43Z</time>
      </trkpt>
      <trkpt lat="45.87913" lon="4.82523">
        <ele>168</ele>
        <time>2018-11-06T09:48:44Z</time>
      </trkpt>
      <trkpt lat="45.87911" lon="4.82531">
        <ele>168</ele>
        <time>2018-11-06T09:48:45Z</time>
      </trkpt>
      <trkpt lat="45.87909" lon="4.82539">
        <ele>168</ele>
        <time>2018-11-06T09:48:46Z</time>
      </trkpt>
      <trkpt lat="45.87907" lon="4.82546">
        <ele>168</ele>
        <time>2018-11-06T09:48:47Z</time>
      </trkpt>
      <trkpt lat="45.87905" lon="4.82553">
        <ele>168</ele>
        <time>2018-11-06T09:48:48Z</time>
      </trkpt>
      <trkpt lat="45.87903" lon="4.82561">
        <ele>167</ele>
        <time>2018-11-06T09:48:49Z</time>
      </trkpt>
      <trkpt lat="45.879" lon="4.82568">
        <ele>167</ele>
        <time>2018-11-06T09:48:50Z</time>
      </trkpt>
      <trkpt lat="45.87898" lon="4.82577">
        <ele>167</ele>
        <time>2018-11-06T09:48:51Z</time>
      </trkpt>
      <trkpt lat="45.87897" lon="4.82585">
        <ele>167</ele>
        <time>2018-11-06T09:48:52Z</time>
      </trkpt>
      <trkpt lat="45.87895" lon="4.82593">
        <ele>167</ele>
        <time>2018-11-06T09:48:53Z</time>
      </trkpt>
      <trkpt lat="45.87892" lon="4.82603">
        <ele>167</ele>
        <time>2018-11-06T09:48:54Z</time>
      </trkpt>
      <trkpt lat="45.87891" lon="4.82611">
        <ele>167</ele>
        <time>2018-11-06T09:48:55Z</time>
      </trkpt>
      <trkpt lat="45.87888" lon="4.82618">
        <ele>168</ele>
        <time>2018-11-06T09:48:56Z</time>
      </trkpt>
      <trkpt lat="45.87887" lon="4.82626">
        <ele>168</ele>
        <time>2018-11-06T09:48:57Z</time>
      </trkpt>
      <trkpt lat="45.87885" lon="4.82633">
        <ele>168</ele>
        <time>2018-11-06T09:48:58Z</time>
      </trkpt>
      <trkpt lat="45.87883" lon="4.82641">
        <ele>168</ele>
        <time>2018-11-06T09:48:59Z</time>
      </trkpt>
      <trkpt lat="45.87881" lon="4.82648">
        <ele>168</ele>
        <time>2018-11-06T09:49:00Z</time>
      </trkpt>
      <trkpt lat="45.8788" lon="4.82654">
        <ele>168</ele>
        <time>2018-11-06T09:49:01Z</time>
      </trkpt>
      <trkpt lat="45.87878" lon="4.82662">
        <ele>168</ele>
        <time>2018-11-06T09:49:02Z</time>
      </trkpt>
      <trkpt lat="45.87877" lon="4.82668">
        <ele>169</ele>
        <time>2018-11-06T09:49:03Z</time>
      </trkpt>
      <trkpt lat="45.87876" lon="4.82676">
        <ele>169</ele>
        <time>2018-11-06T09:49:04Z</time>
      </trkpt>
      <trkpt lat="45.87875" lon="4.82682">
        <ele>169</ele>
        <time>2018-11-06T09:49:05Z</time>
      </trkpt>
      <trkpt lat="45.87875" lon="4.8269">
        <ele>169</ele>
        <time>2018-11-06T09:49:06Z</time>
      </trkpt>
      <trkpt lat="45.87874" lon="4.82697">
        <ele>169</ele>
        <time>2018-11-06T09:49:07Z</time>
      </trkpt>
      <trkpt lat="45.87874" lon="4.82704">
        <ele>169</ele>
        <time>2018-11-06T09:49:08Z</time>
      </trkpt>
      <trkpt lat="45.87873" lon="4.82712">
        <ele>169</ele>
        <time>2018-11-06T09:49:09Z</time>
      </trkpt>
      <trkpt lat="45.87873" lon="4.8272">
        <ele>169</ele>
        <time>2018-11-06T09:49:10Z</time>
      </trkpt>
      <trkpt lat="45.87872" lon="4.82727">
        <ele>169</ele>
        <time>2018-11-06T09:49:11Z</time>
      </trkpt>
      <trkpt lat="45.87871" lon="4.82735">
        <ele>169</ele>
        <time>2018-11-06T09:49:12Z</time>
      </trkpt>
      <trkpt lat="45.87869" lon="4.8274">
        <ele>170</ele>
        <time>2018-11-06T09:49:13Z</time>
      </trkpt>
      <trkpt lat="45.87862" lon="4.82744">
        <ele>170</ele>
        <time>2018-11-06T09:49:15Z</time>
      </trkpt>
      <trkpt lat="45.87858" lon="4.82743">
        <ele>171</ele>
        <time>2018-11-06T09:49:16Z</time>
      </trkpt>
      <trkpt lat="45.87851" lon="4.8274">
        <ele>171</ele>
        <time>2018-11-06T09:49:19Z</time>
      </trkpt>
      <trkpt lat="45.87845" lon="4.82738">
        <ele>172</ele>
        <time>2018-11-06T09:49:20Z</time>
      </trkpt>
      <trkpt lat="45.87837" lon="4.82735">
        <ele>172</ele>
        <time>2018-11-06T09:49:22Z</time>
      </trkpt>
      <trkpt lat="45.87824" lon="4.82727">
        <ele>175</ele>
        <time>2018-11-06T09:49:26Z</time>
      </trkpt>
      <trkpt lat="45.87817" lon="4.82723">
        <ele>175</ele>
        <time>2018-11-06T09:49:29Z</time>
      </trkpt>
      <trkpt lat="45.87815" lon="4.82725">
        <ele>175</ele>
        <time>2018-11-06T09:49:30Z</time>
      </trkpt>
      <trkpt lat="45.87809" lon="4.82728">
        <ele>175</ele>
        <time>2018-11-06T09:49:31Z</time>
      </trkpt>
      <trkpt lat="45.87805" lon="4.8273">
        <ele>175</ele>
        <time>2018-11-06T09:49:32Z</time>
      </trkpt>
      <trkpt lat="45.87797" lon="4.82734">
        <ele>176</ele>
        <time>2018-11-06T09:49:34Z</time>
      </trkpt>
      <trkpt lat="45.87792" lon="4.82734">
        <ele>176</ele>
        <time>2018-11-06T09:49:35Z</time>
      </trkpt>
      <trkpt lat="45.87784" lon="4.82735">
        <ele>176</ele>
        <time>2018-11-06T09:49:37Z</time>
      </trkpt>
      <trkpt lat="45.8778" lon="4.82735">
        <ele>176</ele>
        <time>2018-11-06T09:49:38Z</time>
      </trkpt>
      <trkpt lat="45.87772" lon="4.82735">
        <ele>177</ele>
        <time>2018-11-06T09:49:40Z</time>
      </trkpt>
      <trkpt lat="45.87769" lon="4.82735">
        <ele>177</ele>
        <time>2018-11-06T09:49:41Z</time>
      </trkpt>
      <trkpt lat="45.87762" lon="4.82734">
        <ele>177</ele>
        <time>2018-11-06T09:49:44Z</time>
      </trkpt>
      <trkpt lat="45.87759" lon="4.82734">
        <ele>177</ele>
        <time>2018-11-06T09:49:45Z</time>
      </trkpt>
      <trkpt lat="45.87751" lon="4.82729">
        <ele>177</ele>
        <time>2018-11-06T09:49:48Z</time>
      </trkpt>
      <trkpt lat="45.87749" lon="4.82727">
        <ele>179</ele>
        <time>2018-11-06T09:49:49Z</time>
      </trkpt>
      <trkpt lat="45.87742" lon="4.82723">
        <ele>179</ele>
        <time>2018-11-06T09:49:51Z</time>
      </trkpt>
      <trkpt lat="45.87739" lon="4.82721">
        <ele>179</ele>
        <time>2018-11-06T09:49:52Z</time>
      </trkpt>
      <trkpt lat="45.87732" lon="4.82718">
        <ele>180</ele>
        <time>2018-11-06T09:49:54Z</time>
      </trkpt>
      <trkpt lat="45.87728" lon="4.82716">
        <ele>180</ele>
        <time>2018-11-06T09:49:55Z</time>
      </trkpt>
      <trkpt lat="45.87723" lon="4.82712">
        <ele>180</ele>
        <time>2018-11-06T09:49:56Z</time>
      </trkpt>
      <trkpt lat="45.8772" lon="4.8271">
        <ele>180</ele>
        <time>2018-11-06T09:49:57Z</time>
      </trkpt>
      <trkpt lat="45.87713" lon="4.82705">
        <ele>180</ele>
        <time>2018-11-06T09:50:00Z</time>
      </trkpt>
      <trkpt lat="45.87708" lon="4.82702">
        <ele>180</ele>
        <time>2018-11-06T09:50:01Z</time>
      </trkpt>
      <trkpt lat="45.87702" lon="4.82698">
        <ele>181</ele>
        <time>2018-11-06T09:50:03Z</time>
      </trkpt>
      <trkpt lat="45.87698" lon="4.82696">
        <ele>181</ele>
        <time>2018-11-06T09:50:04Z</time>
      </trkpt>
      <trkpt lat="45.8769" lon="4.82693">
        <ele>181</ele>
        <time>2018-11-06T09:50:06Z</time>
      </trkpt>
      <trkpt lat="45.87688" lon="4.82692">
        <ele>181</ele>
        <time>2018-11-06T09:50:07Z</time>
      </trkpt>
      <trkpt lat="45.87679" lon="4.8269">
        <ele>181</ele>
        <time>2018-11-06T09:50:09Z</time>
      </trkpt>
      <trkpt lat="45.87675" lon="4.82689">
        <ele>182</ele>
        <time>2018-11-06T09:50:10Z</time>
      </trkpt>
      <trkpt lat="45.87669" lon="4.82689">
        <ele>182</ele>
        <time>2018-11-06T09:50:12Z</time>
      </trkpt>
      <trkpt lat="45.87664" lon="4.82688">
        <ele>184</ele>
        <time>2018-11-06T09:50:13Z</time>
      </trkpt>
      <trkpt lat="45.87658" lon="4.82687">
        <ele>184</ele>
        <time>2018-11-06T09:50:15Z</time>
      </trkpt>
      <trkpt lat="45.87655" lon="4.82686">
        <ele>184</ele>
        <time>2018-11-06T09:50:16Z</time>
      </trkpt>
      <trkpt lat="45.87649" lon="4.82683">
        <ele>184</ele>
        <time>2018-11-06T09:50:18Z</time>
      </trkpt>
      <trkpt lat="45.87646" lon="4.82681">
        <ele>184</ele>
        <time>2018-11-06T09:50:19Z</time>
      </trkpt>
      <trkpt lat="45.8764" lon="4.82676">
        <ele>184</ele>
        <time>2018-11-06T09:50:21Z</time>
      </trkpt>
      <trkpt lat="45.87633" lon="4.82671">
        <ele>185</ele>
        <time>2018-11-06T09:50:22Z</time>
      </trkpt>
      <trkpt lat="45.87627" lon="4.82667">
        <ele>185</ele>
        <time>2018-11-06T09:50:24Z</time>
      </trkpt>
      <trkpt lat="45.87625" lon="4.82666">
        <ele>187</ele>
        <time>2018-11-06T09:50:25Z</time>
      </trkpt>
      <trkpt lat="45.87617" lon="4.82659">
        <ele>188</ele>
        <time>2018-11-06T09:50:27Z</time>
      </trkpt>
      <trkpt lat="45.87614" lon="4.82656">
        <ele>188</ele>
        <time>2018-11-06T09:50:28Z</time>
      </trkpt>
      <trkpt lat="45.87608" lon="4.82652">
        <ele>188</ele>
        <time>2018-11-06T09:50:31Z</time>
      </trkpt>
      <trkpt lat="45.87605" lon="4.82651">
        <ele>188</ele>
        <time>2018-11-06T09:50:32Z</time>
      </trkpt>
      <trkpt lat="45.87597" lon="4.82646">
        <ele>188</ele>
        <time>2018-11-06T09:50:35Z</time>
      </trkpt>
      <trkpt lat="45.87594" lon="4.82644">
        <ele>188</ele>
        <time>2018-11-06T09:50:36Z</time>
      </trkpt>
      <trkpt lat="45.87587" lon="4.8264">
        <ele>188</ele>
        <time>2018-11-06T09:50:39Z</time>
      </trkpt>
      <trkpt lat="45.87584" lon="4.82639">
        <ele>188</ele>
        <time>2018-11-06T09:50:40Z</time>
      </trkpt>
      <trkpt lat="45.87576" lon="4.82634">
        <ele>190</ele>
        <time>2018-11-06T09:50:43Z</time>
      </trkpt>
      <trkpt lat="45.87574" lon="4.82632">
        <ele>190</ele>
        <time>2018-11-06T09:50:44Z</time>
      </trkpt>
      <trkpt lat="45.87567" lon="4.82629">
        <ele>190</ele>
        <time>2018-11-06T09:50:47Z</time>
      </trkpt>
      <trkpt lat="45.87565" lon="4.82628">
        <ele>190</ele>
        <time>2018-11-06T09:50:48Z</time>
      </trkpt>
      <trkpt lat="45.87558" lon="4.82624">
        <ele>191</ele>
        <time>2018-11-06T09:50:52Z</time>
      </trkpt>
      <trkpt lat="45.87556" lon="4.82623">
        <ele>191</ele>
        <time>2018-11-06T09:50:53Z</time>
      </trkpt>
      <trkpt lat="45.87548" lon="4.82619">
        <ele>191</ele>
        <time>2018-11-06T09:50:57Z</time>
      </trkpt>
      <trkpt lat="45.87546" lon="4.82618">
        <ele>191</ele>
        <time>2018-11-06T09:50:58Z</time>
      </trkpt>
      <trkpt lat="45.87539" lon="4.82613">
        <ele>191</ele>
        <time>2018-11-06T09:51:01Z</time>
      </trkpt>
      <trkpt lat="45.87537" lon="4.82611">
        <ele>191</ele>
        <time>2018-11-06T09:51:02Z</time>
      </trkpt>
      <trkpt lat="45.87532" lon="4.82605">
        <ele>191</ele>
        <time>2018-11-06T09:51:05Z</time>
      </trkpt>
      <trkpt lat="45.87529" lon="4.82603">
        <ele>191</ele>
        <time>2018-11-06T09:51:06Z</time>
      </trkpt>
      <trkpt lat="45.87524" lon="4.82595">
        <ele>191</ele>
        <time>2018-11-06T09:51:09Z</time>
      </trkpt>
      <trkpt lat="45.87522" lon="4.82592">
        <ele>191</ele>
        <time>2018-11-06T09:51:10Z</time>
      </trkpt>
      <trkpt lat="45.87517" lon="4.82584">
        <ele>191</ele>
        <time>2018-11-06T09:51:13Z</time>
      </trkpt>
      <trkpt lat="45.87515" lon="4.82581">
        <ele>192</ele>
        <time>2018-11-06T09:51:14Z</time>
      </trkpt>
      <trkpt lat="45.87509" lon="4.82575">
        <ele>192</ele>
        <time>2018-11-06T09:51:17Z</time>
      </trkpt>
      <trkpt lat="45.87508" lon="4.82573">
        <ele>192</ele>
        <time>2018-11-06T09:51:18Z</time>
      </trkpt>
      <trkpt lat="45.87502" lon="4.82565">
        <ele>192</ele>
        <time>2018-11-06T09:51:22Z</time>
      </trkpt>
      <trkpt lat="45.87501" lon="4.82563">
        <ele>192</ele>
        <time>2018-11-06T09:51:23Z</time>
      </trkpt>
      <trkpt lat="45.87496" lon="4.82554">
        <ele>194</ele>
        <time>2018-11-06T09:51:27Z</time>
      </trkpt>
      <trkpt lat="45.87494" lon="4.82553">
        <ele>195</ele>
        <time>2018-11-06T09:51:28Z</time>
      </trkpt>
      <trkpt lat="45.87487" lon="4.82546">
        <ele>195</ele>
        <time>2018-11-06T09:51:33Z</time>
      </trkpt>
      <trkpt lat="45.87485" lon="4.82544">
        <ele>195</ele>
        <time>2018-11-06T09:51:34Z</time>
      </trkpt>
      <trkpt lat="45.87479" lon="4.8254">
        <ele>195</ele>
        <time>2018-11-06T09:51:37Z</time>
      </trkpt>
      <trkpt lat="45.87477" lon="4.82538">
        <ele>195</ele>
        <time>2018-11-06T09:51:38Z</time>
      </trkpt>
      <trkpt lat="45.8747" lon="4.82535">
        <ele>196</ele>
        <time>2018-11-06T09:51:41Z</time>
      </trkpt>
      <trkpt lat="45.87468" lon="4.82534">
        <ele>196</ele>
        <time>2018-11-06T09:51:42Z</time>
      </trkpt>
      <trkpt lat="45.87461" lon="4.8253">
        <ele>196</ele>
        <time>2018-11-06T09:51:45Z</time>
      </trkpt>
      <trkpt lat="45.87458" lon="4.82528">
        <ele>196</ele>
        <time>2018-11-06T09:51:46Z</time>
      </trkpt>
      <trkpt lat="45.87451" lon="4.82524">
        <ele>197</ele>
        <time>2018-11-06T09:51:49Z</time>
      </trkpt>
      <trkpt lat="45.87449" lon="4.82523">
        <ele>197</ele>
        <time>2018-11-06T09:51:50Z</time>
      </trkpt>
      <trkpt lat="45.87441" lon="4.82519">
        <ele>197</ele>
        <time>2018-11-06T09:51:54Z</time>
      </trkpt>
      <trkpt lat="45.87439" lon="4.82518">
        <ele>197</ele>
        <time>2018-11-06T09:51:55Z</time>
      </trkpt>
      <trkpt lat="45.87432" lon="4.82511">
        <ele>197</ele>
        <time>2018-11-06T09:51:59Z</time>
      </trkpt>
      <trkpt lat="45.87431" lon="4.82509">
        <ele>197</ele>
        <time>2018-11-06T09:52:00Z</time>
      </trkpt>
      <trkpt lat="45.87425" lon="4.825">
        <ele>198</ele>
        <time>2018-11-06T09:52:04Z</time>
      </trkpt>
      <trkpt lat="45.87424" lon="4.82496">
        <ele>198</ele>
        <time>2018-11-06T09:52:05Z</time>
      </trkpt>
      <trkpt lat="45.87419" lon="4.82488">
        <ele>197</ele>
        <time>2018-11-06T09:52:09Z</time>
      </trkpt>
      <trkpt lat="45.87417" lon="4.82485">
        <ele>197</ele>
        <time>2018-11-06T09:52:10Z</time>
      </trkpt>
      <trkpt lat="45.87412" lon="4.82475">
        <ele>200</ele>
        <time>2018-11-06T09:52:14Z</time>
      </trkpt>
      <trkpt lat="45.87411" lon="4.82473">
        <ele>200</ele>
        <time>2018-11-06T09:52:15Z</time>
      </trkpt>
      <trkpt lat="45.87406" lon="4.82466">
        <ele>200</ele>
        <time>2018-11-06T09:52:18Z</time>
      </trkpt>
      <trkpt lat="45.87404" lon="4.82464">
        <ele>200</ele>
        <time>2018-11-06T09:52:19Z</time>
      </trkpt>
      <trkpt lat="45.87399" lon="4.82457">
        <ele>200</ele>
        <time>2018-11-06T09:52:22Z</time>
      </trkpt>
      <trkpt lat="45.87397" lon="4.82455">
        <ele>201</ele>
        <time>2018-11-06T09:52:23Z</time>
      </trkpt>
      <trkpt lat="45.87391" lon="4.82445">
        <ele>201</ele>
        <time>2018-11-06T09:52:27Z</time>
      </trkpt>
      <trkpt lat="45.8739" lon="4.82443">
        <ele>201</ele>
        <time>2018-11-06T09:52:28Z</time>
      </trkpt>
      <trkpt lat="45.87385" lon="4.82435">
        <ele>201</ele>
        <time>2018-11-06T09:52:31Z</time>
      </trkpt>
      <trkpt lat="45.87383" lon="4.82433">
        <ele>201</ele>
        <time>2018-11-06T09:52:32Z</time>
      </trkpt>
      <trkpt lat="45.87378" lon="4.82425">
        <ele>201</ele>
        <time>2018-11-06T09:52:35Z</time>
      </trkpt>
      <trkpt lat="45.87376" lon="4.82423">
        <ele>201</ele>
        <time>2018-11-06T09:52:36Z</time>
      </trkpt>
      <trkpt lat="45.8737" lon="4.82416">
        <ele>200</ele>
        <time>2018-11-06T09:52:39Z</time>
      </trkpt>
      <trkpt lat="45.87367" lon="4.82413">
        <ele>201</ele>
        <time>2018-11-06T09:52:40Z</time>
      </trkpt>
      <trkpt lat="45.87361" lon="4.82406">
        <ele>201</ele>
        <time>2018-11-06T09:52:43Z</time>
      </trkpt>
      <trkpt lat="45.87359" lon="4.82403">
        <ele>201</ele>
        <time>2018-11-06T09:52:44Z</time>
      </trkpt>
      <trkpt lat="45.87353" lon="4.82395">
        <ele>201</ele>
        <time>2018-11-06T09:52:47Z</time>
      </trkpt>
      <trkpt lat="45.87351" lon="4.82393">
        <ele>201</ele>
        <time>2018-11-06T09:52:48Z</time>
      </trkpt>
      <trkpt lat="45.87346" lon="4.82387">
        <ele>201</ele>
        <time>2018-11-06T09:52:50Z</time>
      </trkpt>
      <trkpt lat="45.87343" lon="4.82384">
        <ele>201</ele>
        <time>2018-11-06T09:52:51Z</time>
      </trkpt>
      <trkpt lat="45.87338" lon="4.82378">
        <ele>201</ele>
        <time>2018-11-06T09:52:54Z</time>
      </trkpt>
      <trkpt lat="45.87336" lon="4.82376">
        <ele>201</ele>
        <time>2018-11-06T09:52:55Z</time>
      </trkpt>
      <trkpt lat="45.8733" lon="4.8237">
        <ele>205</ele>
        <time>2018-11-06T09:52:58Z</time>
      </trkpt>
      <trkpt lat="45.87328" lon="4.82369">
        <ele>205</ele>
        <time>2018-11-06T09:52:59Z</time>
      </trkpt>
      <trkpt lat="45.87322" lon="4.82361">
        <ele>205</ele>
        <time>2018-11-06T09:53:02Z</time>
      </trkpt>
      <trkpt lat="45.87319" lon="4.82358">
        <ele>205</ele>
        <time>2018-11-06T09:53:03Z</time>
      </trkpt>
      <trkpt lat="45.87313" lon="4.82353">
        <ele>205</ele>
        <time>2018-11-06T09:53:05Z</time>
      </trkpt>
      <trkpt lat="45.87311" lon="4.82351">
        <ele>205</ele>
        <time>2018-11-06T09:53:06Z</time>
      </trkpt>
      <trkpt lat="45.87304" lon="4.82344">
        <ele>205</ele>
        <time>2018-11-06T09:53:09Z</time>
      </trkpt>
      <trkpt lat="45.87303" lon="4.82342">
        <ele>205</ele>
        <time>2018-11-06T09:53:10Z</time>
      </trkpt>
      <trkpt lat="45.87297" lon="4.82335">
        <ele>205</ele>
        <time>2018-11-06T09:53:12Z</time>
      </trkpt>
      <trkpt lat="45.87295" lon="4.82332">
        <ele>203</ele>
        <time>2018-11-06T09:53:13Z</time>
      </trkpt>
      <trkpt lat="45.87291" lon="4.82326">
        <ele>204</ele>
        <time>2018-11-06T09:53:15Z</time>
      </trkpt>
      <trkpt lat="45.87289" lon="4.82322">
        <ele>204</ele>
        <time>2018-11-06T09:53:16Z</time>
      </trkpt>
      <trkpt lat="45.87284" lon="4.82315">
        <ele>204</ele>
        <time>2018-11-06T09:53:18Z</time>
      </trkpt>
      <trkpt lat="45.87282" lon="4.82312">
        <ele>204</ele>
        <time>2018-11-06T09:53:19Z</time>
      </trkpt>
      <trkpt lat="45.87278" lon="4.82305">
        <ele>204</ele>
        <time>2018-11-06T09:53:21Z</time>
      </trkpt>
      <trkpt lat="45.87276" lon="4.82302">
        <ele>204</ele>
        <time>2018-11-06T09:53:22Z</time>
      </trkpt>
      <trkpt lat="45.87271" lon="4.82293">
        <ele>204</ele>
        <time>2018-11-06T09:53:24Z</time>
      </trkpt>
      <trkpt lat="45.87269" lon="4.8229">
        <ele>204</ele>
        <time>2018-11-06T09:53:25Z</time>
      </trkpt>
      <trkpt lat="45.87264" lon="4.82283">
        <ele>204</ele>
        <time>2018-11-06T09:53:27Z</time>
      </trkpt>
      <trkpt lat="45.87262" lon="4.8228">
        <ele>204</ele>
        <time>2018-11-06T09:53:28Z</time>
      </trkpt>
      <trkpt lat="45.87259" lon="4.82272">
        <ele>203</ele>
        <time>2018-11-06T09:53:30Z</time>
      </trkpt>
      <trkpt lat="45.87257" lon="4.82268">
        <ele>203</ele>
        <time>2018-11-06T09:53:31Z</time>
      </trkpt>
      <trkpt lat="45.87253" lon="4.82259">
        <ele>203</ele>
        <time>2018-11-06T09:53:34Z</time>
      </trkpt>
      <trkpt lat="45.87252" lon="4.82255">
        <ele>203</ele>
        <time>2018-11-06T09:53:35Z</time>
      </trkpt>
      <trkpt lat="45.87249" lon="4.82247">
        <ele>203</ele>
        <time>2018-11-06T09:53:37Z</time>
      </trkpt>
      <trkpt lat="45.87248" lon="4.82243">
        <ele>204</ele>
        <time>2018-11-06T09:53:38Z</time>
      </trkpt>
      <trkpt lat="45.87245" lon="4.82235">
        <ele>205</ele>
        <time>2018-11-06T09:53:40Z</time>
      </trkpt>
      <trkpt lat="45.87244" lon="4.82229">
        <ele>205</ele>
        <time>2018-11-06T09:53:41Z</time>
      </trkpt>
      <trkpt lat="45.87242" lon="4.82218">
        <ele>206</ele>
        <time>2018-11-06T09:53:44Z</time>
      </trkpt>
      <trkpt lat="45.87241" lon="4.82214">
        <ele>206</ele>
        <time>2018-11-06T09:53:45Z</time>
      </trkpt>
      <trkpt lat="45.87239" lon="4.82204">
        <ele>206</ele>
        <time>2018-11-06T09:53:48Z</time>
      </trkpt>
      <trkpt lat="45.87237" lon="4.82201">
        <ele>207</ele>
        <time>2018-11-06T09:53:49Z</time>
      </trkpt>
      <trkpt lat="45.87233" lon="4.82192">
        <ele>207</ele>
        <time>2018-11-06T09:53:52Z</time>
      </trkpt>
      <trkpt lat="45.87231" lon="4.82189">
        <ele>207</ele>
        <time>2018-11-06T09:53:53Z</time>
      </trkpt>
      <trkpt lat="45.87225" lon="4.82184">
        <ele>207</ele>
        <time>2018-11-06T09:53:55Z</time>
      </trkpt>
      <trkpt lat="45.87223" lon="4.82182">
        <ele>207</ele>
        <time>2018-11-06T09:53:56Z</time>
      </trkpt>
      <trkpt lat="45.87216" lon="4.82178">
        <ele>207</ele>
        <time>2018-11-06T09:53:59Z</time>
      </trkpt>
      <trkpt lat="45.87213" lon="4.82177">
        <ele>207</ele>
        <time>2018-11-06T09:54:00Z</time>
      </trkpt>
      <trkpt lat="45.87207" lon="4.82172">
        <ele>207</ele>
        <time>2018-11-06T09:54:02Z</time>
      </trkpt>
      <trkpt lat="45.87204" lon="4.8217">
        <ele>207</ele>
        <time>2018-11-06T09:54:03Z</time>
      </trkpt>
      <trkpt lat="45.87199" lon="4.82166">
        <ele>209</ele>
        <time>2018-11-06T09:54:05Z</time>
      </trkpt>
      <trkpt lat="45.87196" lon="4.82164">
        <ele>209</ele>
        <time>2018-11-06T09:54:06Z</time>
      </trkpt>
      <trkpt lat="45.87188" lon="4.82158">
        <ele>209</ele>
        <time>2018-11-06T09:54:09Z</time>
      </trkpt>
      <trkpt lat="45.87186" lon="4.82157">
        <ele>209</ele>
        <time>2018-11-06T09:54:10Z</time>
      </trkpt>
      <trkpt lat="45.87179" lon="4.82152">
        <ele>209</ele>
        <time>2018-11-06T09:54:13Z</time>
      </trkpt>
      <trkpt lat="45.87177" lon="4.8215">
        <ele>209</ele>
        <time>2018-11-06T09:54:14Z</time>
      </trkpt>
      <trkpt lat="45.87169" lon="4.82146">
        <ele>209</ele>
        <time>2018-11-06T09:54:17Z</time>
      </trkpt>
      <trkpt lat="45.87166" lon="4.82145">
        <ele>210</ele>
        <time>2018-11-06T09:54:18Z</time>
      </trkpt>
      <trkpt lat="45.87159" lon="4.82141">
        <ele>211</ele>
        <time>2018-11-06T09:54:21Z</time>
      </trkpt>
      <trkpt lat="45.87156" lon="4.82139">
        <ele>211</ele>
        <time>2018-11-06T09:54:22Z</time>
      </trkpt>
      <trkpt lat="45.8715" lon="4.82131">
        <ele>211</ele>
        <time>2018-11-06T09:54:25Z</time>
      </trkpt>
      <trkpt lat="45.87148" lon="4.82128">
        <ele>211</ele>
        <time>2018-11-06T09:54:26Z</time>
      </trkpt>
      <trkpt lat="45.87143" lon="4.82121">
        <ele>212</ele>
        <time>2018-11-06T09:54:29Z</time>
      </trkpt>
      <trkpt lat="45.87141" lon="4.82119">
        <ele>212</ele>
        <time>2018-11-06T09:54:30Z</time>
      </trkpt>
      <trkpt lat="45.87134" lon="4.82113">
        <ele>212</ele>
        <time>2018-11-06T09:54:33Z</time>
      </trkpt>
      <trkpt lat="45.87131" lon="4.82111">
        <ele>212</ele>
        <time>2018-11-06T09:54:34Z</time>
      </trkpt>
      <trkpt lat="45.87123" lon="4.82106">
        <ele>212</ele>
        <time>2018-11-06T09:54:37Z</time>
      </trkpt>
      <trkpt lat="45.8712" lon="4.82104">
        <ele>212</ele>
        <time>2018-11-06T09:54:38Z</time>
      </trkpt>
      <trkpt lat="45.87112" lon="4.821">
        <ele>213</ele>
        <time>2018-11-06T09:54:41Z</time>
      </trkpt>
      <trkpt lat="45.8711" lon="4.82099">
        <ele>213</ele>
        <time>2018-11-06T09:54:42Z</time>
      </trkpt>
      <trkpt lat="45.87102" lon="4.82095">
        <ele>213</ele>
        <time>2018-11-06T09:54:45Z</time>
      </trkpt>
      <trkpt lat="45.871" lon="4.82093">
        <ele>213</ele>
        <time>2018-11-06T09:54:46Z</time>
      </trkpt>
      <trkpt lat="45.87092" lon="4.82088">
        <ele>214</ele>
        <time>2018-11-06T09:54:49Z</time>
      </trkpt>
      <trkpt lat="45.87089" lon="4.82086">
        <ele>214</ele>
        <time>2018-11-06T09:54:50Z</time>
      </trkpt>
      <trkpt lat="45.87082" lon="4.82081">
        <ele>215</ele>
        <time>2018-11-06T09:54:53Z</time>
      </trkpt>
      <trkpt lat="45.87079" lon="4.82079">
        <ele>215</ele>
        <time>2018-11-06T09:54:54Z</time>
      </trkpt>
      <trkpt lat="45.87072" lon="4.82073">
        <ele>216</ele>
        <time>2018-11-06T09:54:57Z</time>
      </trkpt>
      <trkpt lat="45.87069" lon="4.82071">
        <ele>216</ele>
        <time>2018-11-06T09:54:58Z</time>
      </trkpt>
      <trkpt lat="45.87063" lon="4.82066">
        <ele>217</ele>
        <time>2018-11-06T09:55:01Z</time>
      </trkpt>
      <trkpt lat="45.87061" lon="4.82065">
        <ele>217</ele>
        <time>2018-11-06T09:55:02Z</time>
      </trkpt>
      <trkpt lat="45.87054" lon="4.8206">
        <ele>218</ele>
        <time>2018-11-06T09:55:05Z</time>
      </trkpt>
      <trkpt lat="45.87051" lon="4.82058">
        <ele>218</ele>
        <time>2018-11-06T09:55:06Z</time>
      </trkpt>
      <trkpt lat="45.87044" lon="4.82053">
        <ele>218</ele>
        <time>2018-11-06T09:55:09Z</time>
      </trkpt>
      <trkpt lat="45.87041" lon="4.82051">
        <ele>218</ele>
        <time>2018-11-06T09:55:10Z</time>
      </trkpt>
      <trkpt lat="45.87033" lon="4.82046">
        <ele>218</ele>
        <time>2018-11-06T09:55:13Z</time>
      </trkpt>
      <trkpt lat="45.87031" lon="4.82045">
        <ele>218</ele>
        <time>2018-11-06T09:55:14Z</time>
      </trkpt>
      <trkpt lat="45.87023" lon="4.82039">
        <ele>218</ele>
        <time>2018-11-06T09:55:17Z</time>
      </trkpt>
      <trkpt lat="45.8702" lon="4.82037">
        <ele>218</ele>
        <time>2018-11-06T09:55:18Z</time>
      </trkpt>
      <trkpt lat="45.87013" lon="4.82033">
        <ele>218</ele>
        <time>2018-11-06T09:55:21Z</time>
      </trkpt>
      <trkpt lat="45.87011" lon="4.82031">
        <ele>218</ele>
        <time>2018-11-06T09:55:22Z</time>
      </trkpt>
      <trkpt lat="45.87004" lon="4.82026">
        <ele>218</ele>
        <time>2018-11-06T09:55:26Z</time>
      </trkpt>
      <trkpt lat="45.87002" lon="4.82024">
        <ele>218</ele>
        <time>2018-11-06T09:55:27Z</time>
      </trkpt>
      <trkpt lat="45.86995" lon="4.82019">
        <ele>222</ele>
        <time>2018-11-06T09:55:30Z</time>
      </trkpt>
      <trkpt lat="45.86993" lon="4.82018">
        <ele>222</ele>
        <time>2018-11-06T09:55:31Z</time>
      </trkpt>
      <trkpt lat="45.86986" lon="4.82013">
        <ele>222</ele>
        <time>2018-11-06T09:55:34Z</time>
      </trkpt>
      <trkpt lat="45.86983" lon="4.82011">
        <ele>222</ele>
        <time>2018-11-06T09:55:35Z</time>
      </trkpt>
      <trkpt lat="45.86976" lon="4.82007">
        <ele>223</ele>
        <time>2018-11-06T09:55:38Z</time>
      </trkpt>
      <trkpt lat="45.86974" lon="4.82005">
        <ele>223</ele>
        <time>2018-11-06T09:55:39Z</time>
      </trkpt>
      <trkpt lat="45.86966" lon="4.82">
        <ele>224</ele>
        <time>2018-11-06T09:55:42Z</time>
      </trkpt>
      <trkpt lat="45.86964" lon="4.81999">
        <ele>224</ele>
        <time>2018-11-06T09:55:43Z</time>
      </trkpt>
      <trkpt lat="45.86957" lon="4.81994">
        <ele>225</ele>
        <time>2018-11-06T09:55:47Z</time>
      </trkpt>
      <trkpt lat="45.86955" lon="4.81993">
        <ele>225</ele>
        <time>2018-11-06T09:55:48Z</time>
      </trkpt>
      <trkpt lat="45.86949" lon="4.81988">
        <ele>226</ele>
        <time>2018-11-06T09:55:51Z</time>
      </trkpt>
      <trkpt lat="45.86947" lon="4.81986">
        <ele>226</ele>
        <time>2018-11-06T09:55:52Z</time>
      </trkpt>
      <trkpt lat="45.8694" lon="4.81981">
        <ele>226</ele>
        <time>2018-11-06T09:55:55Z</time>
      </trkpt>
      <trkpt lat="45.86938" lon="4.81979">
        <ele>226</ele>
        <time>2018-11-06T09:55:56Z</time>
      </trkpt>
      <trkpt lat="45.86931" lon="4.81973">
        <ele>226</ele>
        <time>2018-11-06T09:55:59Z</time>
      </trkpt>
      <trkpt lat="45.86929" lon="4.81971">
        <ele>226</ele>
        <time>2018-11-06T09:56:00Z</time>
      </trkpt>
      <trkpt lat="45.86924" lon="4.81965">
        <ele>226</ele>
        <time>2018-11-06T09:56:03Z</time>
      </trkpt>
      <trkpt lat="45.86922" lon="4.81963">
        <ele>226</ele>
        <time>2018-11-06T09:56:04Z</time>
      </trkpt>
      <trkpt lat="45.86915" lon="4.81955">
        <ele>230</ele>
        <time>2018-11-06T09:56:08Z</time>
      </trkpt>
      <trkpt lat="45.86913" lon="4.81953">
        <ele>230</ele>
        <time>2018-11-06T09:56:09Z</time>
      </trkpt>
      <trkpt lat="45.86907" lon="4.81943">
        <ele>230</ele>
        <time>2018-11-06T09:56:13Z</time>
      </trkpt>
      <trkpt lat="45.86906" lon="4.81941">
        <ele>230</ele>
        <time>2018-11-06T09:56:14Z</time>
      </trkpt>
      <trkpt lat="45.869" lon="4.81932">
        <ele>230</ele>
        <time>2018-11-06T09:56:18Z</time>
      </trkpt>
      <trkpt lat="45.86898" lon="4.8193">
        <ele>230</ele>
        <time>2018-11-06T09:56:19Z</time>
      </trkpt>
      <trkpt lat="45.86893" lon="4.81923">
        <ele>230</ele>
        <time>2018-11-06T09:56:23Z</time>
      </trkpt>
      <trkpt lat="45.86891" lon="4.81921">
        <ele>230</ele>
        <time>2018-11-06T09:56:24Z</time>
      </trkpt>
      <trkpt lat="45.86885" lon="4.81913">
        <ele>230</ele>
        <time>2018-11-06T09:56:27Z</time>
      </trkpt>
      <trkpt lat="45.86883" lon="4.81911">
        <ele>231</ele>
        <time>2018-11-06T09:56:28Z</time>
      </trkpt>
      <trkpt lat="45.86877" lon="4.81902">
        <ele>231</ele>
        <time>2018-11-06T09:56:31Z</time>
      </trkpt>
      <trkpt lat="45.86875" lon="4.819">
        <ele>231</ele>
        <time>2018-11-06T09:56:32Z</time>
      </trkpt>
      <trkpt lat="45.8687" lon="4.81891">
        <ele>232</ele>
        <time>2018-11-06T09:56:35Z</time>
      </trkpt>
      <trkpt lat="45.86868" lon="4.81888">
        <ele>232</ele>
        <time>2018-11-06T09:56:36Z</time>
      </trkpt>
      <trkpt lat="45.86864" lon="4.81878">
        <ele>232</ele>
        <time>2018-11-06T09:56:39Z</time>
      </trkpt>
      <trkpt lat="45.86862" lon="4.81874">
        <ele>232</ele>
        <time>2018-11-06T09:56:40Z</time>
      </trkpt>
      <trkpt lat="45.86858" lon="4.81866">
        <ele>232</ele>
        <time>2018-11-06T09:56:43Z</time>
      </trkpt>
      <trkpt lat="45.86856" lon="4.81863">
        <ele>232</ele>
        <time>2018-11-06T09:56:44Z</time>
      </trkpt>
      <trkpt lat="45.86853" lon="4.81856">
        <ele>231</ele>
        <time>2018-11-06T09:56:46Z</time>
      </trkpt>
      <trkpt lat="45.86851" lon="4.81852">
        <ele>231</ele>
        <time>2018-11-06T09:56:47Z</time>
      </trkpt>
      <trkpt lat="45.86847" lon="4.81841">
        <ele>231</ele>
        <time>2018-11-06T09:56:50Z</time>
      </trkpt>
      <trkpt lat="45.86845" lon="4.81838">
        <ele>230</ele>
        <time>2018-11-06T09:56:51Z</time>
      </trkpt>
      <trkpt lat="45.86842" lon="4.8183">
        <ele>233</ele>
        <time>2018-11-06T09:56:53Z</time>
      </trkpt>
      <trkpt lat="45.8684" lon="4.81827">
        <ele>233</ele>
        <time>2018-11-06T09:56:54Z</time>
      </trkpt>
      <trkpt lat="45.86836" lon="4.81817">
        <ele>235</ele>
        <time>2018-11-06T09:56:57Z</time>
      </trkpt>
      <trkpt lat="45.86834" lon="4.81814">
        <ele>235</ele>
        <time>2018-11-06T09:56:58Z</time>
      </trkpt>
      <trkpt lat="45.86831" lon="4.81804">
        <ele>235</ele>
        <time>2018-11-06T09:57:01Z</time>
      </trkpt>
      <trkpt lat="45.8683" lon="4.81801">
        <ele>235</ele>
        <time>2018-11-06T09:57:02Z</time>
      </trkpt>
      <trkpt lat="45.86826" lon="4.81791">
        <ele>236</ele>
        <time>2018-11-06T09:57:05Z</time>
      </trkpt>
      <trkpt lat="45.86825" lon="4.81787">
        <ele>236</ele>
        <time>2018-11-06T09:57:06Z</time>
      </trkpt>
      <trkpt lat="45.86823" lon="4.81779">
        <ele>237</ele>
        <time>2018-11-06T09:57:08Z</time>
      </trkpt>
      <trkpt lat="45.86821" lon="4.81775">
        <ele>237</ele>
        <time>2018-11-06T09:57:09Z</time>
      </trkpt>
      <trkpt lat="45.86818" lon="4.81768">
        <ele>237</ele>
        <time>2018-11-06T09:57:11Z</time>
      </trkpt>
      <trkpt lat="45.86816" lon="4.81763">
        <ele>237</ele>
        <time>2018-11-06T09:57:12Z</time>
      </trkpt>
      <trkpt lat="45.8681" lon="4.81753">
        <ele>238</ele>
        <time>2018-11-06T09:57:15Z</time>
      </trkpt>
      <trkpt lat="45.86809" lon="4.8175">
        <ele>240</ele>
        <time>2018-11-06T09:57:16Z</time>
      </trkpt>
      <trkpt lat="45.86805" lon="4.81743">
        <ele>240</ele>
        <time>2018-11-06T09:57:19Z</time>
      </trkpt>
      <trkpt lat="45.86803" lon="4.81739">
        <ele>240</ele>
        <time>2018-11-06T09:57:20Z</time>
      </trkpt>
      <trkpt lat="45.86798" lon="4.81729">
        <ele>240</ele>
        <time>2018-11-06T09:57:23Z</time>
      </trkpt>
      <trkpt lat="45.86797" lon="4.81725">
        <ele>241</ele>
        <time>2018-11-06T09:57:24Z</time>
      </trkpt>
      <trkpt lat="45.86794" lon="4.81718">
        <ele>241</ele>
        <time>2018-11-06T09:57:26Z</time>
      </trkpt>
      <trkpt lat="45.86792" lon="4.81714">
        <ele>241</ele>
        <time>2018-11-06T09:57:27Z</time>
      </trkpt>
      <trkpt lat="45.86788" lon="4.81704">
        <ele>241</ele>
        <time>2018-11-06T09:57:30Z</time>
      </trkpt>
      <trkpt lat="45.86786" lon="4.81701">
        <ele>241</ele>
        <time>2018-11-06T09:57:31Z</time>
      </trkpt>
      <trkpt lat="45.86782" lon="4.8169">
        <ele>241</ele>
        <time>2018-11-06T09:57:34Z</time>
      </trkpt>
      <trkpt lat="45.8678" lon="4.81686">
        <ele>240</ele>
        <time>2018-11-06T09:57:35Z</time>
      </trkpt>
      <trkpt lat="45.86775" lon="4.81675">
        <ele>240</ele>
        <time>2018-11-06T09:57:38Z</time>
      </trkpt>
      <trkpt lat="45.86774" lon="4.81672">
        <ele>239</ele>
        <time>2018-11-06T09:57:39Z</time>
      </trkpt>
      <trkpt lat="45.86769" lon="4.81662">
        <ele>241</ele>
        <time>2018-11-06T09:57:42Z</time>
      </trkpt>
      <trkpt lat="45.86768" lon="4.81658">
        <ele>241</ele>
        <time>2018-11-06T09:57:43Z</time>
      </trkpt>
      <trkpt lat="45.86763" lon="4.81647">
        <ele>242</ele>
        <time>2018-11-06T09:57:46Z</time>
      </trkpt>
      <trkpt lat="45.86761" lon="4.81643">
        <ele>242</ele>
        <time>2018-11-06T09:57:47Z</time>
      </trkpt>
      <trkpt lat="45.86755" lon="4.81633">
        <ele>243</ele>
        <time>2018-11-06T09:57:50Z</time>
      </trkpt>
      <trkpt lat="45.86754" lon="4.8163">
        <ele>243</ele>
        <time>2018-11-06T09:57:51Z</time>
      </trkpt>
      <trkpt lat="45.86748" lon="4.81621">
        <ele>240</ele>
        <time>2018-11-06T09:57:54Z</time>
      </trkpt>
      <trkpt lat="45.86747" lon="4.81618">
        <ele>240</ele>
        <time>2018-11-06T09:57:55Z</time>
      </trkpt>
      <trkpt lat="45.86744" lon="4.81608">
        <ele>240</ele>
        <time>2018-11-06T09:57:58Z</time>
      </trkpt>
      <trkpt lat="45.86743" lon="4.81605">
        <ele>239</ele>
        <time>2018-11-06T09:57:59Z</time>
      </trkpt>
      <trkpt lat="45.86739" lon="4.81593">
        <ele>239</ele>
        <time>2018-11-06T09:58:02Z</time>
      </trkpt>
      <trkpt lat="45.86738" lon="4.81589">
        <ele>239</ele>
        <time>2018-11-06T09:58:03Z</time>
      </trkpt>
      <trkpt lat="45.86733" lon="4.81578">
        <ele>239</ele>
        <time>2018-11-06T09:58:06Z</time>
      </trkpt>
      <trkpt lat="45.86732" lon="4.81575">
        <ele>240</ele>
        <time>2018-11-06T09:58:07Z</time>
      </trkpt>
      <trkpt lat="45.86728" lon="4.81568">
        <ele>240</ele>
        <time>2018-11-06T09:58:09Z</time>
      </trkpt>
      <trkpt lat="45.86726" lon="4.81565">
        <ele>241</ele>
        <time>2018-11-06T09:58:10Z</time>
      </trkpt>
      <trkpt lat="45.86721" lon="4.81558">
        <ele>241</ele>
        <time>2018-11-06T09:58:13Z</time>
      </trkpt>
      <trkpt lat="45.86719" lon="4.81556">
        <ele>241</ele>
        <time>2018-11-06T09:58:14Z</time>
      </trkpt>
      <trkpt lat="45.86713" lon="4.81548">
        <ele>242</ele>
        <time>2018-11-06T09:58:16Z</time>
      </trkpt>
      <trkpt lat="45.86711" lon="4.81545">
        <ele>242</ele>
        <time>2018-11-06T09:58:17Z</time>
      </trkpt>
      <trkpt lat="45.86706" lon="4.8154">
        <ele>242</ele>
        <time>2018-11-06T09:58:19Z</time>
      </trkpt>
      <trkpt lat="45.86703" lon="4.81537">
        <ele>242</ele>
        <time>2018-11-06T09:58:20Z</time>
      </trkpt>
      <trkpt lat="45.86698" lon="4.81532">
        <ele>242</ele>
        <time>2018-11-06T09:58:22Z</time>
      </trkpt>
      <trkpt lat="45.86695" lon="4.81529">
        <ele>242</ele>
        <time>2018-11-06T09:58:23Z</time>
      </trkpt>
      <trkpt lat="45.86691" lon="4.81524">
        <ele>242</ele>
        <time>2018-11-06T09:58:25Z</time>
      </trkpt>
      <trkpt lat="45.86688" lon="4.81521">
        <ele>242</ele>
        <time>2018-11-06T09:58:26Z</time>
      </trkpt>
      <trkpt lat="45.86682" lon="4.81513">
        <ele>241</ele>
        <time>2018-11-06T09:58:29Z</time>
      </trkpt>
      <trkpt lat="45.8668" lon="4.8151">
        <ele>241</ele>
        <time>2018-11-06T09:58:30Z</time>
      </trkpt>
      <trkpt lat="45.86673" lon="4.81503">
        <ele>241</ele>
        <time>2018-11-06T09:58:33Z</time>
      </trkpt>
      <trkpt lat="45.86672" lon="4.81502">
        <ele>241</ele>
        <time>2018-11-06T09:58:34Z</time>
      </trkpt>
      <trkpt lat="45.86665" lon="4.81495">
        <ele>241</ele>
        <time>2018-11-06T09:58:37Z</time>
      </trkpt>
      <trkpt lat="45.86662" lon="4.81493">
        <ele>242</ele>
        <time>2018-11-06T09:58:38Z</time>
      </trkpt>
      <trkpt lat="45.86657" lon="4.81487">
        <ele>243</ele>
        <time>2018-11-06T09:58:41Z</time>
      </trkpt>
      <trkpt lat="45.86655" lon="4.81484">
        <ele>244</ele>
        <time>2018-11-06T09:58:42Z</time>
      </trkpt>
      <trkpt lat="45.86649" lon="4.81478">
        <ele>244</ele>
        <time>2018-11-06T09:58:45Z</time>
      </trkpt>
      <trkpt lat="45.86647" lon="4.81476">
        <ele>245</ele>
        <time>2018-11-06T09:58:46Z</time>
      </trkpt>
      <trkpt lat="45.86642" lon="4.8147">
        <ele>245</ele>
        <time>2018-11-06T09:58:48Z</time>
      </trkpt>
      <trkpt lat="45.86639" lon="4.81466">
        <ele>245</ele>
        <time>2018-11-06T09:58:49Z</time>
      </trkpt>
      <trkpt lat="45.86634" lon="4.81461">
        <ele>245</ele>
        <time>2018-11-06T09:58:51Z</time>
      </trkpt>
      <trkpt lat="45.86632" lon="4.81459">
        <ele>246</ele>
        <time>2018-11-06T09:58:52Z</time>
      </trkpt>
      <trkpt lat="45.86625" lon="4.81451">
        <ele>246</ele>
        <time>2018-11-06T09:58:55Z</time>
      </trkpt>
      <trkpt lat="45.86623" lon="4.81448">
        <ele>246</ele>
        <time>2018-11-06T09:58:56Z</time>
      </trkpt>
      <trkpt lat="45.86618" lon="4.81442">
        <ele>246</ele>
        <time>2018-11-06T09:58:58Z</time>
      </trkpt>
      <trkpt lat="45.86616" lon="4.81439">
        <ele>246</ele>
        <time>2018-11-06T09:58:59Z</time>
      </trkpt>
      <trkpt lat="45.8661" lon="4.81431">
        <ele>245</ele>
        <time>2018-11-06T09:59:02Z</time>
      </trkpt>
      <trkpt lat="45.86608" lon="4.81428">
        <ele>245</ele>
        <time>2018-11-06T09:59:03Z</time>
      </trkpt>
      <trkpt lat="45.86603" lon="4.81419">
        <ele>245</ele>
        <time>2018-11-06T09:59:06Z</time>
      </trkpt>
      <trkpt lat="45.86601" lon="4.81416">
        <ele>244</ele>
        <time>2018-11-06T09:59:07Z</time>
      </trkpt>
      <trkpt lat="45.86597" lon="4.81406">
        <ele>244</ele>
        <time>2018-11-06T09:59:10Z</time>
      </trkpt>
      <trkpt lat="45.86595" lon="4.81403">
        <ele>245</ele>
        <time>2018-11-06T09:59:11Z</time>
      </trkpt>
      <trkpt lat="45.8659" lon="4.81392">
        <ele>245</ele>
        <time>2018-11-06T09:59:14Z</time>
      </trkpt>
      <trkpt lat="45.86589" lon="4.81389">
        <ele>245</ele>
        <time>2018-11-06T09:59:15Z</time>
      </trkpt>
      <trkpt lat="45.86584" lon="4.8138">
        <ele>245</ele>
        <time>2018-11-06T09:59:18Z</time>
      </trkpt>
      <trkpt lat="45.86582" lon="4.81377">
        <ele>249</ele>
        <time>2018-11-06T09:59:19Z</time>
      </trkpt>
      <trkpt lat="45.86576" lon="4.81369">
        <ele>249</ele>
        <time>2018-11-06T09:59:22Z</time>
      </trkpt>
      <trkpt lat="45.86575" lon="4.81367">
        <ele>249</ele>
        <time>2018-11-06T09:59:23Z</time>
      </trkpt>
      <trkpt lat="45.86568" lon="4.81362">
        <ele>249</ele>
        <time>2018-11-06T09:59:26Z</time>
      </trkpt>
      <trkpt lat="45.86566" lon="4.81361">
        <ele>249</ele>
        <time>2018-11-06T09:59:27Z</time>
      </trkpt>
      <trkpt lat="45.8656" lon="4.81357">
        <ele>249</ele>
        <time>2018-11-06T09:59:29Z</time>
      </trkpt>
      <trkpt lat="45.86558" lon="4.81355">
        <ele>250</ele>
        <time>2018-11-06T09:59:30Z</time>
      </trkpt>
      <trkpt lat="45.86553" lon="4.81353">
        <ele>250</ele>
        <time>2018-11-06T09:59:32Z</time>
      </trkpt>
      <trkpt lat="45.86549" lon="4.81352">
        <ele>250</ele>
        <time>2018-11-06T09:59:33Z</time>
      </trkpt>
      <trkpt lat="45.86541" lon="4.81349">
        <ele>250</ele>
        <time>2018-11-06T09:59:36Z</time>
      </trkpt>
      <trkpt lat="45.86538" lon="4.81348">
        <ele>250</ele>
        <time>2018-11-06T09:59:37Z</time>
      </trkpt>
      <trkpt lat="45.86531" lon="4.81346">
        <ele>251</ele>
        <time>2018-11-06T09:59:39Z</time>
      </trkpt>
      <trkpt lat="45.86528" lon="4.81345">
        <ele>251</ele>
        <time>2018-11-06T09:59:40Z</time>
      </trkpt>
      <trkpt lat="45.86522" lon="4.81343">
        <ele>251</ele>
        <time>2018-11-06T09:59:42Z</time>
      </trkpt>
      <trkpt lat="45.86519" lon="4.81342">
        <ele>251</ele>
        <time>2018-11-06T09:59:43Z</time>
      </trkpt>
      <trkpt lat="45.86512" lon="4.8134">
        <ele>251</ele>
        <time>2018-11-06T09:59:46Z</time>
      </trkpt>
      <trkpt lat="45.86509" lon="4.81339">
        <ele>251</ele>
        <time>2018-11-06T09:59:47Z</time>
      </trkpt>
      <trkpt lat="45.86502" lon="4.81337">
        <ele>251</ele>
        <time>2018-11-06T09:59:50Z</time>
      </trkpt>
      <trkpt lat="45.86499" lon="4.81336">
        <ele>252</ele>
        <time>2018-11-06T09:59:51Z</time>
      </trkpt>
      <trkpt lat="45.86492" lon="4.81334">
        <ele>254</ele>
        <time>2018-11-06T09:59:54Z</time>
      </trkpt>
      <trkpt lat="45.86489" lon="4.81333">
        <ele>253</ele>
        <time>2018-11-06T09:59:55Z</time>
      </trkpt>
      <trkpt lat="45.86481" lon="4.8133">
        <ele>254</ele>
        <time>2018-11-06T09:59:59Z</time>
      </trkpt>
      <trkpt lat="45.86479" lon="4.8133">
        <ele>254</ele>
        <time>2018-11-06T10:00:00Z</time>
      </trkpt>
      <trkpt lat="45.86472" lon="4.81329">
        <ele>255</ele>
        <time>2018-11-06T10:00:03Z</time>
      </trkpt>
      <trkpt lat="45.86469" lon="4.81328">
        <ele>255</ele>
        <time>2018-11-06T10:00:04Z</time>
      </trkpt>
      <trkpt lat="45.86461" lon="4.81327">
        <ele>255</ele>
        <time>2018-11-06T10:00:07Z</time>
      </trkpt>
      <trkpt lat="45.86458" lon="4.81326">
        <ele>255</ele>
        <time>2018-11-06T10:00:08Z</time>
      </trkpt>
      <trkpt lat="45.86451" lon="4.81324">
        <ele>256</ele>
        <time>2018-11-06T10:00:11Z</time>
      </trkpt>
      <trkpt lat="45.86449" lon="4.81323">
        <ele>256</ele>
        <time>2018-11-06T10:00:12Z</time>
      </trkpt>
      <trkpt lat="45.86442" lon="4.81321">
        <ele>256</ele>
        <time>2018-11-06T10:00:15Z</time>
      </trkpt>
      <trkpt lat="45.8644" lon="4.8132">
        <ele>256</ele>
        <time>2018-11-06T10:00:16Z</time>
      </trkpt>
      <trkpt lat="45.86432" lon="4.81319">
        <ele>257</ele>
        <time>2018-11-06T10:00:19Z</time>
      </trkpt>
      <trkpt lat="45.8643" lon="4.81319">
        <ele>257</ele>
        <time>2018-11-06T10:00:20Z</time>
      </trkpt>
      <trkpt lat="45.86422" lon="4.81316">
        <ele>257</ele>
        <time>2018-11-06T10:00:24Z</time>
      </trkpt>
      <trkpt lat="45.8642" lon="4.81316">
        <ele>257</ele>
        <time>2018-11-06T10:00:25Z</time>
      </trkpt>
      <trkpt lat="45.86412" lon="4.81315">
        <ele>259</ele>
        <time>2018-11-06T10:00:29Z</time>
      </trkpt>
      <trkpt lat="45.8641" lon="4.81315">
        <ele>259</ele>
        <time>2018-11-06T10:00:30Z</time>
      </trkpt>
      <trkpt lat="45.86402" lon="4.81314">
        <ele>260</ele>
        <time>2018-11-06T10:00:34Z</time>
      </trkpt>
      <trkpt lat="45.864" lon="4.81314">
        <ele>260</ele>
        <time>2018-11-06T10:00:35Z</time>
      </trkpt>
      <trkpt lat="45.86391" lon="4.81313">
        <ele>260</ele>
        <time>2018-11-06T10:00:39Z</time>
      </trkpt>
      <trkpt lat="45.86389" lon="4.81313">
        <ele>260</ele>
        <time>2018-11-06T10:00:40Z</time>
      </trkpt>
      <trkpt lat="45.86381" lon="4.81311">
        <ele>261</ele>
        <time>2018-11-06T10:00:43Z</time>
      </trkpt>
      <trkpt lat="45.86379" lon="4.8131">
        <ele>261</ele>
        <time>2018-11-06T10:00:44Z</time>
      </trkpt>
      <trkpt lat="45.86371" lon="4.8131">
        <ele>261</ele>
        <time>2018-11-06T10:00:48Z</time>
      </trkpt>
      <trkpt lat="45.86369" lon="4.81309">
        <ele>261</ele>
        <time>2018-11-06T10:00:49Z</time>
      </trkpt>
      <trkpt lat="45.86361" lon="4.81308">
        <ele>262</ele>
        <time>2018-11-06T10:00:54Z</time>
      </trkpt>
      <trkpt lat="45.86359" lon="4.81308">
        <ele>262</ele>
        <time>2018-11-06T10:00:55Z</time>
      </trkpt>
      <trkpt lat="45.86351" lon="4.81305">
        <ele>262</ele>
        <time>2018-11-06T10:00:59Z</time>
      </trkpt>
      <trkpt lat="45.86349" lon="4.81304">
        <ele>262</ele>
        <time>2018-11-06T10:01:00Z</time>
      </trkpt>
      <trkpt lat="45.8634" lon="4.81304">
        <ele>262</ele>
        <time>2018-11-06T10:01:04Z</time>
      </trkpt>
      <trkpt lat="45.86339" lon="4.81304">
        <ele>262</ele>
        <time>2018-11-06T10:01:05Z</time>
      </trkpt>
      <trkpt lat="45.8633" lon="4.81302">
        <ele>265</ele>
        <time>2018-11-06T10:01:10Z</time>
      </trkpt>
      <trkpt lat="45.86329" lon="4.81302">
        <ele>265</ele>
        <time>2018-11-06T10:01:11Z</time>
      </trkpt>
      <trkpt lat="45.86321" lon="4.81302">
        <ele>265</ele>
        <time>2018-11-06T10:01:15Z</time>
      </trkpt>
      <trkpt lat="45.86319" lon="4.81302">
        <ele>265</ele>
        <time>2018-11-06T10:01:16Z</time>
      </trkpt>
      <trkpt lat="45.86312" lon="4.81304">
        <ele>265</ele>
        <time>2018-11-06T10:01:20Z</time>
      </trkpt>
      <trkpt lat="45.8631" lon="4.81304">
        <ele>265</ele>
        <time>2018-11-06T10:01:21Z</time>
      </trkpt>
      <trkpt lat="45.86302" lon="4.81304">
        <ele>266</ele>
        <time>2018-11-06T10:01:25Z</time>
      </trkpt>
      <trkpt lat="45.863" lon="4.81304">
        <ele>266</ele>
        <time>2018-11-06T10:01:26Z</time>
      </trkpt>
      <trkpt lat="45.86293" lon="4.81306">
        <ele>266</ele>
        <time>2018-11-06T10:01:30Z</time>
      </trkpt>
      <trkpt lat="45.86291" lon="4.81306">
        <ele>266</ele>
        <time>2018-11-06T10:01:31Z</time>
      </trkpt>
      <trkpt lat="45.86282" lon="4.81307">
        <ele>266</ele>
        <time>2018-11-06T10:01:36Z</time>
      </trkpt>
      <trkpt lat="45.8628" lon="4.81308">
        <ele>267</ele>
        <time>2018-11-06T10:01:37Z</time>
      </trkpt>
      <trkpt lat="45.86272" lon="4.81309">
        <ele>267</ele>
        <time>2018-11-06T10:01:42Z</time>
      </trkpt>
      <trkpt lat="45.8627" lon="4.81309">
        <ele>267</ele>
        <time>2018-11-06T10:01:43Z</time>
      </trkpt>
      <trkpt lat="45.86262" lon="4.8131">
        <ele>268</ele>
        <time>2018-11-06T10:01:48Z</time>
      </trkpt>
      <trkpt lat="45.8626" lon="4.8131">
        <ele>268</ele>
        <time>2018-11-06T10:01:49Z</time>
      </trkpt>
      <trkpt lat="45.86251" lon="4.81309">
        <ele>268</ele>
        <time>2018-11-06T10:01:54Z</time>
      </trkpt>
      <trkpt lat="45.86249" lon="4.81309">
        <ele>272</ele>
        <time>2018-11-06T10:01:55Z</time>
      </trkpt>
      <trkpt lat="45.86241" lon="4.81308">
        <ele>272</ele>
        <time>2018-11-06T10:02:00Z</time>
      </trkpt>
      <trkpt lat="45.8624" lon="4.81308">
        <ele>272</ele>
        <time>2018-11-06T10:02:01Z</time>
      </trkpt>
      <trkpt lat="45.86232" lon="4.81304">
        <ele>272</ele>
        <time>2018-11-06T10:02:05Z</time>
      </trkpt>
      <trkpt lat="45.86229" lon="4.81304">
        <ele>272</ele>
        <time>2018-11-06T10:02:06Z</time>
      </trkpt>
      <trkpt lat="45.86221" lon="4.81304">
        <ele>272</ele>
        <time>2018-11-06T10:02:10Z</time>
      </trkpt>
      <trkpt lat="45.86219" lon="4.81303">
        <ele>272</ele>
        <time>2018-11-06T10:02:11Z</time>
      </trkpt>
      <trkpt lat="45.86211" lon="4.81302">
        <ele>273</ele>
        <time>2018-11-06T10:02:15Z</time>
      </trkpt>
      <trkpt lat="45.8621" lon="4.81301">
        <ele>273</ele>
        <time>2018-11-06T10:02:16Z</time>
      </trkpt>
      <trkpt lat="45.86202" lon="4.813">
        <ele>273</ele>
        <time>2018-11-06T10:02:21Z</time>
      </trkpt>
      <trkpt lat="45.862" lon="4.81299">
        <ele>273</ele>
        <time>2018-11-06T10:02:22Z</time>
      </trkpt>
      <trkpt lat="45.86191" lon="4.81299">
        <ele>274</ele>
        <time>2018-11-06T10:02:26Z</time>
      </trkpt>
      <trkpt lat="45.86189" lon="4.81298">
        <ele>274</ele>
        <time>2018-11-06T10:02:27Z</time>
      </trkpt>
      <trkpt lat="45.86181" lon="4.81296">
        <ele>274</ele>
        <time>2018-11-06T10:02:30Z</time>
      </trkpt>
      <trkpt lat="45.86178" lon="4.81294">
        <ele>274</ele>
        <time>2018-11-06T10:02:31Z</time>
      </trkpt>
      <trkpt lat="45.86171" lon="4.81289">
        <ele>273</ele>
        <time>2018-11-06T10:02:35Z</time>
      </trkpt>
      <trkpt lat="45.86169" lon="4.81289">
        <ele>273</ele>
        <time>2018-11-06T10:02:36Z</time>
      </trkpt>
      <trkpt lat="45.86162" lon="4.81286">
        <ele>282</ele>
        <time>2018-11-06T10:02:39Z</time>
      </trkpt>
      <trkpt lat="45.86159" lon="4.81286">
        <ele>282</ele>
        <time>2018-11-06T10:02:40Z</time>
      </trkpt>
      <trkpt lat="45.86151" lon="4.81283">
        <ele>282</ele>
        <time>2018-11-06T10:02:43Z</time>
      </trkpt>
      <trkpt lat="45.86149" lon="4.81282">
        <ele>282</ele>
        <time>2018-11-06T10:02:44Z</time>
      </trkpt>
      <trkpt lat="45.86141" lon="4.81278">
        <ele>282</ele>
        <time>2018-11-06T10:02:47Z</time>
      </trkpt>
      <trkpt lat="45.86139" lon="4.81276">
        <ele>283</ele>
        <time>2018-11-06T10:02:48Z</time>
      </trkpt>
      <trkpt lat="45.86131" lon="4.81271">
        <ele>283</ele>
        <time>2018-11-06T10:02:51Z</time>
      </trkpt>
      <trkpt lat="45.86128" lon="4.8127">
        <ele>283</ele>
        <time>2018-11-06T10:02:52Z</time>
      </trkpt>
      <trkpt lat="45.86122" lon="4.81267">
        <ele>284</ele>
        <time>2018-11-06T10:02:54Z</time>
      </trkpt>
      <trkpt lat="45.86113" lon="4.81262">
        <ele>284</ele>
        <time>2018-11-06T10:02:55Z</time>
      </trkpt>
      <trkpt lat="45.86107" lon="4.81257">
        <ele>284</ele>
        <time>2018-11-06T10:02:57Z</time>
      </trkpt>
      <trkpt lat="45.86105" lon="4.81256">
        <ele>284</ele>
        <time>2018-11-06T10:02:58Z</time>
      </trkpt>
      <trkpt lat="45.86098" lon="4.81249">
        <ele>279</ele>
        <time>2018-11-06T10:03:01Z</time>
      </trkpt>
      <trkpt lat="45.86095" lon="4.81247">
        <ele>279</ele>
        <time>2018-11-06T10:03:02Z</time>
      </trkpt>
      <trkpt lat="45.86087" lon="4.81241">
        <ele>280</ele>
        <time>2018-11-06T10:03:05Z</time>
      </trkpt>
      <trkpt lat="45.86084" lon="4.81239">
        <ele>280</ele>
        <time>2018-11-06T10:03:06Z</time>
      </trkpt>
      <trkpt lat="45.86078" lon="4.81235">
        <ele>286</ele>
        <time>2018-11-06T10:03:08Z</time>
      </trkpt>
      <trkpt lat="45.86076" lon="4.81233">
        <ele>286</ele>
        <time>2018-11-06T10:03:09Z</time>
      </trkpt>
      <trkpt lat="45.8607" lon="4.81228">
        <ele>287</ele>
        <time>2018-11-06T10:03:11Z</time>
      </trkpt>
      <trkpt lat="45.86067" lon="4.81225">
        <ele>287</ele>
        <time>2018-11-06T10:03:12Z</time>
      </trkpt>
      <trkpt lat="45.86063" lon="4.8122">
        <ele>288</ele>
        <time>2018-11-06T10:03:14Z</time>
      </trkpt>
      <trkpt lat="45.8606" lon="4.81217">
        <ele>288</ele>
        <time>2018-11-06T10:03:15Z</time>
      </trkpt>
      <trkpt lat="45.86054" lon="4.81208">
        <ele>288</ele>
        <time>2018-11-06T10:03:18Z</time>
      </trkpt>
      <trkpt lat="45.86052" lon="4.81205">
        <ele>288</ele>
        <time>2018-11-06T10:03:19Z</time>
      </trkpt>
      <trkpt lat="45.86047" lon="4.81199">
        <ele>288</ele>
        <time>2018-11-06T10:03:21Z</time>
      </trkpt>
      <trkpt lat="45.86045" lon="4.81197">
        <ele>288</ele>
        <time>2018-11-06T10:03:22Z</time>
      </trkpt>
      <trkpt lat="45.86041" lon="4.8119">
        <ele>288</ele>
        <time>2018-11-06T10:03:24Z</time>
      </trkpt>
      <trkpt lat="45.8604" lon="4.81186">
        <ele>288</ele>
        <time>2018-11-06T10:03:25Z</time>
      </trkpt>
      <trkpt lat="45.86036" lon="4.81175">
        <ele>288</ele>
        <time>2018-11-06T10:03:28Z</time>
      </trkpt>
      <trkpt lat="45.86035" lon="4.81172">
        <ele>288</ele>
        <time>2018-11-06T10:03:29Z</time>
      </trkpt>
      <trkpt lat="45.8603" lon="4.81162">
        <ele>283</ele>
        <time>2018-11-06T10:03:32Z</time>
      </trkpt>
      <trkpt lat="45.86029" lon="4.81159">
        <ele>283</ele>
        <time>2018-11-06T10:03:33Z</time>
      </trkpt>
      <trkpt lat="45.86026" lon="4.81149">
        <ele>283</ele>
        <time>2018-11-06T10:03:35Z</time>
      </trkpt>
      <trkpt lat="45.86025" lon="4.81145">
        <ele>283</ele>
        <time>2018-11-06T10:03:36Z</time>
      </trkpt>
      <trkpt lat="45.86021" lon="4.81134">
        <ele>283</ele>
        <time>2018-11-06T10:03:39Z</time>
      </trkpt>
      <trkpt lat="45.8602" lon="4.81131">
        <ele>283</ele>
        <time>2018-11-06T10:03:40Z</time>
      </trkpt>
      <trkpt lat="45.86017" lon="4.81124">
        <ele>283</ele>
        <time>2018-11-06T10:03:42Z</time>
      </trkpt>
      <trkpt lat="45.86015" lon="4.81119">
        <ele>283</ele>
        <time>2018-11-06T10:03:43Z</time>
      </trkpt>
      <trkpt lat="45.86011" lon="4.81109">
        <ele>283</ele>
        <time>2018-11-06T10:03:45Z</time>
      </trkpt>
      <trkpt lat="45.86009" lon="4.81105">
        <ele>283</ele>
        <time>2018-11-06T10:03:46Z</time>
      </trkpt>
      <trkpt lat="45.86006" lon="4.81097">
        <ele>283</ele>
        <time>2018-11-06T10:03:48Z</time>
      </trkpt>
      <trkpt lat="45.86001" lon="4.81085">
        <ele>283</ele>
        <time>2018-11-06T10:03:49Z</time>
      </trkpt>
      <trkpt lat="45.85998" lon="4.81077">
        <ele>285</ele>
        <time>2018-11-06T10:03:52Z</time>
      </trkpt>
      <trkpt lat="45.85996" lon="4.81073">
        <ele>286</ele>
        <time>2018-11-06T10:03:53Z</time>
      </trkpt>
      <trkpt lat="45.85992" lon="4.81063">
        <ele>287</ele>
        <time>2018-11-06T10:03:56Z</time>
      </trkpt>
      <trkpt lat="45.85991" lon="4.8106">
        <ele>287</ele>
        <time>2018-11-06T10:03:57Z</time>
      </trkpt>
      <trkpt lat="45.85986" lon="4.81049">
        <ele>288</ele>
        <time>2018-11-06T10:04:00Z</time>
      </trkpt>
      <trkpt lat="45.85984" lon="4.81046">
        <ele>288</ele>
        <time>2018-11-06T10:04:01Z</time>
      </trkpt>
      <trkpt lat="45.85978" lon="4.81038">
        <ele>288</ele>
        <time>2018-11-06T10:04:03Z</time>
      </trkpt>
      <trkpt lat="45.85976" lon="4.81035">
        <ele>288</ele>
        <time>2018-11-06T10:04:04Z</time>
      </trkpt>
      <trkpt lat="45.85973" lon="4.81029">
        <ele>288</ele>
        <time>2018-11-06T10:04:06Z</time>
      </trkpt>
      <trkpt lat="45.8597" lon="4.81026">
        <ele>289</ele>
        <time>2018-11-06T10:04:07Z</time>
      </trkpt>
      <trkpt lat="45.85964" lon="4.81019">
        <ele>289</ele>
        <time>2018-11-06T10:04:09Z</time>
      </trkpt>
      <trkpt lat="45.85962" lon="4.81015">
        <ele>289</ele>
        <time>2018-11-06T10:04:10Z</time>
      </trkpt>
      <trkpt lat="45.85958" lon="4.81008">
        <ele>289</ele>
        <time>2018-11-06T10:04:12Z</time>
      </trkpt>
      <trkpt lat="45.85956" lon="4.81005">
        <ele>290</ele>
        <time>2018-11-06T10:04:13Z</time>
      </trkpt>
      <trkpt lat="45.8595" lon="4.80996">
        <ele>290</ele>
        <time>2018-11-06T10:04:16Z</time>
      </trkpt>
      <trkpt lat="45.85948" lon="4.80993">
        <ele>290</ele>
        <time>2018-11-06T10:04:17Z</time>
      </trkpt>
      <trkpt lat="45.85941" lon="4.80987">
        <ele>290</ele>
        <time>2018-11-06T10:04:20Z</time>
      </trkpt>
      <trkpt lat="45.85938" lon="4.80985">
        <ele>291</ele>
        <time>2018-11-06T10:04:21Z</time>
      </trkpt>
      <trkpt lat="45.85932" lon="4.80981">
        <ele>291</ele>
        <time>2018-11-06T10:04:23Z</time>
      </trkpt>
      <trkpt lat="45.8593" lon="4.80979">
        <ele>291</ele>
        <time>2018-11-06T10:04:24Z</time>
      </trkpt>
      <trkpt lat="45.85923" lon="4.80974">
        <ele>291</ele>
        <time>2018-11-06T10:04:26Z</time>
      </trkpt>
      <trkpt lat="45.8592" lon="4.80971">
        <ele>291</ele>
        <time>2018-11-06T10:04:27Z</time>
      </trkpt>
      <trkpt lat="45.85912" lon="4.80968">
        <ele>294</ele>
        <time>2018-11-06T10:04:30Z</time>
      </trkpt>
      <trkpt lat="45.85909" lon="4.80967">
        <ele>294</ele>
        <time>2018-11-06T10:04:31Z</time>
      </trkpt>
      <trkpt lat="45.85903" lon="4.80964">
        <ele>294</ele>
        <time>2018-11-06T10:04:33Z</time>
      </trkpt>
      <trkpt lat="45.859" lon="4.80963">
        <ele>294</ele>
        <time>2018-11-06T10:04:34Z</time>
      </trkpt>
      <trkpt lat="45.85892" lon="4.8096">
        <ele>294</ele>
        <time>2018-11-06T10:04:37Z</time>
      </trkpt>
      <trkpt lat="45.85889" lon="4.80958">
        <ele>294</ele>
        <time>2018-11-06T10:04:38Z</time>
      </trkpt>
      <trkpt lat="45.85882" lon="4.80956">
        <ele>294</ele>
        <time>2018-11-06T10:04:41Z</time>
      </trkpt>
      <trkpt lat="45.8588" lon="4.80955">
        <ele>294</ele>
        <time>2018-11-06T10:04:42Z</time>
      </trkpt>
      <trkpt lat="45.85872" lon="4.80952">
        <ele>294</ele>
        <time>2018-11-06T10:04:45Z</time>
      </trkpt>
      <trkpt lat="45.8587" lon="4.80951">
        <ele>294</ele>
        <time>2018-11-06T10:04:46Z</time>
      </trkpt>
      <trkpt lat="45.85861" lon="4.80949">
        <ele>294</ele>
        <time>2018-11-06T10:04:49Z</time>
      </trkpt>
      <trkpt lat="45.85858" lon="4.80948">
        <ele>294</ele>
        <time>2018-11-06T10:04:50Z</time>
      </trkpt>
      <trkpt lat="45.85852" lon="4.80945">
        <ele>294</ele>
        <time>2018-11-06T10:04:52Z</time>
      </trkpt>
      <trkpt lat="45.85849" lon="4.80944">
        <ele>294</ele>
        <time>2018-11-06T10:04:53Z</time>
      </trkpt>
      <trkpt lat="45.85843" lon="4.80941">
        <ele>294</ele>
        <time>2018-11-06T10:04:55Z</time>
      </trkpt>
      <trkpt lat="45.8584" lon="4.8094">
        <ele>293</ele>
        <time>2018-11-06T10:04:56Z</time>
      </trkpt>
      <trkpt lat="45.85832" lon="4.80935">
        <ele>294</ele>
        <time>2018-11-06T10:04:59Z</time>
      </trkpt>
      <trkpt lat="45.85829" lon="4.80934">
        <ele>294</ele>
        <time>2018-11-06T10:05:00Z</time>
      </trkpt>
      <trkpt lat="45.85824" lon="4.8093">
        <ele>294</ele>
        <time>2018-11-06T10:05:02Z</time>
      </trkpt>
      <trkpt lat="45.85821" lon="4.80929">
        <ele>294</ele>
        <time>2018-11-06T10:05:03Z</time>
      </trkpt>
      <trkpt lat="45.85813" lon="4.80923">
        <ele>294</ele>
        <time>2018-11-06T10:05:06Z</time>
      </trkpt>
      <trkpt lat="45.85811" lon="4.80921">
        <ele>294</ele>
        <time>2018-11-06T10:05:07Z</time>
      </trkpt>
      <trkpt lat="45.85804" lon="4.80916">
        <ele>289</ele>
        <time>2018-11-06T10:05:10Z</time>
      </trkpt>
      <trkpt lat="45.85802" lon="4.80914">
        <ele>289</ele>
        <time>2018-11-06T10:05:11Z</time>
      </trkpt>
      <trkpt lat="45.85796" lon="4.80909">
        <ele>289</ele>
        <time>2018-11-06T10:05:14Z</time>
      </trkpt>
      <trkpt lat="45.85793" lon="4.80907">
        <ele>289</ele>
        <time>2018-11-06T10:05:15Z</time>
      </trkpt>
      <trkpt lat="45.85789" lon="4.80903">
        <ele>290</ele>
        <time>2018-11-06T10:05:17Z</time>
      </trkpt>
      <trkpt lat="45.85785" lon="4.80901">
        <ele>290</ele>
        <time>2018-11-06T10:05:18Z</time>
      </trkpt>
      <trkpt lat="45.85778" lon="4.80895">
        <ele>290</ele>
        <time>2018-11-06T10:05:21Z</time>
      </trkpt>
      <trkpt lat="45.85775" lon="4.80894">
        <ele>290</ele>
        <time>2018-11-06T10:05:22Z</time>
      </trkpt>
      <trkpt lat="45.85769" lon="4.8089">
        <ele>290</ele>
        <time>2018-11-06T10:05:25Z</time>
      </trkpt>
      <trkpt lat="45.85767" lon="4.8089">
        <ele>290</ele>
        <time>2018-11-06T10:05:26Z</time>
      </trkpt>
      <trkpt lat="45.85759" lon="4.80887">
        <ele>290</ele>
        <time>2018-11-06T10:05:29Z</time>
      </trkpt>
      <trkpt lat="45.85756" lon="4.80886">
        <ele>290</ele>
        <time>2018-11-06T10:05:30Z</time>
      </trkpt>
      <trkpt lat="45.8575" lon="4.80886">
        <ele>292</ele>
        <time>2018-11-06T10:05:32Z</time>
      </trkpt>
      <trkpt lat="45.85746" lon="4.80886">
        <ele>292</ele>
        <time>2018-11-06T10:05:33Z</time>
      </trkpt>
      <trkpt lat="45.85737" lon="4.80884">
        <ele>292</ele>
        <time>2018-11-06T10:05:36Z</time>
      </trkpt>
      <trkpt lat="45.85734" lon="4.80884">
        <ele>292</ele>
        <time>2018-11-06T10:05:37Z</time>
      </trkpt>
      <trkpt lat="45.85729" lon="4.80883">
        <ele>292</ele>
        <time>2018-11-06T10:05:39Z</time>
      </trkpt>
      <trkpt lat="45.85725" lon="4.80882">
        <ele>292</ele>
        <time>2018-11-06T10:05:40Z</time>
      </trkpt>
      <trkpt lat="45.85718" lon="4.80881">
        <ele>292</ele>
        <time>2018-11-06T10:05:42Z</time>
      </trkpt>
      <trkpt lat="45.85714" lon="4.8088">
        <ele>293</ele>
        <time>2018-11-06T10:05:43Z</time>
      </trkpt>
      <trkpt lat="45.85708" lon="4.80879">
        <ele>293</ele>
        <time>2018-11-06T10:05:45Z</time>
      </trkpt>
      <trkpt lat="45.85705" lon="4.80879">
        <ele>293</ele>
        <time>2018-11-06T10:05:46Z</time>
      </trkpt>
      <trkpt lat="45.85698" lon="4.80877">
        <ele>293</ele>
        <time>2018-11-06T10:05:49Z</time>
      </trkpt>
      <trkpt lat="45.85695" lon="4.80876">
        <ele>293</ele>
        <time>2018-11-06T10:05:50Z</time>
      </trkpt>
      <trkpt lat="45.85688" lon="4.80873">
        <ele>293</ele>
        <time>2018-11-06T10:05:53Z</time>
      </trkpt>
      <trkpt lat="45.85685" lon="4.80872">
        <ele>293</ele>
        <time>2018-11-06T10:05:54Z</time>
      </trkpt>
      <trkpt lat="45.85677" lon="4.80868">
        <ele>293</ele>
        <time>2018-11-06T10:05:58Z</time>
      </trkpt>
      <trkpt lat="45.85676" lon="4.80867">
        <ele>293</ele>
        <time>2018-11-06T10:05:59Z</time>
      </trkpt>
      <trkpt lat="45.85672" lon="4.80857">
        <ele>293</ele>
        <time>2018-11-06T10:06:04Z</time>
      </trkpt>
      <trkpt lat="45.8567" lon="4.80855">
        <ele>293</ele>
        <time>2018-11-06T10:06:05Z</time>
      </trkpt>
      <trkpt lat="45.85664" lon="4.80845">
        <ele>298</ele>
        <time>2018-11-06T10:06:09Z</time>
      </trkpt>
      <trkpt lat="45.85663" lon="4.80844">
        <ele>297</ele>
        <time>2018-11-06T10:06:10Z</time>
      </trkpt>
      <trkpt lat="45.85662" lon="4.80842">
        <ele>297</ele>
        <time>2018-11-06T10:06:11Z</time>
      </trkpt>
      <trkpt lat="45.85662" lon="4.80841">
        <ele>297</ele>
        <time>2018-11-06T10:06:12Z</time>
      </trkpt>
      <trkpt lat="45.85661" lon="4.80839">
        <ele>297</ele>
        <time>2018-11-06T10:06:13Z</time>
      </trkpt>
      <trkpt lat="45.85658" lon="4.80827">
        <ele>296</ele>
        <time>2018-11-06T10:06:19Z</time>
      </trkpt>
      <trkpt lat="45.85658" lon="4.80825">
        <ele>297</ele>
        <time>2018-11-06T10:06:20Z</time>
      </trkpt>
      <trkpt lat="45.85652" lon="4.80817">
        <ele>298</ele>
        <time>2018-11-06T10:06:24Z</time>
      </trkpt>
      <trkpt lat="45.85651" lon="4.80815">
        <ele>298</ele>
        <time>2018-11-06T10:06:25Z</time>
      </trkpt>
      <trkpt lat="45.85647" lon="4.80807">
        <ele>299</ele>
        <time>2018-11-06T10:06:28Z</time>
      </trkpt>
      <trkpt lat="45.85645" lon="4.80803">
        <ele>299</ele>
        <time>2018-11-06T10:06:29Z</time>
      </trkpt>
      <trkpt lat="45.85639" lon="4.80794">
        <ele>300</ele>
        <time>2018-11-06T10:06:32Z</time>
      </trkpt>
      <trkpt lat="45.85638" lon="4.80792">
        <ele>300</ele>
        <time>2018-11-06T10:06:33Z</time>
      </trkpt>
      <trkpt lat="45.85633" lon="4.80782">
        <ele>300</ele>
        <time>2018-11-06T10:06:36Z</time>
      </trkpt>
      <trkpt lat="45.85631" lon="4.80779">
        <ele>300</ele>
        <time>2018-11-06T10:06:37Z</time>
      </trkpt>
      <trkpt lat="45.85626" lon="4.80771">
        <ele>301</ele>
        <time>2018-11-06T10:06:40Z</time>
      </trkpt>
      <trkpt lat="45.85624" lon="4.80768">
        <ele>301</ele>
        <time>2018-11-06T10:06:41Z</time>
      </trkpt>
      <trkpt lat="45.85619" lon="4.8076">
        <ele>301</ele>
        <time>2018-11-06T10:06:44Z</time>
      </trkpt>
      <trkpt lat="45.85618" lon="4.80757">
        <ele>301</ele>
        <time>2018-11-06T10:06:45Z</time>
      </trkpt>
      <trkpt lat="45.85614" lon="4.80747">
        <ele>302</ele>
        <time>2018-11-06T10:06:48Z</time>
      </trkpt>
      <trkpt lat="45.85613" lon="4.80744">
        <ele>302</ele>
        <time>2018-11-06T10:06:49Z</time>
      </trkpt>
      <trkpt lat="45.85611" lon="4.80734">
        <ele>302</ele>
        <time>2018-11-06T10:06:52Z</time>
      </trkpt>
      <trkpt lat="45.85609" lon="4.80731">
        <ele>302</ele>
        <time>2018-11-06T10:06:53Z</time>
      </trkpt>
      <trkpt lat="45.85604" lon="4.80722">
        <ele>302</ele>
        <time>2018-11-06T10:06:56Z</time>
      </trkpt>
      <trkpt lat="45.85602" lon="4.8072">
        <ele>302</ele>
        <time>2018-11-06T10:06:57Z</time>
      </trkpt>
      <trkpt lat="45.85596" lon="4.80711">
        <ele>302</ele>
        <time>2018-11-06T10:07:01Z</time>
      </trkpt>
      <trkpt lat="45.85594" lon="4.80709">
        <ele>302</ele>
        <time>2018-11-06T10:07:02Z</time>
      </trkpt>
      <trkpt lat="45.85589" lon="4.80701">
        <ele>302</ele>
        <time>2018-11-06T10:07:05Z</time>
      </trkpt>
      <trkpt lat="45.85587" lon="4.80699">
        <ele>302</ele>
        <time>2018-11-06T10:07:06Z</time>
      </trkpt>
      <trkpt lat="45.85582" lon="4.80691">
        <ele>307</ele>
        <time>2018-11-06T10:07:09Z</time>
      </trkpt>
      <trkpt lat="45.85581" lon="4.80688">
        <ele>307</ele>
        <time>2018-11-06T10:07:10Z</time>
      </trkpt>
      <trkpt lat="45.85576" lon="4.80677">
        <ele>306</ele>
        <time>2018-11-06T10:07:14Z</time>
      </trkpt>
      <trkpt lat="45.85574" lon="4.80674">
        <ele>305</ele>
        <time>2018-11-06T10:07:15Z</time>
      </trkpt>
      <trkpt lat="45.85571" lon="4.80665">
        <ele>304</ele>
        <time>2018-11-06T10:07:19Z</time>
      </trkpt>
      <trkpt lat="45.85569" lon="4.80663">
        <ele>305</ele>
        <time>2018-11-06T10:07:20Z</time>
      </trkpt>
      <trkpt lat="45.85565" lon="4.80656">
        <ele>306</ele>
        <time>2018-11-06T10:07:23Z</time>
      </trkpt>
      <trkpt lat="45.85563" lon="4.80653">
        <ele>306</ele>
        <time>2018-11-06T10:07:24Z</time>
      </trkpt>
      <trkpt lat="45.85558" lon="4.80645">
        <ele>307</ele>
        <time>2018-11-06T10:07:28Z</time>
      </trkpt>
      <trkpt lat="45.85556" lon="4.80643">
        <ele>307</ele>
        <time>2018-11-06T10:07:29Z</time>
      </trkpt>
      <trkpt lat="45.8555" lon="4.80633">
        <ele>307</ele>
        <time>2018-11-06T10:07:33Z</time>
      </trkpt>
      <trkpt lat="45.85549" lon="4.80632">
        <ele>307</ele>
        <time>2018-11-06T10:07:34Z</time>
      </trkpt>
      <trkpt lat="45.85544" lon="4.80625">
        <ele>308</ele>
        <time>2018-11-06T10:07:37Z</time>
      </trkpt>
      <trkpt lat="45.85543" lon="4.80622">
        <ele>308</ele>
        <time>2018-11-06T10:07:38Z</time>
      </trkpt>
      <trkpt lat="45.85538" lon="4.80612">
        <ele>308</ele>
        <time>2018-11-06T10:07:42Z</time>
      </trkpt>
      <trkpt lat="45.85537" lon="4.8061">
        <ele>308</ele>
        <time>2018-11-06T10:07:43Z</time>
      </trkpt>
      <trkpt lat="45.85531" lon="4.80601">
        <ele>308</ele>
        <time>2018-11-06T10:07:47Z</time>
      </trkpt>
      <trkpt lat="45.8553" lon="4.80599">
        <ele>308</ele>
        <time>2018-11-06T10:07:48Z</time>
      </trkpt>
      <trkpt lat="45.85525" lon="4.80592">
        <ele>308</ele>
        <time>2018-11-06T10:07:51Z</time>
      </trkpt>
      <trkpt lat="45.85523" lon="4.80589">
        <ele>309</ele>
        <time>2018-11-06T10:07:52Z</time>
      </trkpt>
      <trkpt lat="45.85518" lon="4.80581">
        <ele>309</ele>
        <time>2018-11-06T10:07:55Z</time>
      </trkpt>
      <trkpt lat="45.85517" lon="4.80578">
        <ele>309</ele>
        <time>2018-11-06T10:07:56Z</time>
      </trkpt>
      <trkpt lat="45.85512" lon="4.80568">
        <ele>309</ele>
        <time>2018-11-06T10:08:00Z</time>
      </trkpt>
      <trkpt lat="45.8551" lon="4.80565">
        <ele>309</ele>
        <time>2018-11-06T10:08:01Z</time>
      </trkpt>
      <trkpt lat="45.85506" lon="4.80557">
        <ele>309</ele>
        <time>2018-11-06T10:08:04Z</time>
      </trkpt>
      <trkpt lat="45.85505" lon="4.80554">
        <ele>309</ele>
        <time>2018-11-06T10:08:05Z</time>
      </trkpt>
      <trkpt lat="45.85502" lon="4.80545">
        <ele>309</ele>
        <time>2018-11-06T10:08:08Z</time>
      </trkpt>
      <trkpt lat="45.85501" lon="4.80542">
        <ele>309</ele>
        <time>2018-11-06T10:08:09Z</time>
      </trkpt>
      <trkpt lat="45.85498" lon="4.80532">
        <ele>316</ele>
        <time>2018-11-06T10:08:12Z</time>
      </trkpt>
      <trkpt lat="45.85498" lon="4.80529">
        <ele>316</ele>
        <time>2018-11-06T10:08:13Z</time>
      </trkpt>
      <trkpt lat="45.85495" lon="4.80517">
        <ele>315</ele>
        <time>2018-11-06T10:08:17Z</time>
      </trkpt>
      <trkpt lat="45.85495" lon="4.80514">
        <ele>314</ele>
        <time>2018-11-06T10:08:18Z</time>
      </trkpt>
      <trkpt lat="45.85493" lon="4.80504">
        <ele>313</ele>
        <time>2018-11-06T10:08:21Z</time>
      </trkpt>
      <trkpt lat="45.85492" lon="4.80501">
        <ele>313</ele>
        <time>2018-11-06T10:08:22Z</time>
      </trkpt>
      <trkpt lat="45.85491" lon="4.80491">
        <ele>313</ele>
        <time>2018-11-06T10:08:25Z</time>
      </trkpt>
      <trkpt lat="45.85491" lon="4.80487">
        <ele>314</ele>
        <time>2018-11-06T10:08:26Z</time>
      </trkpt>
      <trkpt lat="45.8549" lon="4.80475">
        <ele>315</ele>
        <time>2018-11-06T10:08:30Z</time>
      </trkpt>
      <trkpt lat="45.85489" lon="4.80471">
        <ele>315</ele>
        <time>2018-11-06T10:08:31Z</time>
      </trkpt>
      <trkpt lat="45.85486" lon="4.8046">
        <ele>316</ele>
        <time>2018-11-06T10:08:34Z</time>
      </trkpt>
      <trkpt lat="45.85486" lon="4.80457">
        <ele>316</ele>
        <time>2018-11-06T10:08:35Z</time>
      </trkpt>
      <trkpt lat="45.85484" lon="4.80448">
        <ele>316</ele>
        <time>2018-11-06T10:08:38Z</time>
      </trkpt>
      <trkpt lat="45.85484" lon="4.80444">
        <ele>316</ele>
        <time>2018-11-06T10:08:39Z</time>
      </trkpt>
      <trkpt lat="45.85482" lon="4.80434">
        <ele>315</ele>
        <time>2018-11-06T10:08:42Z</time>
      </trkpt>
      <trkpt lat="45.85482" lon="4.80431">
        <ele>315</ele>
        <time>2018-11-06T10:08:43Z</time>
      </trkpt>
      <trkpt lat="45.85482" lon="4.80421">
        <ele>315</ele>
        <time>2018-11-06T10:08:46Z</time>
      </trkpt>
      <trkpt lat="45.85482" lon="4.80417">
        <ele>315</ele>
        <time>2018-11-06T10:08:47Z</time>
      </trkpt>
      <trkpt lat="45.85481" lon="4.80405">
        <ele>316</ele>
        <time>2018-11-06T10:08:51Z</time>
      </trkpt>
      <trkpt lat="45.85481" lon="4.80402">
        <ele>316</ele>
        <time>2018-11-06T10:08:52Z</time>
      </trkpt>
      <trkpt lat="45.8548" lon="4.80392">
        <ele>316</ele>
        <time>2018-11-06T10:08:55Z</time>
      </trkpt>
      <trkpt lat="45.85479" lon="4.80389">
        <ele>316</ele>
        <time>2018-11-06T10:08:56Z</time>
      </trkpt>
      <trkpt lat="45.85478" lon="4.80379">
        <ele>317</ele>
        <time>2018-11-06T10:08:59Z</time>
      </trkpt>
      <trkpt lat="45.85478" lon="4.80376">
        <ele>317</ele>
        <time>2018-11-06T10:09:00Z</time>
      </trkpt>
      <trkpt lat="45.85477" lon="4.80365">
        <ele>317</ele>
        <time>2018-11-06T10:09:03Z</time>
      </trkpt>
      <trkpt lat="45.85477" lon="4.80362">
        <ele>317</ele>
        <time>2018-11-06T10:09:04Z</time>
      </trkpt>
      <trkpt lat="45.85476" lon="4.80352">
        <ele>317</ele>
        <time>2018-11-06T10:09:07Z</time>
      </trkpt>
      <trkpt lat="45.85475" lon="4.80349">
        <ele>317</ele>
        <time>2018-11-06T10:09:08Z</time>
      </trkpt>
      <trkpt lat="45.85474" lon="4.80338">
        <ele>317</ele>
        <time>2018-11-06T10:09:11Z</time>
      </trkpt>
      <trkpt lat="45.85474" lon="4.80335">
        <ele>317</ele>
        <time>2018-11-06T10:09:12Z</time>
      </trkpt>
      <trkpt lat="45.85472" lon="4.80323">
        <ele>319</ele>
        <time>2018-11-06T10:09:16Z</time>
      </trkpt>
      <trkpt lat="45.85471" lon="4.8032">
        <ele>319</ele>
        <time>2018-11-06T10:09:17Z</time>
      </trkpt>
      <trkpt lat="45.85468" lon="4.8031">
        <ele>320</ele>
        <time>2018-11-06T10:09:20Z</time>
      </trkpt>
      <trkpt lat="45.85467" lon="4.80308">
        <ele>320</ele>
        <time>2018-11-06T10:09:21Z</time>
      </trkpt>
      <trkpt lat="45.85463" lon="4.80296">
        <ele>320</ele>
        <time>2018-11-06T10:09:25Z</time>
      </trkpt>
      <trkpt lat="45.85462" lon="4.80293">
        <ele>320</ele>
        <time>2018-11-06T10:09:26Z</time>
      </trkpt>
      <trkpt lat="45.85458" lon="4.80282">
        <ele>321</ele>
        <time>2018-11-06T10:09:30Z</time>
      </trkpt>
      <trkpt lat="45.85457" lon="4.8028">
        <ele>321</ele>
        <time>2018-11-06T10:09:31Z</time>
      </trkpt>
      <trkpt lat="45.85452" lon="4.80269">
        <ele>321</ele>
        <time>2018-11-06T10:09:35Z</time>
      </trkpt>
      <trkpt lat="45.85451" lon="4.80267">
        <ele>321</ele>
        <time>2018-11-06T10:09:36Z</time>
      </trkpt>
      <trkpt lat="45.85446" lon="4.80256">
        <ele>322</ele>
        <time>2018-11-06T10:09:40Z</time>
      </trkpt>
      <trkpt lat="45.85445" lon="4.80254">
        <ele>322</ele>
        <time>2018-11-06T10:09:41Z</time>
      </trkpt>
      <trkpt lat="45.85442" lon="4.80244">
        <ele>325</ele>
        <time>2018-11-06T10:09:45Z</time>
      </trkpt>
      <trkpt lat="45.85441" lon="4.80242">
        <ele>325</ele>
        <time>2018-11-06T10:09:46Z</time>
      </trkpt>
      <trkpt lat="45.85441" lon="4.80229">
        <ele>325</ele>
        <time>2018-11-06T10:09:51Z</time>
      </trkpt>
      <trkpt lat="45.85441" lon="4.80227">
        <ele>325</ele>
        <time>2018-11-06T10:09:52Z</time>
      </trkpt>
      <trkpt lat="45.85443" lon="4.80215">
        <ele>325</ele>
        <time>2018-11-06T10:09:56Z</time>
      </trkpt>
      <trkpt lat="45.85444" lon="4.80213">
        <ele>325</ele>
        <time>2018-11-06T10:09:57Z</time>
      </trkpt>
      <trkpt lat="45.85449" lon="4.80202">
        <ele>325</ele>
        <time>2018-11-06T10:10:02Z</time>
      </trkpt>
      <trkpt lat="45.8545" lon="4.802">
        <ele>325</ele>
        <time>2018-11-06T10:10:03Z</time>
      </trkpt>
      <trkpt lat="45.85456" lon="4.80191">
        <ele>325</ele>
        <time>2018-11-06T10:10:08Z</time>
      </trkpt>
      <trkpt lat="45.85457" lon="4.80189">
        <ele>325</ele>
        <time>2018-11-06T10:10:09Z</time>
      </trkpt>
      <trkpt lat="45.85462" lon="4.8018">
        <ele>325</ele>
        <time>2018-11-06T10:10:15Z</time>
      </trkpt>
      <trkpt lat="45.85463" lon="4.80179">
        <ele>325</ele>
        <time>2018-11-06T10:10:16Z</time>
      </trkpt>
      <trkpt lat="45.8547" lon="4.80171">
        <ele>325</ele>
        <time>2018-11-06T10:10:22Z</time>
      </trkpt>
      <trkpt lat="45.85471" lon="4.8017">
        <ele>325</ele>
        <time>2018-11-06T10:10:23Z</time>
      </trkpt>
      <trkpt lat="45.85478" lon="4.80161">
        <ele>331</ele>
        <time>2018-11-06T10:10:29Z</time>
      </trkpt>
      <trkpt lat="45.85479" lon="4.8016">
        <ele>331</ele>
        <time>2018-11-06T10:10:30Z</time>
      </trkpt>
      <trkpt lat="45.85486" lon="4.80155">
        <ele>331</ele>
        <time>2018-11-06T10:10:35Z</time>
      </trkpt>
      <trkpt lat="45.85488" lon="4.80153">
        <ele>331</ele>
        <time>2018-11-06T10:10:36Z</time>
      </trkpt>
      <trkpt lat="45.85494" lon="4.80147">
        <ele>331</ele>
        <time>2018-11-06T10:10:41Z</time>
      </trkpt>
      <trkpt lat="45.85495" lon="4.80146">
        <ele>332</ele>
        <time>2018-11-06T10:10:42Z</time>
      </trkpt>
      <trkpt lat="45.85502" lon="4.80138">
        <ele>334</ele>
        <time>2018-11-06T10:10:47Z</time>
      </trkpt>
      <trkpt lat="45.85503" lon="4.80136">
        <ele>334</ele>
        <time>2018-11-06T10:10:48Z</time>
      </trkpt>
      <trkpt lat="45.85509" lon="4.80129">
        <ele>335</ele>
        <time>2018-11-06T10:10:52Z</time>
      </trkpt>
      <trkpt lat="45.85511" lon="4.80127">
        <ele>336</ele>
        <time>2018-11-06T10:10:53Z</time>
      </trkpt>
      <trkpt lat="45.85517" lon="4.80121">
        <ele>336</ele>
        <time>2018-11-06T10:10:58Z</time>
      </trkpt>
      <trkpt lat="45.85519" lon="4.8012">
        <ele>337</ele>
        <time>2018-11-06T10:10:59Z</time>
      </trkpt>
      <trkpt lat="45.85525" lon="4.80113">
        <ele>337</ele>
        <time>2018-11-06T10:11:04Z</time>
      </trkpt>
      <trkpt lat="45.85526" lon="4.80111">
        <ele>337</ele>
        <time>2018-11-06T10:11:05Z</time>
      </trkpt>
      <trkpt lat="45.85533" lon="4.80104">
        <ele>338</ele>
        <time>2018-11-06T10:11:10Z</time>
      </trkpt>
      <trkpt lat="45.85534" lon="4.80103">
        <ele>338</ele>
        <time>2018-11-06T10:11:11Z</time>
      </trkpt>
      <trkpt lat="45.8554" lon="4.80097">
        <ele>338</ele>
        <time>2018-11-06T10:11:16Z</time>
      </trkpt>
      <trkpt lat="45.85542" lon="4.80095">
        <ele>338</ele>
        <time>2018-11-06T10:11:17Z</time>
      </trkpt>
      <trkpt lat="45.85549" lon="4.8009">
        <ele>339</ele>
        <time>2018-11-06T10:11:22Z</time>
      </trkpt>
      <trkpt lat="45.8555" lon="4.80089">
        <ele>339</ele>
        <time>2018-11-06T10:11:23Z</time>
      </trkpt>
      <trkpt lat="45.85558" lon="4.80086">
        <ele>339</ele>
        <time>2018-11-06T10:11:27Z</time>
      </trkpt>
      <trkpt lat="45.85559" lon="4.80085">
        <ele>339</ele>
        <time>2018-11-06T10:11:28Z</time>
      </trkpt>
      <trkpt lat="45.85567" lon="4.80084">
        <ele>340</ele>
        <time>2018-11-06T10:11:32Z</time>
      </trkpt>
      <trkpt lat="45.8557" lon="4.80083">
        <ele>345</ele>
        <time>2018-11-06T10:11:33Z</time>
      </trkpt>
      <trkpt lat="45.85578" lon="4.8008">
        <ele>343</ele>
        <time>2018-11-06T10:11:37Z</time>
      </trkpt>
      <trkpt lat="45.8558" lon="4.8008">
        <ele>343</ele>
        <time>2018-11-06T10:11:38Z</time>
      </trkpt>
      <trkpt lat="45.85588" lon="4.80076">
        <ele>345</ele>
        <time>2018-11-06T10:11:43Z</time>
      </trkpt>
      <trkpt lat="45.8559" lon="4.80075">
        <ele>346</ele>
        <time>2018-11-06T10:11:44Z</time>
      </trkpt>
      <trkpt lat="45.85596" lon="4.8007">
        <ele>348</ele>
        <time>2018-11-06T10:11:48Z</time>
      </trkpt>
      <trkpt lat="45.85598" lon="4.80069">
        <ele>348</ele>
        <time>2018-11-06T10:11:49Z</time>
      </trkpt>
      <trkpt lat="45.85606" lon="4.80062">
        <ele>350</ele>
        <time>2018-11-06T10:11:54Z</time>
      </trkpt>
      <trkpt lat="45.85607" lon="4.80061">
        <ele>350</ele>
        <time>2018-11-06T10:11:55Z</time>
      </trkpt>
      <trkpt lat="45.85614" lon="4.80057">
        <ele>351</ele>
        <time>2018-11-06T10:12:00Z</time>
      </trkpt>
      <trkpt lat="45.85616" lon="4.80056">
        <ele>352</ele>
        <time>2018-11-06T10:12:01Z</time>
      </trkpt>
      <trkpt lat="45.85623" lon="4.80054">
        <ele>352</ele>
        <time>2018-11-06T10:12:06Z</time>
      </trkpt>
      <trkpt lat="45.85625" lon="4.80053">
        <ele>353</ele>
        <time>2018-11-06T10:12:07Z</time>
      </trkpt>
      <trkpt lat="45.85631" lon="4.80047">
        <ele>353</ele>
        <time>2018-11-06T10:12:12Z</time>
      </trkpt>
      <trkpt lat="45.85633" lon="4.80046">
        <ele>353</ele>
        <time>2018-11-06T10:12:13Z</time>
      </trkpt>
      <trkpt lat="45.8564" lon="4.80038">
        <ele>354</ele>
        <time>2018-11-06T10:12:18Z</time>
      </trkpt>
      <trkpt lat="45.85641" lon="4.80037">
        <ele>354</ele>
        <time>2018-11-06T10:12:19Z</time>
      </trkpt>
      <trkpt lat="45.85647" lon="4.80028">
        <ele>354</ele>
        <time>2018-11-06T10:12:24Z</time>
      </trkpt>
      <trkpt lat="45.85648" lon="4.80026">
        <ele>354</ele>
        <time>2018-11-06T10:12:25Z</time>
      </trkpt>
      <trkpt lat="45.85652" lon="4.80016">
        <ele>354</ele>
        <time>2018-11-06T10:12:30Z</time>
      </trkpt>
      <trkpt lat="45.85653" lon="4.80014">
        <ele>354</ele>
        <time>2018-11-06T10:12:31Z</time>
      </trkpt>
      <trkpt lat="45.85654" lon="4.80001">
        <ele>354</ele>
        <time>2018-11-06T10:12:37Z</time>
      </trkpt>
      <trkpt lat="45.85654" lon="4.79999">
        <ele>357</ele>
        <time>2018-11-06T10:12:38Z</time>
      </trkpt>
      <trkpt lat="45.85652" lon="4.79986">
        <ele>358</ele>
        <time>2018-11-06T10:12:45Z</time>
      </trkpt>
      <trkpt lat="45.85651" lon="4.79985">
        <ele>358</ele>
        <time>2018-11-06T10:12:46Z</time>
      </trkpt>
      <trkpt lat="45.85644" lon="4.7998">
        <ele>359</ele>
        <time>2018-11-06T10:12:50Z</time>
      </trkpt>
      <trkpt lat="45.85642" lon="4.79979">
        <ele>359</ele>
        <time>2018-11-06T10:12:51Z</time>
      </trkpt>
      <trkpt lat="45.85634" lon="4.79977">
        <ele>359</ele>
        <time>2018-11-06T10:12:55Z</time>
      </trkpt>
      <trkpt lat="45.85632" lon="4.79977">
        <ele>359</ele>
        <time>2018-11-06T10:12:56Z</time>
      </trkpt>
      <trkpt lat="45.85625" lon="4.79977">
        <ele>360</ele>
        <time>2018-11-06T10:13:00Z</time>
      </trkpt>
      <trkpt lat="45.85623" lon="4.79977">
        <ele>360</ele>
        <time>2018-11-06T10:13:01Z</time>
      </trkpt>
      <trkpt lat="45.85614" lon="4.79976">
        <ele>359</ele>
        <time>2018-11-06T10:13:06Z</time>
      </trkpt>
      <trkpt lat="45.85612" lon="4.79976">
        <ele>359</ele>
        <time>2018-11-06T10:13:07Z</time>
      </trkpt>
      <trkpt lat="45.85604" lon="4.79976">
        <ele>359</ele>
        <time>2018-11-06T10:13:11Z</time>
      </trkpt>
      <trkpt lat="45.85602" lon="4.79976">
        <ele>359</ele>
        <time>2018-11-06T10:13:12Z</time>
      </trkpt>
      <trkpt lat="45.85595" lon="4.79975">
        <ele>359</ele>
        <time>2018-11-06T10:13:16Z</time>
      </trkpt>
      <trkpt lat="45.85593" lon="4.79975">
        <ele>359</ele>
        <time>2018-11-06T10:13:17Z</time>
      </trkpt>
      <trkpt lat="45.85584" lon="4.79976">
        <ele>358</ele>
        <time>2018-11-06T10:13:22Z</time>
      </trkpt>
      <trkpt lat="45.85583" lon="4.79976">
        <ele>360</ele>
        <time>2018-11-06T10:13:23Z</time>
      </trkpt>
      <trkpt lat="45.85574" lon="4.79979">
        <ele>359</ele>
        <time>2018-11-06T10:13:29Z</time>
      </trkpt>
      <trkpt lat="45.85573" lon="4.79979">
        <ele>360</ele>
        <time>2018-11-06T10:13:30Z</time>
      </trkpt>
      <trkpt lat="45.85564" lon="4.7998">
        <ele>360</ele>
        <time>2018-11-06T10:13:35Z</time>
      </trkpt>
      <trkpt lat="45.85562" lon="4.79981">
        <ele>360</ele>
        <time>2018-11-06T10:13:36Z</time>
      </trkpt>
      <trkpt lat="45.85554" lon="4.79982">
        <ele>361</ele>
        <time>2018-11-06T10:13:41Z</time>
      </trkpt>
      <trkpt lat="45.85553" lon="4.79982">
        <ele>361</ele>
        <time>2018-11-06T10:13:42Z</time>
      </trkpt>
      <trkpt lat="45.85544" lon="4.79983">
        <ele>361</ele>
        <time>2018-11-06T10:13:48Z</time>
      </trkpt>
      <trkpt lat="45.85542" lon="4.79983">
        <ele>361</ele>
        <time>2018-11-06T10:13:49Z</time>
      </trkpt>
      <trkpt lat="45.85534" lon="4.79983">
        <ele>361</ele>
        <time>2018-11-06T10:13:54Z</time>
      </trkpt>
      <trkpt lat="45.85532" lon="4.79983">
        <ele>361</ele>
        <time>2018-11-06T10:13:55Z</time>
      </trkpt>
      <trkpt lat="45.85524" lon="4.7998">
        <ele>362</ele>
        <time>2018-11-06T10:13:59Z</time>
      </trkpt>
      <trkpt lat="45.85522" lon="4.7998">
        <ele>362</ele>
        <time>2018-11-06T10:14:00Z</time>
      </trkpt>
      <trkpt lat="45.85515" lon="4.79977">
        <ele>362</ele>
        <time>2018-11-06T10:14:04Z</time>
      </trkpt>
      <trkpt lat="45.85513" lon="4.79976">
        <ele>362</ele>
        <time>2018-11-06T10:14:05Z</time>
      </trkpt>
      <trkpt lat="45.85505" lon="4.79974">
        <ele>362</ele>
        <time>2018-11-06T10:14:09Z</time>
      </trkpt>
      <trkpt lat="45.85502" lon="4.79973">
        <ele>362</ele>
        <time>2018-11-06T10:14:10Z</time>
      </trkpt>
      <trkpt lat="45.85493" lon="4.79972">
        <ele>363</ele>
        <time>2018-11-06T10:14:14Z</time>
      </trkpt>
      <trkpt lat="45.85491" lon="4.79972">
        <ele>364</ele>
        <time>2018-11-06T10:14:15Z</time>
      </trkpt>
      <trkpt lat="45.85484" lon="4.79973">
        <ele>364</ele>
        <time>2018-11-06T10:14:18Z</time>
      </trkpt>
      <trkpt lat="45.85482" lon="4.79974">
        <ele>364</ele>
        <time>2018-11-06T10:14:19Z</time>
      </trkpt>
      <trkpt lat="45.85475" lon="4.79976">
        <ele>364</ele>
        <time>2018-11-06T10:14:22Z</time>
      </trkpt>
      <trkpt lat="45.85472" lon="4.79977">
        <ele>364</ele>
        <time>2018-11-06T10:14:23Z</time>
      </trkpt>
      <trkpt lat="45.85464" lon="4.79979">
        <ele>364</ele>
        <time>2018-11-06T10:14:26Z</time>
      </trkpt>
      <trkpt lat="45.85461" lon="4.7998">
        <ele>364</ele>
        <time>2018-11-06T10:14:27Z</time>
      </trkpt>
      <trkpt lat="45.85454" lon="4.79984">
        <ele>363</ele>
        <time>2018-11-06T10:14:30Z</time>
      </trkpt>
      <trkpt lat="45.85451" lon="4.79985">
        <ele>363</ele>
        <time>2018-11-06T10:14:31Z</time>
      </trkpt>
      <trkpt lat="45.85444" lon="4.79989">
        <ele>363</ele>
        <time>2018-11-06T10:14:35Z</time>
      </trkpt>
      <trkpt lat="45.85442" lon="4.79989">
        <ele>363</ele>
        <time>2018-11-06T10:14:36Z</time>
      </trkpt>
      <trkpt lat="45.85433" lon="4.79991">
        <ele>362</ele>
        <time>2018-11-06T10:14:40Z</time>
      </trkpt>
      <trkpt lat="45.85431" lon="4.79991">
        <ele>362</ele>
        <time>2018-11-06T10:14:41Z</time>
      </trkpt>
      <trkpt lat="45.85422" lon="4.79988">
        <ele>362</ele>
        <time>2018-11-06T10:14:46Z</time>
      </trkpt>
      <trkpt lat="45.8542" lon="4.79987">
        <ele>362</ele>
        <time>2018-11-06T10:14:47Z</time>
      </trkpt>
      <trkpt lat="45.85414" lon="4.7998">
        <ele>360</ele>
        <time>2018-11-06T10:14:51Z</time>
      </trkpt>
      <trkpt lat="45.85413" lon="4.79978">
        <ele>360</ele>
        <time>2018-11-06T10:14:52Z</time>
      </trkpt>
      <trkpt lat="45.85407" lon="4.7997">
        <ele>361</ele>
        <time>2018-11-06T10:14:57Z</time>
      </trkpt>
      <trkpt lat="45.85405" lon="4.79968">
        <ele>361</ele>
        <time>2018-11-06T10:14:58Z</time>
      </trkpt>
      <trkpt lat="45.85401" lon="4.79959">
        <ele>361</ele>
        <time>2018-11-06T10:15:02Z</time>
      </trkpt>
      <trkpt lat="45.854" lon="4.79957">
        <ele>362</ele>
        <time>2018-11-06T10:15:03Z</time>
      </trkpt>
      <trkpt lat="45.85397" lon="4.79947">
        <ele>362</ele>
        <time>2018-11-06T10:15:07Z</time>
      </trkpt>
      <trkpt lat="45.85397" lon="4.79945">
        <ele>363</ele>
        <time>2018-11-06T10:15:08Z</time>
      </trkpt>
      <trkpt lat="45.85393" lon="4.79933">
        <ele>363</ele>
        <time>2018-11-06T10:15:14Z</time>
      </trkpt>
      <trkpt lat="45.85392" lon="4.79931">
        <ele>363</ele>
        <time>2018-11-06T10:15:15Z</time>
      </trkpt>
      <trkpt lat="45.85388" lon="4.79921">
        <ele>364</ele>
        <time>2018-11-06T10:15:20Z</time>
      </trkpt>
      <trkpt lat="45.85388" lon="4.7992">
        <ele>364</ele>
        <time>2018-11-06T10:15:21Z</time>
      </trkpt>
      <trkpt lat="45.85386" lon="4.79907">
        <ele>371</ele>
        <time>2018-11-06T10:15:27Z</time>
      </trkpt>
      <trkpt lat="45.85386" lon="4.79905">
        <ele>371</ele>
        <time>2018-11-06T10:15:28Z</time>
      </trkpt>
      <trkpt lat="45.85382" lon="4.79894">
        <ele>371</ele>
        <time>2018-11-06T10:15:33Z</time>
      </trkpt>
      <trkpt lat="45.85381" lon="4.79892">
        <ele>371</ele>
        <time>2018-11-06T10:15:34Z</time>
      </trkpt>
      <trkpt lat="45.85379" lon="4.79881">
        <ele>372</ele>
        <time>2018-11-06T10:15:39Z</time>
      </trkpt>
      <trkpt lat="45.85379" lon="4.79879">
        <ele>372</ele>
        <time>2018-11-06T10:15:40Z</time>
      </trkpt>
      <trkpt lat="45.85377" lon="4.79867">
        <ele>372</ele>
        <time>2018-11-06T10:15:45Z</time>
      </trkpt>
      <trkpt lat="45.85377" lon="4.79865">
        <ele>373</ele>
        <time>2018-11-06T10:15:46Z</time>
      </trkpt>
      <trkpt lat="45.85376" lon="4.79854">
        <ele>373</ele>
        <time>2018-11-06T10:15:51Z</time>
      </trkpt>
      <trkpt lat="45.85375" lon="4.79852">
        <ele>373</ele>
        <time>2018-11-06T10:15:52Z</time>
      </trkpt>
      <trkpt lat="45.8537" lon="4.79841">
        <ele>373</ele>
        <time>2018-11-06T10:15:58Z</time>
      </trkpt>
      <trkpt lat="45.85369" lon="4.79839">
        <ele>373</ele>
        <time>2018-11-06T10:15:59Z</time>
      </trkpt>
      <trkpt lat="45.85366" lon="4.7983">
        <ele>382</ele>
        <time>2018-11-06T10:16:04Z</time>
      </trkpt>
      <trkpt lat="45.85365" lon="4.79828">
        <ele>382</ele>
        <time>2018-11-06T10:16:05Z</time>
      </trkpt>
      <trkpt lat="45.85362" lon="4.79817">
        <ele>382</ele>
        <time>2018-11-06T10:16:10Z</time>
      </trkpt>
      <trkpt lat="45.85362" lon="4.79814">
        <ele>383</ele>
        <time>2018-11-06T10:16:11Z</time>
      </trkpt>
      <trkpt lat="45.85358" lon="4.79805">
        <ele>383</ele>
        <time>2018-11-06T10:16:17Z</time>
      </trkpt>
      <trkpt lat="45.85357" lon="4.79803">
        <ele>383</ele>
        <time>2018-11-06T10:16:18Z</time>
      </trkpt>
      <trkpt lat="45.85352" lon="4.79792">
        <ele>384</ele>
        <time>2018-11-06T10:16:24Z</time>
      </trkpt>
      <trkpt lat="45.85352" lon="4.79791">
        <ele>385</ele>
        <time>2018-11-06T10:16:25Z</time>
      </trkpt>
      <trkpt lat="45.85348" lon="4.7978">
        <ele>386</ele>
        <time>2018-11-06T10:16:31Z</time>
      </trkpt>
      <trkpt lat="45.85347" lon="4.79779">
        <ele>386</ele>
        <time>2018-11-06T10:16:32Z</time>
      </trkpt>
      <trkpt lat="45.85343" lon="4.79769">
        <ele>387</ele>
        <time>2018-11-06T10:16:37Z</time>
      </trkpt>
      <trkpt lat="45.85342" lon="4.79767">
        <ele>387</ele>
        <time>2018-11-06T10:16:38Z</time>
      </trkpt>
      <trkpt lat="45.8534" lon="4.79756">
        <ele>387</ele>
        <time>2018-11-06T10:16:43Z</time>
      </trkpt>
      <trkpt lat="45.8534" lon="4.79754">
        <ele>388</ele>
        <time>2018-11-06T10:16:44Z</time>
      </trkpt>
      <trkpt lat="45.85337" lon="4.79744">
        <ele>391</ele>
        <time>2018-11-06T10:16:49Z</time>
      </trkpt>
      <trkpt lat="45.85336" lon="4.79742">
        <ele>391</ele>
        <time>2018-11-06T10:16:50Z</time>
      </trkpt>
      <trkpt lat="45.85331" lon="4.79732">
        <ele>388</ele>
        <time>2018-11-06T10:16:55Z</time>
      </trkpt>
      <trkpt lat="45.8533" lon="4.79731">
        <ele>388</ele>
        <time>2018-11-06T10:16:56Z</time>
      </trkpt>
      <trkpt lat="45.85326" lon="4.79721">
        <ele>388</ele>
        <time>2018-11-06T10:17:03Z</time>
      </trkpt>
      <trkpt lat="45.85325" lon="4.79719">
        <ele>388</ele>
        <time>2018-11-06T10:17:04Z</time>
      </trkpt>
      <trkpt lat="45.85321" lon="4.79708">
        <ele>389</ele>
        <time>2018-11-06T10:17:09Z</time>
      </trkpt>
      <trkpt lat="45.8532" lon="4.79706">
        <ele>389</ele>
        <time>2018-11-06T10:17:10Z</time>
      </trkpt>
      <trkpt lat="45.85317" lon="4.79696">
        <ele>390</ele>
        <time>2018-11-06T10:17:15Z</time>
      </trkpt>
      <trkpt lat="45.85316" lon="4.79694">
        <ele>390</ele>
        <time>2018-11-06T10:17:16Z</time>
      </trkpt>
      <trkpt lat="45.85313" lon="4.79684">
        <ele>391</ele>
        <time>2018-11-06T10:17:21Z</time>
      </trkpt>
      <trkpt lat="45.85312" lon="4.79682">
        <ele>391</ele>
        <time>2018-11-06T10:17:22Z</time>
      </trkpt>
      <trkpt lat="45.85309" lon="4.79671">
        <ele>391</ele>
        <time>2018-11-06T10:17:28Z</time>
      </trkpt>
      <trkpt lat="45.85309" lon="4.79669">
        <ele>391</ele>
        <time>2018-11-06T10:17:29Z</time>
      </trkpt>
      <trkpt lat="45.85305" lon="4.79658">
        <ele>398</ele>
        <time>2018-11-06T10:17:35Z</time>
      </trkpt>
      <trkpt lat="45.85304" lon="4.79657">
        <ele>398</ele>
        <time>2018-11-06T10:17:36Z</time>
      </trkpt>
      <trkpt lat="45.85299" lon="4.79647">
        <ele>398</ele>
        <time>2018-11-06T10:17:41Z</time>
      </trkpt>
      <trkpt lat="45.85297" lon="4.79645">
        <ele>398</ele>
        <time>2018-11-06T10:17:42Z</time>
      </trkpt>
      <trkpt lat="45.85291" lon="4.79639">
        <ele>397</ele>
        <time>2018-11-06T10:17:45Z</time>
      </trkpt>
      <trkpt lat="45.85288" lon="4.79638">
        <ele>397</ele>
        <time>2018-11-06T10:17:46Z</time>
      </trkpt>
      <trkpt lat="45.8528" lon="4.79634">
        <ele>397</ele>
        <time>2018-11-06T10:17:50Z</time>
      </trkpt>
      <trkpt lat="45.85278" lon="4.79633">
        <ele>397</ele>
        <time>2018-11-06T10:17:51Z</time>
      </trkpt>
      <trkpt lat="45.85273" lon="4.7963">
        <ele>397</ele>
        <time>2018-11-06T10:17:53Z</time>
      </trkpt>
      <trkpt lat="45.85269" lon="4.79628">
        <ele>397</ele>
        <time>2018-11-06T10:17:54Z</time>
      </trkpt>
      <trkpt lat="45.85261" lon="4.79623">
        <ele>397</ele>
        <time>2018-11-06T10:17:57Z</time>
      </trkpt>
      <trkpt lat="45.85258" lon="4.79622">
        <ele>397</ele>
        <time>2018-11-06T10:17:58Z</time>
      </trkpt>
      <trkpt lat="45.85251" lon="4.79615">
        <ele>397</ele>
        <time>2018-11-06T10:18:01Z</time>
      </trkpt>
      <trkpt lat="45.85248" lon="4.79612">
        <ele>392</ele>
        <time>2018-11-06T10:18:02Z</time>
      </trkpt>
      <trkpt lat="45.85256" lon="4.79607">
        <ele>397</ele>
        <time>2018-11-06T10:18:12Z</time>
      </trkpt>
      <trkpt lat="45.85258" lon="4.79609">
        <ele>397</ele>
        <time>2018-11-06T10:18:13Z</time>
      </trkpt>
      <trkpt lat="45.85265" lon="4.79615">
        <ele>397</ele>
        <time>2018-11-06T10:18:18Z</time>
      </trkpt>
      <trkpt lat="45.85267" lon="4.79616">
        <ele>397</ele>
        <time>2018-11-06T10:18:19Z</time>
      </trkpt>
      <trkpt lat="45.85275" lon="4.79618">
        <ele>398</ele>
        <time>2018-11-06T10:18:23Z</time>
      </trkpt>
      <trkpt lat="45.85277" lon="4.79619">
        <ele>398</ele>
        <time>2018-11-06T10:18:24Z</time>
      </trkpt>
      <trkpt lat="45.85283" lon="4.79623">
        <ele>398</ele>
        <time>2018-11-06T10:18:28Z</time>
      </trkpt>
      <trkpt lat="45.85285" lon="4.79625">
        <ele>398</ele>
        <time>2018-11-06T10:18:29Z</time>
      </trkpt>
      <trkpt lat="45.8529" lon="4.79631">
        <ele>398</ele>
        <time>2018-11-06T10:18:33Z</time>
      </trkpt>
      <trkpt lat="45.85292" lon="4.79633">
        <ele>398</ele>
        <time>2018-11-06T10:18:34Z</time>
      </trkpt>
      <trkpt lat="45.853" lon="4.79637">
        <ele>398</ele>
        <time>2018-11-06T10:18:39Z</time>
      </trkpt>
      <trkpt lat="45.85302" lon="4.79638">
        <ele>398</ele>
        <time>2018-11-06T10:18:40Z</time>
      </trkpt>
      <trkpt lat="45.8531" lon="4.79643">
        <ele>398</ele>
        <time>2018-11-06T10:18:45Z</time>
      </trkpt>
      <trkpt lat="45.85311" lon="4.79644">
        <ele>398</ele>
        <time>2018-11-06T10:18:46Z</time>
      </trkpt>
      <trkpt lat="45.85319" lon="4.7965">
        <ele>398</ele>
        <time>2018-11-06T10:18:52Z</time>
      </trkpt>
      <trkpt lat="45.8532" lon="4.79651">
        <ele>398</ele>
        <time>2018-11-06T10:18:53Z</time>
      </trkpt>
      <trkpt lat="45.85327" lon="4.79656">
        <ele>398</ele>
        <time>2018-11-06T10:18:58Z</time>
      </trkpt>
      <trkpt lat="45.85328" lon="4.79657">
        <ele>398</ele>
        <time>2018-11-06T10:18:59Z</time>
      </trkpt>
      <trkpt lat="45.85334" lon="4.79664">
        <ele>399</ele>
        <time>2018-11-06T10:19:04Z</time>
      </trkpt>
      <trkpt lat="45.85335" lon="4.79666">
        <ele>399</ele>
        <time>2018-11-06T10:19:05Z</time>
      </trkpt>
      <trkpt lat="45.85341" lon="4.79672">
        <ele>399</ele>
        <time>2018-11-06T10:19:10Z</time>
      </trkpt>
      <trkpt lat="45.85343" lon="4.79673">
        <ele>399</ele>
        <time>2018-11-06T10:19:11Z</time>
      </trkpt>
      <trkpt lat="45.8535" lon="4.79678">
        <ele>399</ele>
        <time>2018-11-06T10:19:16Z</time>
      </trkpt>
      <trkpt lat="45.85351" lon="4.7968">
        <ele>399</ele>
        <time>2018-11-06T10:19:17Z</time>
      </trkpt>
      <trkpt lat="45.85357" lon="4.79688">
        <ele>399</ele>
        <time>2018-11-06T10:19:22Z</time>
      </trkpt>
      <trkpt lat="45.85358" lon="4.79689">
        <ele>399</ele>
        <time>2018-11-06T10:19:23Z</time>
      </trkpt>
      <trkpt lat="45.85365" lon="4.79695">
        <ele>400</ele>
        <time>2018-11-06T10:19:28Z</time>
      </trkpt>
      <trkpt lat="45.85366" lon="4.79696">
        <ele>400</ele>
        <time>2018-11-06T10:19:29Z</time>
      </trkpt>
      <trkpt lat="45.85373" lon="4.79698">
        <ele>400</ele>
        <time>2018-11-06T10:19:33Z</time>
      </trkpt>
      <trkpt lat="45.85375" lon="4.79699">
        <ele>400</ele>
        <time>2018-11-06T10:19:34Z</time>
      </trkpt>
      <trkpt lat="45.85383" lon="4.79703">
        <ele>401</ele>
        <time>2018-11-06T10:19:39Z</time>
      </trkpt>
      <trkpt lat="45.85385" lon="4.79704">
        <ele>401</ele>
        <time>2018-11-06T10:19:40Z</time>
      </trkpt>
      <trkpt lat="45.85393" lon="4.79705">
        <ele>401</ele>
        <time>2018-11-06T10:19:45Z</time>
      </trkpt>
      <trkpt lat="45.85395" lon="4.79706">
        <ele>401</ele>
        <time>2018-11-06T10:19:46Z</time>
      </trkpt>
      <trkpt lat="45.85403" lon="4.79708">
        <ele>402</ele>
        <time>2018-11-06T10:19:51Z</time>
      </trkpt>
      <trkpt lat="45.85405" lon="4.79708">
        <ele>402</ele>
        <time>2018-11-06T10:19:52Z</time>
      </trkpt>
      <trkpt lat="45.85413" lon="4.7971">
        <ele>402</ele>
        <time>2018-11-06T10:19:57Z</time>
      </trkpt>
      <trkpt lat="45.85414" lon="4.7971">
        <ele>402</ele>
        <time>2018-11-06T10:19:58Z</time>
      </trkpt>
      <trkpt lat="45.85423" lon="4.79711">
        <ele>408</ele>
        <time>2018-11-06T10:20:04Z</time>
      </trkpt>
      <trkpt lat="45.85424" lon="4.79711">
        <ele>408</ele>
        <time>2018-11-06T10:20:05Z</time>
      </trkpt>
      <trkpt lat="45.85433" lon="4.79714">
        <ele>408</ele>
        <time>2018-11-06T10:20:11Z</time>
      </trkpt>
      <trkpt lat="45.85434" lon="4.79714">
        <ele>408</ele>
        <time>2018-11-06T10:20:12Z</time>
      </trkpt>
      <trkpt lat="45.85442" lon="4.79717">
        <ele>408</ele>
        <time>2018-11-06T10:20:17Z</time>
      </trkpt>
      <trkpt lat="45.85444" lon="4.79717">
        <ele>408</ele>
        <time>2018-11-06T10:20:18Z</time>
      </trkpt>
      <trkpt lat="45.85452" lon="4.79719">
        <ele>408</ele>
        <time>2018-11-06T10:20:23Z</time>
      </trkpt>
      <trkpt lat="45.85454" lon="4.79719">
        <ele>408</ele>
        <time>2018-11-06T10:20:24Z</time>
      </trkpt>
      <trkpt lat="45.85462" lon="4.79721">
        <ele>408</ele>
        <time>2018-11-06T10:20:28Z</time>
      </trkpt>
      <trkpt lat="45.85464" lon="4.79721">
        <ele>408</ele>
        <time>2018-11-06T10:20:29Z</time>
      </trkpt>
      <trkpt lat="45.85473" lon="4.79722">
        <ele>408</ele>
        <time>2018-11-06T10:20:33Z</time>
      </trkpt>
      <trkpt lat="45.85475" lon="4.79722">
        <ele>408</ele>
        <time>2018-11-06T10:20:34Z</time>
      </trkpt>
      <trkpt lat="45.85483" lon="4.79724">
        <ele>408</ele>
        <time>2018-11-06T10:20:37Z</time>
      </trkpt>
      <trkpt lat="45.85485" lon="4.79725">
        <ele>408</ele>
        <time>2018-11-06T10:20:38Z</time>
      </trkpt>
      <trkpt lat="45.85492" lon="4.79727">
        <ele>408</ele>
        <time>2018-11-06T10:20:41Z</time>
      </trkpt>
      <trkpt lat="45.85494" lon="4.79727">
        <ele>408</ele>
        <time>2018-11-06T10:20:42Z</time>
      </trkpt>
      <trkpt lat="45.85502" lon="4.79728">
        <ele>408</ele>
        <time>2018-11-06T10:20:45Z</time>
      </trkpt>
      <trkpt lat="45.85504" lon="4.79727">
        <ele>409</ele>
        <time>2018-11-06T10:20:46Z</time>
      </trkpt>
      <trkpt lat="45.85512" lon="4.79724">
        <ele>409</ele>
        <time>2018-11-06T10:20:50Z</time>
      </trkpt>
      <trkpt lat="45.85515" lon="4.79723">
        <ele>409</ele>
        <time>2018-11-06T10:20:51Z</time>
      </trkpt>
      <trkpt lat="45.85523" lon="4.79719">
        <ele>409</ele>
        <time>2018-11-06T10:20:54Z</time>
      </trkpt>
      <trkpt lat="45.85526" lon="4.79718">
        <ele>409</ele>
        <time>2018-11-06T10:20:55Z</time>
      </trkpt>
      <trkpt lat="45.85532" lon="4.79714">
        <ele>410</ele>
        <time>2018-11-06T10:20:58Z</time>
      </trkpt>
      <trkpt lat="45.85534" lon="4.79712">
        <ele>410</ele>
        <time>2018-11-06T10:20:59Z</time>
      </trkpt>
      <trkpt lat="45.85541" lon="4.79708">
        <ele>410</ele>
        <time>2018-11-06T10:21:02Z</time>
      </trkpt>
      <trkpt lat="45.85542" lon="4.79707">
        <ele>410</ele>
        <time>2018-11-06T10:21:03Z</time>
      </trkpt>
      <trkpt lat="45.8555" lon="4.797">
        <ele>410</ele>
        <time>2018-11-06T10:21:07Z</time>
      </trkpt>
      <trkpt lat="45.85552" lon="4.79698">
        <ele>410</ele>
        <time>2018-11-06T10:21:08Z</time>
      </trkpt>
      <trkpt lat="45.85558" lon="4.79695">
        <ele>411</ele>
        <time>2018-11-06T10:21:10Z</time>
      </trkpt>
      <trkpt lat="45.85561" lon="4.79694">
        <ele>411</ele>
        <time>2018-11-06T10:21:11Z</time>
      </trkpt>
      <trkpt lat="45.85569" lon="4.7969">
        <ele>411</ele>
        <time>2018-11-06T10:21:14Z</time>
      </trkpt>
      <trkpt lat="45.85571" lon="4.79688">
        <ele>411</ele>
        <time>2018-11-06T10:21:15Z</time>
      </trkpt>
      <trkpt lat="45.85579" lon="4.79683">
        <ele>412</ele>
        <time>2018-11-06T10:21:19Z</time>
      </trkpt>
      <trkpt lat="45.8558" lon="4.79682">
        <ele>412</ele>
        <time>2018-11-06T10:21:20Z</time>
      </trkpt>
      <trkpt lat="45.85588" lon="4.79677">
        <ele>413</ele>
        <time>2018-11-06T10:21:25Z</time>
      </trkpt>
      <trkpt lat="45.8559" lon="4.79676">
        <ele>413</ele>
        <time>2018-11-06T10:21:26Z</time>
      </trkpt>
      <trkpt lat="45.85598" lon="4.79672">
        <ele>413</ele>
        <time>2018-11-06T10:21:31Z</time>
      </trkpt>
      <trkpt lat="45.85599" lon="4.79671">
        <ele>413</ele>
        <time>2018-11-06T10:21:32Z</time>
      </trkpt>
      <trkpt lat="45.85606" lon="4.79669">
        <ele>413</ele>
        <time>2018-11-06T10:21:36Z</time>
      </trkpt>
      <trkpt lat="45.85608" lon="4.79668">
        <ele>413</ele>
        <time>2018-11-06T10:21:37Z</time>
      </trkpt>
      <trkpt lat="45.85617" lon="4.79664">
        <ele>421</ele>
        <time>2018-11-06T10:21:42Z</time>
      </trkpt>
      <trkpt lat="45.85618" lon="4.79664">
        <ele>421</ele>
        <time>2018-11-06T10:21:43Z</time>
      </trkpt>
      <trkpt lat="45.85625" lon="4.79659">
        <ele>422</ele>
        <time>2018-11-06T10:21:47Z</time>
      </trkpt>
      <trkpt lat="45.85627" lon="4.79659">
        <ele>422</ele>
        <time>2018-11-06T10:21:48Z</time>
      </trkpt>
      <trkpt lat="45.85635" lon="4.79657">
        <ele>422</ele>
        <time>2018-11-06T10:21:52Z</time>
      </trkpt>
      <trkpt lat="45.85637" lon="4.79657">
        <ele>422</ele>
        <time>2018-11-06T10:21:53Z</time>
      </trkpt>
      <trkpt lat="45.85645" lon="4.79656">
        <ele>422</ele>
        <time>2018-11-06T10:21:57Z</time>
      </trkpt>
      <trkpt lat="45.85647" lon="4.79656">
        <ele>422</ele>
        <time>2018-11-06T10:21:58Z</time>
      </trkpt>
      <trkpt lat="45.85655" lon="4.79656">
        <ele>422</ele>
        <time>2018-11-06T10:22:02Z</time>
      </trkpt>
      <trkpt lat="45.85657" lon="4.79656">
        <ele>422</ele>
        <time>2018-11-06T10:22:03Z</time>
      </trkpt>
      <trkpt lat="45.85666" lon="4.79655">
        <ele>422</ele>
        <time>2018-11-06T10:22:07Z</time>
      </trkpt>
      <trkpt lat="45.85668" lon="4.79654">
        <ele>423</ele>
        <time>2018-11-06T10:22:08Z</time>
      </trkpt>
      <trkpt lat="45.85676" lon="4.79653">
        <ele>424</ele>
        <time>2018-11-06T10:22:11Z</time>
      </trkpt>
      <trkpt lat="45.85679" lon="4.79652">
        <ele>424</ele>
        <time>2018-11-06T10:22:12Z</time>
      </trkpt>
      <trkpt lat="45.85688" lon="4.7965">
        <ele>425</ele>
        <time>2018-11-06T10:22:16Z</time>
      </trkpt>
      <trkpt lat="45.8569" lon="4.79649">
        <ele>425</ele>
        <time>2018-11-06T10:22:17Z</time>
      </trkpt>
      <trkpt lat="45.85698" lon="4.79647">
        <ele>425</ele>
        <time>2018-11-06T10:22:21Z</time>
      </trkpt>
      <trkpt lat="45.857" lon="4.79646">
        <ele>425</ele>
        <time>2018-11-06T10:22:22Z</time>
      </trkpt>
      <trkpt lat="45.85707" lon="4.79644">
        <ele>425</ele>
        <time>2018-11-06T10:22:25Z</time>
      </trkpt>
      <trkpt lat="45.85709" lon="4.79644">
        <ele>425</ele>
        <time>2018-11-06T10:22:26Z</time>
      </trkpt>
      <trkpt lat="45.85717" lon="4.79641">
        <ele>426</ele>
        <time>2018-11-06T10:22:29Z</time>
      </trkpt>
      <trkpt lat="45.8572" lon="4.7964">
        <ele>426</ele>
        <time>2018-11-06T10:22:30Z</time>
      </trkpt>
      <trkpt lat="45.85728" lon="4.79638">
        <ele>426</ele>
        <time>2018-11-06T10:22:33Z</time>
      </trkpt>
      <trkpt lat="45.85731" lon="4.79638">
        <ele>426</ele>
        <time>2018-11-06T10:22:34Z</time>
      </trkpt>
      <trkpt lat="45.85739" lon="4.79637">
        <ele>425</ele>
        <time>2018-11-06T10:22:37Z</time>
      </trkpt>
      <trkpt lat="45.85741" lon="4.79637">
        <ele>425</ele>
        <time>2018-11-06T10:22:38Z</time>
      </trkpt>
      <trkpt lat="45.85749" lon="4.79637">
        <ele>425</ele>
        <time>2018-11-06T10:22:41Z</time>
      </trkpt>
      <trkpt lat="45.85753" lon="4.79637">
        <ele>427</ele>
        <time>2018-11-06T10:22:42Z</time>
      </trkpt>
      <trkpt lat="45.8576" lon="4.79639">
        <ele>427</ele>
        <time>2018-11-06T10:22:44Z</time>
      </trkpt>
      <trkpt lat="45.85762" lon="4.79639">
        <ele>427</ele>
        <time>2018-11-06T10:22:45Z</time>
      </trkpt>
      <trkpt lat="45.8577" lon="4.7964">
        <ele>427</ele>
        <time>2018-11-06T10:22:48Z</time>
      </trkpt>
      <trkpt lat="45.85772" lon="4.79639">
        <ele>428</ele>
        <time>2018-11-06T10:22:49Z</time>
      </trkpt>
      <trkpt lat="45.85779" lon="4.79638">
        <ele>428</ele>
        <time>2018-11-06T10:22:52Z</time>
      </trkpt>
      <trkpt lat="45.85782" lon="4.79638">
        <ele>428</ele>
        <time>2018-11-06T10:22:53Z</time>
      </trkpt>
      <trkpt lat="45.85791" lon="4.79637">
        <ele>429</ele>
        <time>2018-11-06T10:22:56Z</time>
      </trkpt>
      <trkpt lat="45.85793" lon="4.79638">
        <ele>429</ele>
        <time>2018-11-06T10:22:57Z</time>
      </trkpt>
      <trkpt lat="45.85801" lon="4.79639">
        <ele>429</ele>
        <time>2018-11-06T10:23:00Z</time>
      </trkpt>
      <trkpt lat="45.85803" lon="4.7964">
        <ele>429</ele>
        <time>2018-11-06T10:23:01Z</time>
      </trkpt>
      <trkpt lat="45.85811" lon="4.79642">
        <ele>429</ele>
        <time>2018-11-06T10:23:04Z</time>
      </trkpt>
      <trkpt lat="45.85813" lon="4.79642">
        <ele>429</ele>
        <time>2018-11-06T10:23:05Z</time>
      </trkpt>
      <trkpt lat="45.85822" lon="4.79643">
        <ele>429</ele>
        <time>2018-11-06T10:23:09Z</time>
      </trkpt>
      <trkpt lat="45.85824" lon="4.79643">
        <ele>429</ele>
        <time>2018-11-06T10:23:10Z</time>
      </trkpt>
      <trkpt lat="45.85832" lon="4.79646">
        <ele>428</ele>
        <time>2018-11-06T10:23:14Z</time>
      </trkpt>
      <trkpt lat="45.85835" lon="4.79647">
        <ele>431</ele>
        <time>2018-11-06T10:23:15Z</time>
      </trkpt>
      <trkpt lat="45.85842" lon="4.79649">
        <ele>431</ele>
        <time>2018-11-06T10:23:18Z</time>
      </trkpt>
      <trkpt lat="45.85844" lon="4.7965">
        <ele>431</ele>
        <time>2018-11-06T10:23:19Z</time>
      </trkpt>
      <trkpt lat="45.85852" lon="4.79654">
        <ele>432</ele>
        <time>2018-11-06T10:23:23Z</time>
      </trkpt>
      <trkpt lat="45.85853" lon="4.79655">
        <ele>432</ele>
        <time>2018-11-06T10:23:24Z</time>
      </trkpt>
      <trkpt lat="45.85861" lon="4.79657">
        <ele>433</ele>
        <time>2018-11-06T10:23:28Z</time>
      </trkpt>
      <trkpt lat="45.85863" lon="4.79658">
        <ele>433</ele>
        <time>2018-11-06T10:23:29Z</time>
      </trkpt>
      <trkpt lat="45.85871" lon="4.79661">
        <ele>434</ele>
        <time>2018-11-06T10:23:33Z</time>
      </trkpt>
      <trkpt lat="45.85873" lon="4.79661">
        <ele>434</ele>
        <time>2018-11-06T10:23:34Z</time>
      </trkpt>
      <trkpt lat="45.8588" lon="4.79666">
        <ele>435</ele>
        <time>2018-11-06T10:23:38Z</time>
      </trkpt>
      <trkpt lat="45.85882" lon="4.79667">
        <ele>427</ele>
        <time>2018-11-06T10:23:39Z</time>
      </trkpt>
      <trkpt lat="45.8589" lon="4.79671">
        <ele>428</ele>
        <time>2018-11-06T10:23:43Z</time>
      </trkpt>
      <trkpt lat="45.85891" lon="4.79672">
        <ele>428</ele>
        <time>2018-11-06T10:23:44Z</time>
      </trkpt>
      <trkpt lat="45.85899" lon="4.79675">
        <ele>429</ele>
        <time>2018-11-06T10:23:48Z</time>
      </trkpt>
      <trkpt lat="45.85901" lon="4.79676">
        <ele>430</ele>
        <time>2018-11-06T10:23:49Z</time>
      </trkpt>
      <trkpt lat="45.85908" lon="4.79681">
        <ele>430</ele>
        <time>2018-11-06T10:23:53Z</time>
      </trkpt>
      <trkpt lat="45.85909" lon="4.79683">
        <ele>430</ele>
        <time>2018-11-06T10:23:54Z</time>
      </trkpt>
      <trkpt lat="45.85916" lon="4.79691">
        <ele>429</ele>
        <time>2018-11-06T10:23:59Z</time>
      </trkpt>
      <trkpt lat="45.85917" lon="4.79693">
        <ele>437</ele>
        <time>2018-11-06T10:24:00Z</time>
      </trkpt>
      <trkpt lat="45.85922" lon="4.79702">
        <ele>438</ele>
        <time>2018-11-06T10:24:05Z</time>
      </trkpt>
      <trkpt lat="45.85923" lon="4.79704">
        <ele>438</ele>
        <time>2018-11-06T10:24:06Z</time>
      </trkpt>
      <trkpt lat="45.85928" lon="4.79712">
        <ele>438</ele>
        <time>2018-11-06T10:24:11Z</time>
      </trkpt>
      <trkpt lat="45.85929" lon="4.79714">
        <ele>438</ele>
        <time>2018-11-06T10:24:12Z</time>
      </trkpt>
      <trkpt lat="45.85934" lon="4.79724">
        <ele>437</ele>
        <time>2018-11-06T10:24:18Z</time>
      </trkpt>
      <trkpt lat="45.85935" lon="4.79726">
        <ele>437</ele>
        <time>2018-11-06T10:24:19Z</time>
      </trkpt>
      <trkpt lat="45.8594" lon="4.79736">
        <ele>437</ele>
        <time>2018-11-06T10:24:24Z</time>
      </trkpt>
      <trkpt lat="45.85941" lon="4.79738">
        <ele>437</ele>
        <time>2018-11-06T10:24:25Z</time>
      </trkpt>
      <trkpt lat="45.85947" lon="4.79746">
        <ele>438</ele>
        <time>2018-11-06T10:24:30Z</time>
      </trkpt>
      <trkpt lat="45.85948" lon="4.79747">
        <ele>438</ele>
        <time>2018-11-06T10:24:31Z</time>
      </trkpt>
      <trkpt lat="45.85954" lon="4.79755">
        <ele>436</ele>
        <time>2018-11-06T10:24:36Z</time>
      </trkpt>
      <trkpt lat="45.85955" lon="4.79756">
        <ele>436</ele>
        <time>2018-11-06T10:24:37Z</time>
      </trkpt>
      <trkpt lat="45.85961" lon="4.79764">
        <ele>437</ele>
        <time>2018-11-06T10:24:42Z</time>
      </trkpt>
      <trkpt lat="45.85962" lon="4.79765">
        <ele>437</ele>
        <time>2018-11-06T10:24:43Z</time>
      </trkpt>
      <trkpt lat="45.85968" lon="4.79775">
        <ele>437</ele>
        <time>2018-11-06T10:24:48Z</time>
      </trkpt>
      <trkpt lat="45.85969" lon="4.79777">
        <ele>437</ele>
        <time>2018-11-06T10:24:49Z</time>
      </trkpt>
      <trkpt lat="45.85975" lon="4.79784">
        <ele>438</ele>
        <time>2018-11-06T10:24:54Z</time>
      </trkpt>
      <trkpt lat="45.85976" lon="4.79785">
        <ele>438</ele>
        <time>2018-11-06T10:24:55Z</time>
      </trkpt>
      <trkpt lat="45.85982" lon="4.79792">
        <ele>438</ele>
        <time>2018-11-06T10:25:00Z</time>
      </trkpt>
      <trkpt lat="45.85983" lon="4.79794">
        <ele>438</ele>
        <time>2018-11-06T10:25:01Z</time>
      </trkpt>
      <trkpt lat="45.8599" lon="4.79802">
        <ele>439</ele>
        <time>2018-11-06T10:25:06Z</time>
      </trkpt>
      <trkpt lat="45.85991" lon="4.79803">
        <ele>439</ele>
        <time>2018-11-06T10:25:07Z</time>
      </trkpt>
      <trkpt lat="45.85998" lon="4.79812">
        <ele>439</ele>
        <time>2018-11-06T10:25:12Z</time>
      </trkpt>
      <trkpt lat="45.85999" lon="4.79814">
        <ele>440</ele>
        <time>2018-11-06T10:25:13Z</time>
      </trkpt>
      <trkpt lat="45.86005" lon="4.7982">
        <ele>446</ele>
        <time>2018-11-06T10:25:17Z</time>
      </trkpt>
      <trkpt lat="45.86006" lon="4.79822">
        <ele>446</ele>
        <time>2018-11-06T10:25:18Z</time>
      </trkpt>
      <trkpt lat="45.86014" lon="4.79826">
        <ele>446</ele>
        <time>2018-11-06T10:25:23Z</time>
      </trkpt>
      <trkpt lat="45.86016" lon="4.79827">
        <ele>446</ele>
        <time>2018-11-06T10:25:24Z</time>
      </trkpt>
      <trkpt lat="45.86022" lon="4.79834">
        <ele>443</ele>
        <time>2018-11-06T10:25:28Z</time>
      </trkpt>
      <trkpt lat="45.86024" lon="4.79836">
        <ele>443</ele>
        <time>2018-11-06T10:25:29Z</time>
      </trkpt>
      <trkpt lat="45.8603" lon="4.79842">
        <ele>443</ele>
        <time>2018-11-06T10:25:33Z</time>
      </trkpt>
      <trkpt lat="45.86032" lon="4.79843">
        <ele>443</ele>
        <time>2018-11-06T10:25:34Z</time>
      </trkpt>
      <trkpt lat="45.8604" lon="4.79846">
        <ele>443</ele>
        <time>2018-11-06T10:25:38Z</time>
      </trkpt>
      <trkpt lat="45.86042" lon="4.79847">
        <ele>443</ele>
        <time>2018-11-06T10:25:39Z</time>
      </trkpt>
      <trkpt lat="45.86049" lon="4.79849">
        <ele>444</ele>
        <time>2018-11-06T10:25:42Z</time>
      </trkpt>
      <trkpt lat="45.86051" lon="4.7985">
        <ele>444</ele>
        <time>2018-11-06T10:25:43Z</time>
      </trkpt>
      <trkpt lat="45.86058" lon="4.79852">
        <ele>444</ele>
        <time>2018-11-06T10:25:46Z</time>
      </trkpt>
      <trkpt lat="45.8606" lon="4.79852">
        <ele>444</ele>
        <time>2018-11-06T10:25:47Z</time>
      </trkpt>
      <trkpt lat="45.86069" lon="4.79852">
        <ele>445</ele>
        <time>2018-11-06T10:25:51Z</time>
      </trkpt>
      <trkpt lat="45.86071" lon="4.79853">
        <ele>445</ele>
        <time>2018-11-06T10:25:52Z</time>
      </trkpt>
      <trkpt lat="45.86078" lon="4.79854">
        <ele>445</ele>
        <time>2018-11-06T10:25:55Z</time>
      </trkpt>
      <trkpt lat="45.86081" lon="4.79855">
        <ele>445</ele>
        <time>2018-11-06T10:25:56Z</time>
      </trkpt>
      <trkpt lat="45.86089" lon="4.79857">
        <ele>447</ele>
        <time>2018-11-06T10:25:59Z</time>
      </trkpt>
      <trkpt lat="45.86091" lon="4.79857">
        <ele>447</ele>
        <time>2018-11-06T10:26:00Z</time>
      </trkpt>
      <trkpt lat="45.86099" lon="4.79859">
        <ele>447</ele>
        <time>2018-11-06T10:26:04Z</time>
      </trkpt>
      <trkpt lat="45.86101" lon="4.79859">
        <ele>447</ele>
        <time>2018-11-06T10:26:05Z</time>
      </trkpt>
      <trkpt lat="45.86108" lon="4.79861">
        <ele>447</ele>
        <time>2018-11-06T10:26:08Z</time>
      </trkpt>
      <trkpt lat="45.8611" lon="4.79861">
        <ele>447</ele>
        <time>2018-11-06T10:26:09Z</time>
      </trkpt>
      <trkpt lat="45.86119" lon="4.79862">
        <ele>447</ele>
        <time>2018-11-06T10:26:13Z</time>
      </trkpt>
      <trkpt lat="45.86121" lon="4.79862">
        <ele>447</ele>
        <time>2018-11-06T10:26:14Z</time>
      </trkpt>
      <trkpt lat="45.86129" lon="4.79862">
        <ele>448</ele>
        <time>2018-11-06T10:26:17Z</time>
      </trkpt>
      <trkpt lat="45.86132" lon="4.79862">
        <ele>448</ele>
        <time>2018-11-06T10:26:18Z</time>
      </trkpt>
      <trkpt lat="45.86138" lon="4.79859">
        <ele>448</ele>
        <time>2018-11-06T10:26:21Z</time>
      </trkpt>
      <trkpt lat="45.86141" lon="4.79858">
        <ele>448</ele>
        <time>2018-11-06T10:26:22Z</time>
      </trkpt>
      <trkpt lat="45.86149" lon="4.79855">
        <ele>449</ele>
        <time>2018-11-06T10:26:26Z</time>
      </trkpt>
      <trkpt lat="45.86151" lon="4.79854">
        <ele>449</ele>
        <time>2018-11-06T10:26:27Z</time>
      </trkpt>
      <trkpt lat="45.86159" lon="4.79852">
        <ele>450</ele>
        <time>2018-11-06T10:26:31Z</time>
      </trkpt>
      <trkpt lat="45.8616" lon="4.79851">
        <ele>450</ele>
        <time>2018-11-06T10:26:32Z</time>
      </trkpt>
      <trkpt lat="45.86168" lon="4.79848">
        <ele>452</ele>
        <time>2018-11-06T10:26:36Z</time>
      </trkpt>
      <trkpt lat="45.8617" lon="4.79847">
        <ele>452</ele>
        <time>2018-11-06T10:26:37Z</time>
      </trkpt>
      <trkpt lat="45.86176" lon="4.79843">
        <ele>452</ele>
        <time>2018-11-06T10:26:41Z</time>
      </trkpt>
      <trkpt lat="45.86178" lon="4.79841">
        <ele>452</ele>
        <time>2018-11-06T10:26:42Z</time>
      </trkpt>
      <trkpt lat="45.86186" lon="4.79834">
        <ele>451</ele>
        <time>2018-11-06T10:26:47Z</time>
      </trkpt>
      <trkpt lat="45.86187" lon="4.79833">
        <ele>457</ele>
        <time>2018-11-06T10:26:48Z</time>
      </trkpt>
      <trkpt lat="45.86192" lon="4.79823">
        <ele>458</ele>
        <time>2018-11-06T10:26:53Z</time>
      </trkpt>
      <trkpt lat="45.86192" lon="4.7982">
        <ele>458</ele>
        <time>2018-11-06T10:26:54Z</time>
      </trkpt>
      <trkpt lat="45.8619" lon="4.79809">
        <ele>458</ele>
        <time>2018-11-06T10:26:58Z</time>
      </trkpt>
      <trkpt lat="45.8619" lon="4.79807">
        <ele>459</ele>
        <time>2018-11-06T10:26:59Z</time>
      </trkpt>
      <trkpt lat="45.8619" lon="4.79794">
        <ele>460</ele>
        <time>2018-11-06T10:27:04Z</time>
      </trkpt>
      <trkpt lat="45.86191" lon="4.79791">
        <ele>460</ele>
        <time>2018-11-06T10:27:05Z</time>
      </trkpt>
      <trkpt lat="45.86196" lon="4.79783">
        <ele>460</ele>
        <time>2018-11-06T10:27:09Z</time>
      </trkpt>
      <trkpt lat="45.86198" lon="4.79783">
        <ele>460</ele>
        <time>2018-11-06T10:27:10Z</time>
      </trkpt>
      <trkpt lat="45.86205" lon="4.79781">
        <ele>460</ele>
        <time>2018-11-06T10:27:14Z</time>
      </trkpt>
      <trkpt lat="45.86207" lon="4.79781">
        <ele>460</ele>
        <time>2018-11-06T10:27:15Z</time>
      </trkpt>
      <trkpt lat="45.86214" lon="4.79778">
        <ele>461</ele>
        <time>2018-11-06T10:27:19Z</time>
      </trkpt>
      <trkpt lat="45.86216" lon="4.79777">
        <ele>461</ele>
        <time>2018-11-06T10:27:20Z</time>
      </trkpt>
      <trkpt lat="45.86224" lon="4.79773">
        <ele>461</ele>
        <time>2018-11-06T10:27:25Z</time>
      </trkpt>
      <trkpt lat="45.86225" lon="4.79773">
        <ele>461</ele>
        <time>2018-11-06T10:27:26Z</time>
      </trkpt>
      <trkpt lat="45.86232" lon="4.79767">
        <ele>462</ele>
        <time>2018-11-06T10:27:31Z</time>
      </trkpt>
      <trkpt lat="45.86233" lon="4.79765">
        <ele>462</ele>
        <time>2018-11-06T10:27:32Z</time>
      </trkpt>
      <trkpt lat="45.86232" lon="4.79753">
        <ele>462</ele>
        <time>2018-11-06T10:27:37Z</time>
      </trkpt>
      <trkpt lat="45.86231" lon="4.79752">
        <ele>462</ele>
        <time>2018-11-06T10:27:38Z</time>
      </trkpt>
      <trkpt lat="45.86226" lon="4.79743">
        <ele>469</ele>
        <time>2018-11-06T10:27:49Z</time>
      </trkpt>
      <trkpt lat="45.86224" lon="4.79743">
        <ele>469</ele>
        <time>2018-11-06T10:27:50Z</time>
      </trkpt>
      <trkpt lat="45.86216" lon="4.79739">
        <ele>469</ele>
        <time>2018-11-06T10:27:54Z</time>
      </trkpt>
      <trkpt lat="45.86214" lon="4.79738">
        <ele>469</ele>
        <time>2018-11-06T10:27:55Z</time>
      </trkpt>
      <trkpt lat="45.86207" lon="4.79733">
        <ele>469</ele>
        <time>2018-11-06T10:27:58Z</time>
      </trkpt>
      <trkpt lat="45.86205" lon="4.79731">
        <ele>469</ele>
        <time>2018-11-06T10:27:59Z</time>
      </trkpt>
      <trkpt lat="45.86197" lon="4.79726">
        <ele>470</ele>
        <time>2018-11-06T10:28:02Z</time>
      </trkpt>
      <trkpt lat="45.86194" lon="4.79725">
        <ele>470</ele>
        <time>2018-11-06T10:28:03Z</time>
      </trkpt>
      <trkpt lat="45.86187" lon="4.79721">
        <ele>470</ele>
        <time>2018-11-06T10:28:07Z</time>
      </trkpt>
      <trkpt lat="45.86185" lon="4.7972">
        <ele>470</ele>
        <time>2018-11-06T10:28:08Z</time>
      </trkpt>
      <trkpt lat="45.86177" lon="4.79716">
        <ele>470</ele>
        <time>2018-11-06T10:28:12Z</time>
      </trkpt>
      <trkpt lat="45.86175" lon="4.79715">
        <ele>470</ele>
        <time>2018-11-06T10:28:13Z</time>
      </trkpt>
      <trkpt lat="45.86167" lon="4.79711">
        <ele>470</ele>
        <time>2018-11-06T10:28:17Z</time>
      </trkpt>
      <trkpt lat="45.86165" lon="4.7971">
        <ele>468</ele>
        <time>2018-11-06T10:28:18Z</time>
      </trkpt>
      <trkpt lat="45.86157" lon="4.79707">
        <ele>468</ele>
        <time>2018-11-06T10:28:22Z</time>
      </trkpt>
      <trkpt lat="45.86155" lon="4.79706">
        <ele>468</ele>
        <time>2018-11-06T10:28:23Z</time>
      </trkpt>
      <trkpt lat="45.86148" lon="4.797">
        <ele>468</ele>
        <time>2018-11-06T10:28:27Z</time>
      </trkpt>
      <trkpt lat="45.86146" lon="4.79699">
        <ele>468</ele>
        <time>2018-11-06T10:28:28Z</time>
      </trkpt>
      <trkpt lat="45.86139" lon="4.79694">
        <ele>468</ele>
        <time>2018-11-06T10:28:32Z</time>
      </trkpt>
      <trkpt lat="45.86137" lon="4.79692">
        <ele>468</ele>
        <time>2018-11-06T10:28:33Z</time>
      </trkpt>
      <trkpt lat="45.86129" lon="4.79688">
        <ele>468</ele>
        <time>2018-11-06T10:28:36Z</time>
      </trkpt>
      <trkpt lat="45.86127" lon="4.79687">
        <ele>468</ele>
        <time>2018-11-06T10:28:37Z</time>
      </trkpt>
      <trkpt lat="45.8612" lon="4.79682">
        <ele>468</ele>
        <time>2018-11-06T10:28:41Z</time>
      </trkpt>
      <trkpt lat="45.86118" lon="4.79681">
        <ele>468</ele>
        <time>2018-11-06T10:28:42Z</time>
      </trkpt>
      <trkpt lat="45.86111" lon="4.79676">
        <ele>468</ele>
        <time>2018-11-06T10:28:45Z</time>
      </trkpt>
      <trkpt lat="45.8611" lon="4.79675">
        <ele>468</ele>
        <time>2018-11-06T10:28:46Z</time>
      </trkpt>
      <trkpt lat="45.86103" lon="4.79668">
        <ele>468</ele>
        <time>2018-11-06T10:28:51Z</time>
      </trkpt>
      <trkpt lat="45.86102" lon="4.79666">
        <ele>473</ele>
        <time>2018-11-06T10:28:52Z</time>
      </trkpt>
      <trkpt lat="45.86096" lon="4.79657">
        <ele>472</ele>
        <time>2018-11-06T10:28:56Z</time>
      </trkpt>
      <trkpt lat="45.86095" lon="4.79655">
        <ele>472</ele>
        <time>2018-11-06T10:28:57Z</time>
      </trkpt>
      <trkpt lat="45.86089" lon="4.79649">
        <ele>473</ele>
        <time>2018-11-06T10:29:00Z</time>
      </trkpt>
      <trkpt lat="45.86087" lon="4.79647">
        <ele>473</ele>
        <time>2018-11-06T10:29:01Z</time>
      </trkpt>
      <trkpt lat="45.86083" lon="4.79638">
        <ele>468</ele>
        <time>2018-11-06T10:29:05Z</time>
      </trkpt>
      <trkpt lat="45.86081" lon="4.79634">
        <ele>468</ele>
        <time>2018-11-06T10:29:06Z</time>
      </trkpt>
      <trkpt lat="45.86078" lon="4.79623">
        <ele>469</ele>
        <time>2018-11-06T10:29:10Z</time>
      </trkpt>
      <trkpt lat="45.86077" lon="4.7962">
        <ele>469</ele>
        <time>2018-11-06T10:29:11Z</time>
      </trkpt>
      <trkpt lat="45.86072" lon="4.79611">
        <ele>470</ele>
        <time>2018-11-06T10:29:15Z</time>
      </trkpt>
      <trkpt lat="45.86071" lon="4.79609">
        <ele>470</ele>
        <time>2018-11-06T10:29:16Z</time>
      </trkpt>
      <trkpt lat="45.86067" lon="4.79601">
        <ele>470</ele>
        <time>2018-11-06T10:29:19Z</time>
      </trkpt>
      <trkpt lat="45.86066" lon="4.79598">
        <ele>471</ele>
        <time>2018-11-06T10:29:20Z</time>
      </trkpt>
      <trkpt lat="45.86062" lon="4.79589">
        <ele>471</ele>
        <time>2018-11-06T10:29:24Z</time>
      </trkpt>
      <trkpt lat="45.86061" lon="4.79586">
        <ele>471</ele>
        <time>2018-11-06T10:29:25Z</time>
      </trkpt>
      <trkpt lat="45.86057" lon="4.79577">
        <ele>477</ele>
        <time>2018-11-06T10:29:28Z</time>
      </trkpt>
      <trkpt lat="45.86056" lon="4.79575">
        <ele>477</ele>
        <time>2018-11-06T10:29:29Z</time>
      </trkpt>
      <trkpt lat="45.86053" lon="4.79565">
        <ele>478</ele>
        <time>2018-11-06T10:29:33Z</time>
      </trkpt>
      <trkpt lat="45.86052" lon="4.79563">
        <ele>478</ele>
        <time>2018-11-06T10:29:34Z</time>
      </trkpt>
      <trkpt lat="45.86048" lon="4.79554">
        <ele>478</ele>
        <time>2018-11-06T10:29:38Z</time>
      </trkpt>
      <trkpt lat="45.86047" lon="4.79552">
        <ele>478</ele>
        <time>2018-11-06T10:29:39Z</time>
      </trkpt>
      <trkpt lat="45.86041" lon="4.79543">
        <ele>478</ele>
        <time>2018-11-06T10:29:43Z</time>
      </trkpt>
      <trkpt lat="45.8604" lon="4.79541">
        <ele>478</ele>
        <time>2018-11-06T10:29:44Z</time>
      </trkpt>
      <trkpt lat="45.86035" lon="4.79532">
        <ele>479</ele>
        <time>2018-11-06T10:29:48Z</time>
      </trkpt>
      <trkpt lat="45.86033" lon="4.79529">
        <ele>479</ele>
        <time>2018-11-06T10:29:49Z</time>
      </trkpt>
      <trkpt lat="45.8603" lon="4.7952">
        <ele>479</ele>
        <time>2018-11-06T10:29:53Z</time>
      </trkpt>
      <trkpt lat="45.86028" lon="4.79518">
        <ele>479</ele>
        <time>2018-11-06T10:29:54Z</time>
      </trkpt>
      <trkpt lat="45.86023" lon="4.7951">
        <ele>479</ele>
        <time>2018-11-06T10:29:58Z</time>
      </trkpt>
      <trkpt lat="45.86021" lon="4.79509">
        <ele>479</ele>
        <time>2018-11-06T10:29:59Z</time>
      </trkpt>
      <trkpt lat="45.86014" lon="4.79502">
        <ele>478</ele>
        <time>2018-11-06T10:30:03Z</time>
      </trkpt>
      <trkpt lat="45.86011" lon="4.79499">
        <ele>484</ele>
        <time>2018-11-06T10:30:04Z</time>
      </trkpt>
      <trkpt lat="45.86006" lon="4.79491">
        <ele>483</ele>
        <time>2018-11-06T10:30:08Z</time>
      </trkpt>
      <trkpt lat="45.86005" lon="4.79489">
        <ele>484</ele>
        <time>2018-11-06T10:30:09Z</time>
      </trkpt>
      <trkpt lat="45.85999" lon="4.79481">
        <ele>480</ele>
        <time>2018-11-06T10:30:13Z</time>
      </trkpt>
      <trkpt lat="45.85998" lon="4.79479">
        <ele>480</ele>
        <time>2018-11-06T10:30:14Z</time>
      </trkpt>
      <trkpt lat="45.8599" lon="4.79472">
        <ele>481</ele>
        <time>2018-11-06T10:30:18Z</time>
      </trkpt>
      <trkpt lat="45.85989" lon="4.7947">
        <ele>481</ele>
        <time>2018-11-06T10:30:19Z</time>
      </trkpt>
      <trkpt lat="45.85981" lon="4.79464">
        <ele>482</ele>
        <time>2018-11-06T10:30:24Z</time>
      </trkpt>
      <trkpt lat="45.8598" lon="4.79461">
        <ele>482</ele>
        <time>2018-11-06T10:30:25Z</time>
      </trkpt>
      <trkpt lat="45.85976" lon="4.79451">
        <ele>483</ele>
        <time>2018-11-06T10:30:30Z</time>
      </trkpt>
      <trkpt lat="45.85975" lon="4.79448">
        <ele>483</ele>
        <time>2018-11-06T10:30:31Z</time>
      </trkpt>
      <trkpt lat="45.85971" lon="4.79438">
        <ele>484</ele>
        <time>2018-11-06T10:30:36Z</time>
      </trkpt>
      <trkpt lat="45.85971" lon="4.79436">
        <ele>484</ele>
        <time>2018-11-06T10:30:37Z</time>
      </trkpt>
      <trkpt lat="45.85966" lon="4.79425">
        <ele>485</ele>
        <time>2018-11-06T10:30:42Z</time>
      </trkpt>
      <trkpt lat="45.85965" lon="4.79423">
        <ele>485</ele>
        <time>2018-11-06T10:30:43Z</time>
      </trkpt>
      <trkpt lat="45.8596" lon="4.79414">
        <ele>494</ele>
        <time>2018-11-06T10:30:48Z</time>
      </trkpt>
      <trkpt lat="45.85959" lon="4.79411">
        <ele>495</ele>
        <time>2018-11-06T10:30:49Z</time>
      </trkpt>
      <trkpt lat="45.85954" lon="4.794">
        <ele>495</ele>
        <time>2018-11-06T10:30:54Z</time>
      </trkpt>
      <trkpt lat="45.85954" lon="4.79398">
        <ele>495</ele>
        <time>2018-11-06T10:30:55Z</time>
      </trkpt>
      <trkpt lat="45.85949" lon="4.7939">
        <ele>495</ele>
        <time>2018-11-06T10:30:59Z</time>
      </trkpt>
      <trkpt lat="45.85947" lon="4.79389">
        <ele>495</ele>
        <time>2018-11-06T10:31:00Z</time>
      </trkpt>
      <trkpt lat="45.85941" lon="4.79382">
        <ele>495</ele>
        <time>2018-11-06T10:31:04Z</time>
      </trkpt>
      <trkpt lat="45.8594" lon="4.79381">
        <ele>495</ele>
        <time>2018-11-06T10:31:05Z</time>
      </trkpt>
      <trkpt lat="45.85933" lon="4.79378">
        <ele>495</ele>
        <time>2018-11-06T10:31:09Z</time>
      </trkpt>
      <trkpt lat="45.85931" lon="4.79377">
        <ele>495</ele>
        <time>2018-11-06T10:31:10Z</time>
      </trkpt>
      <trkpt lat="45.85923" lon="4.79375">
        <ele>495</ele>
        <time>2018-11-06T10:31:14Z</time>
      </trkpt>
      <trkpt lat="45.85921" lon="4.79375">
        <ele>495</ele>
        <time>2018-11-06T10:31:15Z</time>
      </trkpt>
      <trkpt lat="45.85914" lon="4.79378">
        <ele>492</ele>
        <time>2018-11-06T10:31:19Z</time>
      </trkpt>
      <trkpt lat="45.85912" lon="4.79379">
        <ele>492</ele>
        <time>2018-11-06T10:31:20Z</time>
      </trkpt>
      <trkpt lat="45.85904" lon="4.79384">
        <ele>492</ele>
        <time>2018-11-06T10:31:25Z</time>
      </trkpt>
      <trkpt lat="45.85903" lon="4.79386">
        <ele>492</ele>
        <time>2018-11-06T10:31:26Z</time>
      </trkpt>
      <trkpt lat="45.85897" lon="4.79394">
        <ele>491</ele>
        <time>2018-11-06T10:31:30Z</time>
      </trkpt>
      <trkpt lat="45.85895" lon="4.79396">
        <ele>491</ele>
        <time>2018-11-06T10:31:31Z</time>
      </trkpt>
      <trkpt lat="45.8589" lon="4.79403">
        <ele>491</ele>
        <time>2018-11-06T10:31:34Z</time>
      </trkpt>
      <trkpt lat="45.85888" lon="4.79405">
        <ele>491</ele>
        <time>2018-11-06T10:31:35Z</time>
      </trkpt>
      <trkpt lat="45.85881" lon="4.79412">
        <ele>491</ele>
        <time>2018-11-06T10:31:39Z</time>
      </trkpt>
      <trkpt lat="45.85879" lon="4.79413">
        <ele>491</ele>
        <time>2018-11-06T10:31:40Z</time>
      </trkpt>
      <trkpt lat="45.85871" lon="4.79416">
        <ele>492</ele>
        <time>2018-11-06T10:31:44Z</time>
      </trkpt>
      <trkpt lat="45.85869" lon="4.79416">
        <ele>492</ele>
        <time>2018-11-06T10:31:45Z</time>
      </trkpt>
      <trkpt lat="45.8586" lon="4.79414">
        <ele>492</ele>
        <time>2018-11-06T10:31:50Z</time>
      </trkpt>
      <trkpt lat="45.85858" lon="4.79413">
        <ele>492</ele>
        <time>2018-11-06T10:31:51Z</time>
      </trkpt>
      <trkpt lat="45.85851" lon="4.79407">
        <ele>492</ele>
        <time>2018-11-06T10:31:55Z</time>
      </trkpt>
      <trkpt lat="45.8585" lon="4.79406">
        <ele>492</ele>
        <time>2018-11-06T10:31:56Z</time>
      </trkpt>
      <trkpt lat="45.85842" lon="4.794">
        <ele>492</ele>
        <time>2018-11-06T10:32:01Z</time>
      </trkpt>
      <trkpt lat="45.8584" lon="4.79397">
        <ele>493</ele>
        <time>2018-11-06T10:32:02Z</time>
      </trkpt>
      <trkpt lat="45.85833" lon="4.7939">
        <ele>493</ele>
        <time>2018-11-06T10:32:06Z</time>
      </trkpt>
      <trkpt lat="45.85831" lon="4.79388">
        <ele>490</ele>
        <time>2018-11-06T10:32:07Z</time>
      </trkpt>
      <trkpt lat="45.85825" lon="4.79379">
        <ele>491</ele>
        <time>2018-11-06T10:32:11Z</time>
      </trkpt>
      <trkpt lat="45.85823" lon="4.79377">
        <ele>491</ele>
        <time>2018-11-06T10:32:12Z</time>
      </trkpt>
      <trkpt lat="45.8582" lon="4.79367">
        <ele>491</ele>
        <time>2018-11-06T10:32:16Z</time>
      </trkpt>
      <trkpt lat="45.85819" lon="4.79364">
        <ele>492</ele>
        <time>2018-11-06T10:32:17Z</time>
      </trkpt>
      <trkpt lat="45.85817" lon="4.79352">
        <ele>493</ele>
        <time>2018-11-06T10:32:21Z</time>
      </trkpt>
      <trkpt lat="45.85817" lon="4.79349">
        <ele>493</ele>
        <time>2018-11-06T10:32:22Z</time>
      </trkpt>
      <trkpt lat="45.85815" lon="4.79338">
        <ele>494</ele>
        <time>2018-11-06T10:32:26Z</time>
      </trkpt>
      <trkpt lat="45.85815" lon="4.79335">
        <ele>494</ele>
        <time>2018-11-06T10:32:27Z</time>
      </trkpt>
      <trkpt lat="45.85814" lon="4.79324">
        <ele>497</ele>
        <time>2018-11-06T10:32:31Z</time>
      </trkpt>
      <trkpt lat="45.85814" lon="4.79321">
        <ele>496</ele>
        <time>2018-11-06T10:32:32Z</time>
      </trkpt>
      <trkpt lat="45.85813" lon="4.7931">
        <ele>496</ele>
        <time>2018-11-06T10:32:35Z</time>
      </trkpt>
      <trkpt lat="45.85813" lon="4.79307">
        <ele>496</ele>
        <time>2018-11-06T10:32:36Z</time>
      </trkpt>
      <trkpt lat="45.85814" lon="4.79295">
        <ele>496</ele>
        <time>2018-11-06T10:32:40Z</time>
      </trkpt>
      <trkpt lat="45.85814" lon="4.79292">
        <ele>496</ele>
        <time>2018-11-06T10:32:41Z</time>
      </trkpt>
      <trkpt lat="45.85816" lon="4.79281">
        <ele>496</ele>
        <time>2018-11-06T10:32:46Z</time>
      </trkpt>
      <trkpt lat="45.85816" lon="4.79279">
        <ele>496</ele>
        <time>2018-11-06T10:32:47Z</time>
      </trkpt>
      <trkpt lat="45.8582" lon="4.7927">
        <ele>497</ele>
        <time>2018-11-06T10:32:51Z</time>
      </trkpt>
      <trkpt lat="45.85822" lon="4.79268">
        <ele>497</ele>
        <time>2018-11-06T10:32:52Z</time>
      </trkpt>
      <trkpt lat="45.85829" lon="4.7926">
        <ele>499</ele>
        <time>2018-11-06T10:32:56Z</time>
      </trkpt>
      <trkpt lat="45.85831" lon="4.79258">
        <ele>500</ele>
        <time>2018-11-06T10:32:57Z</time>
      </trkpt>
      <trkpt lat="45.85837" lon="4.7925">
        <ele>502</ele>
        <time>2018-11-06T10:33:01Z</time>
      </trkpt>
      <trkpt lat="45.85839" lon="4.79248">
        <ele>503</ele>
        <time>2018-11-06T10:33:02Z</time>
      </trkpt>
      <trkpt lat="45.85844" lon="4.7924">
        <ele>505</ele>
        <time>2018-11-06T10:33:06Z</time>
      </trkpt>
      <trkpt lat="45.85845" lon="4.79237">
        <ele>505</ele>
        <time>2018-11-06T10:33:07Z</time>
      </trkpt>
      <trkpt lat="45.8585" lon="4.79227">
        <ele>507</ele>
        <time>2018-11-06T10:33:11Z</time>
      </trkpt>
      <trkpt lat="45.85851" lon="4.79224">
        <ele>507</ele>
        <time>2018-11-06T10:33:12Z</time>
      </trkpt>
      <trkpt lat="45.85855" lon="4.79215">
        <ele>508</ele>
        <time>2018-11-06T10:33:16Z</time>
      </trkpt>
      <trkpt lat="45.85857" lon="4.79212">
        <ele>508</ele>
        <time>2018-11-06T10:33:17Z</time>
      </trkpt>
      <trkpt lat="45.85861" lon="4.79202">
        <ele>509</ele>
        <time>2018-11-06T10:33:22Z</time>
      </trkpt>
      <trkpt lat="45.85862" lon="4.792">
        <ele>509</ele>
        <time>2018-11-06T10:33:23Z</time>
      </trkpt>
      <trkpt lat="45.85867" lon="4.79189">
        <ele>509</ele>
        <time>2018-11-06T10:33:28Z</time>
      </trkpt>
      <trkpt lat="45.85867" lon="4.79187">
        <ele>509</ele>
        <time>2018-11-06T10:33:29Z</time>
      </trkpt>
      <trkpt lat="45.85866" lon="4.79175">
        <ele>510</ele>
        <time>2018-11-06T10:33:34Z</time>
      </trkpt>
      <trkpt lat="45.85865" lon="4.79172">
        <ele>510</ele>
        <time>2018-11-06T10:33:35Z</time>
      </trkpt>
      <trkpt lat="45.85861" lon="4.79163">
        <ele>514</ele>
        <time>2018-11-06T10:33:39Z</time>
      </trkpt>
      <trkpt lat="45.8586" lon="4.7916">
        <ele>514</ele>
        <time>2018-11-06T10:33:40Z</time>
      </trkpt>
      <trkpt lat="45.85857" lon="4.79149">
        <ele>514</ele>
        <time>2018-11-06T10:33:45Z</time>
      </trkpt>
      <trkpt lat="45.85857" lon="4.79147">
        <ele>515</ele>
        <time>2018-11-06T10:33:46Z</time>
      </trkpt>
      <trkpt lat="45.85857" lon="4.79135">
        <ele>515</ele>
        <time>2018-11-06T10:33:52Z</time>
      </trkpt>
      <trkpt lat="45.85856" lon="4.79133">
        <ele>515</ele>
        <time>2018-11-06T10:33:53Z</time>
      </trkpt>
      <trkpt lat="45.85854" lon="4.79121">
        <ele>516</ele>
        <time>2018-11-06T10:33:59Z</time>
      </trkpt>
      <trkpt lat="45.85854" lon="4.79119">
        <ele>516</ele>
        <time>2018-11-06T10:34:00Z</time>
      </trkpt>
      <trkpt lat="45.85853" lon="4.79108">
        <ele>516</ele>
        <time>2018-11-06T10:34:05Z</time>
      </trkpt>
      <trkpt lat="45.85852" lon="4.79106">
        <ele>516</ele>
        <time>2018-11-06T10:34:06Z</time>
      </trkpt>
      <trkpt lat="45.85851" lon="4.79095">
        <ele>516</ele>
        <time>2018-11-06T10:34:11Z</time>
      </trkpt>
      <trkpt lat="45.85851" lon="4.79093">
        <ele>516</ele>
        <time>2018-11-06T10:34:12Z</time>
      </trkpt>
      <trkpt lat="45.85847" lon="4.79083">
        <ele>519</ele>
        <time>2018-11-06T10:34:17Z</time>
      </trkpt>
      <trkpt lat="45.85847" lon="4.79081">
        <ele>519</ele>
        <time>2018-11-06T10:34:18Z</time>
      </trkpt>
      <trkpt lat="45.85843" lon="4.79071">
        <ele>520</ele>
        <time>2018-11-06T10:34:23Z</time>
      </trkpt>
      <trkpt lat="45.85843" lon="4.79068">
        <ele>520</ele>
        <time>2018-11-06T10:34:24Z</time>
      </trkpt>
      <trkpt lat="45.85839" lon="4.79058">
        <ele>522</ele>
        <time>2018-11-06T10:34:29Z</time>
      </trkpt>
      <trkpt lat="45.85838" lon="4.79056">
        <ele>522</ele>
        <time>2018-11-06T10:34:30Z</time>
      </trkpt>
      <trkpt lat="45.85833" lon="4.79047">
        <ele>523</ele>
        <time>2018-11-06T10:34:34Z</time>
      </trkpt>
      <trkpt lat="45.85833" lon="4.79045">
        <ele>515</ele>
        <time>2018-11-06T10:34:35Z</time>
      </trkpt>
      <trkpt lat="45.85828" lon="4.79035">
        <ele>516</ele>
        <time>2018-11-06T10:34:40Z</time>
      </trkpt>
      <trkpt lat="45.85827" lon="4.79033">
        <ele>516</ele>
        <time>2018-11-06T10:34:41Z</time>
      </trkpt>
      <trkpt lat="45.85823" lon="4.79023">
        <ele>517</ele>
        <time>2018-11-06T10:34:46Z</time>
      </trkpt>
      <trkpt lat="45.85823" lon="4.79021">
        <ele>518</ele>
        <time>2018-11-06T10:34:47Z</time>
      </trkpt>
      <trkpt lat="45.85819" lon="4.79011">
        <ele>518</ele>
        <time>2018-11-06T10:34:52Z</time>
      </trkpt>
      <trkpt lat="45.85818" lon="4.79009">
        <ele>519</ele>
        <time>2018-11-06T10:34:53Z</time>
      </trkpt>
      <trkpt lat="45.85815" lon="4.78997">
        <ele>522</ele>
        <time>2018-11-06T10:34:59Z</time>
      </trkpt>
      <trkpt lat="45.85815" lon="4.78994">
        <ele>522</ele>
        <time>2018-11-06T10:35:00Z</time>
      </trkpt>
      <trkpt lat="45.85812" lon="4.78984">
        <ele>522</ele>
        <time>2018-11-06T10:35:05Z</time>
      </trkpt>
      <trkpt lat="45.85811" lon="4.78982">
        <ele>522</ele>
        <time>2018-11-06T10:35:06Z</time>
      </trkpt>
      <trkpt lat="45.85808" lon="4.78971">
        <ele>522</ele>
        <time>2018-11-06T10:35:11Z</time>
      </trkpt>
      <trkpt lat="45.85807" lon="4.78969">
        <ele>522</ele>
        <time>2018-11-06T10:35:12Z</time>
      </trkpt>
      <trkpt lat="45.85804" lon="4.78957">
        <ele>523</ele>
        <time>2018-11-06T10:35:17Z</time>
      </trkpt>
      <trkpt lat="45.85803" lon="4.78955">
        <ele>523</ele>
        <time>2018-11-06T10:35:18Z</time>
      </trkpt>
      <trkpt lat="45.85802" lon="4.78944">
        <ele>523</ele>
        <time>2018-11-06T10:35:23Z</time>
      </trkpt>
      <trkpt lat="45.85801" lon="4.78941">
        <ele>523</ele>
        <time>2018-11-06T10:35:24Z</time>
      </trkpt>
      <trkpt lat="45.85799" lon="4.7893">
        <ele>524</ele>
        <time>2018-11-06T10:35:29Z</time>
      </trkpt>
      <trkpt lat="45.85798" lon="4.78928">
        <ele>524</ele>
        <time>2018-11-06T10:35:30Z</time>
      </trkpt>
      <trkpt lat="45.85794" lon="4.78918">
        <ele>523</ele>
        <time>2018-11-06T10:35:35Z</time>
      </trkpt>
      <trkpt lat="45.85793" lon="4.78916">
        <ele>527</ele>
        <time>2018-11-06T10:35:36Z</time>
      </trkpt>
      <trkpt lat="45.8579" lon="4.78905">
        <ele>527</ele>
        <time>2018-11-06T10:35:41Z</time>
      </trkpt>
      <trkpt lat="45.85789" lon="4.78902">
        <ele>527</ele>
        <time>2018-11-06T10:35:42Z</time>
      </trkpt>
      <trkpt lat="45.85786" lon="4.78893">
        <ele>527</ele>
        <time>2018-11-06T10:35:46Z</time>
      </trkpt>
      <trkpt lat="45.85786" lon="4.7889">
        <ele>527</ele>
        <time>2018-11-06T10:35:47Z</time>
      </trkpt>
      <trkpt lat="45.85782" lon="4.78879">
        <ele>527</ele>
        <time>2018-11-06T10:35:51Z</time>
      </trkpt>
      <trkpt lat="45.85781" lon="4.78877">
        <ele>527</ele>
        <time>2018-11-06T10:35:52Z</time>
      </trkpt>
      <trkpt lat="45.85777" lon="4.78867">
        <ele>527</ele>
        <time>2018-11-06T10:35:56Z</time>
      </trkpt>
      <trkpt lat="45.85776" lon="4.78865">
        <ele>527</ele>
        <time>2018-11-06T10:35:57Z</time>
      </trkpt>
      <trkpt lat="45.8577" lon="4.78856">
        <ele>527</ele>
        <time>2018-11-06T10:36:02Z</time>
      </trkpt>
      <trkpt lat="45.85769" lon="4.78855">
        <ele>527</ele>
        <time>2018-11-06T10:36:03Z</time>
      </trkpt>
      <trkpt lat="45.85765" lon="4.78846">
        <ele>527</ele>
        <time>2018-11-06T10:36:07Z</time>
      </trkpt>
      <trkpt lat="45.85764" lon="4.78844">
        <ele>527</ele>
        <time>2018-11-06T10:36:08Z</time>
      </trkpt>
      <trkpt lat="45.85757" lon="4.78837">
        <ele>526</ele>
        <time>2018-11-06T10:36:13Z</time>
      </trkpt>
      <trkpt lat="45.85755" lon="4.78835">
        <ele>526</ele>
        <time>2018-11-06T10:36:14Z</time>
      </trkpt>
      <trkpt lat="45.85749" lon="4.78828">
        <ele>527</ele>
        <time>2018-11-06T10:36:19Z</time>
      </trkpt>
      <trkpt lat="45.85748" lon="4.78827">
        <ele>527</ele>
        <time>2018-11-06T10:36:20Z</time>
      </trkpt>
      <trkpt lat="45.85741" lon="4.7882">
        <ele>528</ele>
        <time>2018-11-06T10:36:25Z</time>
      </trkpt>
      <trkpt lat="45.85741" lon="4.78819">
        <ele>528</ele>
        <time>2018-11-06T10:36:26Z</time>
      </trkpt>
      <trkpt lat="45.85735" lon="4.7881">
        <ele>529</ele>
        <time>2018-11-06T10:36:32Z</time>
      </trkpt>
      <trkpt lat="45.85734" lon="4.78809">
        <ele>529</ele>
        <time>2018-11-06T10:36:33Z</time>
      </trkpt>
      <trkpt lat="45.85729" lon="4.78802">
        <ele>529</ele>
        <time>2018-11-06T10:36:37Z</time>
      </trkpt>
      <trkpt lat="45.85727" lon="4.788">
        <ele>529</ele>
        <time>2018-11-06T10:36:38Z</time>
      </trkpt>
      <trkpt lat="45.85722" lon="4.78793">
        <ele>530</ele>
        <time>2018-11-06T10:36:44Z</time>
      </trkpt>
      <trkpt lat="45.8572" lon="4.78791">
        <ele>530</ele>
        <time>2018-11-06T10:36:45Z</time>
      </trkpt>
      <trkpt lat="45.85715" lon="4.78783">
        <ele>530</ele>
        <time>2018-11-06T10:36:49Z</time>
      </trkpt>
      <trkpt lat="45.85714" lon="4.78781">
        <ele>530</ele>
        <time>2018-11-06T10:36:50Z</time>
      </trkpt>
      <trkpt lat="45.85709" lon="4.78774">
        <ele>531</ele>
        <time>2018-11-06T10:36:54Z</time>
      </trkpt>
      <trkpt lat="45.85707" lon="4.78773">
        <ele>531</ele>
        <time>2018-11-06T10:36:55Z</time>
      </trkpt>
      <trkpt lat="45.85702" lon="4.78768">
        <ele>531</ele>
        <time>2018-11-06T10:36:58Z</time>
      </trkpt>
      <trkpt lat="45.857" lon="4.78765">
        <ele>531</ele>
        <time>2018-11-06T10:36:59Z</time>
      </trkpt>
      <trkpt lat="45.85692" lon="4.78759">
        <ele>531</ele>
        <time>2018-11-06T10:37:04Z</time>
      </trkpt>
      <trkpt lat="45.85691" lon="4.78757">
        <ele>531</ele>
        <time>2018-11-06T10:37:05Z</time>
      </trkpt>
      <trkpt lat="45.85685" lon="4.78748">
        <ele>535</ele>
        <time>2018-11-06T10:37:10Z</time>
      </trkpt>
      <trkpt lat="45.85683" lon="4.78747">
        <ele>535</ele>
        <time>2018-11-06T10:37:11Z</time>
      </trkpt>
      <trkpt lat="45.85677" lon="4.78739">
        <ele>535</ele>
        <time>2018-11-06T10:37:16Z</time>
      </trkpt>
      <trkpt lat="45.85676" lon="4.78737">
        <ele>535</ele>
        <time>2018-11-06T10:37:17Z</time>
      </trkpt>
      <trkpt lat="45.85669" lon="4.78729">
        <ele>536</ele>
        <time>2018-11-06T10:37:23Z</time>
      </trkpt>
      <trkpt lat="45.85668" lon="4.78727">
        <ele>536</ele>
        <time>2018-11-06T10:37:24Z</time>
      </trkpt>
      <trkpt lat="45.85663" lon="4.78719">
        <ele>536</ele>
        <time>2018-11-06T10:37:29Z</time>
      </trkpt>
      <trkpt lat="45.85661" lon="4.78717">
        <ele>536</ele>
        <time>2018-11-06T10:37:30Z</time>
      </trkpt>
      <trkpt lat="45.85655" lon="4.7871">
        <ele>536</ele>
        <time>2018-11-06T10:37:35Z</time>
      </trkpt>
      <trkpt lat="45.85653" lon="4.78708">
        <ele>536</ele>
        <time>2018-11-06T10:37:36Z</time>
      </trkpt>
      <trkpt lat="45.85647" lon="4.787">
        <ele>537</ele>
        <time>2018-11-06T10:37:41Z</time>
      </trkpt>
      <trkpt lat="45.85646" lon="4.78698">
        <ele>537</ele>
        <time>2018-11-06T10:37:42Z</time>
      </trkpt>
      <trkpt lat="45.8564" lon="4.78692">
        <ele>537</ele>
        <time>2018-11-06T10:37:47Z</time>
      </trkpt>
      <trkpt lat="45.85639" lon="4.7869">
        <ele>537</ele>
        <time>2018-11-06T10:37:48Z</time>
      </trkpt>
      <trkpt lat="45.85632" lon="4.78683">
        <ele>537</ele>
        <time>2018-11-06T10:37:51Z</time>
      </trkpt>
      <trkpt lat="45.85629" lon="4.78681">
        <ele>537</ele>
        <time>2018-11-06T10:37:52Z</time>
      </trkpt>
      <trkpt lat="45.85622" lon="4.78674">
        <ele>537</ele>
        <time>2018-11-06T10:37:56Z</time>
      </trkpt>
      <trkpt lat="45.8562" lon="4.78673">
        <ele>537</ele>
        <time>2018-11-06T10:37:57Z</time>
      </trkpt>
      <trkpt lat="45.85613" lon="4.78668">
        <ele>537</ele>
        <time>2018-11-06T10:38:01Z</time>
      </trkpt>
      <trkpt lat="45.85611" lon="4.78666">
        <ele>539</ele>
        <time>2018-11-06T10:38:02Z</time>
      </trkpt>
      <trkpt lat="45.85604" lon="4.78658">
        <ele>539</ele>
        <time>2018-11-06T10:38:07Z</time>
      </trkpt>
      <trkpt lat="45.85603" lon="4.78656">
        <ele>539</ele>
        <time>2018-11-06T10:38:08Z</time>
      </trkpt>
      <trkpt lat="45.85596" lon="4.78649">
        <ele>538</ele>
        <time>2018-11-06T10:38:12Z</time>
      </trkpt>
      <trkpt lat="45.85593" lon="4.78647">
        <ele>538</ele>
        <time>2018-11-06T10:38:13Z</time>
      </trkpt>
      <trkpt lat="45.85587" lon="4.78638">
        <ele>538</ele>
        <time>2018-11-06T10:38:17Z</time>
      </trkpt>
      <trkpt lat="45.85586" lon="4.78637">
        <ele>538</ele>
        <time>2018-11-06T10:38:18Z</time>
      </trkpt>
      <trkpt lat="45.8558" lon="4.78628">
        <ele>539</ele>
        <time>2018-11-06T10:38:23Z</time>
      </trkpt>
      <trkpt lat="45.85579" lon="4.78626">
        <ele>539</ele>
        <time>2018-11-06T10:38:24Z</time>
      </trkpt>
      <trkpt lat="45.85572" lon="4.78621">
        <ele>539</ele>
        <time>2018-11-06T10:38:27Z</time>
      </trkpt>
      <trkpt lat="45.8557" lon="4.78619">
        <ele>539</ele>
        <time>2018-11-06T10:38:28Z</time>
      </trkpt>
      <trkpt lat="45.85563" lon="4.78614">
        <ele>539</ele>
        <time>2018-11-06T10:38:31Z</time>
      </trkpt>
      <trkpt lat="45.85561" lon="4.78612">
        <ele>539</ele>
        <time>2018-11-06T10:38:32Z</time>
      </trkpt>
      <trkpt lat="45.85555" lon="4.78606">
        <ele>540</ele>
        <time>2018-11-06T10:38:35Z</time>
      </trkpt>
      <trkpt lat="45.85553" lon="4.78605">
        <ele>540</ele>
        <time>2018-11-06T10:38:36Z</time>
      </trkpt>
      <trkpt lat="45.85546" lon="4.78598">
        <ele>540</ele>
        <time>2018-11-06T10:38:40Z</time>
      </trkpt>
      <trkpt lat="45.85544" lon="4.78597">
        <ele>540</ele>
        <time>2018-11-06T10:38:41Z</time>
      </trkpt>
      <trkpt lat="45.85537" lon="4.78589">
        <ele>540</ele>
        <time>2018-11-06T10:38:45Z</time>
      </trkpt>
      <trkpt lat="45.85536" lon="4.78587">
        <ele>540</ele>
        <time>2018-11-06T10:38:46Z</time>
      </trkpt>
      <trkpt lat="45.85529" lon="4.78579">
        <ele>538</ele>
        <time>2018-11-06T10:38:50Z</time>
      </trkpt>
      <trkpt lat="45.85526" lon="4.78577">
        <ele>538</ele>
        <time>2018-11-06T10:38:51Z</time>
      </trkpt>
      <trkpt lat="45.85521" lon="4.78573">
        <ele>539</ele>
        <time>2018-11-06T10:38:53Z</time>
      </trkpt>
      <trkpt lat="45.85518" lon="4.78572">
        <ele>539</ele>
        <time>2018-11-06T10:38:54Z</time>
      </trkpt>
      <trkpt lat="45.85512" lon="4.78568">
        <ele>539</ele>
        <time>2018-11-06T10:38:56Z</time>
      </trkpt>
      <trkpt lat="45.85509" lon="4.78566">
        <ele>539</ele>
        <time>2018-11-06T10:38:57Z</time>
      </trkpt>
      <trkpt lat="45.85502" lon="4.78562">
        <ele>539</ele>
        <time>2018-11-06T10:38:59Z</time>
      </trkpt>
      <trkpt lat="45.85498" lon="4.78561">
        <ele>543</ele>
        <time>2018-11-06T10:39:00Z</time>
      </trkpt>
      <trkpt lat="45.8549" lon="4.78556">
        <ele>543</ele>
        <time>2018-11-06T10:39:03Z</time>
      </trkpt>
      <trkpt lat="45.85487" lon="4.78555">
        <ele>543</ele>
        <time>2018-11-06T10:39:04Z</time>
      </trkpt>
      <trkpt lat="45.85481" lon="4.78551">
        <ele>543</ele>
        <time>2018-11-06T10:39:07Z</time>
      </trkpt>
      <trkpt lat="45.85479" lon="4.7855">
        <ele>543</ele>
        <time>2018-11-06T10:39:08Z</time>
      </trkpt>
      <trkpt lat="45.85472" lon="4.78545">
        <ele>543</ele>
        <time>2018-11-06T10:39:11Z</time>
      </trkpt>
      <trkpt lat="45.85469" lon="4.78544">
        <ele>543</ele>
        <time>2018-11-06T10:39:12Z</time>
      </trkpt>
      <trkpt lat="45.85463" lon="4.78538">
        <ele>543</ele>
        <time>2018-11-06T10:39:15Z</time>
      </trkpt>
      <trkpt lat="45.85461" lon="4.78536">
        <ele>543</ele>
        <time>2018-11-06T10:39:16Z</time>
      </trkpt>
      <trkpt lat="45.85453" lon="4.78531">
        <ele>544</ele>
        <time>2018-11-06T10:39:20Z</time>
      </trkpt>
      <trkpt lat="45.85452" lon="4.7853">
        <ele>544</ele>
        <time>2018-11-06T10:39:21Z</time>
      </trkpt>
      <trkpt lat="45.85445" lon="4.78526">
        <ele>544</ele>
        <time>2018-11-06T10:39:25Z</time>
      </trkpt>
      <trkpt lat="45.85443" lon="4.78524">
        <ele>544</ele>
        <time>2018-11-06T10:39:26Z</time>
      </trkpt>
      <trkpt lat="45.85436" lon="4.78519">
        <ele>545</ele>
        <time>2018-11-06T10:39:30Z</time>
      </trkpt>
      <trkpt lat="45.85434" lon="4.78517">
        <ele>545</ele>
        <time>2018-11-06T10:39:31Z</time>
      </trkpt>
      <trkpt lat="45.85427" lon="4.78511">
        <ele>546</ele>
        <time>2018-11-06T10:39:36Z</time>
      </trkpt>
      <trkpt lat="45.85426" lon="4.78509">
        <ele>547</ele>
        <time>2018-11-06T10:39:37Z</time>
      </trkpt>
      <trkpt lat="45.85419" lon="4.78504">
        <ele>548</ele>
        <time>2018-11-06T10:39:42Z</time>
      </trkpt>
      <trkpt lat="45.85417" lon="4.78503">
        <ele>548</ele>
        <time>2018-11-06T10:39:43Z</time>
      </trkpt>
      <trkpt lat="45.85411" lon="4.78499">
        <ele>549</ele>
        <time>2018-11-06T10:39:46Z</time>
      </trkpt>
      <trkpt lat="45.85408" lon="4.78498">
        <ele>549</ele>
        <time>2018-11-06T10:39:47Z</time>
      </trkpt>
      <trkpt lat="45.85401" lon="4.78496">
        <ele>549</ele>
        <time>2018-11-06T10:39:51Z</time>
      </trkpt>
      <trkpt lat="45.85399" lon="4.78496">
        <ele>549</ele>
        <time>2018-11-06T10:39:52Z</time>
      </trkpt>
      <trkpt lat="45.85392" lon="4.78495">
        <ele>549</ele>
        <time>2018-11-06T10:39:56Z</time>
      </trkpt>
      <trkpt lat="45.8539" lon="4.78495">
        <ele>549</ele>
        <time>2018-11-06T10:39:57Z</time>
      </trkpt>
      <trkpt lat="45.85382" lon="4.78494">
        <ele>550</ele>
        <time>2018-11-06T10:40:01Z</time>
      </trkpt>
      <trkpt lat="45.8538" lon="4.78494">
        <ele>550</ele>
        <time>2018-11-06T10:40:02Z</time>
      </trkpt>
      <trkpt lat="45.85371" lon="4.78493">
        <ele>550</ele>
        <time>2018-11-06T10:40:06Z</time>
      </trkpt>
      <trkpt lat="45.85369" lon="4.78492">
        <ele>550</ele>
        <time>2018-11-06T10:40:07Z</time>
      </trkpt>
      <trkpt lat="45.85361" lon="4.7849">
        <ele>551</ele>
        <time>2018-11-06T10:40:12Z</time>
      </trkpt>
      <trkpt lat="45.85359" lon="4.78489">
        <ele>551</ele>
        <time>2018-11-06T10:40:13Z</time>
      </trkpt>
      <trkpt lat="45.85352" lon="4.78486">
        <ele>551</ele>
        <time>2018-11-06T10:40:17Z</time>
      </trkpt>
      <trkpt lat="45.8535" lon="4.78486">
        <ele>551</ele>
        <time>2018-11-06T10:40:18Z</time>
      </trkpt>
      <trkpt lat="45.85342" lon="4.78483">
        <ele>552</ele>
        <time>2018-11-06T10:40:22Z</time>
      </trkpt>
      <trkpt lat="45.8534" lon="4.78482">
        <ele>552</ele>
        <time>2018-11-06T10:40:23Z</time>
      </trkpt>
      <trkpt lat="45.85333" lon="4.78477">
        <ele>554</ele>
        <time>2018-11-06T10:40:27Z</time>
      </trkpt>
      <trkpt lat="45.85331" lon="4.78476">
        <ele>554</ele>
        <time>2018-11-06T10:40:28Z</time>
      </trkpt>
      <trkpt lat="45.85323" lon="4.78469">
        <ele>554</ele>
        <time>2018-11-06T10:40:32Z</time>
      </trkpt>
      <trkpt lat="45.85322" lon="4.78467">
        <ele>554</ele>
        <time>2018-11-06T10:40:33Z</time>
      </trkpt>
      <trkpt lat="45.85315" lon="4.78458">
        <ele>555</ele>
        <time>2018-11-06T10:40:37Z</time>
      </trkpt>
      <trkpt lat="45.85314" lon="4.78456">
        <ele>555</ele>
        <time>2018-11-06T10:40:38Z</time>
      </trkpt>
      <trkpt lat="45.85308" lon="4.78447">
        <ele>555</ele>
        <time>2018-11-06T10:40:42Z</time>
      </trkpt>
      <trkpt lat="45.85307" lon="4.78445">
        <ele>555</ele>
        <time>2018-11-06T10:40:43Z</time>
      </trkpt>
      <trkpt lat="45.85303" lon="4.78434">
        <ele>555</ele>
        <time>2018-11-06T10:40:48Z</time>
      </trkpt>
      <trkpt lat="45.85303" lon="4.78432">
        <ele>555</ele>
        <time>2018-11-06T10:40:49Z</time>
      </trkpt>
      <trkpt lat="45.853" lon="4.78421">
        <ele>556</ele>
        <time>2018-11-06T10:40:53Z</time>
      </trkpt>
      <trkpt lat="45.853" lon="4.7842">
        <ele>556</ele>
        <time>2018-11-06T10:40:54Z</time>
      </trkpt>
      <trkpt lat="45.85294" lon="4.7841">
        <ele>558</ele>
        <time>2018-11-06T10:40:58Z</time>
      </trkpt>
      <trkpt lat="45.85293" lon="4.78407">
        <ele>558</ele>
        <time>2018-11-06T10:40:59Z</time>
      </trkpt>
      <trkpt lat="45.85286" lon="4.78399">
        <ele>558</ele>
        <time>2018-11-06T10:41:03Z</time>
      </trkpt>
      <trkpt lat="45.85285" lon="4.78397">
        <ele>558</ele>
        <time>2018-11-06T10:41:04Z</time>
      </trkpt>
      <trkpt lat="45.85279" lon="4.78388">
        <ele>558</ele>
        <time>2018-11-06T10:41:09Z</time>
      </trkpt>
      <trkpt lat="45.85278" lon="4.78385">
        <ele>558</ele>
        <time>2018-11-06T10:41:10Z</time>
      </trkpt>
      <trkpt lat="45.85274" lon="4.78376">
        <ele>558</ele>
        <time>2018-11-06T10:41:14Z</time>
      </trkpt>
      <trkpt lat="45.85273" lon="4.78373">
        <ele>559</ele>
        <time>2018-11-06T10:41:15Z</time>
      </trkpt>
      <trkpt lat="45.85268" lon="4.78363">
        <ele>559</ele>
        <time>2018-11-06T10:41:20Z</time>
      </trkpt>
      <trkpt lat="45.85267" lon="4.78361">
        <ele>559</ele>
        <time>2018-11-06T10:41:21Z</time>
      </trkpt>
      <trkpt lat="45.85263" lon="4.78351">
        <ele>560</ele>
        <time>2018-11-06T10:41:26Z</time>
      </trkpt>
      <trkpt lat="45.85263" lon="4.78349">
        <ele>560</ele>
        <time>2018-11-06T10:41:27Z</time>
      </trkpt>
      <trkpt lat="45.85258" lon="4.78338">
        <ele>562</ele>
        <time>2018-11-06T10:41:33Z</time>
      </trkpt>
      <trkpt lat="45.85257" lon="4.78336">
        <ele>562</ele>
        <time>2018-11-06T10:41:34Z</time>
      </trkpt>
      <trkpt lat="45.85252" lon="4.7833">
        <ele>563</ele>
        <time>2018-11-06T10:41:37Z</time>
      </trkpt>
      <trkpt lat="45.8525" lon="4.78328">
        <ele>564</ele>
        <time>2018-11-06T10:41:38Z</time>
      </trkpt>
      <trkpt lat="45.85244" lon="4.78322">
        <ele>565</ele>
        <time>2018-11-06T10:41:41Z</time>
      </trkpt>
      <trkpt lat="45.85241" lon="4.7832">
        <ele>565</ele>
        <time>2018-11-06T10:41:42Z</time>
      </trkpt>
      <trkpt lat="45.85236" lon="4.78314">
        <ele>565</ele>
        <time>2018-11-06T10:41:45Z</time>
      </trkpt>
      <trkpt lat="45.85234" lon="4.78312">
        <ele>565</ele>
        <time>2018-11-06T10:41:46Z</time>
      </trkpt>
      <trkpt lat="45.85228" lon="4.78303">
        <ele>565</ele>
        <time>2018-11-06T10:41:51Z</time>
      </trkpt>
      <trkpt lat="45.85227" lon="4.78301">
        <ele>566</ele>
        <time>2018-11-06T10:41:52Z</time>
      </trkpt>
      <trkpt lat="45.85221" lon="4.78294">
        <ele>566</ele>
        <time>2018-11-06T10:41:55Z</time>
      </trkpt>
      <trkpt lat="45.85219" lon="4.78292">
        <ele>566</ele>
        <time>2018-11-06T10:41:56Z</time>
      </trkpt>
      <trkpt lat="45.85212" lon="4.78285">
        <ele>566</ele>
        <time>2018-11-06T10:42:00Z</time>
      </trkpt>
      <trkpt lat="45.85211" lon="4.78284">
        <ele>566</ele>
        <time>2018-11-06T10:42:01Z</time>
      </trkpt>
      <trkpt lat="45.85205" lon="4.78277">
        <ele>567</ele>
        <time>2018-11-06T10:42:05Z</time>
      </trkpt>
      <trkpt lat="45.85203" lon="4.78275">
        <ele>567</ele>
        <time>2018-11-06T10:42:06Z</time>
      </trkpt>
      <trkpt lat="45.85196" lon="4.78269">
        <ele>568</ele>
        <time>2018-11-06T10:42:12Z</time>
      </trkpt>
      <trkpt lat="45.85195" lon="4.78268">
        <ele>568</ele>
        <time>2018-11-06T10:42:13Z</time>
      </trkpt>
      <trkpt lat="45.85187" lon="4.78264">
        <ele>569</ele>
        <time>2018-11-06T10:42:18Z</time>
      </trkpt>
      <trkpt lat="45.85185" lon="4.78263">
        <ele>570</ele>
        <time>2018-11-06T10:42:19Z</time>
      </trkpt>
      <trkpt lat="45.85176" lon="4.7826">
        <ele>571</ele>
        <time>2018-11-06T10:42:22Z</time>
      </trkpt>
      <trkpt lat="45.85173" lon="4.78259">
        <ele>572</ele>
        <time>2018-11-06T10:42:23Z</time>
      </trkpt>
      <trkpt lat="45.85165" lon="4.78256">
        <ele>575</ele>
        <time>2018-11-06T10:42:26Z</time>
      </trkpt>
      <trkpt lat="45.85163" lon="4.78254">
        <ele>575</ele>
        <time>2018-11-06T10:42:27Z</time>
      </trkpt>
      <trkpt lat="45.85155" lon="4.78251">
        <ele>575</ele>
        <time>2018-11-06T10:42:30Z</time>
      </trkpt>
      <trkpt lat="45.85153" lon="4.78251">
        <ele>575</ele>
        <time>2018-11-06T10:42:31Z</time>
      </trkpt>
      <trkpt lat="45.85145" lon="4.78249">
        <ele>580</ele>
        <time>2018-11-06T10:42:34Z</time>
      </trkpt>
      <trkpt lat="45.85139" lon="4.78248">
        <ele>581</ele>
        <time>2018-11-06T10:42:35Z</time>
      </trkpt>
      <trkpt lat="45.85132" lon="4.78245">
        <ele>582</ele>
        <time>2018-11-06T10:42:38Z</time>
      </trkpt>
      <trkpt lat="45.8513" lon="4.78244">
        <ele>583</ele>
        <time>2018-11-06T10:42:39Z</time>
      </trkpt>
      <trkpt lat="45.85122" lon="4.78249">
        <ele>584</ele>
        <time>2018-11-06T10:42:45Z</time>
      </trkpt>
      <trkpt lat="45.8512" lon="4.78249">
        <ele>584</ele>
        <time>2018-11-06T10:42:46Z</time>
      </trkpt>
      <trkpt lat="45.85111" lon="4.7825">
        <ele>585</ele>
        <time>2018-11-06T10:42:50Z</time>
      </trkpt>
      <trkpt lat="45.85109" lon="4.7825">
        <ele>579</ele>
        <time>2018-11-06T10:42:51Z</time>
      </trkpt>
      <trkpt lat="45.85101" lon="4.78253">
        <ele>580</ele>
        <time>2018-11-06T10:42:54Z</time>
      </trkpt>
      <trkpt lat="45.85099" lon="4.78255">
        <ele>581</ele>
        <time>2018-11-06T10:42:55Z</time>
      </trkpt>
      <trkpt lat="45.85092" lon="4.78261">
        <ele>581</ele>
        <time>2018-11-06T10:43:00Z</time>
      </trkpt>
      <trkpt lat="45.8509" lon="4.78263">
        <ele>581</ele>
        <time>2018-11-06T10:43:01Z</time>
      </trkpt>
      <trkpt lat="45.85083" lon="4.78268">
        <ele>585</ele>
        <time>2018-11-06T10:43:05Z</time>
      </trkpt>
      <trkpt lat="45.85082" lon="4.78269">
        <ele>585</ele>
        <time>2018-11-06T10:43:06Z</time>
      </trkpt>
      <trkpt lat="45.85075" lon="4.78273">
        <ele>585</ele>
        <time>2018-11-06T10:43:11Z</time>
      </trkpt>
      <trkpt lat="45.85072" lon="4.78274">
        <ele>585</ele>
        <time>2018-11-06T10:43:12Z</time>
      </trkpt>
      <trkpt lat="45.85065" lon="4.78279">
        <ele>584</ele>
        <time>2018-11-06T10:43:16Z</time>
      </trkpt>
      <trkpt lat="45.85063" lon="4.7828">
        <ele>584</ele>
        <time>2018-11-06T10:43:17Z</time>
      </trkpt>
      <trkpt lat="45.85055" lon="4.78284">
        <ele>584</ele>
        <time>2018-11-06T10:43:21Z</time>
      </trkpt>
      <trkpt lat="45.85054" lon="4.78285">
        <ele>584</ele>
        <time>2018-11-06T10:43:22Z</time>
      </trkpt>
      <trkpt lat="45.85046" lon="4.78288">
        <ele>584</ele>
        <time>2018-11-06T10:43:27Z</time>
      </trkpt>
      <trkpt lat="45.85044" lon="4.78289">
        <ele>584</ele>
        <time>2018-11-06T10:43:28Z</time>
      </trkpt>
      <trkpt lat="45.85037" lon="4.78293">
        <ele>584</ele>
        <time>2018-11-06T10:43:33Z</time>
      </trkpt>
      <trkpt lat="45.85035" lon="4.78294">
        <ele>585</ele>
        <time>2018-11-06T10:43:34Z</time>
      </trkpt>
      <trkpt lat="45.85028" lon="4.78298">
        <ele>585</ele>
        <time>2018-11-06T10:43:38Z</time>
      </trkpt>
      <trkpt lat="45.85026" lon="4.783">
        <ele>585</ele>
        <time>2018-11-06T10:43:39Z</time>
      </trkpt>
      <trkpt lat="45.85019" lon="4.78307">
        <ele>584</ele>
        <time>2018-11-06T10:43:44Z</time>
      </trkpt>
      <trkpt lat="45.85018" lon="4.78309">
        <ele>584</ele>
        <time>2018-11-06T10:43:45Z</time>
      </trkpt>
      <trkpt lat="45.8501" lon="4.78315">
        <ele>584</ele>
        <time>2018-11-06T10:43:49Z</time>
      </trkpt>
      <trkpt lat="45.85009" lon="4.78317">
        <ele>584</ele>
        <time>2018-11-06T10:43:50Z</time>
      </trkpt>
      <trkpt lat="45.85002" lon="4.78321">
        <ele>584</ele>
        <time>2018-11-06T10:43:53Z</time>
      </trkpt>
      <trkpt lat="45.84999" lon="4.78322">
        <ele>586</ele>
        <time>2018-11-06T10:43:54Z</time>
      </trkpt>
      <trkpt lat="45.84991" lon="4.78325">
        <ele>586</ele>
        <time>2018-11-06T10:43:58Z</time>
      </trkpt>
      <trkpt lat="45.84989" lon="4.78326">
        <ele>586</ele>
        <time>2018-11-06T10:43:59Z</time>
      </trkpt>
      <trkpt lat="45.84981" lon="4.78328">
        <ele>586</ele>
        <time>2018-11-06T10:44:03Z</time>
      </trkpt>
      <trkpt lat="45.8498" lon="4.78328">
        <ele>586</ele>
        <time>2018-11-06T10:44:04Z</time>
      </trkpt>
      <trkpt lat="45.84972" lon="4.78327">
        <ele>587</ele>
        <time>2018-11-06T10:44:08Z</time>
      </trkpt>
      <trkpt lat="45.8497" lon="4.78326">
        <ele>587</ele>
        <time>2018-11-06T10:44:09Z</time>
      </trkpt>
      <trkpt lat="45.84964" lon="4.78321">
        <ele>587</ele>
        <time>2018-11-06T10:44:12Z</time>
      </trkpt>
      <trkpt lat="45.84962" lon="4.7832">
        <ele>587</ele>
        <time>2018-11-06T10:44:13Z</time>
      </trkpt>
      <trkpt lat="45.84955" lon="4.78314">
        <ele>587</ele>
        <time>2018-11-06T10:44:17Z</time>
      </trkpt>
      <trkpt lat="45.84953" lon="4.78312">
        <ele>587</ele>
        <time>2018-11-06T10:44:18Z</time>
      </trkpt>
      <trkpt lat="45.84947" lon="4.78306">
        <ele>587</ele>
        <time>2018-11-06T10:44:21Z</time>
      </trkpt>
      <trkpt lat="45.84945" lon="4.78303">
        <ele>587</ele>
        <time>2018-11-06T10:44:22Z</time>
      </trkpt>
      <trkpt lat="45.84939" lon="4.78294">
        <ele>588</ele>
        <time>2018-11-06T10:44:25Z</time>
      </trkpt>
      <trkpt lat="45.84937" lon="4.78292">
        <ele>588</ele>
        <time>2018-11-06T10:44:26Z</time>
      </trkpt>
      <trkpt lat="45.84932" lon="4.78282">
        <ele>588</ele>
        <time>2018-11-06T10:44:30Z</time>
      </trkpt>
      <trkpt lat="45.84931" lon="4.78279">
        <ele>588</ele>
        <time>2018-11-06T10:44:31Z</time>
      </trkpt>
      <trkpt lat="45.84929" lon="4.78267">
        <ele>589</ele>
        <time>2018-11-06T10:44:35Z</time>
      </trkpt>
      <trkpt lat="45.84929" lon="4.78264">
        <ele>589</ele>
        <time>2018-11-06T10:44:36Z</time>
      </trkpt>
      <trkpt lat="45.84927" lon="4.78254">
        <ele>589</ele>
        <time>2018-11-06T10:44:39Z</time>
      </trkpt>
      <trkpt lat="45.84927" lon="4.78251">
        <ele>589</ele>
        <time>2018-11-06T10:44:40Z</time>
      </trkpt>
      <trkpt lat="45.84927" lon="4.78239">
        <ele>591</ele>
        <time>2018-11-06T10:44:44Z</time>
      </trkpt>
      <trkpt lat="45.84927" lon="4.78236">
        <ele>592</ele>
        <time>2018-11-06T10:44:45Z</time>
      </trkpt>
      <trkpt lat="45.84929" lon="4.78227">
        <ele>592</ele>
        <time>2018-11-06T10:44:48Z</time>
      </trkpt>
      <trkpt lat="45.8493" lon="4.78224">
        <ele>593</ele>
        <time>2018-11-06T10:44:49Z</time>
      </trkpt>
      <trkpt lat="45.84935" lon="4.78214">
        <ele>593</ele>
        <time>2018-11-06T10:44:53Z</time>
      </trkpt>
      <trkpt lat="45.84937" lon="4.78212">
        <ele>593</ele>
        <time>2018-11-06T10:44:54Z</time>
      </trkpt>
      <trkpt lat="45.84944" lon="4.78209">
        <ele>594</ele>
        <time>2018-11-06T10:44:57Z</time>
      </trkpt>
      <trkpt lat="45.84946" lon="4.78208">
        <ele>594</ele>
        <time>2018-11-06T10:44:58Z</time>
      </trkpt>
      <trkpt lat="45.84953" lon="4.78211">
        <ele>594</ele>
        <time>2018-11-06T10:45:01Z</time>
      </trkpt>
      <trkpt lat="45.84955" lon="4.78214">
        <ele>594</ele>
        <time>2018-11-06T10:45:02Z</time>
      </trkpt>
      <trkpt lat="45.84959" lon="4.78223">
        <ele>594</ele>
        <time>2018-11-06T10:45:05Z</time>
      </trkpt>
      <trkpt lat="45.8496" lon="4.78226">
        <ele>594</ele>
        <time>2018-11-06T10:45:06Z</time>
      </trkpt>
      <trkpt lat="45.84963" lon="4.78236">
        <ele>594</ele>
        <time>2018-11-06T10:45:09Z</time>
      </trkpt>
      <trkpt lat="45.84963" lon="4.78239">
        <ele>594</ele>
        <time>2018-11-06T10:45:10Z</time>
      </trkpt>
      <trkpt lat="45.84967" lon="4.78248">
        <ele>594</ele>
        <time>2018-11-06T10:45:13Z</time>
      </trkpt>
      <trkpt lat="45.84968" lon="4.78251">
        <ele>591</ele>
        <time>2018-11-06T10:45:14Z</time>
      </trkpt>
      <trkpt lat="45.84973" lon="4.78261">
        <ele>591</ele>
        <time>2018-11-06T10:45:17Z</time>
      </trkpt>
      <trkpt lat="45.84974" lon="4.78264">
        <ele>591</ele>
        <time>2018-11-06T10:45:18Z</time>
      </trkpt>
      <trkpt lat="45.8498" lon="4.78273">
        <ele>590</ele>
        <time>2018-11-06T10:45:21Z</time>
      </trkpt>
      <trkpt lat="45.84983" lon="4.78276">
        <ele>590</ele>
        <time>2018-11-06T10:45:22Z</time>
      </trkpt>
      <trkpt lat="45.84991" lon="4.7828">
        <ele>590</ele>
        <time>2018-11-06T10:45:25Z</time>
      </trkpt>
      <trkpt lat="45.84994" lon="4.7828">
        <ele>590</ele>
        <time>2018-11-06T10:45:26Z</time>
      </trkpt>
      <trkpt lat="45.85002" lon="4.78277">
        <ele>588</ele>
        <time>2018-11-06T10:45:29Z</time>
      </trkpt>
      <trkpt lat="45.85005" lon="4.78275">
        <ele>589</ele>
        <time>2018-11-06T10:45:30Z</time>
      </trkpt>
      <trkpt lat="45.8501" lon="4.78267">
        <ele>590</ele>
        <time>2018-11-06T10:45:33Z</time>
      </trkpt>
      <trkpt lat="45.85011" lon="4.78264">
        <ele>590</ele>
        <time>2018-11-06T10:45:34Z</time>
      </trkpt>
      <trkpt lat="45.85014" lon="4.78255">
        <ele>591</ele>
        <time>2018-11-06T10:45:36Z</time>
      </trkpt>
      <trkpt lat="45.85014" lon="4.78251">
        <ele>591</ele>
        <time>2018-11-06T10:45:37Z</time>
      </trkpt>
      <trkpt lat="45.85013" lon="4.78239">
        <ele>596</ele>
        <time>2018-11-06T10:45:40Z</time>
      </trkpt>
      <trkpt lat="45.85012" lon="4.78236">
        <ele>596</ele>
        <time>2018-11-06T10:45:41Z</time>
      </trkpt>
      <trkpt lat="45.85008" lon="4.78227">
        <ele>596</ele>
        <time>2018-11-06T10:45:44Z</time>
      </trkpt>
      <trkpt lat="45.85006" lon="4.78225">
        <ele>596</ele>
        <time>2018-11-06T10:45:45Z</time>
      </trkpt>
      <trkpt lat="45.85001" lon="4.78216">
        <ele>596</ele>
        <time>2018-11-06T10:45:48Z</time>
      </trkpt>
      <trkpt lat="45.85" lon="4.78214">
        <ele>596</ele>
        <time>2018-11-06T10:45:49Z</time>
      </trkpt>
      <trkpt lat="45.84996" lon="4.78203">
        <ele>596</ele>
        <time>2018-11-06T10:45:53Z</time>
      </trkpt>
      <trkpt lat="45.84994" lon="4.782">
        <ele>596</ele>
        <time>2018-11-06T10:45:54Z</time>
      </trkpt>
      <trkpt lat="45.84988" lon="4.78191">
        <ele>597</ele>
        <time>2018-11-06T10:45:57Z</time>
      </trkpt>
      <trkpt lat="45.84986" lon="4.78189">
        <ele>597</ele>
        <time>2018-11-06T10:45:58Z</time>
      </trkpt>
      <trkpt lat="45.8498" lon="4.78182">
        <ele>597</ele>
        <time>2018-11-06T10:46:01Z</time>
      </trkpt>
      <trkpt lat="45.84977" lon="4.78179">
        <ele>597</ele>
        <time>2018-11-06T10:46:02Z</time>
      </trkpt>
      <trkpt lat="45.84971" lon="4.7817">
        <ele>596</ele>
        <time>2018-11-06T10:46:05Z</time>
      </trkpt>
      <trkpt lat="45.8497" lon="4.78167">
        <ele>596</ele>
        <time>2018-11-06T10:46:06Z</time>
      </trkpt>
      <trkpt lat="45.84964" lon="4.78158">
        <ele>599</ele>
        <time>2018-11-06T10:46:10Z</time>
      </trkpt>
      <trkpt lat="45.84963" lon="4.78156">
        <ele>599</ele>
        <time>2018-11-06T10:46:11Z</time>
      </trkpt>
      <trkpt lat="45.84959" lon="4.78146">
        <ele>599</ele>
        <time>2018-11-06T10:46:15Z</time>
      </trkpt>
      <trkpt lat="45.84955" lon="4.7814">
        <ele>599</ele>
        <time>2018-11-06T10:46:16Z</time>
      </trkpt>
      <trkpt lat="45.8495" lon="4.78132">
        <ele>600</ele>
        <time>2018-11-06T10:46:19Z</time>
      </trkpt>
      <trkpt lat="45.84948" lon="4.78129">
        <ele>600</ele>
        <time>2018-11-06T10:46:20Z</time>
      </trkpt>
      <trkpt lat="45.84944" lon="4.78118">
        <ele>600</ele>
        <time>2018-11-06T10:46:24Z</time>
      </trkpt>
      <trkpt lat="45.84942" lon="4.78116">
        <ele>600</ele>
        <time>2018-11-06T10:46:25Z</time>
      </trkpt>
      <trkpt lat="45.84936" lon="4.78107">
        <ele>600</ele>
        <time>2018-11-06T10:46:28Z</time>
      </trkpt>
      <trkpt lat="45.84933" lon="4.78105">
        <ele>601</ele>
        <time>2018-11-06T10:46:29Z</time>
      </trkpt>
      <trkpt lat="45.84928" lon="4.781">
        <ele>601</ele>
        <time>2018-11-06T10:46:31Z</time>
      </trkpt>
      <trkpt lat="45.84921" lon="4.78094">
        <ele>601</ele>
        <time>2018-11-06T10:46:32Z</time>
      </trkpt>
      <trkpt lat="45.84916" lon="4.78089">
        <ele>599</ele>
        <time>2018-11-06T10:46:34Z</time>
      </trkpt>
      <trkpt lat="45.84913" lon="4.78087">
        <ele>600</ele>
        <time>2018-11-06T10:46:35Z</time>
      </trkpt>
      <trkpt lat="45.84906" lon="4.78081">
        <ele>602</ele>
        <time>2018-11-06T10:46:37Z</time>
      </trkpt>
      <trkpt lat="45.84903" lon="4.78079">
        <ele>602</ele>
        <time>2018-11-06T10:46:38Z</time>
      </trkpt>
      <trkpt lat="45.84898" lon="4.78076">
        <ele>602</ele>
        <time>2018-11-06T10:46:39Z</time>
      </trkpt>
      <trkpt lat="45.84894" lon="4.78072">
        <ele>601</ele>
        <time>2018-11-06T10:46:40Z</time>
      </trkpt>
      <trkpt lat="45.84885" lon="4.78067">
        <ele>601</ele>
        <time>2018-11-06T10:46:41Z</time>
      </trkpt>
      <trkpt lat="45.84878" lon="4.78063">
        <ele>601</ele>
        <time>2018-11-06T10:46:42Z</time>
      </trkpt>
      <trkpt lat="45.84874" lon="4.78059">
        <ele>601</ele>
        <time>2018-11-06T10:46:43Z</time>
      </trkpt>
      <trkpt lat="45.8487" lon="4.78054">
        <ele>601</ele>
        <time>2018-11-06T10:46:44Z</time>
      </trkpt>
      <trkpt lat="45.84866" lon="4.78051">
        <ele>601</ele>
        <time>2018-11-06T10:46:45Z</time>
      </trkpt>
      <trkpt lat="45.84861" lon="4.78047">
        <ele>601</ele>
        <time>2018-11-06T10:46:46Z</time>
      </trkpt>
      <trkpt lat="45.84856" lon="4.78043">
        <ele>601</ele>
        <time>2018-11-06T10:46:47Z</time>
      </trkpt>
      <trkpt lat="45.84848" lon="4.78039">
        <ele>601</ele>
        <time>2018-11-06T10:46:48Z</time>
      </trkpt>
      <trkpt lat="45.84842" lon="4.78036">
        <ele>602</ele>
        <time>2018-11-06T10:46:49Z</time>
      </trkpt>
      <trkpt lat="45.84836" lon="4.78031">
        <ele>602</ele>
        <time>2018-11-06T10:46:50Z</time>
      </trkpt>
      <trkpt lat="45.84826" lon="4.78028">
        <ele>598</ele>
        <time>2018-11-06T10:46:51Z</time>
      </trkpt>
      <trkpt lat="45.8482" lon="4.78025">
        <ele>598</ele>
        <time>2018-11-06T10:46:52Z</time>
      </trkpt>
      <trkpt lat="45.84807" lon="4.7802">
        <ele>597</ele>
        <time>2018-11-06T10:46:53Z</time>
      </trkpt>
      <trkpt lat="45.84798" lon="4.78021">
        <ele>597</ele>
        <time>2018-11-06T10:46:54Z</time>
      </trkpt>
      <trkpt lat="45.84789" lon="4.78019">
        <ele>596</ele>
        <time>2018-11-06T10:46:55Z</time>
      </trkpt>
      <trkpt lat="45.84783" lon="4.7802">
        <ele>596</ele>
        <time>2018-11-06T10:46:56Z</time>
      </trkpt>
      <trkpt lat="45.84774" lon="4.78018">
        <ele>596</ele>
        <time>2018-11-06T10:46:57Z</time>
      </trkpt>
      <trkpt lat="45.84767" lon="4.7802">
        <ele>596</ele>
        <time>2018-11-06T10:46:58Z</time>
      </trkpt>
      <trkpt lat="45.8476" lon="4.7802">
        <ele>596</ele>
        <time>2018-11-06T10:46:59Z</time>
      </trkpt>
      <trkpt lat="45.84753" lon="4.7802">
        <ele>596</ele>
        <time>2018-11-06T10:47:00Z</time>
      </trkpt>
      <trkpt lat="45.84745" lon="4.78016">
        <ele>594</ele>
        <time>2018-11-06T10:47:01Z</time>
      </trkpt>
      <trkpt lat="45.84738" lon="4.78016">
        <ele>594</ele>
        <time>2018-11-06T10:47:02Z</time>
      </trkpt>
      <trkpt lat="45.84729" lon="4.78017">
        <ele>593</ele>
        <time>2018-11-06T10:47:03Z</time>
      </trkpt>
      <trkpt lat="45.84722" lon="4.78018">
        <ele>593</ele>
        <time>2018-11-06T10:47:04Z</time>
      </trkpt>
      <trkpt lat="45.84716" lon="4.78019">
        <ele>592</ele>
        <time>2018-11-06T10:47:05Z</time>
      </trkpt>
      <trkpt lat="45.84711" lon="4.78019">
        <ele>592</ele>
        <time>2018-11-06T10:47:06Z</time>
      </trkpt>
      <trkpt lat="45.84704" lon="4.7802">
        <ele>592</ele>
        <time>2018-11-06T10:47:07Z</time>
      </trkpt>
      <trkpt lat="45.84699" lon="4.78021">
        <ele>592</ele>
        <time>2018-11-06T10:47:08Z</time>
      </trkpt>
      <trkpt lat="45.84693" lon="4.78018">
        <ele>592</ele>
        <time>2018-11-06T10:47:09Z</time>
      </trkpt>
      <trkpt lat="45.84689" lon="4.78008">
        <ele>592</ele>
        <time>2018-11-06T10:47:16Z</time>
      </trkpt>
      <trkpt lat="45.84688" lon="4.78003">
        <ele>592</ele>
        <time>2018-11-06T10:47:17Z</time>
      </trkpt>
      <trkpt lat="45.84688" lon="4.77992">
        <ele>591</ele>
        <time>2018-11-06T10:47:20Z</time>
      </trkpt>
      <trkpt lat="45.84688" lon="4.77989">
        <ele>591</ele>
        <time>2018-11-06T10:47:21Z</time>
      </trkpt>
      <trkpt lat="45.84683" lon="4.7798">
        <ele>590</ele>
        <time>2018-11-06T10:47:40Z</time>
      </trkpt>
      <trkpt lat="45.84683" lon="4.7798">
        <ele>590</ele>
        <time>2018-11-06T10:47:41Z</time>
      </trkpt>
      <trkpt lat="45.84676" lon="4.77979">
        <ele>590</ele>
        <time>2018-11-06T10:47:55Z</time>
      </trkpt>
      <trkpt lat="45.84676" lon="4.77979">
        <ele>590</ele>
        <time>2018-11-06T10:47:56Z</time>
      </trkpt>
      <trkpt lat="45.84678" lon="4.77977">
        <ele>590</ele>
        <time>2018-11-06T10:54:33Z</time>
      </trkpt>
      <trkpt lat="45.84678" lon="4.77977">
        <ele>590</ele>
        <time>2018-11-06T10:54:34Z</time>
      </trkpt>
      <trkpt lat="45.84678" lon="4.77975">
        <ele>590</ele>
        <time>2018-11-06T10:55:12Z</time>
      </trkpt>
      <trkpt lat="45.84678" lon="4.77975">
        <ele>590</ele>
        <time>2018-11-06T10:55:13Z</time>
      </trkpt>
      <trkpt lat="45.84685" lon="4.7797">
        <ele>590</ele>
        <time>2018-11-06T10:55:31Z</time>
      </trkpt>
      <trkpt lat="45.84686" lon="4.77968">
        <ele>590</ele>
        <time>2018-11-06T10:55:32Z</time>
      </trkpt>
      <trkpt lat="45.84691" lon="4.7796">
        <ele>589</ele>
        <time>2018-11-06T10:55:34Z</time>
      </trkpt>
      <trkpt lat="45.84693" lon="4.77955">
        <ele>589</ele>
        <time>2018-11-06T10:55:35Z</time>
      </trkpt>
      <trkpt lat="45.84698" lon="4.77945">
        <ele>589</ele>
        <time>2018-11-06T10:55:37Z</time>
      </trkpt>
      <trkpt lat="45.84701" lon="4.77938">
        <ele>589</ele>
        <time>2018-11-06T10:55:38Z</time>
      </trkpt>
      <trkpt lat="45.84704" lon="4.77933">
        <ele>589</ele>
        <time>2018-11-06T10:55:39Z</time>
      </trkpt>
      <trkpt lat="45.84708" lon="4.77926">
        <ele>589</ele>
        <time>2018-11-06T10:55:40Z</time>
      </trkpt>
      <trkpt lat="45.84711" lon="4.77918">
        <ele>589</ele>
        <time>2018-11-06T10:55:41Z</time>
      </trkpt>
      <trkpt lat="45.84714" lon="4.77912">
        <ele>583</ele>
        <time>2018-11-06T10:55:42Z</time>
      </trkpt>
      <trkpt lat="45.84719" lon="4.77904">
        <ele>584</ele>
        <time>2018-11-06T10:55:43Z</time>
      </trkpt>
      <trkpt lat="45.84721" lon="4.77896">
        <ele>583</ele>
        <time>2018-11-06T10:55:44Z</time>
      </trkpt>
      <trkpt lat="45.84724" lon="4.77889">
        <ele>583</ele>
        <time>2018-11-06T10:55:45Z</time>
      </trkpt>
      <trkpt lat="45.84728" lon="4.77881">
        <ele>583</ele>
        <time>2018-11-06T10:55:46Z</time>
      </trkpt>
      <trkpt lat="45.8473" lon="4.77873">
        <ele>582</ele>
        <time>2018-11-06T10:55:47Z</time>
      </trkpt>
      <trkpt lat="45.84733" lon="4.77864">
        <ele>581</ele>
        <time>2018-11-06T10:55:48Z</time>
      </trkpt>
      <trkpt lat="45.84736" lon="4.77857">
        <ele>581</ele>
        <time>2018-11-06T10:55:49Z</time>
      </trkpt>
      <trkpt lat="45.84735" lon="4.77852">
        <ele>581</ele>
        <time>2018-11-06T10:55:50Z</time>
      </trkpt>
      <trkpt lat="45.84734" lon="4.77844">
        <ele>581</ele>
        <time>2018-11-06T10:55:51Z</time>
      </trkpt>
      <trkpt lat="45.84733" lon="4.77838">
        <ele>580</ele>
        <time>2018-11-06T10:55:52Z</time>
      </trkpt>
      <trkpt lat="45.84729" lon="4.77833">
        <ele>574</ele>
        <time>2018-11-06T10:55:53Z</time>
      </trkpt>
      <trkpt lat="45.84725" lon="4.77828">
        <ele>572</ele>
        <time>2018-11-06T10:55:54Z</time>
      </trkpt>
      <trkpt lat="45.84719" lon="4.77826">
        <ele>571</ele>
        <time>2018-11-06T10:55:55Z</time>
      </trkpt>
      <trkpt lat="45.84714" lon="4.77826">
        <ele>570</ele>
        <time>2018-11-06T10:55:56Z</time>
      </trkpt>
      <trkpt lat="45.84709" lon="4.7783">
        <ele>569</ele>
        <time>2018-11-06T10:55:57Z</time>
      </trkpt>
      <trkpt lat="45.84705" lon="4.77836">
        <ele>577</ele>
        <time>2018-11-06T10:55:58Z</time>
      </trkpt>
      <trkpt lat="45.84701" lon="4.77842">
        <ele>576</ele>
        <time>2018-11-06T10:55:59Z</time>
      </trkpt>
      <trkpt lat="45.84697" lon="4.77849">
        <ele>576</ele>
        <time>2018-11-06T10:56:00Z</time>
      </trkpt>
      <trkpt lat="45.84694" lon="4.77858">
        <ele>576</ele>
        <time>2018-11-06T10:56:01Z</time>
      </trkpt>
      <trkpt lat="45.84691" lon="4.77867">
        <ele>577</ele>
        <time>2018-11-06T10:56:02Z</time>
      </trkpt>
      <trkpt lat="45.84689" lon="4.77876">
        <ele>578</ele>
        <time>2018-11-06T10:56:03Z</time>
      </trkpt>
      <trkpt lat="45.84685" lon="4.77885">
        <ele>578</ele>
        <time>2018-11-06T10:56:04Z</time>
      </trkpt>
      <trkpt lat="45.84682" lon="4.77893">
        <ele>578</ele>
        <time>2018-11-06T10:56:05Z</time>
      </trkpt>
      <trkpt lat="45.84678" lon="4.779">
        <ele>578</ele>
        <time>2018-11-06T10:56:06Z</time>
      </trkpt>
      <trkpt lat="45.84674" lon="4.77908">
        <ele>577</ele>
        <time>2018-11-06T10:56:07Z</time>
      </trkpt>
      <trkpt lat="45.8467" lon="4.77914">
        <ele>577</ele>
        <time>2018-11-06T10:56:08Z</time>
      </trkpt>
      <trkpt lat="45.84664" lon="4.7792">
        <ele>577</ele>
        <time>2018-11-06T10:56:09Z</time>
      </trkpt>
      <trkpt lat="45.8466" lon="4.77924">
        <ele>578</ele>
        <time>2018-11-06T10:56:10Z</time>
      </trkpt>
      <trkpt lat="45.84655" lon="4.77925">
        <ele>578</ele>
        <time>2018-11-06T10:56:11Z</time>
      </trkpt>
      <trkpt lat="45.8465" lon="4.77924">
        <ele>578</ele>
        <time>2018-11-06T10:56:12Z</time>
      </trkpt>
      <trkpt lat="45.84646" lon="4.77921">
        <ele>578</ele>
        <time>2018-11-06T10:56:13Z</time>
      </trkpt>
      <trkpt lat="45.84642" lon="4.77915">
        <ele>568</ele>
        <time>2018-11-06T10:56:14Z</time>
      </trkpt>
      <trkpt lat="45.8464" lon="4.77909">
        <ele>567</ele>
        <time>2018-11-06T10:56:15Z</time>
      </trkpt>
      <trkpt lat="45.84639" lon="4.77902">
        <ele>567</ele>
        <time>2018-11-06T10:56:16Z</time>
      </trkpt>
      <trkpt lat="45.84641" lon="4.77896">
        <ele>566</ele>
        <time>2018-11-06T10:56:17Z</time>
      </trkpt>
      <trkpt lat="45.84642" lon="4.77889">
        <ele>566</ele>
        <time>2018-11-06T10:56:18Z</time>
      </trkpt>
      <trkpt lat="45.84646" lon="4.77883">
        <ele>565</ele>
        <time>2018-11-06T10:56:19Z</time>
      </trkpt>
      <trkpt lat="45.84651" lon="4.77878">
        <ele>565</ele>
        <time>2018-11-06T10:56:20Z</time>
      </trkpt>
      <trkpt lat="45.84655" lon="4.77873">
        <ele>565</ele>
        <time>2018-11-06T10:56:21Z</time>
      </trkpt>
      <trkpt lat="45.84661" lon="4.77868">
        <ele>565</ele>
        <time>2018-11-06T10:56:22Z</time>
      </trkpt>
      <trkpt lat="45.84666" lon="4.77862">
        <ele>564</ele>
        <time>2018-11-06T10:56:23Z</time>
      </trkpt>
      <trkpt lat="45.84671" lon="4.77856">
        <ele>573</ele>
        <time>2018-11-06T10:56:24Z</time>
      </trkpt>
      <trkpt lat="45.84677" lon="4.77852">
        <ele>573</ele>
        <time>2018-11-06T10:56:25Z</time>
      </trkpt>
      <trkpt lat="45.84681" lon="4.77844">
        <ele>572</ele>
        <time>2018-11-06T10:56:26Z</time>
      </trkpt>
      <trkpt lat="45.84685" lon="4.77835">
        <ele>572</ele>
        <time>2018-11-06T10:56:27Z</time>
      </trkpt>
      <trkpt lat="45.84688" lon="4.77826">
        <ele>567</ele>
        <time>2018-11-06T10:56:28Z</time>
      </trkpt>
      <trkpt lat="45.84691" lon="4.77817">
        <ele>567</ele>
        <time>2018-11-06T10:56:29Z</time>
      </trkpt>
      <trkpt lat="45.84695" lon="4.77808">
        <ele>567</ele>
        <time>2018-11-06T10:56:30Z</time>
      </trkpt>
      <trkpt lat="45.84699" lon="4.77798">
        <ele>567</ele>
        <time>2018-11-06T10:56:31Z</time>
      </trkpt>
      <trkpt lat="45.84702" lon="4.77789">
        <ele>566</ele>
        <time>2018-11-06T10:56:32Z</time>
      </trkpt>
      <trkpt lat="45.84705" lon="4.77779">
        <ele>566</ele>
        <time>2018-11-06T10:56:33Z</time>
      </trkpt>
      <trkpt lat="45.84709" lon="4.77768">
        <ele>566</ele>
        <time>2018-11-06T10:56:34Z</time>
      </trkpt>
      <trkpt lat="45.84713" lon="4.77759">
        <ele>566</ele>
        <time>2018-11-06T10:56:35Z</time>
      </trkpt>
      <trkpt lat="45.84716" lon="4.77747">
        <ele>559</ele>
        <time>2018-11-06T10:56:36Z</time>
      </trkpt>
      <trkpt lat="45.84719" lon="4.77736">
        <ele>559</ele>
        <time>2018-11-06T10:56:37Z</time>
      </trkpt>
      <trkpt lat="45.84724" lon="4.77726">
        <ele>559</ele>
        <time>2018-11-06T10:56:38Z</time>
      </trkpt>
      <trkpt lat="45.8473" lon="4.77718">
        <ele>559</ele>
        <time>2018-11-06T10:56:39Z</time>
      </trkpt>
      <trkpt lat="45.84732" lon="4.77707">
        <ele>558</ele>
        <time>2018-11-06T10:56:40Z</time>
      </trkpt>
      <trkpt lat="45.84732" lon="4.77698">
        <ele>557</ele>
        <time>2018-11-06T10:56:41Z</time>
      </trkpt>
      <trkpt lat="45.84732" lon="4.77688">
        <ele>556</ele>
        <time>2018-11-06T10:56:42Z</time>
      </trkpt>
      <trkpt lat="45.84731" lon="4.77678">
        <ele>556</ele>
        <time>2018-11-06T10:56:43Z</time>
      </trkpt>
      <trkpt lat="45.8473" lon="4.77669">
        <ele>556</ele>
        <time>2018-11-06T10:56:44Z</time>
      </trkpt>
      <trkpt lat="45.84727" lon="4.77659">
        <ele>552</ele>
        <time>2018-11-06T10:56:45Z</time>
      </trkpt>
      <trkpt lat="45.84724" lon="4.77649">
        <ele>552</ele>
        <time>2018-11-06T10:56:46Z</time>
      </trkpt>
      <trkpt lat="45.8472" lon="4.77639">
        <ele>551</ele>
        <time>2018-11-06T10:56:47Z</time>
      </trkpt>
      <trkpt lat="45.84717" lon="4.77628">
        <ele>551</ele>
        <time>2018-11-06T10:56:48Z</time>
      </trkpt>
      <trkpt lat="45.84713" lon="4.77618">
        <ele>550</ele>
        <time>2018-11-06T10:56:49Z</time>
      </trkpt>
      <trkpt lat="45.8471" lon="4.77607">
        <ele>550</ele>
        <time>2018-11-06T10:56:50Z</time>
      </trkpt>
      <trkpt lat="45.84706" lon="4.77597">
        <ele>550</ele>
        <time>2018-11-06T10:56:51Z</time>
      </trkpt>
      <trkpt lat="45.84702" lon="4.77588">
        <ele>550</ele>
        <time>2018-11-06T10:56:52Z</time>
      </trkpt>
      <trkpt lat="45.84698" lon="4.77581">
        <ele>548</ele>
        <time>2018-11-06T10:56:53Z</time>
      </trkpt>
      <trkpt lat="45.84694" lon="4.77574">
        <ele>548</ele>
        <time>2018-11-06T10:56:54Z</time>
      </trkpt>
      <trkpt lat="45.84689" lon="4.77569">
        <ele>549</ele>
        <time>2018-11-06T10:56:55Z</time>
      </trkpt>
      <trkpt lat="45.84683" lon="4.77566">
        <ele>549</ele>
        <time>2018-11-06T10:56:56Z</time>
      </trkpt>
      <trkpt lat="45.84678" lon="4.77565">
        <ele>549</ele>
        <time>2018-11-06T10:56:57Z</time>
      </trkpt>
      <trkpt lat="45.84673" lon="4.77565">
        <ele>549</ele>
        <time>2018-11-06T10:56:58Z</time>
      </trkpt>
      <trkpt lat="45.84665" lon="4.77563">
        <ele>550</ele>
        <time>2018-11-06T10:57:00Z</time>
      </trkpt>
      <trkpt lat="45.8466" lon="4.77562">
        <ele>550</ele>
        <time>2018-11-06T10:57:01Z</time>
      </trkpt>
      <trkpt lat="45.84653" lon="4.77562">
        <ele>550</ele>
        <time>2018-11-06T10:57:04Z</time>
      </trkpt>
      <trkpt lat="45.84651" lon="4.77562">
        <ele>550</ele>
        <time>2018-11-06T10:57:05Z</time>
      </trkpt>
      <trkpt lat="45.84657" lon="4.77559">
        <ele>550</ele>
        <time>2018-11-06T10:57:26Z</time>
      </trkpt>
      <trkpt lat="45.84659" lon="4.77558">
        <ele>550</ele>
        <time>2018-11-06T10:57:27Z</time>
      </trkpt>
      <trkpt lat="45.84667" lon="4.77558">
        <ele>549</ele>
        <time>2018-11-06T10:57:30Z</time>
      </trkpt>
      <trkpt lat="45.8467" lon="4.7756">
        <ele>549</ele>
        <time>2018-11-06T10:57:31Z</time>
      </trkpt>
      <trkpt lat="45.84678" lon="4.77563">
        <ele>549</ele>
        <time>2018-11-06T10:57:34Z</time>
      </trkpt>
      <trkpt lat="45.8468" lon="4.77565">
        <ele>549</ele>
        <time>2018-11-06T10:57:35Z</time>
      </trkpt>
      <trkpt lat="45.84686" lon="4.77568">
        <ele>549</ele>
        <time>2018-11-06T10:57:37Z</time>
      </trkpt>
      <trkpt lat="45.84692" lon="4.77574">
        <ele>548</ele>
        <time>2018-11-06T10:57:38Z</time>
      </trkpt>
      <trkpt lat="45.84697" lon="4.77582">
        <ele>548</ele>
        <time>2018-11-06T10:57:40Z</time>
      </trkpt>
      <trkpt lat="45.847" lon="4.77586">
        <ele>550</ele>
        <time>2018-11-06T10:57:41Z</time>
      </trkpt>
      <trkpt lat="45.84702" lon="4.77593">
        <ele>550</ele>
        <time>2018-11-06T10:57:43Z</time>
      </trkpt>
      <trkpt lat="45.84705" lon="4.776">
        <ele>550</ele>
        <time>2018-11-06T10:57:44Z</time>
      </trkpt>
      <trkpt lat="45.84708" lon="4.7761">
        <ele>550</ele>
        <time>2018-11-06T10:57:47Z</time>
      </trkpt>
      <trkpt lat="45.84709" lon="4.77614">
        <ele>550</ele>
        <time>2018-11-06T10:57:48Z</time>
      </trkpt>
      <trkpt lat="45.84712" lon="4.77625">
        <ele>551</ele>
        <time>2018-11-06T10:57:51Z</time>
      </trkpt>
      <trkpt lat="45.84713" lon="4.77628">
        <ele>551</ele>
        <time>2018-11-06T10:57:52Z</time>
      </trkpt>
      <trkpt lat="45.84718" lon="4.77639">
        <ele>551</ele>
        <time>2018-11-06T10:57:56Z</time>
      </trkpt>
      <trkpt lat="45.84719" lon="4.77642">
        <ele>551</ele>
        <time>2018-11-06T10:57:57Z</time>
      </trkpt>
      <trkpt lat="45.84722" lon="4.77651">
        <ele>551</ele>
        <time>2018-11-06T10:58:00Z</time>
      </trkpt>
      <trkpt lat="45.84722" lon="4.77655">
        <ele>552</ele>
        <time>2018-11-06T10:58:01Z</time>
      </trkpt>
      <trkpt lat="45.84724" lon="4.77664">
        <ele>552</ele>
        <time>2018-11-06T10:58:04Z</time>
      </trkpt>
      <trkpt lat="45.84725" lon="4.77667">
        <ele>556</ele>
        <time>2018-11-06T10:58:05Z</time>
      </trkpt>
      <trkpt lat="45.84727" lon="4.77677">
        <ele>556</ele>
        <time>2018-11-06T10:58:08Z</time>
      </trkpt>
      <trkpt lat="45.84728" lon="4.7768">
        <ele>556</ele>
        <time>2018-11-06T10:58:09Z</time>
      </trkpt>
      <trkpt lat="45.84728" lon="4.7769">
        <ele>557</ele>
        <time>2018-11-06T10:58:12Z</time>
      </trkpt>
      <trkpt lat="45.84728" lon="4.77694">
        <ele>557</ele>
        <time>2018-11-06T10:58:13Z</time>
      </trkpt>
      <trkpt lat="45.84726" lon="4.77706">
        <ele>558</ele>
        <time>2018-11-06T10:58:17Z</time>
      </trkpt>
      <trkpt lat="45.84726" lon="4.77709">
        <ele>558</ele>
        <time>2018-11-06T10:58:18Z</time>
      </trkpt>
      <trkpt lat="45.84722" lon="4.77718">
        <ele>558</ele>
        <time>2018-11-06T10:58:21Z</time>
      </trkpt>
      <trkpt lat="45.84721" lon="4.77721">
        <ele>558</ele>
        <time>2018-11-06T10:58:22Z</time>
      </trkpt>
      <trkpt lat="45.84718" lon="4.77732">
        <ele>559</ele>
        <time>2018-11-06T10:58:26Z</time>
      </trkpt>
      <trkpt lat="45.84717" lon="4.77735">
        <ele>559</ele>
        <time>2018-11-06T10:58:27Z</time>
      </trkpt>
      <trkpt lat="45.84713" lon="4.77746">
        <ele>559</ele>
        <time>2018-11-06T10:58:31Z</time>
      </trkpt>
      <trkpt lat="45.84712" lon="4.77748">
        <ele>559</ele>
        <time>2018-11-06T10:58:32Z</time>
      </trkpt>
      <trkpt lat="45.84708" lon="4.77758">
        <ele>565</ele>
        <time>2018-11-06T10:58:36Z</time>
      </trkpt>
      <trkpt lat="45.84707" lon="4.77761">
        <ele>565</ele>
        <time>2018-11-06T10:58:37Z</time>
      </trkpt>
      <trkpt lat="45.84703" lon="4.7777">
        <ele>565</ele>
        <time>2018-11-06T10:58:41Z</time>
      </trkpt>
      <trkpt lat="45.84702" lon="4.77772">
        <ele>565</ele>
        <time>2018-11-06T10:58:42Z</time>
      </trkpt>
      <trkpt lat="45.84699" lon="4.77782">
        <ele>566</ele>
        <time>2018-11-06T10:58:46Z</time>
      </trkpt>
      <trkpt lat="45.84698" lon="4.77784">
        <ele>566</ele>
        <time>2018-11-06T10:58:47Z</time>
      </trkpt>
      <trkpt lat="45.84693" lon="4.77794">
        <ele>566</ele>
        <time>2018-11-06T10:58:51Z</time>
      </trkpt>
      <trkpt lat="45.84693" lon="4.77796">
        <ele>566</ele>
        <time>2018-11-06T10:58:52Z</time>
      </trkpt>
      <trkpt lat="45.84691" lon="4.77808">
        <ele>567</ele>
        <time>2018-11-06T10:58:57Z</time>
      </trkpt>
      <trkpt lat="45.84691" lon="4.77811">
        <ele>567</ele>
        <time>2018-11-06T10:58:58Z</time>
      </trkpt>
      <trkpt lat="45.84686" lon="4.7782">
        <ele>566</ele>
        <time>2018-11-06T10:59:02Z</time>
      </trkpt>
      <trkpt lat="45.84685" lon="4.77822">
        <ele>566</ele>
        <time>2018-11-06T10:59:03Z</time>
      </trkpt>
      <trkpt lat="45.84681" lon="4.77831">
        <ele>566</ele>
        <time>2018-11-06T10:59:07Z</time>
      </trkpt>
      <trkpt lat="45.8468" lon="4.77834">
        <ele>570</ele>
        <time>2018-11-06T10:59:08Z</time>
      </trkpt>
      <trkpt lat="45.84676" lon="4.77843">
        <ele>571</ele>
        <time>2018-11-06T10:59:12Z</time>
      </trkpt>
      <trkpt lat="45.84676" lon="4.77845">
        <ele>571</ele>
        <time>2018-11-06T10:59:13Z</time>
      </trkpt>
      <trkpt lat="45.84671" lon="4.77853">
        <ele>572</ele>
        <time>2018-11-06T10:59:17Z</time>
      </trkpt>
      <trkpt lat="45.8467" lon="4.77855">
        <ele>573</ele>
        <time>2018-11-06T10:59:18Z</time>
      </trkpt>
      <trkpt lat="45.84663" lon="4.77863">
        <ele>564</ele>
        <time>2018-11-06T10:59:23Z</time>
      </trkpt>
      <trkpt lat="45.84661" lon="4.77864">
        <ele>564</ele>
        <time>2018-11-06T10:59:24Z</time>
      </trkpt>
      <trkpt lat="45.84654" lon="4.77871">
        <ele>565</ele>
        <time>2018-11-06T10:59:29Z</time>
      </trkpt>
      <trkpt lat="45.84653" lon="4.77872">
        <ele>565</ele>
        <time>2018-11-06T10:59:30Z</time>
      </trkpt>
      <trkpt lat="45.84646" lon="4.77878">
        <ele>565</ele>
        <time>2018-11-06T10:59:34Z</time>
      </trkpt>
      <trkpt lat="45.84645" lon="4.7788">
        <ele>565</ele>
        <time>2018-11-06T10:59:35Z</time>
      </trkpt>
      <trkpt lat="45.84639" lon="4.77886">
        <ele>565</ele>
        <time>2018-11-06T10:59:39Z</time>
      </trkpt>
      <trkpt lat="45.84638" lon="4.77889">
        <ele>565</ele>
        <time>2018-11-06T10:59:40Z</time>
      </trkpt>
      <trkpt lat="45.84636" lon="4.77899">
        <ele>566</ele>
        <time>2018-11-06T10:59:44Z</time>
      </trkpt>
      <trkpt lat="45.84637" lon="4.77902">
        <ele>566</ele>
        <time>2018-11-06T10:59:45Z</time>
      </trkpt>
      <trkpt lat="45.84638" lon="4.77914">
        <ele>567</ele>
        <time>2018-11-06T10:59:49Z</time>
      </trkpt>
      <trkpt lat="45.84639" lon="4.77917">
        <ele>568</ele>
        <time>2018-11-06T10:59:50Z</time>
      </trkpt>
      <trkpt lat="45.84644" lon="4.77924">
        <ele>578</ele>
        <time>2018-11-06T10:59:53Z</time>
      </trkpt>
      <trkpt lat="45.84646" lon="4.77926">
        <ele>578</ele>
        <time>2018-11-06T10:59:54Z</time>
      </trkpt>
      <trkpt lat="45.84655" lon="4.77928">
        <ele>578</ele>
        <time>2018-11-06T10:59:57Z</time>
      </trkpt>
      <trkpt lat="45.84658" lon="4.77927">
        <ele>578</ele>
        <time>2018-11-06T10:59:58Z</time>
      </trkpt>
      <trkpt lat="45.84666" lon="4.77924">
        <ele>577</ele>
        <time>2018-11-06T11:00:01Z</time>
      </trkpt>
      <trkpt lat="45.84668" lon="4.77923">
        <ele>579</ele>
        <time>2018-11-06T11:00:02Z</time>
      </trkpt>
      <trkpt lat="45.84674" lon="4.77916">
        <ele>577</ele>
        <time>2018-11-06T11:00:05Z</time>
      </trkpt>
      <trkpt lat="45.84676" lon="4.77913">
        <ele>577</ele>
        <time>2018-11-06T11:00:06Z</time>
      </trkpt>
      <trkpt lat="45.8468" lon="4.77905">
        <ele>578</ele>
        <time>2018-11-06T11:00:09Z</time>
      </trkpt>
      <trkpt lat="45.84682" lon="4.77903">
        <ele>578</ele>
        <time>2018-11-06T11:00:10Z</time>
      </trkpt>
      <trkpt lat="45.84685" lon="4.77894">
        <ele>578</ele>
        <time>2018-11-06T11:00:13Z</time>
      </trkpt>
      <trkpt lat="45.84686" lon="4.77891">
        <ele>578</ele>
        <time>2018-11-06T11:00:14Z</time>
      </trkpt>
      <trkpt lat="45.84691" lon="4.77882">
        <ele>578</ele>
        <time>2018-11-06T11:00:18Z</time>
      </trkpt>
      <trkpt lat="45.84692" lon="4.77879">
        <ele>578</ele>
        <time>2018-11-06T11:00:19Z</time>
      </trkpt>
      <trkpt lat="45.84695" lon="4.77869">
        <ele>578</ele>
        <time>2018-11-06T11:00:22Z</time>
      </trkpt>
      <trkpt lat="45.84696" lon="4.77866">
        <ele>577</ele>
        <time>2018-11-06T11:00:23Z</time>
      </trkpt>
      <trkpt lat="45.84699" lon="4.77857">
        <ele>577</ele>
        <time>2018-11-06T11:00:26Z</time>
      </trkpt>
      <trkpt lat="45.847" lon="4.77855">
        <ele>577</ele>
        <time>2018-11-06T11:00:27Z</time>
      </trkpt>
      <trkpt lat="45.84705" lon="4.77844">
        <ele>577</ele>
        <time>2018-11-06T11:00:31Z</time>
      </trkpt>
      <trkpt lat="45.84706" lon="4.77841">
        <ele>577</ele>
        <time>2018-11-06T11:00:32Z</time>
      </trkpt>
      <trkpt lat="45.84711" lon="4.77833">
        <ele>570</ele>
        <time>2018-11-06T11:00:35Z</time>
      </trkpt>
      <trkpt lat="45.84713" lon="4.77831">
        <ele>570</ele>
        <time>2018-11-06T11:00:36Z</time>
      </trkpt>
      <trkpt lat="45.84721" lon="4.77827">
        <ele>571</ele>
        <time>2018-11-06T11:00:39Z</time>
      </trkpt>
      <trkpt lat="45.84723" lon="4.77827">
        <ele>572</ele>
        <time>2018-11-06T11:00:40Z</time>
      </trkpt>
      <trkpt lat="45.84731" lon="4.77829">
        <ele>574</ele>
        <time>2018-11-06T11:00:43Z</time>
      </trkpt>
      <trkpt lat="45.84733" lon="4.77831">
        <ele>575</ele>
        <time>2018-11-06T11:00:44Z</time>
      </trkpt>
      <trkpt lat="45.84738" lon="4.7784">
        <ele>581</ele>
        <time>2018-11-06T11:00:47Z</time>
      </trkpt>
      <trkpt lat="45.84738" lon="4.77843">
        <ele>581</ele>
        <time>2018-11-06T11:00:48Z</time>
      </trkpt>
      <trkpt lat="45.84738" lon="4.77855">
        <ele>581</ele>
        <time>2018-11-06T11:00:51Z</time>
      </trkpt>
      <trkpt lat="45.84737" lon="4.77859">
        <ele>581</ele>
        <time>2018-11-06T11:00:52Z</time>
      </trkpt>
      <trkpt lat="45.84734" lon="4.7787">
        <ele>582</ele>
        <time>2018-11-06T11:00:55Z</time>
      </trkpt>
      <trkpt lat="45.84732" lon="4.77874">
        <ele>582</ele>
        <time>2018-11-06T11:00:56Z</time>
      </trkpt>
      <trkpt lat="45.84726" lon="4.77883">
        <ele>583</ele>
        <time>2018-11-06T11:00:59Z</time>
      </trkpt>
      <trkpt lat="45.84725" lon="4.77885">
        <ele>583</ele>
        <time>2018-11-06T11:01:00Z</time>
      </trkpt>
      <trkpt lat="45.8472" lon="4.77893">
        <ele>583</ele>
        <time>2018-11-06T11:01:03Z</time>
      </trkpt>
      <trkpt lat="45.84718" lon="4.77896">
        <ele>583</ele>
        <time>2018-11-06T11:01:04Z</time>
      </trkpt>
      <trkpt lat="45.84714" lon="4.77904">
        <ele>583</ele>
        <time>2018-11-06T11:01:07Z</time>
      </trkpt>
      <trkpt lat="45.84713" lon="4.77907">
        <ele>583</ele>
        <time>2018-11-06T11:01:08Z</time>
      </trkpt>
      <trkpt lat="45.84708" lon="4.77918">
        <ele>589</ele>
        <time>2018-11-06T11:01:12Z</time>
      </trkpt>
      <trkpt lat="45.84707" lon="4.77921">
        <ele>589</ele>
        <time>2018-11-06T11:01:13Z</time>
      </trkpt>
      <trkpt lat="45.84702" lon="4.77931">
        <ele>588</ele>
        <time>2018-11-06T11:01:17Z</time>
      </trkpt>
      <trkpt lat="45.847" lon="4.77933">
        <ele>588</ele>
        <time>2018-11-06T11:01:18Z</time>
      </trkpt>
      <trkpt lat="45.84695" lon="4.7794">
        <ele>588</ele>
        <time>2018-11-06T11:01:21Z</time>
      </trkpt>
      <trkpt lat="45.84694" lon="4.77942">
        <ele>588</ele>
        <time>2018-11-06T11:01:22Z</time>
      </trkpt>
      <trkpt lat="45.8469" lon="4.77951">
        <ele>588</ele>
        <time>2018-11-06T11:01:25Z</time>
      </trkpt>
      <trkpt lat="45.84689" lon="4.77954">
        <ele>589</ele>
        <time>2018-11-06T11:01:26Z</time>
      </trkpt>
      <trkpt lat="45.84685" lon="4.77965">
        <ele>589</ele>
        <time>2018-11-06T11:01:30Z</time>
      </trkpt>
      <trkpt lat="45.84684" lon="4.77967">
        <ele>589</ele>
        <time>2018-11-06T11:01:31Z</time>
      </trkpt>
      <trkpt lat="45.8468" lon="4.77977">
        <ele>590</ele>
        <time>2018-11-06T11:01:35Z</time>
      </trkpt>
      <trkpt lat="45.84679" lon="4.77978">
        <ele>590</ele>
        <time>2018-11-06T11:01:36Z</time>
      </trkpt>
      <trkpt lat="45.84684" lon="4.77973">
        <ele>590</ele>
        <time>2018-11-06T11:02:03Z</time>
      </trkpt>
      <trkpt lat="45.84686" lon="4.77968">
        <ele>590</ele>
        <time>2018-11-06T11:02:04Z</time>
      </trkpt>
      <trkpt lat="45.84691" lon="4.7796">
        <ele>589</ele>
        <time>2018-11-06T11:02:05Z</time>
      </trkpt>
      <trkpt lat="45.84694" lon="4.77954">
        <ele>589</ele>
        <time>2018-11-06T11:02:06Z</time>
      </trkpt>
      <trkpt lat="45.84698" lon="4.77944">
        <ele>589</ele>
        <time>2018-11-06T11:02:08Z</time>
      </trkpt>
      <trkpt lat="45.84702" lon="4.77938">
        <ele>589</ele>
        <time>2018-11-06T11:02:09Z</time>
      </trkpt>
      <trkpt lat="45.84705" lon="4.7793">
        <ele>589</ele>
        <time>2018-11-06T11:02:10Z</time>
      </trkpt>
      <trkpt lat="45.84709" lon="4.77923">
        <ele>589</ele>
        <time>2018-11-06T11:02:11Z</time>
      </trkpt>
      <trkpt lat="45.84712" lon="4.77916">
        <ele>583</ele>
        <time>2018-11-06T11:02:12Z</time>
      </trkpt>
      <trkpt lat="45.84715" lon="4.77908">
        <ele>583</ele>
        <time>2018-11-06T11:02:13Z</time>
      </trkpt>
      <trkpt lat="45.84719" lon="4.77901">
        <ele>583</ele>
        <time>2018-11-06T11:02:14Z</time>
      </trkpt>
      <trkpt lat="45.84722" lon="4.77893">
        <ele>583</ele>
        <time>2018-11-06T11:02:15Z</time>
      </trkpt>
      <trkpt lat="45.84727" lon="4.77881">
        <ele>582</ele>
        <time>2018-11-06T11:02:16Z</time>
      </trkpt>
      <trkpt lat="45.84731" lon="4.77871">
        <ele>582</ele>
        <time>2018-11-06T11:02:17Z</time>
      </trkpt>
      <trkpt lat="45.84735" lon="4.77864">
        <ele>581</ele>
        <time>2018-11-06T11:02:18Z</time>
      </trkpt>
      <trkpt lat="45.84736" lon="4.77857">
        <ele>581</ele>
        <time>2018-11-06T11:02:19Z</time>
      </trkpt>
      <trkpt lat="45.84736" lon="4.77851">
        <ele>581</ele>
        <time>2018-11-06T11:02:20Z</time>
      </trkpt>
      <trkpt lat="45.84737" lon="4.77842">
        <ele>581</ele>
        <time>2018-11-06T11:02:21Z</time>
      </trkpt>
      <trkpt lat="45.84736" lon="4.77835">
        <ele>581</ele>
        <time>2018-11-06T11:02:22Z</time>
      </trkpt>
      <trkpt lat="45.84731" lon="4.77829">
        <ele>574</ele>
        <time>2018-11-06T11:02:23Z</time>
      </trkpt>
      <trkpt lat="45.84726" lon="4.77825">
        <ele>572</ele>
        <time>2018-11-06T11:02:24Z</time>
      </trkpt>
      <trkpt lat="45.84721" lon="4.77823">
        <ele>571</ele>
        <time>2018-11-06T11:02:25Z</time>
      </trkpt>
      <trkpt lat="45.84715" lon="4.77824">
        <ele>570</ele>
        <time>2018-11-06T11:02:26Z</time>
      </trkpt>
      <trkpt lat="45.8471" lon="4.77828">
        <ele>570</ele>
        <time>2018-11-06T11:02:27Z</time>
      </trkpt>
      <trkpt lat="45.84705" lon="4.77833">
        <ele>569</ele>
        <time>2018-11-06T11:02:28Z</time>
      </trkpt>
      <trkpt lat="45.84702" lon="4.77839">
        <ele>576</ele>
        <time>2018-11-06T11:02:29Z</time>
      </trkpt>
      <trkpt lat="45.84698" lon="4.77847">
        <ele>576</ele>
        <time>2018-11-06T11:02:30Z</time>
      </trkpt>
      <trkpt lat="45.84696" lon="4.77854">
        <ele>576</ele>
        <time>2018-11-06T11:02:31Z</time>
      </trkpt>
      <trkpt lat="45.84693" lon="4.77861">
        <ele>577</ele>
        <time>2018-11-06T11:02:32Z</time>
      </trkpt>
      <trkpt lat="45.84691" lon="4.77869">
        <ele>577</ele>
        <time>2018-11-06T11:02:33Z</time>
      </trkpt>
      <trkpt lat="45.84689" lon="4.77877">
        <ele>578</ele>
        <time>2018-11-06T11:02:34Z</time>
      </trkpt>
      <trkpt lat="45.84685" lon="4.77884">
        <ele>578</ele>
        <time>2018-11-06T11:02:35Z</time>
      </trkpt>
      <trkpt lat="45.84682" lon="4.77892">
        <ele>578</ele>
        <time>2018-11-06T11:02:36Z</time>
      </trkpt>
      <trkpt lat="45.84679" lon="4.77899">
        <ele>578</ele>
        <time>2018-11-06T11:02:37Z</time>
      </trkpt>
      <trkpt lat="45.84676" lon="4.77906">
        <ele>578</ele>
        <time>2018-11-06T11:02:38Z</time>
      </trkpt>
      <trkpt lat="45.84672" lon="4.77912">
        <ele>577</ele>
        <time>2018-11-06T11:02:39Z</time>
      </trkpt>
      <trkpt lat="45.84667" lon="4.77916">
        <ele>576</ele>
        <time>2018-11-06T11:02:40Z</time>
      </trkpt>
      <trkpt lat="45.84662" lon="4.7792">
        <ele>577</ele>
        <time>2018-11-06T11:02:41Z</time>
      </trkpt>
      <trkpt lat="45.84658" lon="4.77922">
        <ele>578</ele>
        <time>2018-11-06T11:02:42Z</time>
      </trkpt>
      <trkpt lat="45.84652" lon="4.77922">
        <ele>578</ele>
        <time>2018-11-06T11:02:43Z</time>
      </trkpt>
      <trkpt lat="45.84648" lon="4.77921">
        <ele>578</ele>
        <time>2018-11-06T11:02:44Z</time>
      </trkpt>
      <trkpt lat="45.84643" lon="4.77917">
        <ele>578</ele>
        <time>2018-11-06T11:02:45Z</time>
      </trkpt>
      <trkpt lat="45.84641" lon="4.77911">
        <ele>568</ele>
        <time>2018-11-06T11:02:46Z</time>
      </trkpt>
      <trkpt lat="45.8464" lon="4.77905">
        <ele>567</ele>
        <time>2018-11-06T11:02:47Z</time>
      </trkpt>
      <trkpt lat="45.84639" lon="4.77898">
        <ele>566</ele>
        <time>2018-11-06T11:02:48Z</time>
      </trkpt>
      <trkpt lat="45.8464" lon="4.77891">
        <ele>566</ele>
        <time>2018-11-06T11:02:49Z</time>
      </trkpt>
      <trkpt lat="45.84644" lon="4.77886">
        <ele>566</ele>
        <time>2018-11-06T11:02:50Z</time>
      </trkpt>
      <trkpt lat="45.84648" lon="4.7788">
        <ele>565</ele>
        <time>2018-11-06T11:02:51Z</time>
      </trkpt>
      <trkpt lat="45.84652" lon="4.77876">
        <ele>565</ele>
        <time>2018-11-06T11:02:52Z</time>
      </trkpt>
      <trkpt lat="45.84657" lon="4.77871">
        <ele>565</ele>
        <time>2018-11-06T11:02:53Z</time>
      </trkpt>
      <trkpt lat="45.84662" lon="4.77867">
        <ele>565</ele>
        <time>2018-11-06T11:02:54Z</time>
      </trkpt>
      <trkpt lat="45.84666" lon="4.77861">
        <ele>564</ele>
        <time>2018-11-06T11:02:55Z</time>
      </trkpt>
      <trkpt lat="45.8467" lon="4.77855">
        <ele>573</ele>
        <time>2018-11-06T11:02:56Z</time>
      </trkpt>
      <trkpt lat="45.84675" lon="4.77849">
        <ele>572</ele>
        <time>2018-11-06T11:02:57Z</time>
      </trkpt>
      <trkpt lat="45.84679" lon="4.77841">
        <ele>571</ele>
        <time>2018-11-06T11:02:58Z</time>
      </trkpt>
      <trkpt lat="45.84683" lon="4.77833">
        <ele>566</ele>
        <time>2018-11-06T11:02:59Z</time>
      </trkpt>
      <trkpt lat="45.84686" lon="4.77826">
        <ele>566</ele>
        <time>2018-11-06T11:03:00Z</time>
      </trkpt>
      <trkpt lat="45.8469" lon="4.77817">
        <ele>567</ele>
        <time>2018-11-06T11:03:01Z</time>
      </trkpt>
      <trkpt lat="45.84692" lon="4.77808">
        <ele>567</ele>
        <time>2018-11-06T11:03:02Z</time>
      </trkpt>
      <trkpt lat="45.84695" lon="4.77797">
        <ele>566</ele>
        <time>2018-11-06T11:03:03Z</time>
      </trkpt>
      <trkpt lat="45.84698" lon="4.77788">
        <ele>566</ele>
        <time>2018-11-06T11:03:04Z</time>
      </trkpt>
      <trkpt lat="45.84701" lon="4.77778">
        <ele>566</ele>
        <time>2018-11-06T11:03:05Z</time>
      </trkpt>
      <trkpt lat="45.84706" lon="4.77767">
        <ele>565</ele>
        <time>2018-11-06T11:03:06Z</time>
      </trkpt>
      <trkpt lat="45.8471" lon="4.77758">
        <ele>565</ele>
        <time>2018-11-06T11:03:07Z</time>
      </trkpt>
      <trkpt lat="45.84713" lon="4.7775">
        <ele>566</ele>
        <time>2018-11-06T11:03:08Z</time>
      </trkpt>
      <trkpt lat="45.84716" lon="4.77742">
        <ele>559</ele>
        <time>2018-11-06T11:03:09Z</time>
      </trkpt>
      <trkpt lat="45.84719" lon="4.77733">
        <ele>559</ele>
        <time>2018-11-06T11:03:10Z</time>
      </trkpt>
      <trkpt lat="45.84721" lon="4.77724">
        <ele>559</ele>
        <time>2018-11-06T11:03:11Z</time>
      </trkpt>
      <trkpt lat="45.84723" lon="4.77716">
        <ele>558</ele>
        <time>2018-11-06T11:03:12Z</time>
      </trkpt>
      <trkpt lat="45.84725" lon="4.77709">
        <ele>558</ele>
        <time>2018-11-06T11:03:13Z</time>
      </trkpt>
      <trkpt lat="45.84727" lon="4.77701">
        <ele>557</ele>
        <time>2018-11-06T11:03:14Z</time>
      </trkpt>
      <trkpt lat="45.84728" lon="4.77693">
        <ele>557</ele>
        <time>2018-11-06T11:03:15Z</time>
      </trkpt>
      <trkpt lat="45.84729" lon="4.77687">
        <ele>556</ele>
        <time>2018-11-06T11:03:16Z</time>
      </trkpt>
      <trkpt lat="45.8473" lon="4.77678">
        <ele>556</ele>
        <time>2018-11-06T11:03:17Z</time>
      </trkpt>
      <trkpt lat="45.84728" lon="4.77671">
        <ele>556</ele>
        <time>2018-11-06T11:03:18Z</time>
      </trkpt>
      <trkpt lat="45.84727" lon="4.77662">
        <ele>552</ele>
        <time>2018-11-06T11:03:19Z</time>
      </trkpt>
      <trkpt lat="45.84724" lon="4.77653">
        <ele>552</ele>
        <time>2018-11-06T11:03:20Z</time>
      </trkpt>
      <trkpt lat="45.84722" lon="4.77645">
        <ele>551</ele>
        <time>2018-11-06T11:03:21Z</time>
      </trkpt>
      <trkpt lat="45.84719" lon="4.77635">
        <ele>551</ele>
        <time>2018-11-06T11:03:22Z</time>
      </trkpt>
      <trkpt lat="45.84716" lon="4.77628">
        <ele>551</ele>
        <time>2018-11-06T11:03:23Z</time>
      </trkpt>
      <trkpt lat="45.84713" lon="4.77619">
        <ele>550</ele>
        <time>2018-11-06T11:03:24Z</time>
      </trkpt>
      <trkpt lat="45.84709" lon="4.7761">
        <ele>550</ele>
        <time>2018-11-06T11:03:25Z</time>
      </trkpt>
      <trkpt lat="45.84706" lon="4.77601">
        <ele>550</ele>
        <time>2018-11-06T11:03:26Z</time>
      </trkpt>
      <trkpt lat="45.84703" lon="4.77593">
        <ele>550</ele>
        <time>2018-11-06T11:03:27Z</time>
      </trkpt>
      <trkpt lat="45.84699" lon="4.77585">
        <ele>550</ele>
        <time>2018-11-06T11:03:28Z</time>
      </trkpt>
      <trkpt lat="45.84696" lon="4.77578">
        <ele>548</ele>
        <time>2018-11-06T11:03:29Z</time>
      </trkpt>
      <trkpt lat="45.84692" lon="4.77573">
        <ele>548</ele>
        <time>2018-11-06T11:03:30Z</time>
      </trkpt>
      <trkpt lat="45.84688" lon="4.77568">
        <ele>549</ele>
        <time>2018-11-06T11:03:31Z</time>
      </trkpt>
      <trkpt lat="45.84684" lon="4.77565">
        <ele>549</ele>
        <time>2018-11-06T11:03:32Z</time>
      </trkpt>
      <trkpt lat="45.84678" lon="4.77562">
        <ele>549</ele>
        <time>2018-11-06T11:03:33Z</time>
      </trkpt>
      <trkpt lat="45.84673" lon="4.7756">
        <ele>549</ele>
        <time>2018-11-06T11:03:34Z</time>
      </trkpt>
      <trkpt lat="45.84668" lon="4.7756">
        <ele>549</ele>
        <time>2018-11-06T11:03:35Z</time>
      </trkpt>
      <trkpt lat="45.84663" lon="4.77558">
        <ele>550</ele>
        <time>2018-11-06T11:03:36Z</time>
      </trkpt>
      <trkpt lat="45.84655" lon="4.77559">
        <ele>550</ele>
        <time>2018-11-06T11:03:37Z</time>
      </trkpt>
      <trkpt lat="45.84649" lon="4.77559">
        <ele>550</ele>
        <time>2018-11-06T11:03:38Z</time>
      </trkpt>
      <trkpt lat="45.84643" lon="4.7756">
        <ele>550</ele>
        <time>2018-11-06T11:03:39Z</time>
      </trkpt>
      <trkpt lat="45.84639" lon="4.77561">
        <ele>550</ele>
        <time>2018-11-06T11:03:40Z</time>
      </trkpt>
      <trkpt lat="45.8463" lon="4.77563">
        <ele>550</ele>
        <time>2018-11-06T11:03:41Z</time>
      </trkpt>
      <trkpt lat="45.84625" lon="4.77562">
        <ele>550</ele>
        <time>2018-11-06T11:03:42Z</time>
      </trkpt>
      <trkpt lat="45.8462" lon="4.77565">
        <ele>550</ele>
        <time>2018-11-06T11:03:43Z</time>
      </trkpt>
      <trkpt lat="45.84615" lon="4.77567">
        <ele>550</ele>
        <time>2018-11-06T11:03:44Z</time>
      </trkpt>
      <trkpt lat="45.84607" lon="4.77568">
        <ele>550</ele>
        <time>2018-11-06T11:03:45Z</time>
      </trkpt>
      <trkpt lat="45.846" lon="4.7757">
        <ele>550</ele>
        <time>2018-11-06T11:03:46Z</time>
      </trkpt>
      <trkpt lat="45.84594" lon="4.77572">
        <ele>550</ele>
        <time>2018-11-06T11:03:47Z</time>
      </trkpt>
      <trkpt lat="45.84587" lon="4.77574">
        <ele>550</ele>
        <time>2018-11-06T11:03:48Z</time>
      </trkpt>
      <trkpt lat="45.84581" lon="4.77577">
        <ele>548</ele>
        <time>2018-11-06T11:03:49Z</time>
      </trkpt>
      <trkpt lat="45.84573" lon="4.77581">
        <ele>548</ele>
        <time>2018-11-06T11:03:50Z</time>
      </trkpt>
      <trkpt lat="45.84566" lon="4.77584">
        <ele>545</ele>
        <time>2018-11-06T11:03:51Z</time>
      </trkpt>
      <trkpt lat="45.8456" lon="4.7759">
        <ele>544</ele>
        <time>2018-11-06T11:03:52Z</time>
      </trkpt>
      <trkpt lat="45.84553" lon="4.77592">
        <ele>543</ele>
        <time>2018-11-06T11:03:53Z</time>
      </trkpt>
      <trkpt lat="45.84548" lon="4.77594">
        <ele>542</ele>
        <time>2018-11-06T11:03:54Z</time>
      </trkpt>
      <trkpt lat="45.84543" lon="4.77597">
        <ele>542</ele>
        <time>2018-11-06T11:03:55Z</time>
      </trkpt>
      <trkpt lat="45.84539" lon="4.776">
        <ele>541</ele>
        <time>2018-11-06T11:03:56Z</time>
      </trkpt>
      <trkpt lat="45.84535" lon="4.77606">
        <ele>541</ele>
        <time>2018-11-06T11:03:57Z</time>
      </trkpt>
      <trkpt lat="45.84531" lon="4.77613">
        <ele>540</ele>
        <time>2018-11-06T11:03:58Z</time>
      </trkpt>
      <trkpt lat="45.84527" lon="4.77621">
        <ele>540</ele>
        <time>2018-11-06T11:03:59Z</time>
      </trkpt>
      <trkpt lat="45.84525" lon="4.77631">
        <ele>539</ele>
        <time>2018-11-06T11:04:00Z</time>
      </trkpt>
      <trkpt lat="45.84524" lon="4.7764">
        <ele>539</ele>
        <time>2018-11-06T11:04:01Z</time>
      </trkpt>
      <trkpt lat="45.84524" lon="4.7765">
        <ele>538</ele>
        <time>2018-11-06T11:04:02Z</time>
      </trkpt>
      <trkpt lat="45.84525" lon="4.77659">
        <ele>538</ele>
        <time>2018-11-06T11:04:03Z</time>
      </trkpt>
      <trkpt lat="45.84525" lon="4.7767">
        <ele>535</ele>
        <time>2018-11-06T11:04:04Z</time>
      </trkpt>
      <trkpt lat="45.84527" lon="4.7768">
        <ele>535</ele>
        <time>2018-11-06T11:04:05Z</time>
      </trkpt>
      <trkpt lat="45.84527" lon="4.77691">
        <ele>535</ele>
        <time>2018-11-06T11:04:06Z</time>
      </trkpt>
      <trkpt lat="45.84526" lon="4.777">
        <ele>535</ele>
        <time>2018-11-06T11:04:07Z</time>
      </trkpt>
      <trkpt lat="45.84524" lon="4.7771">
        <ele>535</ele>
        <time>2018-11-06T11:04:08Z</time>
      </trkpt>
      <trkpt lat="45.84521" lon="4.7772">
        <ele>534</ele>
        <time>2018-11-06T11:04:09Z</time>
      </trkpt>
      <trkpt lat="45.84518" lon="4.77731">
        <ele>533</ele>
        <time>2018-11-06T11:04:10Z</time>
      </trkpt>
      <trkpt lat="45.84513" lon="4.7774">
        <ele>532</ele>
        <time>2018-11-06T11:04:11Z</time>
      </trkpt>
      <trkpt lat="45.84509" lon="4.77749">
        <ele>530</ele>
        <time>2018-11-06T11:04:12Z</time>
      </trkpt>
      <trkpt lat="45.84504" lon="4.77756">
        <ele>530</ele>
        <time>2018-11-06T11:04:13Z</time>
      </trkpt>
      <trkpt lat="45.84498" lon="4.77762">
        <ele>528</ele>
        <time>2018-11-06T11:04:14Z</time>
      </trkpt>
      <trkpt lat="45.84492" lon="4.77768">
        <ele>528</ele>
        <time>2018-11-06T11:04:15Z</time>
      </trkpt>
      <trkpt lat="45.84485" lon="4.77773">
        <ele>527</ele>
        <time>2018-11-06T11:04:16Z</time>
      </trkpt>
      <trkpt lat="45.84478" lon="4.77778">
        <ele>527</ele>
        <time>2018-11-06T11:04:17Z</time>
      </trkpt>
      <trkpt lat="45.84471" lon="4.77782">
        <ele>527</ele>
        <time>2018-11-06T11:04:18Z</time>
      </trkpt>
      <trkpt lat="45.84464" lon="4.77786">
        <ele>527</ele>
        <time>2018-11-06T11:04:19Z</time>
      </trkpt>
      <trkpt lat="45.84458" lon="4.77791">
        <ele>527</ele>
        <time>2018-11-06T11:04:20Z</time>
      </trkpt>
      <trkpt lat="45.84451" lon="4.77795">
        <ele>526</ele>
        <time>2018-11-06T11:04:21Z</time>
      </trkpt>
      <trkpt lat="45.84446" lon="4.778">
        <ele>526</ele>
        <time>2018-11-06T11:04:22Z</time>
      </trkpt>
      <trkpt lat="45.8444" lon="4.77805">
        <ele>526</ele>
        <time>2018-11-06T11:04:23Z</time>
      </trkpt>
      <trkpt lat="45.84434" lon="4.7781">
        <ele>526</ele>
        <time>2018-11-06T11:04:24Z</time>
      </trkpt>
      <trkpt lat="45.84428" lon="4.77814">
        <ele>525</ele>
        <time>2018-11-06T11:04:25Z</time>
      </trkpt>
      <trkpt lat="45.84422" lon="4.77819">
        <ele>525</ele>
        <time>2018-11-06T11:04:26Z</time>
      </trkpt>
      <trkpt lat="45.84417" lon="4.77825">
        <ele>525</ele>
        <time>2018-11-06T11:04:27Z</time>
      </trkpt>
      <trkpt lat="45.84411" lon="4.77831">
        <ele>522</ele>
        <time>2018-11-06T11:04:28Z</time>
      </trkpt>
      <trkpt lat="45.84405" lon="4.77838">
        <ele>523</ele>
        <time>2018-11-06T11:04:29Z</time>
      </trkpt>
      <trkpt lat="45.844" lon="4.77844">
        <ele>523</ele>
        <time>2018-11-06T11:04:30Z</time>
      </trkpt>
      <trkpt lat="45.84394" lon="4.77852">
        <ele>523</ele>
        <time>2018-11-06T11:04:31Z</time>
      </trkpt>
      <trkpt lat="45.8439" lon="4.77858">
        <ele>523</ele>
        <time>2018-11-06T11:04:32Z</time>
      </trkpt>
      <trkpt lat="45.84384" lon="4.77864">
        <ele>523</ele>
        <time>2018-11-06T11:04:33Z</time>
      </trkpt>
      <trkpt lat="45.8438" lon="4.77869">
        <ele>523</ele>
        <time>2018-11-06T11:04:34Z</time>
      </trkpt>
      <trkpt lat="45.84375" lon="4.77873">
        <ele>523</ele>
        <time>2018-11-06T11:04:35Z</time>
      </trkpt>
      <trkpt lat="45.84371" lon="4.77878">
        <ele>523</ele>
        <time>2018-11-06T11:04:36Z</time>
      </trkpt>
      <trkpt lat="45.84362" lon="4.77882">
        <ele>522</ele>
        <time>2018-11-06T11:04:38Z</time>
      </trkpt>
      <trkpt lat="45.84357" lon="4.77882">
        <ele>522</ele>
        <time>2018-11-06T11:04:39Z</time>
      </trkpt>
      <trkpt lat="45.84352" lon="4.77881">
        <ele>521</ele>
        <time>2018-11-06T11:04:40Z</time>
      </trkpt>
      <trkpt lat="45.84347" lon="4.77877">
        <ele>521</ele>
        <time>2018-11-06T11:04:41Z</time>
      </trkpt>
      <trkpt lat="45.84343" lon="4.77872">
        <ele>520</ele>
        <time>2018-11-06T11:04:42Z</time>
      </trkpt>
      <trkpt lat="45.8434" lon="4.77867">
        <ele>519</ele>
        <time>2018-11-06T11:04:43Z</time>
      </trkpt>
      <trkpt lat="45.84338" lon="4.77859">
        <ele>517</ele>
        <time>2018-11-06T11:04:44Z</time>
      </trkpt>
      <trkpt lat="45.84339" lon="4.77852">
        <ele>516</ele>
        <time>2018-11-06T11:04:45Z</time>
      </trkpt>
      <trkpt lat="45.84342" lon="4.77846">
        <ele>515</ele>
        <time>2018-11-06T11:04:46Z</time>
      </trkpt>
      <trkpt lat="45.84345" lon="4.7784">
        <ele>514</ele>
        <time>2018-11-06T11:04:47Z</time>
      </trkpt>
      <trkpt lat="45.84348" lon="4.77834">
        <ele>514</ele>
        <time>2018-11-06T11:04:48Z</time>
      </trkpt>
      <trkpt lat="45.84352" lon="4.77828">
        <ele>512</ele>
        <time>2018-11-06T11:04:49Z</time>
      </trkpt>
      <trkpt lat="45.84357" lon="4.77824">
        <ele>513</ele>
        <time>2018-11-06T11:04:50Z</time>
      </trkpt>
      <trkpt lat="45.84362" lon="4.77819">
        <ele>514</ele>
        <time>2018-11-06T11:04:51Z</time>
      </trkpt>
      <trkpt lat="45.84367" lon="4.77815">
        <ele>514</ele>
        <time>2018-11-06T11:04:52Z</time>
      </trkpt>
      <trkpt lat="45.84373" lon="4.77811">
        <ele>515</ele>
        <time>2018-11-06T11:04:53Z</time>
      </trkpt>
      <trkpt lat="45.84378" lon="4.77805">
        <ele>515</ele>
        <time>2018-11-06T11:04:54Z</time>
      </trkpt>
      <trkpt lat="45.84383" lon="4.77801">
        <ele>516</ele>
        <time>2018-11-06T11:04:55Z</time>
      </trkpt>
      <trkpt lat="45.84387" lon="4.77795">
        <ele>516</ele>
        <time>2018-11-06T11:04:56Z</time>
      </trkpt>
      <trkpt lat="45.84391" lon="4.77787">
        <ele>516</ele>
        <time>2018-11-06T11:04:57Z</time>
      </trkpt>
      <trkpt lat="45.84394" lon="4.77779">
        <ele>516</ele>
        <time>2018-11-06T11:04:58Z</time>
      </trkpt>
      <trkpt lat="45.84395" lon="4.77771">
        <ele>516</ele>
        <time>2018-11-06T11:04:59Z</time>
      </trkpt>
      <trkpt lat="45.84395" lon="4.77762">
        <ele>516</ele>
        <time>2018-11-06T11:05:00Z</time>
      </trkpt>
      <trkpt lat="45.84394" lon="4.77754">
        <ele>516</ele>
        <time>2018-11-06T11:05:01Z</time>
      </trkpt>
      <trkpt lat="45.84392" lon="4.77746">
        <ele>517</ele>
        <time>2018-11-06T11:05:02Z</time>
      </trkpt>
      <trkpt lat="45.84388" lon="4.77737">
        <ele>517</ele>
        <time>2018-11-06T11:05:03Z</time>
      </trkpt>
      <trkpt lat="45.84385" lon="4.7773">
        <ele>517</ele>
        <time>2018-11-06T11:05:04Z</time>
      </trkpt>
      <trkpt lat="45.8438" lon="4.77724">
        <ele>516</ele>
        <time>2018-11-06T11:05:05Z</time>
      </trkpt>
      <trkpt lat="45.84375" lon="4.77718">
        <ele>516</ele>
        <time>2018-11-06T11:05:06Z</time>
      </trkpt>
      <trkpt lat="45.84371" lon="4.77712">
        <ele>516</ele>
        <time>2018-11-06T11:05:07Z</time>
      </trkpt>
      <trkpt lat="45.84365" lon="4.77706">
        <ele>516</ele>
        <time>2018-11-06T11:05:08Z</time>
      </trkpt>
      <trkpt lat="45.84358" lon="4.77702">
        <ele>516</ele>
        <time>2018-11-06T11:05:09Z</time>
      </trkpt>
      <trkpt lat="45.84352" lon="4.77698">
        <ele>516</ele>
        <time>2018-11-06T11:05:10Z</time>
      </trkpt>
      <trkpt lat="45.84345" lon="4.77693">
        <ele>515</ele>
        <time>2018-11-06T11:05:11Z</time>
      </trkpt>
      <trkpt lat="45.84337" lon="4.7769">
        <ele>515</ele>
        <time>2018-11-06T11:05:12Z</time>
      </trkpt>
      <trkpt lat="45.84331" lon="4.77686">
        <ele>511</ele>
        <time>2018-11-06T11:05:13Z</time>
      </trkpt>
      <trkpt lat="45.84325" lon="4.77683">
        <ele>511</ele>
        <time>2018-11-06T11:05:14Z</time>
      </trkpt>
      <trkpt lat="45.84316" lon="4.77679">
        <ele>511</ele>
        <time>2018-11-06T11:05:15Z</time>
      </trkpt>
      <trkpt lat="45.84309" lon="4.77677">
        <ele>510</ele>
        <time>2018-11-06T11:05:16Z</time>
      </trkpt>
      <trkpt lat="45.84301" lon="4.77674">
        <ele>509</ele>
        <time>2018-11-06T11:05:17Z</time>
      </trkpt>
      <trkpt lat="45.84292" lon="4.7767">
        <ele>509</ele>
        <time>2018-11-06T11:05:18Z</time>
      </trkpt>
      <trkpt lat="45.84284" lon="4.7767">
        <ele>509</ele>
        <time>2018-11-06T11:05:19Z</time>
      </trkpt>
      <trkpt lat="45.84276" lon="4.7767">
        <ele>508</ele>
        <time>2018-11-06T11:05:20Z</time>
      </trkpt>
      <trkpt lat="45.84269" lon="4.77671">
        <ele>508</ele>
        <time>2018-11-06T11:05:21Z</time>
      </trkpt>
      <trkpt lat="45.84262" lon="4.77673">
        <ele>508</ele>
        <time>2018-11-06T11:05:22Z</time>
      </trkpt>
      <trkpt lat="45.84255" lon="4.77673">
        <ele>508</ele>
        <time>2018-11-06T11:05:23Z</time>
      </trkpt>
      <trkpt lat="45.84248" lon="4.77675">
        <ele>506</ele>
        <time>2018-11-06T11:05:24Z</time>
      </trkpt>
      <trkpt lat="45.84241" lon="4.77676">
        <ele>505</ele>
        <time>2018-11-06T11:05:25Z</time>
      </trkpt>
      <trkpt lat="45.84233" lon="4.77677">
        <ele>504</ele>
        <time>2018-11-06T11:05:26Z</time>
      </trkpt>
      <trkpt lat="45.84226" lon="4.77677">
        <ele>503</ele>
        <time>2018-11-06T11:05:27Z</time>
      </trkpt>
      <trkpt lat="45.84219" lon="4.77676">
        <ele>503</ele>
        <time>2018-11-06T11:05:28Z</time>
      </trkpt>
      <trkpt lat="45.84213" lon="4.77674">
        <ele>502</ele>
        <time>2018-11-06T11:05:29Z</time>
      </trkpt>
      <trkpt lat="45.84207" lon="4.77669">
        <ele>502</ele>
        <time>2018-11-06T11:05:30Z</time>
      </trkpt>
      <trkpt lat="45.84201" lon="4.77666">
        <ele>508</ele>
        <time>2018-11-06T11:05:31Z</time>
      </trkpt>
      <trkpt lat="45.84196" lon="4.7766">
        <ele>508</ele>
        <time>2018-11-06T11:05:32Z</time>
      </trkpt>
      <trkpt lat="45.84191" lon="4.77655">
        <ele>508</ele>
        <time>2018-11-06T11:05:33Z</time>
      </trkpt>
      <trkpt lat="45.84184" lon="4.77654">
        <ele>507</ele>
        <time>2018-11-06T11:05:35Z</time>
      </trkpt>
      <trkpt lat="45.8418" lon="4.77652">
        <ele>507</ele>
        <time>2018-11-06T11:05:36Z</time>
      </trkpt>
      <trkpt lat="45.84175" lon="4.77653">
        <ele>506</ele>
        <time>2018-11-06T11:05:37Z</time>
      </trkpt>
      <trkpt lat="45.84171" lon="4.77657">
        <ele>505</ele>
        <time>2018-11-06T11:05:38Z</time>
      </trkpt>
      <trkpt lat="45.84168" lon="4.77663">
        <ele>503</ele>
        <time>2018-11-06T11:05:39Z</time>
      </trkpt>
      <trkpt lat="45.84165" lon="4.77669">
        <ele>502</ele>
        <time>2018-11-06T11:05:40Z</time>
      </trkpt>
      <trkpt lat="45.84164" lon="4.77676">
        <ele>501</ele>
        <time>2018-11-06T11:05:41Z</time>
      </trkpt>
      <trkpt lat="45.84163" lon="4.77683">
        <ele>500</ele>
        <time>2018-11-06T11:05:42Z</time>
      </trkpt>
      <trkpt lat="45.84163" lon="4.7769">
        <ele>499</ele>
        <time>2018-11-06T11:05:43Z</time>
      </trkpt>
      <trkpt lat="45.84165" lon="4.77696">
        <ele>498</ele>
        <time>2018-11-06T11:05:44Z</time>
      </trkpt>
      <trkpt lat="45.84168" lon="4.777">
        <ele>500</ele>
        <time>2018-11-06T11:05:45Z</time>
      </trkpt>
      <trkpt lat="45.84172" lon="4.77705">
        <ele>500</ele>
        <time>2018-11-06T11:05:46Z</time>
      </trkpt>
      <trkpt lat="45.84176" lon="4.77707">
        <ele>499</ele>
        <time>2018-11-06T11:05:47Z</time>
      </trkpt>
      <trkpt lat="45.84182" lon="4.77709">
        <ele>499</ele>
        <time>2018-11-06T11:05:48Z</time>
      </trkpt>
      <trkpt lat="45.84188" lon="4.7771">
        <ele>500</ele>
        <time>2018-11-06T11:05:49Z</time>
      </trkpt>
      <trkpt lat="45.84193" lon="4.77711">
        <ele>500</ele>
        <time>2018-11-06T11:05:50Z</time>
      </trkpt>
      <trkpt lat="45.842" lon="4.77714">
        <ele>500</ele>
        <time>2018-11-06T11:05:51Z</time>
      </trkpt>
      <trkpt lat="45.84205" lon="4.77717">
        <ele>500</ele>
        <time>2018-11-06T11:05:52Z</time>
      </trkpt>
      <trkpt lat="45.84212" lon="4.77721">
        <ele>500</ele>
        <time>2018-11-06T11:05:53Z</time>
      </trkpt>
      <trkpt lat="45.84217" lon="4.77726">
        <ele>500</ele>
        <time>2018-11-06T11:05:54Z</time>
      </trkpt>
      <trkpt lat="45.84221" lon="4.77732">
        <ele>500</ele>
        <time>2018-11-06T11:05:55Z</time>
      </trkpt>
      <trkpt lat="45.84226" lon="4.7774">
        <ele>500</ele>
        <time>2018-11-06T11:05:56Z</time>
      </trkpt>
      <trkpt lat="45.84229" lon="4.77747">
        <ele>500</ele>
        <time>2018-11-06T11:05:57Z</time>
      </trkpt>
      <trkpt lat="45.8423" lon="4.77757">
        <ele>496</ele>
        <time>2018-11-06T11:05:58Z</time>
      </trkpt>
      <trkpt lat="45.84232" lon="4.77767">
        <ele>496</ele>
        <time>2018-11-06T11:05:59Z</time>
      </trkpt>
      <trkpt lat="45.8423" lon="4.77777">
        <ele>495</ele>
        <time>2018-11-06T11:06:00Z</time>
      </trkpt>
      <trkpt lat="45.84229" lon="4.77785">
        <ele>495</ele>
        <time>2018-11-06T11:06:01Z</time>
      </trkpt>
      <trkpt lat="45.84225" lon="4.77794">
        <ele>494</ele>
        <time>2018-11-06T11:06:02Z</time>
      </trkpt>
      <trkpt lat="45.84221" lon="4.77802">
        <ele>494</ele>
        <time>2018-11-06T11:06:03Z</time>
      </trkpt>
      <trkpt lat="45.84216" lon="4.77809">
        <ele>493</ele>
        <time>2018-11-06T11:06:04Z</time>
      </trkpt>
      <trkpt lat="45.84212" lon="4.77813">
        <ele>493</ele>
        <time>2018-11-06T11:06:05Z</time>
      </trkpt>
      <trkpt lat="45.84206" lon="4.7782">
        <ele>492</ele>
        <time>2018-11-06T11:06:06Z</time>
      </trkpt>
      <trkpt lat="45.84201" lon="4.77826">
        <ele>492</ele>
        <time>2018-11-06T11:06:07Z</time>
      </trkpt>
      <trkpt lat="45.84195" lon="4.77832">
        <ele>491</ele>
        <time>2018-11-06T11:06:08Z</time>
      </trkpt>
      <trkpt lat="45.8419" lon="4.77839">
        <ele>491</ele>
        <time>2018-11-06T11:06:09Z</time>
      </trkpt>
      <trkpt lat="45.84183" lon="4.77847">
        <ele>490</ele>
        <time>2018-11-06T11:06:10Z</time>
      </trkpt>
      <trkpt lat="45.84179" lon="4.77856">
        <ele>491</ele>
        <time>2018-11-06T11:06:11Z</time>
      </trkpt>
      <trkpt lat="45.84174" lon="4.77864">
        <ele>491</ele>
        <time>2018-11-06T11:06:12Z</time>
      </trkpt>
      <trkpt lat="45.84169" lon="4.77872">
        <ele>492</ele>
        <time>2018-11-06T11:06:13Z</time>
      </trkpt>
      <trkpt lat="45.84165" lon="4.77879">
        <ele>484</ele>
        <time>2018-11-06T11:06:14Z</time>
      </trkpt>
      <trkpt lat="45.84161" lon="4.77886">
        <ele>485</ele>
        <time>2018-11-06T11:06:15Z</time>
      </trkpt>
      <trkpt lat="45.84157" lon="4.77894">
        <ele>485</ele>
        <time>2018-11-06T11:06:16Z</time>
      </trkpt>
      <trkpt lat="45.84154" lon="4.77902">
        <ele>486</ele>
        <time>2018-11-06T11:06:17Z</time>
      </trkpt>
      <trkpt lat="45.8415" lon="4.77909">
        <ele>486</ele>
        <time>2018-11-06T11:06:18Z</time>
      </trkpt>
      <trkpt lat="45.84145" lon="4.77916">
        <ele>486</ele>
        <time>2018-11-06T11:06:19Z</time>
      </trkpt>
      <trkpt lat="45.84141" lon="4.77922">
        <ele>492</ele>
        <time>2018-11-06T11:06:20Z</time>
      </trkpt>
      <trkpt lat="45.84137" lon="4.77928">
        <ele>492</ele>
        <time>2018-11-06T11:06:21Z</time>
      </trkpt>
      <trkpt lat="45.84132" lon="4.77934">
        <ele>493</ele>
        <time>2018-11-06T11:06:22Z</time>
      </trkpt>
      <trkpt lat="45.84128" lon="4.77941">
        <ele>493</ele>
        <time>2018-11-06T11:06:23Z</time>
      </trkpt>
      <trkpt lat="45.84123" lon="4.77944">
        <ele>493</ele>
        <time>2018-11-06T11:06:24Z</time>
      </trkpt>
      <trkpt lat="45.84117" lon="4.77946">
        <ele>492</ele>
        <time>2018-11-06T11:06:25Z</time>
      </trkpt>
      <trkpt lat="45.84112" lon="4.77947">
        <ele>492</ele>
        <time>2018-11-06T11:06:26Z</time>
      </trkpt>
      <trkpt lat="45.84106" lon="4.77939">
        <ele>490</ele>
        <time>2018-11-06T11:06:27Z</time>
      </trkpt>
      <trkpt lat="45.84103" lon="4.77933">
        <ele>489</ele>
        <time>2018-11-06T11:06:28Z</time>
      </trkpt>
      <trkpt lat="45.84099" lon="4.77926">
        <ele>487</ele>
        <time>2018-11-06T11:06:29Z</time>
      </trkpt>
      <trkpt lat="45.84096" lon="4.77917">
        <ele>485</ele>
        <time>2018-11-06T11:06:30Z</time>
      </trkpt>
      <trkpt lat="45.84096" lon="4.77908">
        <ele>480</ele>
        <time>2018-11-06T11:06:31Z</time>
      </trkpt>
      <trkpt lat="45.84095" lon="4.77899">
        <ele>480</ele>
        <time>2018-11-06T11:06:32Z</time>
      </trkpt>
      <trkpt lat="45.84099" lon="4.77891">
        <ele>481</ele>
        <time>2018-11-06T11:06:33Z</time>
      </trkpt>
      <trkpt lat="45.84105" lon="4.77881">
        <ele>481</ele>
        <time>2018-11-06T11:06:34Z</time>
      </trkpt>
      <trkpt lat="45.84108" lon="4.77872">
        <ele>480</ele>
        <time>2018-11-06T11:06:35Z</time>
      </trkpt>
      <trkpt lat="45.84112" lon="4.77864">
        <ele>480</ele>
        <time>2018-11-06T11:06:36Z</time>
      </trkpt>
      <trkpt lat="45.84117" lon="4.77855">
        <ele>480</ele>
        <time>2018-11-06T11:06:37Z</time>
      </trkpt>
      <trkpt lat="45.84121" lon="4.77845">
        <ele>480</ele>
        <time>2018-11-06T11:06:38Z</time>
      </trkpt>
      <trkpt lat="45.84124" lon="4.77837">
        <ele>480</ele>
        <time>2018-11-06T11:06:39Z</time>
      </trkpt>
      <trkpt lat="45.84125" lon="4.77828">
        <ele>482</ele>
        <time>2018-11-06T11:06:40Z</time>
      </trkpt>
      <trkpt lat="45.84128" lon="4.7782">
        <ele>483</ele>
        <time>2018-11-06T11:06:41Z</time>
      </trkpt>
      <trkpt lat="45.8413" lon="4.77811">
        <ele>484</ele>
        <time>2018-11-06T11:06:42Z</time>
      </trkpt>
      <trkpt lat="45.84131" lon="4.778">
        <ele>484</ele>
        <time>2018-11-06T11:06:43Z</time>
      </trkpt>
      <trkpt lat="45.84131" lon="4.77791">
        <ele>485</ele>
        <time>2018-11-06T11:06:44Z</time>
      </trkpt>
      <trkpt lat="45.84129" lon="4.77782">
        <ele>485</ele>
        <time>2018-11-06T11:06:45Z</time>
      </trkpt>
      <trkpt lat="45.84127" lon="4.77776">
        <ele>486</ele>
        <time>2018-11-06T11:06:46Z</time>
      </trkpt>
      <trkpt lat="45.84126" lon="4.77768">
        <ele>486</ele>
        <time>2018-11-06T11:06:47Z</time>
      </trkpt>
      <trkpt lat="45.8412" lon="4.77763">
        <ele>486</ele>
        <time>2018-11-06T11:06:48Z</time>
      </trkpt>
      <trkpt lat="45.84117" lon="4.77756">
        <ele>486</ele>
        <time>2018-11-06T11:06:49Z</time>
      </trkpt>
      <trkpt lat="45.84112" lon="4.77751">
        <ele>487</ele>
        <time>2018-11-06T11:06:50Z</time>
      </trkpt>
      <trkpt lat="45.84107" lon="4.7775">
        <ele>494</ele>
        <time>2018-11-06T11:06:51Z</time>
      </trkpt>
      <trkpt lat="45.84102" lon="4.7775">
        <ele>493</ele>
        <time>2018-11-06T11:06:52Z</time>
      </trkpt>
      <trkpt lat="45.84098" lon="4.77751">
        <ele>487</ele>
        <time>2018-11-06T11:06:53Z</time>
      </trkpt>
      <trkpt lat="45.84091" lon="4.77755">
        <ele>487</ele>
        <time>2018-11-06T11:06:54Z</time>
      </trkpt>
      <trkpt lat="45.84087" lon="4.7776">
        <ele>487</ele>
        <time>2018-11-06T11:06:55Z</time>
      </trkpt>
      <trkpt lat="45.84082" lon="4.77767">
        <ele>482</ele>
        <time>2018-11-06T11:06:56Z</time>
      </trkpt>
      <trkpt lat="45.84079" lon="4.77775">
        <ele>480</ele>
        <time>2018-11-06T11:06:57Z</time>
      </trkpt>
      <trkpt lat="45.84078" lon="4.77785">
        <ele>478</ele>
        <time>2018-11-06T11:06:58Z</time>
      </trkpt>
      <trkpt lat="45.84074" lon="4.77794">
        <ele>477</ele>
        <time>2018-11-06T11:06:59Z</time>
      </trkpt>
      <trkpt lat="45.84073" lon="4.77802">
        <ele>476</ele>
        <time>2018-11-06T11:07:00Z</time>
      </trkpt>
      <trkpt lat="45.84071" lon="4.77813">
        <ele>474</ele>
        <time>2018-11-06T11:07:01Z</time>
      </trkpt>
      <trkpt lat="45.84069" lon="4.77825">
        <ele>474</ele>
        <time>2018-11-06T11:07:02Z</time>
      </trkpt>
      <trkpt lat="45.84066" lon="4.77835">
        <ele>471</ele>
        <time>2018-11-06T11:07:03Z</time>
      </trkpt>
      <trkpt lat="45.84063" lon="4.77845">
        <ele>470</ele>
        <time>2018-11-06T11:07:04Z</time>
      </trkpt>
      <trkpt lat="45.8406" lon="4.77855">
        <ele>470</ele>
        <time>2018-11-06T11:07:05Z</time>
      </trkpt>
      <trkpt lat="45.84057" lon="4.77865">
        <ele>470</ele>
        <time>2018-11-06T11:07:06Z</time>
      </trkpt>
      <trkpt lat="45.84055" lon="4.77873">
        <ele>471</ele>
        <time>2018-11-06T11:07:07Z</time>
      </trkpt>
      <trkpt lat="45.84053" lon="4.77882">
        <ele>471</ele>
        <time>2018-11-06T11:07:08Z</time>
      </trkpt>
      <trkpt lat="45.8405" lon="4.7789">
        <ele>471</ele>
        <time>2018-11-06T11:07:09Z</time>
      </trkpt>
      <trkpt lat="45.84046" lon="4.77896">
        <ele>471</ele>
        <time>2018-11-06T11:07:10Z</time>
      </trkpt>
      <trkpt lat="45.84042" lon="4.77902">
        <ele>471</ele>
        <time>2018-11-06T11:07:11Z</time>
      </trkpt>
      <trkpt lat="45.84039" lon="4.77906">
        <ele>470</ele>
        <time>2018-11-06T11:07:12Z</time>
      </trkpt>
      <trkpt lat="45.84034" lon="4.77908">
        <ele>470</ele>
        <time>2018-11-06T11:07:13Z</time>
      </trkpt>
      <trkpt lat="45.84029" lon="4.77909">
        <ele>469</ele>
        <time>2018-11-06T11:07:14Z</time>
      </trkpt>
      <trkpt lat="45.84023" lon="4.77908">
        <ele>469</ele>
        <time>2018-11-06T11:07:15Z</time>
      </trkpt>
      <trkpt lat="45.84018" lon="4.77905">
        <ele>468</ele>
        <time>2018-11-06T11:07:16Z</time>
      </trkpt>
      <trkpt lat="45.84016" lon="4.77901">
        <ele>468</ele>
        <time>2018-11-06T11:07:17Z</time>
      </trkpt>
      <trkpt lat="45.84013" lon="4.77894">
        <ele>468</ele>
        <time>2018-11-06T11:07:18Z</time>
      </trkpt>
      <trkpt lat="45.84011" lon="4.77887">
        <ele>468</ele>
        <time>2018-11-06T11:07:19Z</time>
      </trkpt>
      <trkpt lat="45.8401" lon="4.77879">
        <ele>468</ele>
        <time>2018-11-06T11:07:20Z</time>
      </trkpt>
      <trkpt lat="45.84011" lon="4.77872">
        <ele>468</ele>
        <time>2018-11-06T11:07:21Z</time>
      </trkpt>
      <trkpt lat="45.84014" lon="4.77865">
        <ele>468</ele>
        <time>2018-11-06T11:07:22Z</time>
      </trkpt>
      <trkpt lat="45.84017" lon="4.77858">
        <ele>467</ele>
        <time>2018-11-06T11:07:23Z</time>
      </trkpt>
      <trkpt lat="45.84022" lon="4.7785">
        <ele>467</ele>
        <time>2018-11-06T11:07:24Z</time>
      </trkpt>
      <trkpt lat="45.84024" lon="4.77844">
        <ele>467</ele>
        <time>2018-11-06T11:07:25Z</time>
      </trkpt>
      <trkpt lat="45.84028" lon="4.77837">
        <ele>467</ele>
        <time>2018-11-06T11:07:26Z</time>
      </trkpt>
      <trkpt lat="45.8403" lon="4.7783">
        <ele>471</ele>
        <time>2018-11-06T11:07:27Z</time>
      </trkpt>
      <trkpt lat="45.84029" lon="4.77823">
        <ele>471</ele>
        <time>2018-11-06T11:07:28Z</time>
      </trkpt>
      <trkpt lat="45.84028" lon="4.77816">
        <ele>472</ele>
        <time>2018-11-06T11:07:29Z</time>
      </trkpt>
      <trkpt lat="45.84025" lon="4.77808">
        <ele>473</ele>
        <time>2018-11-06T11:07:30Z</time>
      </trkpt>
      <trkpt lat="45.84022" lon="4.77802">
        <ele>473</ele>
        <time>2018-11-06T11:07:31Z</time>
      </trkpt>
      <trkpt lat="45.84018" lon="4.77798">
        <ele>473</ele>
        <time>2018-11-06T11:07:32Z</time>
      </trkpt>
      <trkpt lat="45.8401" lon="4.77795">
        <ele>473</ele>
        <time>2018-11-06T11:07:34Z</time>
      </trkpt>
      <trkpt lat="45.84004" lon="4.77796">
        <ele>473</ele>
        <time>2018-11-06T11:07:35Z</time>
      </trkpt>
      <trkpt lat="45.83997" lon="4.77795">
        <ele>466</ele>
        <time>2018-11-06T11:07:36Z</time>
      </trkpt>
      <trkpt lat="45.83991" lon="4.77797">
        <ele>465</ele>
        <time>2018-11-06T11:07:37Z</time>
      </trkpt>
      <trkpt lat="45.83983" lon="4.77795">
        <ele>465</ele>
        <time>2018-11-06T11:07:38Z</time>
      </trkpt>
      <trkpt lat="45.83975" lon="4.77794">
        <ele>465</ele>
        <time>2018-11-06T11:07:39Z</time>
      </trkpt>
      <trkpt lat="45.83967" lon="4.77795">
        <ele>464</ele>
        <time>2018-11-06T11:07:40Z</time>
      </trkpt>
      <trkpt lat="45.83959" lon="4.77795">
        <ele>464</ele>
        <time>2018-11-06T11:07:41Z</time>
      </trkpt>
      <trkpt lat="45.83951" lon="4.77795">
        <ele>463</ele>
        <time>2018-11-06T11:07:42Z</time>
      </trkpt>
      <trkpt lat="45.83943" lon="4.77795">
        <ele>462</ele>
        <time>2018-11-06T11:07:43Z</time>
      </trkpt>
      <trkpt lat="45.83935" lon="4.77795">
        <ele>462</ele>
        <time>2018-11-06T11:07:44Z</time>
      </trkpt>
      <trkpt lat="45.83925" lon="4.77796">
        <ele>461</ele>
        <time>2018-11-06T11:07:45Z</time>
      </trkpt>
      <trkpt lat="45.83917" lon="4.77795">
        <ele>461</ele>
        <time>2018-11-06T11:07:46Z</time>
      </trkpt>
      <trkpt lat="45.83908" lon="4.77793">
        <ele>453</ele>
        <time>2018-11-06T11:07:47Z</time>
      </trkpt>
      <trkpt lat="45.83897" lon="4.77793">
        <ele>452</ele>
        <time>2018-11-06T11:07:48Z</time>
      </trkpt>
      <trkpt lat="45.8389" lon="4.77794">
        <ele>452</ele>
        <time>2018-11-06T11:07:49Z</time>
      </trkpt>
      <trkpt lat="45.83883" lon="4.77795">
        <ele>451</ele>
        <time>2018-11-06T11:07:50Z</time>
      </trkpt>
      <trkpt lat="45.83877" lon="4.77796">
        <ele>451</ele>
        <time>2018-11-06T11:07:51Z</time>
      </trkpt>
      <trkpt lat="45.83873" lon="4.77798">
        <ele>450</ele>
        <time>2018-11-06T11:07:52Z</time>
      </trkpt>
      <trkpt lat="45.83866" lon="4.77798">
        <ele>450</ele>
        <time>2018-11-06T11:07:53Z</time>
      </trkpt>
      <trkpt lat="45.8386" lon="4.77796">
        <ele>449</ele>
        <time>2018-11-06T11:07:54Z</time>
      </trkpt>
      <trkpt lat="45.83857" lon="4.77791">
        <ele>449</ele>
        <time>2018-11-06T11:07:55Z</time>
      </trkpt>
      <trkpt lat="45.83851" lon="4.77786">
        <ele>449</ele>
        <time>2018-11-06T11:07:56Z</time>
      </trkpt>
      <trkpt lat="45.83848" lon="4.7778">
        <ele>449</ele>
        <time>2018-11-06T11:07:57Z</time>
      </trkpt>
      <trkpt lat="45.83842" lon="4.77771">
        <ele>449</ele>
        <time>2018-11-06T11:07:58Z</time>
      </trkpt>
      <trkpt lat="45.83838" lon="4.77764">
        <ele>449</ele>
        <time>2018-11-06T11:07:59Z</time>
      </trkpt>
      <trkpt lat="45.83833" lon="4.77755">
        <ele>446</ele>
        <time>2018-11-06T11:08:00Z</time>
      </trkpt>
      <trkpt lat="45.83828" lon="4.77747">
        <ele>446</ele>
        <time>2018-11-06T11:08:01Z</time>
      </trkpt>
      <trkpt lat="45.83825" lon="4.7774">
        <ele>444</ele>
        <time>2018-11-06T11:08:02Z</time>
      </trkpt>
      <trkpt lat="45.83822" lon="4.7773">
        <ele>442</ele>
        <time>2018-11-06T11:08:03Z</time>
      </trkpt>
      <trkpt lat="45.83819" lon="4.7772">
        <ele>441</ele>
        <time>2018-11-06T11:08:04Z</time>
      </trkpt>
      <trkpt lat="45.83815" lon="4.77708">
        <ele>440</ele>
        <time>2018-11-06T11:08:05Z</time>
      </trkpt>
      <trkpt lat="45.83812" lon="4.77698">
        <ele>441</ele>
        <time>2018-11-06T11:08:06Z</time>
      </trkpt>
      <trkpt lat="45.83809" lon="4.77689">
        <ele>441</ele>
        <time>2018-11-06T11:08:07Z</time>
      </trkpt>
      <trkpt lat="45.83807" lon="4.77679">
        <ele>441</ele>
        <time>2018-11-06T11:08:08Z</time>
      </trkpt>
      <trkpt lat="45.83804" lon="4.77668">
        <ele>441</ele>
        <time>2018-11-06T11:08:09Z</time>
      </trkpt>
      <trkpt lat="45.83802" lon="4.77656">
        <ele>441</ele>
        <time>2018-11-06T11:08:10Z</time>
      </trkpt>
      <trkpt lat="45.83798" lon="4.77645">
        <ele>440</ele>
        <time>2018-11-06T11:08:11Z</time>
      </trkpt>
      <trkpt lat="45.83795" lon="4.77633">
        <ele>439</ele>
        <time>2018-11-06T11:08:12Z</time>
      </trkpt>
      <trkpt lat="45.83795" lon="4.77623">
        <ele>439</ele>
        <time>2018-11-06T11:08:13Z</time>
      </trkpt>
      <trkpt lat="45.83791" lon="4.77612">
        <ele>439</ele>
        <time>2018-11-06T11:08:14Z</time>
      </trkpt>
      <trkpt lat="45.83788" lon="4.77601">
        <ele>438</ele>
        <time>2018-11-06T11:08:15Z</time>
      </trkpt>
      <trkpt lat="45.83785" lon="4.7759">
        <ele>437</ele>
        <time>2018-11-06T11:08:16Z</time>
      </trkpt>
      <trkpt lat="45.83784" lon="4.77579">
        <ele>437</ele>
        <time>2018-11-06T11:08:17Z</time>
      </trkpt>
      <trkpt lat="45.83783" lon="4.77565">
        <ele>436</ele>
        <time>2018-11-06T11:08:18Z</time>
      </trkpt>
      <trkpt lat="45.8378" lon="4.77555">
        <ele>436</ele>
        <time>2018-11-06T11:08:19Z</time>
      </trkpt>
      <trkpt lat="45.8378" lon="4.77546">
        <ele>436</ele>
        <time>2018-11-06T11:08:20Z</time>
      </trkpt>
      <trkpt lat="45.83778" lon="4.77539">
        <ele>436</ele>
        <time>2018-11-06T11:08:21Z</time>
      </trkpt>
      <trkpt lat="45.83777" lon="4.77532">
        <ele>435</ele>
        <time>2018-11-06T11:08:22Z</time>
      </trkpt>
      <trkpt lat="45.83776" lon="4.77525">
        <ele>435</ele>
        <time>2018-11-06T11:08:23Z</time>
      </trkpt>
      <trkpt lat="45.83774" lon="4.77516">
        <ele>434</ele>
        <time>2018-11-06T11:08:24Z</time>
      </trkpt>
      <trkpt lat="45.83772" lon="4.77508">
        <ele>433</ele>
        <time>2018-11-06T11:08:25Z</time>
      </trkpt>
      <trkpt lat="45.83771" lon="4.775">
        <ele>429</ele>
        <time>2018-11-06T11:08:26Z</time>
      </trkpt>
      <trkpt lat="45.83769" lon="4.77492">
        <ele>429</ele>
        <time>2018-11-06T11:08:27Z</time>
      </trkpt>
      <trkpt lat="45.83764" lon="4.77487">
        <ele>428</ele>
        <time>2018-11-06T11:08:28Z</time>
      </trkpt>
      <trkpt lat="45.83762" lon="4.77477">
        <ele>429</ele>
        <time>2018-11-06T11:08:30Z</time>
      </trkpt>
      <trkpt lat="45.83761" lon="4.7747">
        <ele>429</ele>
        <time>2018-11-06T11:08:31Z</time>
      </trkpt>
      <trkpt lat="45.83759" lon="4.77462">
        <ele>429</ele>
        <time>2018-11-06T11:08:32Z</time>
      </trkpt>
      <trkpt lat="45.83759" lon="4.77455">
        <ele>428</ele>
        <time>2018-11-06T11:08:33Z</time>
      </trkpt>
      <trkpt lat="45.83759" lon="4.77446">
        <ele>428</ele>
        <time>2018-11-06T11:08:34Z</time>
      </trkpt>
      <trkpt lat="45.83761" lon="4.77438">
        <ele>427</ele>
        <time>2018-11-06T11:08:35Z</time>
      </trkpt>
      <trkpt lat="45.83765" lon="4.77428">
        <ele>426</ele>
        <time>2018-11-06T11:08:36Z</time>
      </trkpt>
      <trkpt lat="45.83768" lon="4.7742">
        <ele>426</ele>
        <time>2018-11-06T11:08:37Z</time>
      </trkpt>
      <trkpt lat="45.83772" lon="4.77414">
        <ele>423</ele>
        <time>2018-11-06T11:08:38Z</time>
      </trkpt>
      <trkpt lat="45.83775" lon="4.77408">
        <ele>423</ele>
        <time>2018-11-06T11:08:39Z</time>
      </trkpt>
      <trkpt lat="45.83779" lon="4.77401">
        <ele>423</ele>
        <time>2018-11-06T11:08:40Z</time>
      </trkpt>
      <trkpt lat="45.83783" lon="4.77394">
        <ele>423</ele>
        <time>2018-11-06T11:08:41Z</time>
      </trkpt>
      <trkpt lat="45.83786" lon="4.77389">
        <ele>424</ele>
        <time>2018-11-06T11:08:42Z</time>
      </trkpt>
      <trkpt lat="45.83792" lon="4.77382">
        <ele>424</ele>
        <time>2018-11-06T11:08:43Z</time>
      </trkpt>
      <trkpt lat="45.83796" lon="4.77375">
        <ele>424</ele>
        <time>2018-11-06T11:08:44Z</time>
      </trkpt>
      <trkpt lat="45.83801" lon="4.77368">
        <ele>424</ele>
        <time>2018-11-06T11:08:45Z</time>
      </trkpt>
      <trkpt lat="45.83805" lon="4.7736">
        <ele>423</ele>
        <time>2018-11-06T11:08:46Z</time>
      </trkpt>
      <trkpt lat="45.83809" lon="4.77353">
        <ele>423</ele>
        <time>2018-11-06T11:08:47Z</time>
      </trkpt>
      <trkpt lat="45.83812" lon="4.77347">
        <ele>423</ele>
        <time>2018-11-06T11:08:48Z</time>
      </trkpt>
      <trkpt lat="45.83816" lon="4.77342">
        <ele>423</ele>
        <time>2018-11-06T11:08:49Z</time>
      </trkpt>
      <trkpt lat="45.83821" lon="4.77333">
        <ele>421</ele>
        <time>2018-11-06T11:08:51Z</time>
      </trkpt>
      <trkpt lat="45.83825" lon="4.77329">
        <ele>422</ele>
        <time>2018-11-06T11:08:52Z</time>
      </trkpt>
      <trkpt lat="45.83832" lon="4.77322">
        <ele>422</ele>
        <time>2018-11-06T11:08:55Z</time>
      </trkpt>
      <trkpt lat="45.83833" lon="4.7732">
        <ele>424</ele>
        <time>2018-11-06T11:08:56Z</time>
      </trkpt>
      <trkpt lat="45.83839" lon="4.77312">
        <ele>424</ele>
        <time>2018-11-06T11:08:59Z</time>
      </trkpt>
      <trkpt lat="45.83846" lon="4.77308">
        <ele>424</ele>
        <time>2018-11-06T11:09:00Z</time>
      </trkpt>
      <trkpt lat="45.83854" lon="4.77302">
        <ele>424</ele>
        <time>2018-11-06T11:09:04Z</time>
      </trkpt>
      <trkpt lat="45.83856" lon="4.77299">
        <ele>424</ele>
        <time>2018-11-06T11:09:05Z</time>
      </trkpt>
      <trkpt lat="45.83862" lon="4.77295">
        <ele>424</ele>
        <time>2018-11-06T11:09:07Z</time>
      </trkpt>
      <trkpt lat="45.83865" lon="4.77292">
        <ele>424</ele>
        <time>2018-11-06T11:09:08Z</time>
      </trkpt>
      <trkpt lat="45.83867" lon="4.7729">
        <ele>424</ele>
        <time>2018-11-06T11:09:09Z</time>
      </trkpt>
      <trkpt lat="45.83875" lon="4.77284">
        <ele>424</ele>
        <time>2018-11-06T11:09:10Z</time>
      </trkpt>
      <trkpt lat="45.83883" lon="4.77278">
        <ele>424</ele>
        <time>2018-11-06T11:09:12Z</time>
      </trkpt>
      <trkpt lat="45.83887" lon="4.77276">
        <ele>424</ele>
        <time>2018-11-06T11:09:13Z</time>
      </trkpt>
      <trkpt lat="45.83894" lon="4.77271">
        <ele>423</ele>
        <time>2018-11-06T11:09:15Z</time>
      </trkpt>
      <trkpt lat="45.83898" lon="4.77268">
        <ele>423</ele>
        <time>2018-11-06T11:09:16Z</time>
      </trkpt>
      <trkpt lat="45.83905" lon="4.77265">
        <ele>423</ele>
        <time>2018-11-06T11:09:18Z</time>
      </trkpt>
      <trkpt lat="45.83909" lon="4.77263">
        <ele>422</ele>
        <time>2018-11-06T11:09:19Z</time>
      </trkpt>
      <trkpt lat="45.83917" lon="4.7726">
        <ele>422</ele>
        <time>2018-11-06T11:09:21Z</time>
      </trkpt>
      <trkpt lat="45.83921" lon="4.77259">
        <ele>423</ele>
        <time>2018-11-06T11:09:22Z</time>
      </trkpt>
      <trkpt lat="45.83926" lon="4.77259">
        <ele>424</ele>
        <time>2018-11-06T11:09:23Z</time>
      </trkpt>
      <trkpt lat="45.83933" lon="4.7726">
        <ele>425</ele>
        <time>2018-11-06T11:09:24Z</time>
      </trkpt>
      <trkpt lat="45.83937" lon="4.7726">
        <ele>425</ele>
        <time>2018-11-06T11:09:25Z</time>
      </trkpt>
      <trkpt lat="45.83942" lon="4.77261">
        <ele>426</ele>
        <time>2018-11-06T11:09:26Z</time>
      </trkpt>
      <trkpt lat="45.83951" lon="4.7726">
        <ele>426</ele>
        <time>2018-11-06T11:09:28Z</time>
      </trkpt>
      <trkpt lat="45.83955" lon="4.7726">
        <ele>426</ele>
        <time>2018-11-06T11:09:29Z</time>
      </trkpt>
      <trkpt lat="45.83964" lon="4.77261">
        <ele>426</ele>
        <time>2018-11-06T11:09:33Z</time>
      </trkpt>
      <trkpt lat="45.83967" lon="4.7726">
        <ele>426</ele>
        <time>2018-11-06T11:09:34Z</time>
      </trkpt>
      <trkpt lat="45.83975" lon="4.7726">
        <ele>426</ele>
        <time>2018-11-06T11:09:37Z</time>
      </trkpt>
      <trkpt lat="45.83979" lon="4.77261">
        <ele>426</ele>
        <time>2018-11-06T11:09:38Z</time>
      </trkpt>
      <trkpt lat="45.83984" lon="4.77262">
        <ele>425</ele>
        <time>2018-11-06T11:09:40Z</time>
      </trkpt>
      <trkpt lat="45.83991" lon="4.77265">
        <ele>425</ele>
        <time>2018-11-06T11:09:41Z</time>
      </trkpt>
      <trkpt lat="45.84" lon="4.77268">
        <ele>428</ele>
        <time>2018-11-06T11:09:45Z</time>
      </trkpt>
      <trkpt lat="45.84007" lon="4.77267">
        <ele>428</ele>
        <time>2018-11-06T11:09:46Z</time>
      </trkpt>
      <trkpt lat="45.84016" lon="4.77266">
        <ele>429</ele>
        <time>2018-11-06T11:09:48Z</time>
      </trkpt>
      <trkpt lat="45.8402" lon="4.77265">
        <ele>430</ele>
        <time>2018-11-06T11:09:49Z</time>
      </trkpt>
      <trkpt lat="45.84028" lon="4.77262">
        <ele>431</ele>
        <time>2018-11-06T11:09:51Z</time>
      </trkpt>
      <trkpt lat="45.84032" lon="4.77261">
        <ele>431</ele>
        <time>2018-11-06T11:09:52Z</time>
      </trkpt>
      <trkpt lat="45.84041" lon="4.77256">
        <ele>432</ele>
        <time>2018-11-06T11:09:54Z</time>
      </trkpt>
      <trkpt lat="45.84045" lon="4.77253">
        <ele>432</ele>
        <time>2018-11-06T11:09:55Z</time>
      </trkpt>
      <trkpt lat="45.84053" lon="4.77248">
        <ele>421</ele>
        <time>2018-11-06T11:09:57Z</time>
      </trkpt>
      <trkpt lat="45.84057" lon="4.77245">
        <ele>421</ele>
        <time>2018-11-06T11:09:58Z</time>
      </trkpt>
      <trkpt lat="45.84064" lon="4.77241">
        <ele>422</ele>
        <time>2018-11-06T11:10:00Z</time>
      </trkpt>
      <trkpt lat="45.84068" lon="4.77238">
        <ele>422</ele>
        <time>2018-11-06T11:10:01Z</time>
      </trkpt>
      <trkpt lat="45.84073" lon="4.77235">
        <ele>423</ele>
        <time>2018-11-06T11:10:02Z</time>
      </trkpt>
      <trkpt lat="45.84077" lon="4.77232">
        <ele>422</ele>
        <time>2018-11-06T11:10:03Z</time>
      </trkpt>
      <trkpt lat="45.84085" lon="4.77227">
        <ele>426</ele>
        <time>2018-11-06T11:10:05Z</time>
      </trkpt>
      <trkpt lat="45.84089" lon="4.77225">
        <ele>426</ele>
        <time>2018-11-06T11:10:06Z</time>
      </trkpt>
      <trkpt lat="45.84096" lon="4.7722">
        <ele>426</ele>
        <time>2018-11-06T11:10:08Z</time>
      </trkpt>
      <trkpt lat="45.84098" lon="4.7722">
        <ele>426</ele>
        <time>2018-11-06T11:10:09Z</time>
      </trkpt>
      <trkpt lat="45.84104" lon="4.77218">
        <ele>426</ele>
        <time>2018-11-06T11:10:10Z</time>
      </trkpt>
      <trkpt lat="45.84107" lon="4.77215">
        <ele>426</ele>
        <time>2018-11-06T11:10:11Z</time>
      </trkpt>
      <trkpt lat="45.84115" lon="4.77209">
        <ele>426</ele>
        <time>2018-11-06T11:10:13Z</time>
      </trkpt>
      <trkpt lat="45.84117" lon="4.77207">
        <ele>426</ele>
        <time>2018-11-06T11:10:14Z</time>
      </trkpt>
      <trkpt lat="45.84123" lon="4.77203">
        <ele>426</ele>
        <time>2018-11-06T11:10:15Z</time>
      </trkpt>
      <trkpt lat="45.84127" lon="4.77199">
        <ele>425</ele>
        <time>2018-11-06T11:10:16Z</time>
      </trkpt>
      <trkpt lat="45.84134" lon="4.77197">
        <ele>426</ele>
        <time>2018-11-06T11:10:17Z</time>
      </trkpt>
      <trkpt lat="45.84139" lon="4.77194">
        <ele>425</ele>
        <time>2018-11-06T11:10:18Z</time>
      </trkpt>
      <trkpt lat="45.84147" lon="4.77192">
        <ele>425</ele>
        <time>2018-11-06T11:10:20Z</time>
      </trkpt>
      <trkpt lat="45.84149" lon="4.77191">
        <ele>425</ele>
        <time>2018-11-06T11:10:21Z</time>
      </trkpt>
      <trkpt lat="45.84156" lon="4.77185">
        <ele>424</ele>
        <time>2018-11-06T11:10:24Z</time>
      </trkpt>
      <trkpt lat="45.84159" lon="4.77183">
        <ele>424</ele>
        <time>2018-11-06T11:10:25Z</time>
      </trkpt>
      <trkpt lat="45.84167" lon="4.77177">
        <ele>426</ele>
        <time>2018-11-06T11:10:27Z</time>
      </trkpt>
      <trkpt lat="45.8417" lon="4.77175">
        <ele>426</ele>
        <time>2018-11-06T11:10:28Z</time>
      </trkpt>
      <trkpt lat="45.84174" lon="4.77172">
        <ele>425</ele>
        <time>2018-11-06T11:10:29Z</time>
      </trkpt>
      <trkpt lat="45.84179" lon="4.77169">
        <ele>426</ele>
        <time>2018-11-06T11:10:30Z</time>
      </trkpt>
      <trkpt lat="45.84185" lon="4.77165">
        <ele>421</ele>
        <time>2018-11-06T11:10:31Z</time>
      </trkpt>
      <trkpt lat="45.84189" lon="4.77162">
        <ele>421</ele>
        <time>2018-11-06T11:10:32Z</time>
      </trkpt>
      <trkpt lat="45.84194" lon="4.77159">
        <ele>422</ele>
        <time>2018-11-06T11:10:33Z</time>
      </trkpt>
      <trkpt lat="45.84199" lon="4.77156">
        <ele>422</ele>
        <time>2018-11-06T11:10:34Z</time>
      </trkpt>
      <trkpt lat="45.84203" lon="4.77149">
        <ele>422</ele>
        <time>2018-11-06T11:10:35Z</time>
      </trkpt>
      <trkpt lat="45.84209" lon="4.77146">
        <ele>422</ele>
        <time>2018-11-06T11:10:36Z</time>
      </trkpt>
      <trkpt lat="45.84218" lon="4.77142">
        <ele>422</ele>
        <time>2018-11-06T11:10:38Z</time>
      </trkpt>
      <trkpt lat="45.84221" lon="4.77139">
        <ele>423</ele>
        <time>2018-11-06T11:10:39Z</time>
      </trkpt>
      <trkpt lat="45.84229" lon="4.77134">
        <ele>423</ele>
        <time>2018-11-06T11:10:41Z</time>
      </trkpt>
      <trkpt lat="45.84234" lon="4.77128">
        <ele>423</ele>
        <time>2018-11-06T11:10:42Z</time>
      </trkpt>
      <trkpt lat="45.84237" lon="4.77124">
        <ele>422</ele>
        <time>2018-11-06T11:10:43Z</time>
      </trkpt>
      <trkpt lat="45.84243" lon="4.7712">
        <ele>422</ele>
        <time>2018-11-06T11:10:44Z</time>
      </trkpt>
      <trkpt lat="45.84247" lon="4.77115">
        <ele>422</ele>
        <time>2018-11-06T11:10:45Z</time>
      </trkpt>
      <trkpt lat="45.8425" lon="4.7711">
        <ele>422</ele>
        <time>2018-11-06T11:10:46Z</time>
      </trkpt>
      <trkpt lat="45.84255" lon="4.771">
        <ele>427</ele>
        <time>2018-11-06T11:10:48Z</time>
      </trkpt>
      <trkpt lat="45.84258" lon="4.77095">
        <ele>427</ele>
        <time>2018-11-06T11:10:49Z</time>
      </trkpt>
      <trkpt lat="45.8426" lon="4.77088">
        <ele>426</ele>
        <time>2018-11-06T11:10:50Z</time>
      </trkpt>
      <trkpt lat="45.84263" lon="4.77082">
        <ele>423</ele>
        <time>2018-11-06T11:10:51Z</time>
      </trkpt>
      <trkpt lat="45.84267" lon="4.77075">
        <ele>423</ele>
        <time>2018-11-06T11:10:52Z</time>
      </trkpt>
      <trkpt lat="45.8427" lon="4.7707">
        <ele>424</ele>
        <time>2018-11-06T11:10:53Z</time>
      </trkpt>
      <trkpt lat="45.84273" lon="4.77063">
        <ele>424</ele>
        <time>2018-11-06T11:10:54Z</time>
      </trkpt>
      <trkpt lat="45.84276" lon="4.77056">
        <ele>424</ele>
        <time>2018-11-06T11:10:55Z</time>
      </trkpt>
      <trkpt lat="45.84277" lon="4.7705">
        <ele>424</ele>
        <time>2018-11-06T11:10:56Z</time>
      </trkpt>
      <trkpt lat="45.84281" lon="4.77042">
        <ele>424</ele>
        <time>2018-11-06T11:10:57Z</time>
      </trkpt>
      <trkpt lat="45.84285" lon="4.77034">
        <ele>424</ele>
        <time>2018-11-06T11:10:58Z</time>
      </trkpt>
      <trkpt lat="45.84288" lon="4.77027">
        <ele>423</ele>
        <time>2018-11-06T11:10:59Z</time>
      </trkpt>
      <trkpt lat="45.84291" lon="4.77022">
        <ele>423</ele>
        <time>2018-11-06T11:11:00Z</time>
      </trkpt>
      <trkpt lat="45.84294" lon="4.77015">
        <ele>423</ele>
        <time>2018-11-06T11:11:01Z</time>
      </trkpt>
      <trkpt lat="45.84297" lon="4.77007">
        <ele>424</ele>
        <time>2018-11-06T11:11:02Z</time>
      </trkpt>
      <trkpt lat="45.84301" lon="4.77">
        <ele>420</ele>
        <time>2018-11-06T11:11:03Z</time>
      </trkpt>
      <trkpt lat="45.84304" lon="4.76992">
        <ele>420</ele>
        <time>2018-11-06T11:11:04Z</time>
      </trkpt>
      <trkpt lat="45.84308" lon="4.76984">
        <ele>420</ele>
        <time>2018-11-06T11:11:05Z</time>
      </trkpt>
      <trkpt lat="45.84313" lon="4.76975">
        <ele>420</ele>
        <time>2018-11-06T11:11:06Z</time>
      </trkpt>
      <trkpt lat="45.84316" lon="4.76968">
        <ele>420</ele>
        <time>2018-11-06T11:11:07Z</time>
      </trkpt>
      <trkpt lat="45.8432" lon="4.7696">
        <ele>419</ele>
        <time>2018-11-06T11:11:08Z</time>
      </trkpt>
      <trkpt lat="45.84324" lon="4.76953">
        <ele>419</ele>
        <time>2018-11-06T11:11:09Z</time>
      </trkpt>
      <trkpt lat="45.84325" lon="4.76947">
        <ele>419</ele>
        <time>2018-11-06T11:11:10Z</time>
      </trkpt>
      <trkpt lat="45.84328" lon="4.76939">
        <ele>419</ele>
        <time>2018-11-06T11:11:11Z</time>
      </trkpt>
      <trkpt lat="45.84335" lon="4.76932">
        <ele>422</ele>
        <time>2018-11-06T11:11:12Z</time>
      </trkpt>
      <trkpt lat="45.8434" lon="4.76924">
        <ele>421</ele>
        <time>2018-11-06T11:11:13Z</time>
      </trkpt>
      <trkpt lat="45.84343" lon="4.76916">
        <ele>419</ele>
        <time>2018-11-06T11:11:14Z</time>
      </trkpt>
      <trkpt lat="45.84346" lon="4.76908">
        <ele>419</ele>
        <time>2018-11-06T11:11:15Z</time>
      </trkpt>
      <trkpt lat="45.84349" lon="4.769">
        <ele>418</ele>
        <time>2018-11-06T11:11:16Z</time>
      </trkpt>
      <trkpt lat="45.84353" lon="4.76892">
        <ele>418</ele>
        <time>2018-11-06T11:11:17Z</time>
      </trkpt>
      <trkpt lat="45.84356" lon="4.76886">
        <ele>417</ele>
        <time>2018-11-06T11:11:18Z</time>
      </trkpt>
      <trkpt lat="45.84362" lon="4.76876">
        <ele>417</ele>
        <time>2018-11-06T11:11:19Z</time>
      </trkpt>
      <trkpt lat="45.84366" lon="4.7687">
        <ele>417</ele>
        <time>2018-11-06T11:11:20Z</time>
      </trkpt>
      <trkpt lat="45.84372" lon="4.76864">
        <ele>417</ele>
        <time>2018-11-06T11:11:21Z</time>
      </trkpt>
      <trkpt lat="45.84379" lon="4.76856">
        <ele>416</ele>
        <time>2018-11-06T11:11:22Z</time>
      </trkpt>
      <trkpt lat="45.84385" lon="4.76849">
        <ele>416</ele>
        <time>2018-11-06T11:11:23Z</time>
      </trkpt>
      <trkpt lat="45.84392" lon="4.76844">
        <ele>416</ele>
        <time>2018-11-06T11:11:24Z</time>
      </trkpt>
      <trkpt lat="45.84399" lon="4.76839">
        <ele>415</ele>
        <time>2018-11-06T11:11:25Z</time>
      </trkpt>
      <trkpt lat="45.84406" lon="4.76833">
        <ele>412</ele>
        <time>2018-11-06T11:11:26Z</time>
      </trkpt>
      <trkpt lat="45.84414" lon="4.76828">
        <ele>413</ele>
        <time>2018-11-06T11:11:27Z</time>
      </trkpt>
      <trkpt lat="45.84425" lon="4.76824">
        <ele>412</ele>
        <time>2018-11-06T11:11:28Z</time>
      </trkpt>
      <trkpt lat="45.84434" lon="4.7682">
        <ele>410</ele>
        <time>2018-11-06T11:11:29Z</time>
      </trkpt>
      <trkpt lat="45.84443" lon="4.76816">
        <ele>410</ele>
        <time>2018-11-06T11:11:30Z</time>
      </trkpt>
      <trkpt lat="45.84452" lon="4.76811">
        <ele>409</ele>
        <time>2018-11-06T11:11:31Z</time>
      </trkpt>
      <trkpt lat="45.84462" lon="4.76804">
        <ele>408</ele>
        <time>2018-11-06T11:11:32Z</time>
      </trkpt>
      <trkpt lat="45.84471" lon="4.76797">
        <ele>408</ele>
        <time>2018-11-06T11:11:33Z</time>
      </trkpt>
      <trkpt lat="45.84479" lon="4.76791">
        <ele>407</ele>
        <time>2018-11-06T11:11:34Z</time>
      </trkpt>
      <trkpt lat="45.84488" lon="4.76786">
        <ele>407</ele>
        <time>2018-11-06T11:11:35Z</time>
      </trkpt>
      <trkpt lat="45.84497" lon="4.76781">
        <ele>406</ele>
        <time>2018-11-06T11:11:36Z</time>
      </trkpt>
      <trkpt lat="45.84507" lon="4.76776">
        <ele>406</ele>
        <time>2018-11-06T11:11:37Z</time>
      </trkpt>
      <trkpt lat="45.84517" lon="4.76771">
        <ele>405</ele>
        <time>2018-11-06T11:11:38Z</time>
      </trkpt>
      <trkpt lat="45.84526" lon="4.76767">
        <ele>406</ele>
        <time>2018-11-06T11:11:39Z</time>
      </trkpt>
      <trkpt lat="45.84535" lon="4.76761">
        <ele>406</ele>
        <time>2018-11-06T11:11:40Z</time>
      </trkpt>
      <trkpt lat="45.84543" lon="4.76757">
        <ele>406</ele>
        <time>2018-11-06T11:11:41Z</time>
      </trkpt>
      <trkpt lat="45.84551" lon="4.76752">
        <ele>405</ele>
        <time>2018-11-06T11:11:42Z</time>
      </trkpt>
      <trkpt lat="45.84559" lon="4.76747">
        <ele>399</ele>
        <time>2018-11-06T11:11:43Z</time>
      </trkpt>
      <trkpt lat="45.84566" lon="4.76743">
        <ele>399</ele>
        <time>2018-11-06T11:11:44Z</time>
      </trkpt>
      <trkpt lat="45.84573" lon="4.76736">
        <ele>399</ele>
        <time>2018-11-06T11:11:45Z</time>
      </trkpt>
      <trkpt lat="45.84579" lon="4.7673">
        <ele>399</ele>
        <time>2018-11-06T11:11:46Z</time>
      </trkpt>
      <trkpt lat="45.84585" lon="4.76722">
        <ele>399</ele>
        <time>2018-11-06T11:11:47Z</time>
      </trkpt>
      <trkpt lat="45.8459" lon="4.76714">
        <ele>398</ele>
        <time>2018-11-06T11:11:48Z</time>
      </trkpt>
      <trkpt lat="45.84597" lon="4.76703">
        <ele>398</ele>
        <time>2018-11-06T11:11:49Z</time>
      </trkpt>
      <trkpt lat="45.84601" lon="4.76693">
        <ele>397</ele>
        <time>2018-11-06T11:11:50Z</time>
      </trkpt>
      <trkpt lat="45.84604" lon="4.76681">
        <ele>396</ele>
        <time>2018-11-06T11:11:51Z</time>
      </trkpt>
      <trkpt lat="45.84607" lon="4.76669">
        <ele>396</ele>
        <time>2018-11-06T11:11:52Z</time>
      </trkpt>
      <trkpt lat="45.8461" lon="4.76658">
        <ele>391</ele>
        <time>2018-11-06T11:11:53Z</time>
      </trkpt>
      <trkpt lat="45.84616" lon="4.76649">
        <ele>390</ele>
        <time>2018-11-06T11:11:54Z</time>
      </trkpt>
      <trkpt lat="45.84619" lon="4.76637">
        <ele>389</ele>
        <time>2018-11-06T11:11:55Z</time>
      </trkpt>
      <trkpt lat="45.84621" lon="4.76625">
        <ele>389</ele>
        <time>2018-11-06T11:11:56Z</time>
      </trkpt>
      <trkpt lat="45.84625" lon="4.76614">
        <ele>388</ele>
        <time>2018-11-06T11:11:57Z</time>
      </trkpt>
      <trkpt lat="45.84627" lon="4.76603">
        <ele>388</ele>
        <time>2018-11-06T11:11:58Z</time>
      </trkpt>
      <trkpt lat="45.8463" lon="4.76594">
        <ele>387</ele>
        <time>2018-11-06T11:11:59Z</time>
      </trkpt>
      <trkpt lat="45.84631" lon="4.76583">
        <ele>383</ele>
        <time>2018-11-06T11:12:00Z</time>
      </trkpt>
      <trkpt lat="45.84633" lon="4.76574">
        <ele>383</ele>
        <time>2018-11-06T11:12:01Z</time>
      </trkpt>
      <trkpt lat="45.84637" lon="4.76563">
        <ele>382</ele>
        <time>2018-11-06T11:12:02Z</time>
      </trkpt>
      <trkpt lat="45.8464" lon="4.76556">
        <ele>382</ele>
        <time>2018-11-06T11:12:03Z</time>
      </trkpt>
      <trkpt lat="45.84644" lon="4.76549">
        <ele>382</ele>
        <time>2018-11-06T11:12:04Z</time>
      </trkpt>
      <trkpt lat="45.84649" lon="4.76543">
        <ele>382</ele>
        <time>2018-11-06T11:12:05Z</time>
      </trkpt>
      <trkpt lat="45.84654" lon="4.76539">
        <ele>382</ele>
        <time>2018-11-06T11:12:06Z</time>
      </trkpt>
      <trkpt lat="45.8466" lon="4.76533">
        <ele>381</ele>
        <time>2018-11-06T11:12:07Z</time>
      </trkpt>
      <trkpt lat="45.84667" lon="4.76533">
        <ele>379</ele>
        <time>2018-11-06T11:12:08Z</time>
      </trkpt>
      <trkpt lat="45.84674" lon="4.76534">
        <ele>378</ele>
        <time>2018-11-06T11:12:09Z</time>
      </trkpt>
      <trkpt lat="45.84681" lon="4.76537">
        <ele>378</ele>
        <time>2018-11-06T11:12:10Z</time>
      </trkpt>
      <trkpt lat="45.84687" lon="4.76541">
        <ele>378</ele>
        <time>2018-11-06T11:12:11Z</time>
      </trkpt>
      <trkpt lat="45.84694" lon="4.76547">
        <ele>378</ele>
        <time>2018-11-06T11:12:12Z</time>
      </trkpt>
      <trkpt lat="45.847" lon="4.76553">
        <ele>378</ele>
        <time>2018-11-06T11:12:13Z</time>
      </trkpt>
      <trkpt lat="45.84706" lon="4.7656">
        <ele>378</ele>
        <time>2018-11-06T11:12:14Z</time>
      </trkpt>
      <trkpt lat="45.84713" lon="4.76567">
        <ele>377</ele>
        <time>2018-11-06T11:12:15Z</time>
      </trkpt>
      <trkpt lat="45.84719" lon="4.76573">
        <ele>377</ele>
        <time>2018-11-06T11:12:16Z</time>
      </trkpt>
      <trkpt lat="45.84726" lon="4.76581">
        <ele>377</ele>
        <time>2018-11-06T11:12:17Z</time>
      </trkpt>
      <trkpt lat="45.84732" lon="4.76587">
        <ele>380</ele>
        <time>2018-11-06T11:12:18Z</time>
      </trkpt>
      <trkpt lat="45.84738" lon="4.76593">
        <ele>379</ele>
        <time>2018-11-06T11:12:19Z</time>
      </trkpt>
      <trkpt lat="45.84744" lon="4.76599">
        <ele>379</ele>
        <time>2018-11-06T11:12:20Z</time>
      </trkpt>
      <trkpt lat="45.84751" lon="4.76605">
        <ele>377</ele>
        <time>2018-11-06T11:12:21Z</time>
      </trkpt>
      <trkpt lat="45.84756" lon="4.76611">
        <ele>377</ele>
        <time>2018-11-06T11:12:22Z</time>
      </trkpt>
      <trkpt lat="45.84763" lon="4.76616">
        <ele>377</ele>
        <time>2018-11-06T11:12:23Z</time>
      </trkpt>
      <trkpt lat="45.8477" lon="4.7662">
        <ele>378</ele>
        <time>2018-11-06T11:12:24Z</time>
      </trkpt>
      <trkpt lat="45.84777" lon="4.76621">
        <ele>378</ele>
        <time>2018-11-06T11:12:25Z</time>
      </trkpt>
      <trkpt lat="45.84785" lon="4.76621">
        <ele>377</ele>
        <time>2018-11-06T11:12:26Z</time>
      </trkpt>
      <trkpt lat="45.84793" lon="4.76619">
        <ele>377</ele>
        <time>2018-11-06T11:12:27Z</time>
      </trkpt>
      <trkpt lat="45.848" lon="4.76615">
        <ele>377</ele>
        <time>2018-11-06T11:12:28Z</time>
      </trkpt>
      <trkpt lat="45.84806" lon="4.76608">
        <ele>376</ele>
        <time>2018-11-06T11:12:29Z</time>
      </trkpt>
      <trkpt lat="45.84811" lon="4.766">
        <ele>376</ele>
        <time>2018-11-06T11:12:30Z</time>
      </trkpt>
      <trkpt lat="45.84815" lon="4.7659">
        <ele>375</ele>
        <time>2018-11-06T11:12:31Z</time>
      </trkpt>
      <trkpt lat="45.8482" lon="4.76579">
        <ele>372</ele>
        <time>2018-11-06T11:12:32Z</time>
      </trkpt>
      <trkpt lat="45.84825" lon="4.76569">
        <ele>372</ele>
        <time>2018-11-06T11:12:33Z</time>
      </trkpt>
      <trkpt lat="45.84829" lon="4.76559">
        <ele>371</ele>
        <time>2018-11-06T11:12:34Z</time>
      </trkpt>
      <trkpt lat="45.84835" lon="4.76547">
        <ele>370</ele>
        <time>2018-11-06T11:12:35Z</time>
      </trkpt>
      <trkpt lat="45.84839" lon="4.76536">
        <ele>369</ele>
        <time>2018-11-06T11:12:36Z</time>
      </trkpt>
      <trkpt lat="45.84844" lon="4.76525">
        <ele>368</ele>
        <time>2018-11-06T11:12:37Z</time>
      </trkpt>
      <trkpt lat="45.84848" lon="4.76512">
        <ele>367</ele>
        <time>2018-11-06T11:12:38Z</time>
      </trkpt>
      <trkpt lat="45.84854" lon="4.76502">
        <ele>367</ele>
        <time>2018-11-06T11:12:39Z</time>
      </trkpt>
      <trkpt lat="45.84858" lon="4.76489">
        <ele>362</ele>
        <time>2018-11-06T11:12:40Z</time>
      </trkpt>
      <trkpt lat="45.84863" lon="4.76477">
        <ele>362</ele>
        <time>2018-11-06T11:12:41Z</time>
      </trkpt>
      <trkpt lat="45.84869" lon="4.76464">
        <ele>361</ele>
        <time>2018-11-06T11:12:42Z</time>
      </trkpt>
      <trkpt lat="45.84874" lon="4.76451">
        <ele>361</ele>
        <time>2018-11-06T11:12:43Z</time>
      </trkpt>
      <trkpt lat="45.84879" lon="4.76438">
        <ele>361</ele>
        <time>2018-11-06T11:12:44Z</time>
      </trkpt>
      <trkpt lat="45.84885" lon="4.76424">
        <ele>360</ele>
        <time>2018-11-06T11:12:45Z</time>
      </trkpt>
      <trkpt lat="45.8489" lon="4.76412">
        <ele>357</ele>
        <time>2018-11-06T11:12:46Z</time>
      </trkpt>
      <trkpt lat="45.84896" lon="4.76397">
        <ele>356</ele>
        <time>2018-11-06T11:12:47Z</time>
      </trkpt>
      <trkpt lat="45.84901" lon="4.76385">
        <ele>356</ele>
        <time>2018-11-06T11:12:48Z</time>
      </trkpt>
      <trkpt lat="45.84906" lon="4.76372">
        <ele>356</ele>
        <time>2018-11-06T11:12:49Z</time>
      </trkpt>
      <trkpt lat="45.8491" lon="4.76356">
        <ele>356</ele>
        <time>2018-11-06T11:12:50Z</time>
      </trkpt>
      <trkpt lat="45.84915" lon="4.76341">
        <ele>356</ele>
        <time>2018-11-06T11:12:51Z</time>
      </trkpt>
      <trkpt lat="45.8492" lon="4.76327">
        <ele>356</ele>
        <time>2018-11-06T11:12:52Z</time>
      </trkpt>
      <trkpt lat="45.84926" lon="4.76312">
        <ele>354</ele>
        <time>2018-11-06T11:12:53Z</time>
      </trkpt>
      <trkpt lat="45.8493" lon="4.76296">
        <ele>353</ele>
        <time>2018-11-06T11:12:54Z</time>
      </trkpt>
      <trkpt lat="45.84936" lon="4.76283">
        <ele>352</ele>
        <time>2018-11-06T11:12:55Z</time>
      </trkpt>
      <trkpt lat="45.84942" lon="4.76269">
        <ele>352</ele>
        <time>2018-11-06T11:12:56Z</time>
      </trkpt>
      <trkpt lat="45.84948" lon="4.76255">
        <ele>352</ele>
        <time>2018-11-06T11:12:57Z</time>
      </trkpt>
      <trkpt lat="45.84954" lon="4.76243">
        <ele>350</ele>
        <time>2018-11-06T11:12:58Z</time>
      </trkpt>
      <trkpt lat="45.84961" lon="4.76228">
        <ele>350</ele>
        <time>2018-11-06T11:12:59Z</time>
      </trkpt>
      <trkpt lat="45.84968" lon="4.76216">
        <ele>350</ele>
        <time>2018-11-06T11:13:00Z</time>
      </trkpt>
      <trkpt lat="45.84976" lon="4.76206">
        <ele>350</ele>
        <time>2018-11-06T11:13:01Z</time>
      </trkpt>
      <trkpt lat="45.84983" lon="4.76196">
        <ele>350</ele>
        <time>2018-11-06T11:13:02Z</time>
      </trkpt>
      <trkpt lat="45.8499" lon="4.76184">
        <ele>351</ele>
        <time>2018-11-06T11:13:03Z</time>
      </trkpt>
      <trkpt lat="45.85" lon="4.76174">
        <ele>351</ele>
        <time>2018-11-06T11:13:04Z</time>
      </trkpt>
      <trkpt lat="45.85008" lon="4.76164">
        <ele>350</ele>
        <time>2018-11-06T11:13:05Z</time>
      </trkpt>
      <trkpt lat="45.85017" lon="4.76159">
        <ele>349</ele>
        <time>2018-11-06T11:13:06Z</time>
      </trkpt>
      <trkpt lat="45.85026" lon="4.7615">
        <ele>347</ele>
        <time>2018-11-06T11:13:07Z</time>
      </trkpt>
      <trkpt lat="45.85034" lon="4.76142">
        <ele>347</ele>
        <time>2018-11-06T11:13:08Z</time>
      </trkpt>
      <trkpt lat="45.85043" lon="4.76132">
        <ele>346</ele>
        <time>2018-11-06T11:13:09Z</time>
      </trkpt>
      <trkpt lat="45.85053" lon="4.76125">
        <ele>346</ele>
        <time>2018-11-06T11:13:10Z</time>
      </trkpt>
      <trkpt lat="45.85062" lon="4.76117">
        <ele>345</ele>
        <time>2018-11-06T11:13:11Z</time>
      </trkpt>
      <trkpt lat="45.85072" lon="4.76109">
        <ele>345</ele>
        <time>2018-11-06T11:13:12Z</time>
      </trkpt>
      <trkpt lat="45.8508" lon="4.76101">
        <ele>345</ele>
        <time>2018-11-06T11:13:13Z</time>
      </trkpt>
      <trkpt lat="45.85091" lon="4.76093">
        <ele>343</ele>
        <time>2018-11-06T11:13:14Z</time>
      </trkpt>
      <trkpt lat="45.851" lon="4.76085">
        <ele>342</ele>
        <time>2018-11-06T11:13:15Z</time>
      </trkpt>
      <trkpt lat="45.8511" lon="4.76075">
        <ele>340</ele>
        <time>2018-11-06T11:13:16Z</time>
      </trkpt>
      <trkpt lat="45.85119" lon="4.76066">
        <ele>339</ele>
        <time>2018-11-06T11:13:17Z</time>
      </trkpt>
      <trkpt lat="45.85129" lon="4.76058">
        <ele>339</ele>
        <time>2018-11-06T11:13:18Z</time>
      </trkpt>
      <trkpt lat="45.85137" lon="4.76051">
        <ele>338</ele>
        <time>2018-11-06T11:13:19Z</time>
      </trkpt>
      <trkpt lat="45.85146" lon="4.76039">
        <ele>338</ele>
        <time>2018-11-06T11:13:20Z</time>
      </trkpt>
      <trkpt lat="45.85155" lon="4.76031">
        <ele>337</ele>
        <time>2018-11-06T11:13:21Z</time>
      </trkpt>
      <trkpt lat="45.85164" lon="4.76023">
        <ele>337</ele>
        <time>2018-11-06T11:13:22Z</time>
      </trkpt>
      <trkpt lat="45.85174" lon="4.76014">
        <ele>334</ele>
        <time>2018-11-06T11:13:23Z</time>
      </trkpt>
      <trkpt lat="45.85183" lon="4.76005">
        <ele>334</ele>
        <time>2018-11-06T11:13:24Z</time>
      </trkpt>
      <trkpt lat="45.85193" lon="4.75996">
        <ele>330</ele>
        <time>2018-11-06T11:13:25Z</time>
      </trkpt>
      <trkpt lat="45.85203" lon="4.75988">
        <ele>330</ele>
        <time>2018-11-06T11:13:26Z</time>
      </trkpt>
      <trkpt lat="45.85212" lon="4.75979">
        <ele>329</ele>
        <time>2018-11-06T11:13:27Z</time>
      </trkpt>
      <trkpt lat="45.85221" lon="4.7597">
        <ele>329</ele>
        <time>2018-11-06T11:13:28Z</time>
      </trkpt>
      <trkpt lat="45.85229" lon="4.75961">
        <ele>328</ele>
        <time>2018-11-06T11:13:29Z</time>
      </trkpt>
      <trkpt lat="45.85238" lon="4.75952">
        <ele>328</ele>
        <time>2018-11-06T11:13:30Z</time>
      </trkpt>
      <trkpt lat="45.85249" lon="4.75946">
        <ele>328</ele>
        <time>2018-11-06T11:13:31Z</time>
      </trkpt>
      <trkpt lat="45.85258" lon="4.75938">
        <ele>328</ele>
        <time>2018-11-06T11:13:32Z</time>
      </trkpt>
      <trkpt lat="45.85268" lon="4.75931">
        <ele>328</ele>
        <time>2018-11-06T11:13:33Z</time>
      </trkpt>
      <trkpt lat="45.85278" lon="4.75922">
        <ele>328</ele>
        <time>2018-11-06T11:13:34Z</time>
      </trkpt>
      <trkpt lat="45.85287" lon="4.75914">
        <ele>326</ele>
        <time>2018-11-06T11:13:35Z</time>
      </trkpt>
      <trkpt lat="45.85296" lon="4.75907">
        <ele>326</ele>
        <time>2018-11-06T11:13:36Z</time>
      </trkpt>
      <trkpt lat="45.85306" lon="4.75899">
        <ele>326</ele>
        <time>2018-11-06T11:13:37Z</time>
      </trkpt>
      <trkpt lat="45.85315" lon="4.75891">
        <ele>326</ele>
        <time>2018-11-06T11:13:38Z</time>
      </trkpt>
      <trkpt lat="45.85324" lon="4.75882">
        <ele>326</ele>
        <time>2018-11-06T11:13:39Z</time>
      </trkpt>
      <trkpt lat="45.85334" lon="4.75873">
        <ele>324</ele>
        <time>2018-11-06T11:13:40Z</time>
      </trkpt>
      <trkpt lat="45.85343" lon="4.75866">
        <ele>324</ele>
        <time>2018-11-06T11:13:41Z</time>
      </trkpt>
      <trkpt lat="45.85351" lon="4.75855">
        <ele>323</ele>
        <time>2018-11-06T11:13:42Z</time>
      </trkpt>
      <trkpt lat="45.85361" lon="4.75845">
        <ele>323</ele>
        <time>2018-11-06T11:13:43Z</time>
      </trkpt>
      <trkpt lat="45.8537" lon="4.75837">
        <ele>323</ele>
        <time>2018-11-06T11:13:44Z</time>
      </trkpt>
      <trkpt lat="45.8538" lon="4.75827">
        <ele>321</ele>
        <time>2018-11-06T11:13:45Z</time>
      </trkpt>
      <trkpt lat="45.8539" lon="4.75819">
        <ele>321</ele>
        <time>2018-11-06T11:13:46Z</time>
      </trkpt>
      <trkpt lat="45.85399" lon="4.7581">
        <ele>321</ele>
        <time>2018-11-06T11:13:47Z</time>
      </trkpt>
      <trkpt lat="45.85408" lon="4.758">
        <ele>320</ele>
        <time>2018-11-06T11:13:48Z</time>
      </trkpt>
      <trkpt lat="45.85418" lon="4.7579">
        <ele>317</ele>
        <time>2018-11-06T11:13:49Z</time>
      </trkpt>
      <trkpt lat="45.85427" lon="4.75782">
        <ele>317</ele>
        <time>2018-11-06T11:13:50Z</time>
      </trkpt>
      <trkpt lat="45.85436" lon="4.75773">
        <ele>317</ele>
        <time>2018-11-06T11:13:51Z</time>
      </trkpt>
      <trkpt lat="45.85445" lon="4.75764">
        <ele>317</ele>
        <time>2018-11-06T11:13:52Z</time>
      </trkpt>
      <trkpt lat="45.85454" lon="4.75753">
        <ele>317</ele>
        <time>2018-11-06T11:13:53Z</time>
      </trkpt>
      <trkpt lat="45.85462" lon="4.75746">
        <ele>316</ele>
        <time>2018-11-06T11:13:54Z</time>
      </trkpt>
      <trkpt lat="45.85471" lon="4.75739">
        <ele>316</ele>
        <time>2018-11-06T11:13:55Z</time>
      </trkpt>
      <trkpt lat="45.85482" lon="4.75732">
        <ele>315</ele>
        <time>2018-11-06T11:13:56Z</time>
      </trkpt>
      <trkpt lat="45.85493" lon="4.75724">
        <ele>315</ele>
        <time>2018-11-06T11:13:57Z</time>
      </trkpt>
      <trkpt lat="45.85502" lon="4.75715">
        <ele>312</ele>
        <time>2018-11-06T11:13:58Z</time>
      </trkpt>
      <trkpt lat="45.85512" lon="4.75706">
        <ele>312</ele>
        <time>2018-11-06T11:13:59Z</time>
      </trkpt>
      <trkpt lat="45.85522" lon="4.75698">
        <ele>312</ele>
        <time>2018-11-06T11:14:00Z</time>
      </trkpt>
      <trkpt lat="45.85532" lon="4.7569">
        <ele>311</ele>
        <time>2018-11-06T11:14:01Z</time>
      </trkpt>
      <trkpt lat="45.85542" lon="4.7568">
        <ele>311</ele>
        <time>2018-11-06T11:14:02Z</time>
      </trkpt>
      <trkpt lat="45.85552" lon="4.75671">
        <ele>311</ele>
        <time>2018-11-06T11:14:03Z</time>
      </trkpt>
      <trkpt lat="45.85563" lon="4.75661">
        <ele>309</ele>
        <time>2018-11-06T11:14:04Z</time>
      </trkpt>
      <trkpt lat="45.8557" lon="4.75652">
        <ele>309</ele>
        <time>2018-11-06T11:14:05Z</time>
      </trkpt>
      <trkpt lat="45.8558" lon="4.75643">
        <ele>309</ele>
        <time>2018-11-06T11:14:06Z</time>
      </trkpt>
      <trkpt lat="45.85589" lon="4.75634">
        <ele>308</ele>
        <time>2018-11-06T11:14:07Z</time>
      </trkpt>
      <trkpt lat="45.85599" lon="4.75626">
        <ele>307</ele>
        <time>2018-11-06T11:14:08Z</time>
      </trkpt>
      <trkpt lat="45.85609" lon="4.75615">
        <ele>307</ele>
        <time>2018-11-06T11:14:09Z</time>
      </trkpt>
      <trkpt lat="45.85619" lon="4.75605">
        <ele>307</ele>
        <time>2018-11-06T11:14:10Z</time>
      </trkpt>
      <trkpt lat="45.85628" lon="4.75598">
        <ele>307</ele>
        <time>2018-11-06T11:14:11Z</time>
      </trkpt>
      <trkpt lat="45.85638" lon="4.7559">
        <ele>307</ele>
        <time>2018-11-06T11:14:12Z</time>
      </trkpt>
      <trkpt lat="45.85647" lon="4.7558">
        <ele>306</ele>
        <time>2018-11-06T11:14:13Z</time>
      </trkpt>
      <trkpt lat="45.85658" lon="4.75573">
        <ele>306</ele>
        <time>2018-11-06T11:14:14Z</time>
      </trkpt>
      <trkpt lat="45.85666" lon="4.75565">
        <ele>306</ele>
        <time>2018-11-06T11:14:15Z</time>
      </trkpt>
      <trkpt lat="45.85675" lon="4.75557">
        <ele>303</ele>
        <time>2018-11-06T11:14:16Z</time>
      </trkpt>
      <trkpt lat="45.85684" lon="4.75549">
        <ele>303</ele>
        <time>2018-11-06T11:14:17Z</time>
      </trkpt>
      <trkpt lat="45.85695" lon="4.75543">
        <ele>303</ele>
        <time>2018-11-06T11:14:18Z</time>
      </trkpt>
      <trkpt lat="45.85704" lon="4.75536">
        <ele>302</ele>
        <time>2018-11-06T11:14:19Z</time>
      </trkpt>
      <trkpt lat="45.85714" lon="4.75526">
        <ele>302</ele>
        <time>2018-11-06T11:14:20Z</time>
      </trkpt>
      <trkpt lat="45.85723" lon="4.75515">
        <ele>302</ele>
        <time>2018-11-06T11:14:21Z</time>
      </trkpt>
      <trkpt lat="45.85731" lon="4.75507">
        <ele>301</ele>
        <time>2018-11-06T11:14:22Z</time>
      </trkpt>
      <trkpt lat="45.85741" lon="4.75499">
        <ele>301</ele>
        <time>2018-11-06T11:14:23Z</time>
      </trkpt>
      <trkpt lat="45.85752" lon="4.75489">
        <ele>299</ele>
        <time>2018-11-06T11:14:24Z</time>
      </trkpt>
      <trkpt lat="45.85762" lon="4.75481">
        <ele>298</ele>
        <time>2018-11-06T11:14:25Z</time>
      </trkpt>
      <trkpt lat="45.85772" lon="4.75473">
        <ele>298</ele>
        <time>2018-11-06T11:14:26Z</time>
      </trkpt>
      <trkpt lat="45.8578" lon="4.75467">
        <ele>297</ele>
        <time>2018-11-06T11:14:27Z</time>
      </trkpt>
      <trkpt lat="45.8579" lon="4.7546">
        <ele>297</ele>
        <time>2018-11-06T11:14:28Z</time>
      </trkpt>
      <trkpt lat="45.858" lon="4.7545">
        <ele>297</ele>
        <time>2018-11-06T11:14:29Z</time>
      </trkpt>
      <trkpt lat="45.85809" lon="4.75443">
        <ele>297</ele>
        <time>2018-11-06T11:14:30Z</time>
      </trkpt>
      <trkpt lat="45.85819" lon="4.75436">
        <ele>296</ele>
        <time>2018-11-06T11:14:31Z</time>
      </trkpt>
      <trkpt lat="45.8583" lon="4.75429">
        <ele>296</ele>
        <time>2018-11-06T11:14:32Z</time>
      </trkpt>
      <trkpt lat="45.85839" lon="4.75423">
        <ele>294</ele>
        <time>2018-11-06T11:14:33Z</time>
      </trkpt>
      <trkpt lat="45.8585" lon="4.75416">
        <ele>295</ele>
        <time>2018-11-06T11:14:34Z</time>
      </trkpt>
      <trkpt lat="45.85861" lon="4.75409">
        <ele>294</ele>
        <time>2018-11-06T11:14:35Z</time>
      </trkpt>
      <trkpt lat="45.85871" lon="4.75403">
        <ele>293</ele>
        <time>2018-11-06T11:14:36Z</time>
      </trkpt>
      <trkpt lat="45.85881" lon="4.75397">
        <ele>293</ele>
        <time>2018-11-06T11:14:37Z</time>
      </trkpt>
      <trkpt lat="45.85891" lon="4.75391">
        <ele>293</ele>
        <time>2018-11-06T11:14:38Z</time>
      </trkpt>
      <trkpt lat="45.85901" lon="4.75385">
        <ele>292</ele>
        <time>2018-11-06T11:14:39Z</time>
      </trkpt>
      <trkpt lat="45.85912" lon="4.7538">
        <ele>292</ele>
        <time>2018-11-06T11:14:40Z</time>
      </trkpt>
      <trkpt lat="45.85922" lon="4.75375">
        <ele>289</ele>
        <time>2018-11-06T11:14:41Z</time>
      </trkpt>
      <trkpt lat="45.85932" lon="4.7537">
        <ele>289</ele>
        <time>2018-11-06T11:14:42Z</time>
      </trkpt>
      <trkpt lat="45.85942" lon="4.75366">
        <ele>289</ele>
        <time>2018-11-06T11:14:43Z</time>
      </trkpt>
      <trkpt lat="45.85951" lon="4.75361">
        <ele>289</ele>
        <time>2018-11-06T11:14:44Z</time>
      </trkpt>
      <trkpt lat="45.85961" lon="4.75356">
        <ele>289</ele>
        <time>2018-11-06T11:14:45Z</time>
      </trkpt>
      <trkpt lat="45.85971" lon="4.75352">
        <ele>288</ele>
        <time>2018-11-06T11:14:46Z</time>
      </trkpt>
      <trkpt lat="45.8598" lon="4.75348">
        <ele>288</ele>
        <time>2018-11-06T11:14:47Z</time>
      </trkpt>
      <trkpt lat="45.85989" lon="4.75344">
        <ele>288</ele>
        <time>2018-11-06T11:14:48Z</time>
      </trkpt>
      <trkpt lat="45.85999" lon="4.75341">
        <ele>288</ele>
        <time>2018-11-06T11:14:49Z</time>
      </trkpt>
      <trkpt lat="45.86008" lon="4.75337">
        <ele>287</ele>
        <time>2018-11-06T11:14:50Z</time>
      </trkpt>
      <trkpt lat="45.86018" lon="4.75333">
        <ele>288</ele>
        <time>2018-11-06T11:14:51Z</time>
      </trkpt>
      <trkpt lat="45.86026" lon="4.75328">
        <ele>288</ele>
        <time>2018-11-06T11:14:52Z</time>
      </trkpt>
      <trkpt lat="45.86035" lon="4.75325">
        <ele>287</ele>
        <time>2018-11-06T11:14:53Z</time>
      </trkpt>
      <trkpt lat="45.86043" lon="4.75322">
        <ele>287</ele>
        <time>2018-11-06T11:14:54Z</time>
      </trkpt>
      <trkpt lat="45.86052" lon="4.75318">
        <ele>287</ele>
        <time>2018-11-06T11:14:55Z</time>
      </trkpt>
      <trkpt lat="45.8606" lon="4.75314">
        <ele>287</ele>
        <time>2018-11-06T11:14:56Z</time>
      </trkpt>
      <trkpt lat="45.86069" lon="4.75311">
        <ele>287</ele>
        <time>2018-11-06T11:14:57Z</time>
      </trkpt>
      <trkpt lat="45.86077" lon="4.75309">
        <ele>286</ele>
        <time>2018-11-06T11:14:58Z</time>
      </trkpt>
      <trkpt lat="45.86086" lon="4.75306">
        <ele>284</ele>
        <time>2018-11-06T11:14:59Z</time>
      </trkpt>
      <trkpt lat="45.86094" lon="4.75304">
        <ele>284</ele>
        <time>2018-11-06T11:15:00Z</time>
      </trkpt>
      <trkpt lat="45.86102" lon="4.75301">
        <ele>284</ele>
        <time>2018-11-06T11:15:01Z</time>
      </trkpt>
      <trkpt lat="45.86109" lon="4.75295">
        <ele>284</ele>
        <time>2018-11-06T11:15:02Z</time>
      </trkpt>
      <trkpt lat="45.86116" lon="4.75292">
        <ele>284</ele>
        <time>2018-11-06T11:15:03Z</time>
      </trkpt>
      <trkpt lat="45.86123" lon="4.75291">
        <ele>284</ele>
        <time>2018-11-06T11:15:04Z</time>
      </trkpt>
      <trkpt lat="45.86131" lon="4.75288">
        <ele>284</ele>
        <time>2018-11-06T11:15:05Z</time>
      </trkpt>
      <trkpt lat="45.86137" lon="4.75286">
        <ele>284</ele>
        <time>2018-11-06T11:15:06Z</time>
      </trkpt>
      <trkpt lat="45.86144" lon="4.75284">
        <ele>284</ele>
        <time>2018-11-06T11:15:07Z</time>
      </trkpt>
      <trkpt lat="45.86151" lon="4.75281">
        <ele>284</ele>
        <time>2018-11-06T11:15:08Z</time>
      </trkpt>
      <trkpt lat="45.86158" lon="4.75279">
        <ele>284</ele>
        <time>2018-11-06T11:15:09Z</time>
      </trkpt>
      <trkpt lat="45.86166" lon="4.75274">
        <ele>284</ele>
        <time>2018-11-06T11:15:10Z</time>
      </trkpt>
      <trkpt lat="45.86171" lon="4.75271">
        <ele>283</ele>
        <time>2018-11-06T11:15:11Z</time>
      </trkpt>
      <trkpt lat="45.86177" lon="4.75271">
        <ele>283</ele>
        <time>2018-11-06T11:15:12Z</time>
      </trkpt>
      <trkpt lat="45.86185" lon="4.75269">
        <ele>282</ele>
        <time>2018-11-06T11:15:13Z</time>
      </trkpt>
      <trkpt lat="45.86192" lon="4.75267">
        <ele>282</ele>
        <time>2018-11-06T11:15:14Z</time>
      </trkpt>
      <trkpt lat="45.86199" lon="4.75267">
        <ele>282</ele>
        <time>2018-11-06T11:15:15Z</time>
      </trkpt>
      <trkpt lat="45.86205" lon="4.75265">
        <ele>282</ele>
        <time>2018-11-06T11:15:16Z</time>
      </trkpt>
      <trkpt lat="45.86214" lon="4.75262">
        <ele>282</ele>
        <time>2018-11-06T11:15:17Z</time>
      </trkpt>
      <trkpt lat="45.86222" lon="4.75261">
        <ele>282</ele>
        <time>2018-11-06T11:15:18Z</time>
      </trkpt>
      <trkpt lat="45.86228" lon="4.75259">
        <ele>282</ele>
        <time>2018-11-06T11:15:19Z</time>
      </trkpt>
      <trkpt lat="45.86236" lon="4.75257">
        <ele>282</ele>
        <time>2018-11-06T11:15:20Z</time>
      </trkpt>
      <trkpt lat="45.86242" lon="4.75254">
        <ele>282</ele>
        <time>2018-11-06T11:15:21Z</time>
      </trkpt>
      <trkpt lat="45.86248" lon="4.75252">
        <ele>282</ele>
        <time>2018-11-06T11:15:22Z</time>
      </trkpt>
      <trkpt lat="45.86255" lon="4.7525">
        <ele>281</ele>
        <time>2018-11-06T11:15:23Z</time>
      </trkpt>
      <trkpt lat="45.86262" lon="4.75247">
        <ele>281</ele>
        <time>2018-11-06T11:15:24Z</time>
      </trkpt>
      <trkpt lat="45.8627" lon="4.75244">
        <ele>280</ele>
        <time>2018-11-06T11:15:25Z</time>
      </trkpt>
      <trkpt lat="45.86276" lon="4.75241">
        <ele>280</ele>
        <time>2018-11-06T11:15:26Z</time>
      </trkpt>
      <trkpt lat="45.86282" lon="4.75238">
        <ele>280</ele>
        <time>2018-11-06T11:15:27Z</time>
      </trkpt>
      <trkpt lat="45.86289" lon="4.75236">
        <ele>279</ele>
        <time>2018-11-06T11:15:28Z</time>
      </trkpt>
      <trkpt lat="45.86296" lon="4.75234">
        <ele>279</ele>
        <time>2018-11-06T11:15:29Z</time>
      </trkpt>
      <trkpt lat="45.86304" lon="4.7523">
        <ele>279</ele>
        <time>2018-11-06T11:15:30Z</time>
      </trkpt>
      <trkpt lat="45.86311" lon="4.75227">
        <ele>279</ele>
        <time>2018-11-06T11:15:31Z</time>
      </trkpt>
      <trkpt lat="45.86318" lon="4.75225">
        <ele>279</ele>
        <time>2018-11-06T11:15:32Z</time>
      </trkpt>
      <trkpt lat="45.86325" lon="4.75221">
        <ele>278</ele>
        <time>2018-11-06T11:15:33Z</time>
      </trkpt>
      <trkpt lat="45.86331" lon="4.75219">
        <ele>278</ele>
        <time>2018-11-06T11:15:34Z</time>
      </trkpt>
      <trkpt lat="45.86339" lon="4.75215">
        <ele>276</ele>
        <time>2018-11-06T11:15:35Z</time>
      </trkpt>
      <trkpt lat="45.86346" lon="4.75213">
        <ele>276</ele>
        <time>2018-11-06T11:15:36Z</time>
      </trkpt>
      <trkpt lat="45.86353" lon="4.75208">
        <ele>276</ele>
        <time>2018-11-06T11:15:37Z</time>
      </trkpt>
      <trkpt lat="45.8636" lon="4.75206">
        <ele>276</ele>
        <time>2018-11-06T11:15:38Z</time>
      </trkpt>
      <trkpt lat="45.86368" lon="4.75204">
        <ele>275</ele>
        <time>2018-11-06T11:15:39Z</time>
      </trkpt>
      <trkpt lat="45.86375" lon="4.75201">
        <ele>275</ele>
        <time>2018-11-06T11:15:40Z</time>
      </trkpt>
      <trkpt lat="45.86382" lon="4.75198">
        <ele>275</ele>
        <time>2018-11-06T11:15:41Z</time>
      </trkpt>
      <trkpt lat="45.86389" lon="4.75196">
        <ele>275</ele>
        <time>2018-11-06T11:15:42Z</time>
      </trkpt>
      <trkpt lat="45.86397" lon="4.75194">
        <ele>275</ele>
        <time>2018-11-06T11:15:43Z</time>
      </trkpt>
      <trkpt lat="45.86405" lon="4.75191">
        <ele>275</ele>
        <time>2018-11-06T11:15:44Z</time>
      </trkpt>
      <trkpt lat="45.86412" lon="4.75189">
        <ele>275</ele>
        <time>2018-11-06T11:15:45Z</time>
      </trkpt>
      <trkpt lat="45.8642" lon="4.75185">
        <ele>273</ele>
        <time>2018-11-06T11:15:46Z</time>
      </trkpt>
      <trkpt lat="45.86429" lon="4.75182">
        <ele>273</ele>
        <time>2018-11-06T11:15:47Z</time>
      </trkpt>
      <trkpt lat="45.86438" lon="4.7518">
        <ele>273</ele>
        <time>2018-11-06T11:15:48Z</time>
      </trkpt>
      <trkpt lat="45.86447" lon="4.75177">
        <ele>272</ele>
        <time>2018-11-06T11:15:49Z</time>
      </trkpt>
      <trkpt lat="45.86456" lon="4.75174">
        <ele>272</ele>
        <time>2018-11-06T11:15:50Z</time>
      </trkpt>
      <trkpt lat="45.86465" lon="4.75168">
        <ele>272</ele>
        <time>2018-11-06T11:15:51Z</time>
      </trkpt>
      <trkpt lat="45.86474" lon="4.75164">
        <ele>270</ele>
        <time>2018-11-06T11:15:52Z</time>
      </trkpt>
      <trkpt lat="45.86484" lon="4.75159">
        <ele>270</ele>
        <time>2018-11-06T11:15:53Z</time>
      </trkpt>
      <trkpt lat="45.86494" lon="4.75156">
        <ele>270</ele>
        <time>2018-11-06T11:15:54Z</time>
      </trkpt>
      <trkpt lat="45.86506" lon="4.75152">
        <ele>268</ele>
        <time>2018-11-06T11:15:55Z</time>
      </trkpt>
      <trkpt lat="45.86516" lon="4.75147">
        <ele>267</ele>
        <time>2018-11-06T11:15:56Z</time>
      </trkpt>
      <trkpt lat="45.86527" lon="4.75143">
        <ele>266</ele>
        <time>2018-11-06T11:15:57Z</time>
      </trkpt>
      <trkpt lat="45.86539" lon="4.75139">
        <ele>266</ele>
        <time>2018-11-06T11:15:58Z</time>
      </trkpt>
      <trkpt lat="45.8655" lon="4.75135">
        <ele>266</ele>
        <time>2018-11-06T11:15:59Z</time>
      </trkpt>
      <trkpt lat="45.86561" lon="4.75131">
        <ele>265</ele>
        <time>2018-11-06T11:16:00Z</time>
      </trkpt>
      <trkpt lat="45.86574" lon="4.75127">
        <ele>265</ele>
        <time>2018-11-06T11:16:01Z</time>
      </trkpt>
      <trkpt lat="45.86586" lon="4.75123">
        <ele>262</ele>
        <time>2018-11-06T11:16:02Z</time>
      </trkpt>
      <trkpt lat="45.86598" lon="4.75119">
        <ele>261</ele>
        <time>2018-11-06T11:16:03Z</time>
      </trkpt>
      <trkpt lat="45.86609" lon="4.75116">
        <ele>261</ele>
        <time>2018-11-06T11:16:04Z</time>
      </trkpt>
      <trkpt lat="45.86621" lon="4.7511">
        <ele>260</ele>
        <time>2018-11-06T11:16:05Z</time>
      </trkpt>
      <trkpt lat="45.86634" lon="4.75106">
        <ele>260</ele>
        <time>2018-11-06T11:16:06Z</time>
      </trkpt>
      <trkpt lat="45.86646" lon="4.75102">
        <ele>259</ele>
        <time>2018-11-06T11:16:07Z</time>
      </trkpt>
      <trkpt lat="45.86658" lon="4.75097">
        <ele>258</ele>
        <time>2018-11-06T11:16:08Z</time>
      </trkpt>
      <trkpt lat="45.8667" lon="4.75093">
        <ele>256</ele>
        <time>2018-11-06T11:16:09Z</time>
      </trkpt>
      <trkpt lat="45.86681" lon="4.75089">
        <ele>256</ele>
        <time>2018-11-06T11:16:10Z</time>
      </trkpt>
      <trkpt lat="45.86694" lon="4.75084">
        <ele>256</ele>
        <time>2018-11-06T11:16:11Z</time>
      </trkpt>
      <trkpt lat="45.86706" lon="4.7508">
        <ele>254</ele>
        <time>2018-11-06T11:16:12Z</time>
      </trkpt>
      <trkpt lat="45.86719" lon="4.75075">
        <ele>254</ele>
        <time>2018-11-06T11:16:13Z</time>
      </trkpt>
      <trkpt lat="45.86731" lon="4.7507">
        <ele>254</ele>
        <time>2018-11-06T11:16:14Z</time>
      </trkpt>
      <trkpt lat="45.86744" lon="4.75065">
        <ele>253</ele>
        <time>2018-11-06T11:16:15Z</time>
      </trkpt>
      <trkpt lat="45.86757" lon="4.75059">
        <ele>250</ele>
        <time>2018-11-06T11:16:16Z</time>
      </trkpt>
      <trkpt lat="45.8677" lon="4.75055">
        <ele>249</ele>
        <time>2018-11-06T11:16:17Z</time>
      </trkpt>
      <trkpt lat="45.86783" lon="4.75051">
        <ele>248</ele>
        <time>2018-11-06T11:16:18Z</time>
      </trkpt>
      <trkpt lat="45.86795" lon="4.75046">
        <ele>248</ele>
        <time>2018-11-06T11:16:19Z</time>
      </trkpt>
      <trkpt lat="45.86807" lon="4.75041">
        <ele>247</ele>
        <time>2018-11-06T11:16:20Z</time>
      </trkpt>
      <trkpt lat="45.8682" lon="4.75037">
        <ele>246</ele>
        <time>2018-11-06T11:16:21Z</time>
      </trkpt>
      <trkpt lat="45.86832" lon="4.75034">
        <ele>246</ele>
        <time>2018-11-06T11:16:22Z</time>
      </trkpt>
      <trkpt lat="45.86844" lon="4.75029">
        <ele>241</ele>
        <time>2018-11-06T11:16:23Z</time>
      </trkpt>
      <trkpt lat="45.86856" lon="4.75026">
        <ele>241</ele>
        <time>2018-11-06T11:16:24Z</time>
      </trkpt>
      <trkpt lat="45.86868" lon="4.75022">
        <ele>240</ele>
        <time>2018-11-06T11:16:25Z</time>
      </trkpt>
      <trkpt lat="45.8688" lon="4.75018">
        <ele>240</ele>
        <time>2018-11-06T11:16:26Z</time>
      </trkpt>
      <trkpt lat="45.86891" lon="4.75014">
        <ele>239</ele>
        <time>2018-11-06T11:16:27Z</time>
      </trkpt>
      <trkpt lat="45.86903" lon="4.7501">
        <ele>238</ele>
        <time>2018-11-06T11:16:28Z</time>
      </trkpt>
      <trkpt lat="45.86915" lon="4.75006">
        <ele>236</ele>
        <time>2018-11-06T11:16:29Z</time>
      </trkpt>
      <trkpt lat="45.86926" lon="4.75002">
        <ele>235</ele>
        <time>2018-11-06T11:16:30Z</time>
      </trkpt>
      <trkpt lat="45.86936" lon="4.74997">
        <ele>233</ele>
        <time>2018-11-06T11:16:31Z</time>
      </trkpt>
      <trkpt lat="45.86947" lon="4.74993">
        <ele>232</ele>
        <time>2018-11-06T11:16:32Z</time>
      </trkpt>
      <trkpt lat="45.86958" lon="4.74988">
        <ele>232</ele>
        <time>2018-11-06T11:16:33Z</time>
      </trkpt>
      <trkpt lat="45.86969" lon="4.74984">
        <ele>231</ele>
        <time>2018-11-06T11:16:34Z</time>
      </trkpt>
      <trkpt lat="45.86979" lon="4.7498">
        <ele>231</ele>
        <time>2018-11-06T11:16:35Z</time>
      </trkpt>
      <trkpt lat="45.86989" lon="4.74975">
        <ele>231</ele>
        <time>2018-11-06T11:16:36Z</time>
      </trkpt>
      <trkpt lat="45.87" lon="4.74972">
        <ele>231</ele>
        <time>2018-11-06T11:16:37Z</time>
      </trkpt>
      <trkpt lat="45.87008" lon="4.74969">
        <ele>228</ele>
        <time>2018-11-06T11:16:38Z</time>
      </trkpt>
      <trkpt lat="45.87018" lon="4.74966">
        <ele>228</ele>
        <time>2018-11-06T11:16:39Z</time>
      </trkpt>
      <trkpt lat="45.87026" lon="4.74964">
        <ele>228</ele>
        <time>2018-11-06T11:16:40Z</time>
      </trkpt>
      <trkpt lat="45.87034" lon="4.74962">
        <ele>228</ele>
        <time>2018-11-06T11:16:41Z</time>
      </trkpt>
      <trkpt lat="45.87042" lon="4.74959">
        <ele>228</ele>
        <time>2018-11-06T11:16:42Z</time>
      </trkpt>
      <trkpt lat="45.87049" lon="4.74956">
        <ele>228</ele>
        <time>2018-11-06T11:16:43Z</time>
      </trkpt>
      <trkpt lat="45.87055" lon="4.74955">
        <ele>228</ele>
        <time>2018-11-06T11:16:44Z</time>
      </trkpt>
      <trkpt lat="45.87064" lon="4.74951">
        <ele>227</ele>
        <time>2018-11-06T11:16:45Z</time>
      </trkpt>
      <trkpt lat="45.87071" lon="4.74949">
        <ele>227</ele>
        <time>2018-11-06T11:16:46Z</time>
      </trkpt>
      <trkpt lat="45.87078" lon="4.74943">
        <ele>227</ele>
        <time>2018-11-06T11:16:47Z</time>
      </trkpt>
      <trkpt lat="45.87085" lon="4.7494">
        <ele>226</ele>
        <time>2018-11-06T11:16:48Z</time>
      </trkpt>
      <trkpt lat="45.87091" lon="4.74937">
        <ele>226</ele>
        <time>2018-11-06T11:16:49Z</time>
      </trkpt>
      <trkpt lat="45.87097" lon="4.74935">
        <ele>226</ele>
        <time>2018-11-06T11:16:50Z</time>
      </trkpt>
      <trkpt lat="45.87101" lon="4.74934">
        <ele>226</ele>
        <time>2018-11-06T11:16:51Z</time>
      </trkpt>
      <trkpt lat="45.87107" lon="4.7493">
        <ele>226</ele>
        <time>2018-11-06T11:16:53Z</time>
      </trkpt>
      <trkpt lat="45.87111" lon="4.74931">
        <ele>226</ele>
        <time>2018-11-06T11:16:54Z</time>
      </trkpt>
      <trkpt lat="45.87119" lon="4.74934">
        <ele>226</ele>
        <time>2018-11-06T11:16:56Z</time>
      </trkpt>
      <trkpt lat="45.87124" lon="4.74938">
        <ele>226</ele>
        <time>2018-11-06T11:16:57Z</time>
      </trkpt>
      <trkpt lat="45.87129" lon="4.74939">
        <ele>226</ele>
        <time>2018-11-06T11:16:58Z</time>
      </trkpt>
      <trkpt lat="45.87134" lon="4.74939">
        <ele>226</ele>
        <time>2018-11-06T11:16:59Z</time>
      </trkpt>
      <trkpt lat="45.87139" lon="4.74936">
        <ele>226</ele>
        <time>2018-11-06T11:17:00Z</time>
      </trkpt>
      <trkpt lat="45.87145" lon="4.74932">
        <ele>226</ele>
        <time>2018-11-06T11:17:01Z</time>
      </trkpt>
      <trkpt lat="45.8715" lon="4.74928">
        <ele>226</ele>
        <time>2018-11-06T11:17:02Z</time>
      </trkpt>
      <trkpt lat="45.87154" lon="4.74922">
        <ele>226</ele>
        <time>2018-11-06T11:17:03Z</time>
      </trkpt>
      <trkpt lat="45.87161" lon="4.74918">
        <ele>226</ele>
        <time>2018-11-06T11:17:04Z</time>
      </trkpt>
      <trkpt lat="45.87167" lon="4.74915">
        <ele>226</ele>
        <time>2018-11-06T11:17:05Z</time>
      </trkpt>
      <trkpt lat="45.87173" lon="4.74913">
        <ele>225</ele>
        <time>2018-11-06T11:17:06Z</time>
      </trkpt>
      <trkpt lat="45.87179" lon="4.74912">
        <ele>225</ele>
        <time>2018-11-06T11:17:07Z</time>
      </trkpt>
      <trkpt lat="45.87185" lon="4.74909">
        <ele>224</ele>
        <time>2018-11-06T11:17:08Z</time>
      </trkpt>
      <trkpt lat="45.87191" lon="4.74908">
        <ele>224</ele>
        <time>2018-11-06T11:17:09Z</time>
      </trkpt>
      <trkpt lat="45.87197" lon="4.74904">
        <ele>224</ele>
        <time>2018-11-06T11:17:10Z</time>
      </trkpt>
      <trkpt lat="45.87204" lon="4.74901">
        <ele>224</ele>
        <time>2018-11-06T11:17:11Z</time>
      </trkpt>
      <trkpt lat="45.87209" lon="4.74899">
        <ele>224</ele>
        <time>2018-11-06T11:17:12Z</time>
      </trkpt>
      <trkpt lat="45.87216" lon="4.74897">
        <ele>223</ele>
        <time>2018-11-06T11:17:13Z</time>
      </trkpt>
      <trkpt lat="45.87222" lon="4.74895">
        <ele>223</ele>
        <time>2018-11-06T11:17:14Z</time>
      </trkpt>
      <trkpt lat="45.87229" lon="4.74893">
        <ele>223</ele>
        <time>2018-11-06T11:17:15Z</time>
      </trkpt>
      <trkpt lat="45.87235" lon="4.74891">
        <ele>223</ele>
        <time>2018-11-06T11:17:16Z</time>
      </trkpt>
      <trkpt lat="45.87241" lon="4.74889">
        <ele>223</ele>
        <time>2018-11-06T11:17:17Z</time>
      </trkpt>
      <trkpt lat="45.87248" lon="4.74886">
        <ele>223</ele>
        <time>2018-11-06T11:17:18Z</time>
      </trkpt>
      <trkpt lat="45.87254" lon="4.74884">
        <ele>222</ele>
        <time>2018-11-06T11:17:19Z</time>
      </trkpt>
      <trkpt lat="45.87261" lon="4.74879">
        <ele>222</ele>
        <time>2018-11-06T11:17:20Z</time>
      </trkpt>
      <trkpt lat="45.87268" lon="4.74875">
        <ele>221</ele>
        <time>2018-11-06T11:17:21Z</time>
      </trkpt>
      <trkpt lat="45.87274" lon="4.74873">
        <ele>221</ele>
        <time>2018-11-06T11:17:22Z</time>
      </trkpt>
      <trkpt lat="45.8728" lon="4.74873">
        <ele>221</ele>
        <time>2018-11-06T11:17:23Z</time>
      </trkpt>
      <trkpt lat="45.87287" lon="4.74869">
        <ele>221</ele>
        <time>2018-11-06T11:17:24Z</time>
      </trkpt>
      <trkpt lat="45.87292" lon="4.74867">
        <ele>221</ele>
        <time>2018-11-06T11:17:25Z</time>
      </trkpt>
      <trkpt lat="45.87299" lon="4.74866">
        <ele>221</ele>
        <time>2018-11-06T11:17:26Z</time>
      </trkpt>
      <trkpt lat="45.87304" lon="4.74866">
        <ele>221</ele>
        <time>2018-11-06T11:17:27Z</time>
      </trkpt>
      <trkpt lat="45.87311" lon="4.74865">
        <ele>221</ele>
        <time>2018-11-06T11:17:28Z</time>
      </trkpt>
      <trkpt lat="45.87318" lon="4.74862">
        <ele>221</ele>
        <time>2018-11-06T11:17:29Z</time>
      </trkpt>
      <trkpt lat="45.87325" lon="4.74858">
        <ele>221</ele>
        <time>2018-11-06T11:17:30Z</time>
      </trkpt>
      <trkpt lat="45.87331" lon="4.74856">
        <ele>221</ele>
        <time>2018-11-06T11:17:31Z</time>
      </trkpt>
      <trkpt lat="45.87338" lon="4.74855">
        <ele>220</ele>
        <time>2018-11-06T11:17:32Z</time>
      </trkpt>
      <trkpt lat="45.87345" lon="4.74851">
        <ele>220</ele>
        <time>2018-11-06T11:17:33Z</time>
      </trkpt>
      <trkpt lat="45.87351" lon="4.74851">
        <ele>220</ele>
        <time>2018-11-06T11:17:34Z</time>
      </trkpt>
      <trkpt lat="45.87356" lon="4.7485">
        <ele>219</ele>
        <time>2018-11-06T11:17:35Z</time>
      </trkpt>
      <trkpt lat="45.87362" lon="4.74847">
        <ele>219</ele>
        <time>2018-11-06T11:17:36Z</time>
      </trkpt>
      <trkpt lat="45.8737" lon="4.74845">
        <ele>219</ele>
        <time>2018-11-06T11:17:37Z</time>
      </trkpt>
      <trkpt lat="45.87378" lon="4.7484">
        <ele>219</ele>
        <time>2018-11-06T11:17:38Z</time>
      </trkpt>
      <trkpt lat="45.87386" lon="4.7484">
        <ele>219</ele>
        <time>2018-11-06T11:17:39Z</time>
      </trkpt>
      <trkpt lat="45.87393" lon="4.74838">
        <ele>219</ele>
        <time>2018-11-06T11:17:40Z</time>
      </trkpt>
      <trkpt lat="45.87399" lon="4.74836">
        <ele>219</ele>
        <time>2018-11-06T11:17:41Z</time>
      </trkpt>
      <trkpt lat="45.87405" lon="4.74834">
        <ele>218</ele>
        <time>2018-11-06T11:17:42Z</time>
      </trkpt>
      <trkpt lat="45.87412" lon="4.7483">
        <ele>218</ele>
        <time>2018-11-06T11:17:43Z</time>
      </trkpt>
      <trkpt lat="45.87419" lon="4.74829">
        <ele>218</ele>
        <time>2018-11-06T11:17:44Z</time>
      </trkpt>
      <trkpt lat="45.87426" lon="4.74827">
        <ele>217</ele>
        <time>2018-11-06T11:17:45Z</time>
      </trkpt>
      <trkpt lat="45.87433" lon="4.74821">
        <ele>217</ele>
        <time>2018-11-06T11:17:46Z</time>
      </trkpt>
      <trkpt lat="45.8744" lon="4.74816">
        <ele>216</ele>
        <time>2018-11-06T11:17:47Z</time>
      </trkpt>
      <trkpt lat="45.87447" lon="4.74815">
        <ele>216</ele>
        <time>2018-11-06T11:17:48Z</time>
      </trkpt>
      <trkpt lat="45.87454" lon="4.74813">
        <ele>216</ele>
        <time>2018-11-06T11:17:49Z</time>
      </trkpt>
      <trkpt lat="45.8746" lon="4.74811">
        <ele>216</ele>
        <time>2018-11-06T11:17:50Z</time>
      </trkpt>
      <trkpt lat="45.87466" lon="4.74809">
        <ele>216</ele>
        <time>2018-11-06T11:17:51Z</time>
      </trkpt>
      <trkpt lat="45.87474" lon="4.74806">
        <ele>216</ele>
        <time>2018-11-06T11:17:52Z</time>
      </trkpt>
      <trkpt lat="45.87479" lon="4.74802">
        <ele>216</ele>
        <time>2018-11-06T11:17:53Z</time>
      </trkpt>
      <trkpt lat="45.87485" lon="4.74798">
        <ele>215</ele>
        <time>2018-11-06T11:17:54Z</time>
      </trkpt>
      <trkpt lat="45.87492" lon="4.74795">
        <ele>215</ele>
        <time>2018-11-06T11:17:55Z</time>
      </trkpt>
      <trkpt lat="45.87498" lon="4.74791">
        <ele>215</ele>
        <time>2018-11-06T11:17:56Z</time>
      </trkpt>
      <trkpt lat="45.87504" lon="4.74789">
        <ele>214</ele>
        <time>2018-11-06T11:17:57Z</time>
      </trkpt>
      <trkpt lat="45.8751" lon="4.74786">
        <ele>213</ele>
        <time>2018-11-06T11:17:58Z</time>
      </trkpt>
      <trkpt lat="45.87517" lon="4.74782">
        <ele>213</ele>
        <time>2018-11-06T11:17:59Z</time>
      </trkpt>
      <trkpt lat="45.87523" lon="4.74781">
        <ele>213</ele>
        <time>2018-11-06T11:18:00Z</time>
      </trkpt>
      <trkpt lat="45.87529" lon="4.74779">
        <ele>213</ele>
        <time>2018-11-06T11:18:01Z</time>
      </trkpt>
      <trkpt lat="45.87536" lon="4.74779">
        <ele>213</ele>
        <time>2018-11-06T11:18:02Z</time>
      </trkpt>
      <trkpt lat="45.87542" lon="4.74778">
        <ele>213</ele>
        <time>2018-11-06T11:18:03Z</time>
      </trkpt>
      <trkpt lat="45.87549" lon="4.74776">
        <ele>213</ele>
        <time>2018-11-06T11:18:04Z</time>
      </trkpt>
      <trkpt lat="45.87556" lon="4.74774">
        <ele>213</ele>
        <time>2018-11-06T11:18:05Z</time>
      </trkpt>
      <trkpt lat="45.87563" lon="4.74772">
        <ele>212</ele>
        <time>2018-11-06T11:18:06Z</time>
      </trkpt>
      <trkpt lat="45.87569" lon="4.7477">
        <ele>212</ele>
        <time>2018-11-06T11:18:07Z</time>
      </trkpt>
      <trkpt lat="45.87577" lon="4.74768">
        <ele>212</ele>
        <time>2018-11-06T11:18:08Z</time>
      </trkpt>
      <trkpt lat="45.87584" lon="4.74766">
        <ele>211</ele>
        <time>2018-11-06T11:18:09Z</time>
      </trkpt>
      <trkpt lat="45.87591" lon="4.74764">
        <ele>211</ele>
        <time>2018-11-06T11:18:10Z</time>
      </trkpt>
      <trkpt lat="45.87598" lon="4.74762">
        <ele>211</ele>
        <time>2018-11-06T11:18:11Z</time>
      </trkpt>
      <trkpt lat="45.87605" lon="4.74759">
        <ele>211</ele>
        <time>2018-11-06T11:18:12Z</time>
      </trkpt>
      <trkpt lat="45.87611" lon="4.74757">
        <ele>211</ele>
        <time>2018-11-06T11:18:13Z</time>
      </trkpt>
      <trkpt lat="45.87618" lon="4.74755">
        <ele>210</ele>
        <time>2018-11-06T11:18:14Z</time>
      </trkpt>
      <trkpt lat="45.87625" lon="4.74753">
        <ele>210</ele>
        <time>2018-11-06T11:18:15Z</time>
      </trkpt>
      <trkpt lat="45.87632" lon="4.74749">
        <ele>210</ele>
        <time>2018-11-06T11:18:16Z</time>
      </trkpt>
      <trkpt lat="45.87639" lon="4.74746">
        <ele>210</ele>
        <time>2018-11-06T11:18:17Z</time>
      </trkpt>
      <trkpt lat="45.87646" lon="4.74742">
        <ele>209</ele>
        <time>2018-11-06T11:18:18Z</time>
      </trkpt>
      <trkpt lat="45.87653" lon="4.74739">
        <ele>209</ele>
        <time>2018-11-06T11:18:19Z</time>
      </trkpt>
      <trkpt lat="45.8766" lon="4.74735">
        <ele>209</ele>
        <time>2018-11-06T11:18:20Z</time>
      </trkpt>
      <trkpt lat="45.87668" lon="4.74733">
        <ele>208</ele>
        <time>2018-11-06T11:18:21Z</time>
      </trkpt>
      <trkpt lat="45.87676" lon="4.74731">
        <ele>208</ele>
        <time>2018-11-06T11:18:22Z</time>
      </trkpt>
      <trkpt lat="45.87684" lon="4.74727">
        <ele>208</ele>
        <time>2018-11-06T11:18:23Z</time>
      </trkpt>
      <trkpt lat="45.87693" lon="4.74723">
        <ele>208</ele>
        <time>2018-11-06T11:18:24Z</time>
      </trkpt>
      <trkpt lat="45.87701" lon="4.7472">
        <ele>207</ele>
        <time>2018-11-06T11:18:25Z</time>
      </trkpt>
      <trkpt lat="45.87709" lon="4.74716">
        <ele>207</ele>
        <time>2018-11-06T11:18:26Z</time>
      </trkpt>
      <trkpt lat="45.87717" lon="4.74713">
        <ele>207</ele>
        <time>2018-11-06T11:18:27Z</time>
      </trkpt>
      <trkpt lat="45.87725" lon="4.7471">
        <ele>207</ele>
        <time>2018-11-06T11:18:28Z</time>
      </trkpt>
      <trkpt lat="45.87733" lon="4.74708">
        <ele>207</ele>
        <time>2018-11-06T11:18:29Z</time>
      </trkpt>
      <trkpt lat="45.8774" lon="4.74706">
        <ele>207</ele>
        <time>2018-11-06T11:18:30Z</time>
      </trkpt>
      <trkpt lat="45.87748" lon="4.74703">
        <ele>207</ele>
        <time>2018-11-06T11:18:31Z</time>
      </trkpt>
      <trkpt lat="45.87755" lon="4.74701">
        <ele>205</ele>
        <time>2018-11-06T11:18:32Z</time>
      </trkpt>
      <trkpt lat="45.87763" lon="4.74697">
        <ele>205</ele>
        <time>2018-11-06T11:18:33Z</time>
      </trkpt>
      <trkpt lat="45.87771" lon="4.74694">
        <ele>205</ele>
        <time>2018-11-06T11:18:34Z</time>
      </trkpt>
      <trkpt lat="45.87777" lon="4.74692">
        <ele>205</ele>
        <time>2018-11-06T11:18:35Z</time>
      </trkpt>
      <trkpt lat="45.87784" lon="4.74689">
        <ele>205</ele>
        <time>2018-11-06T11:18:36Z</time>
      </trkpt>
      <trkpt lat="45.87791" lon="4.74687">
        <ele>205</ele>
        <time>2018-11-06T11:18:37Z</time>
      </trkpt>
      <trkpt lat="45.87797" lon="4.74685">
        <ele>205</ele>
        <time>2018-11-06T11:18:38Z</time>
      </trkpt>
      <trkpt lat="45.87804" lon="4.74683">
        <ele>205</ele>
        <time>2018-11-06T11:18:39Z</time>
      </trkpt>
      <trkpt lat="45.87811" lon="4.74681">
        <ele>204</ele>
        <time>2018-11-06T11:18:40Z</time>
      </trkpt>
      <trkpt lat="45.87817" lon="4.7468">
        <ele>204</ele>
        <time>2018-11-06T11:18:41Z</time>
      </trkpt>
      <trkpt lat="45.87824" lon="4.74678">
        <ele>204</ele>
        <time>2018-11-06T11:18:42Z</time>
      </trkpt>
      <trkpt lat="45.87831" lon="4.74675">
        <ele>204</ele>
        <time>2018-11-06T11:18:43Z</time>
      </trkpt>
      <trkpt lat="45.87837" lon="4.74673">
        <ele>203</ele>
        <time>2018-11-06T11:18:44Z</time>
      </trkpt>
      <trkpt lat="45.87842" lon="4.7467">
        <ele>204</ele>
        <time>2018-11-06T11:18:45Z</time>
      </trkpt>
      <trkpt lat="45.87848" lon="4.74668">
        <ele>204</ele>
        <time>2018-11-06T11:18:46Z</time>
      </trkpt>
      <trkpt lat="45.87855" lon="4.74666">
        <ele>204</ele>
        <time>2018-11-06T11:18:47Z</time>
      </trkpt>
      <trkpt lat="45.87862" lon="4.74663">
        <ele>204</ele>
        <time>2018-11-06T11:18:48Z</time>
      </trkpt>
      <trkpt lat="45.87869" lon="4.7466">
        <ele>204</ele>
        <time>2018-11-06T11:18:49Z</time>
      </trkpt>
      <trkpt lat="45.87875" lon="4.74657">
        <ele>204</ele>
        <time>2018-11-06T11:18:50Z</time>
      </trkpt>
      <trkpt lat="45.87882" lon="4.74655">
        <ele>204</ele>
        <time>2018-11-06T11:18:51Z</time>
      </trkpt>
      <trkpt lat="45.87889" lon="4.74653">
        <ele>205</ele>
        <time>2018-11-06T11:18:52Z</time>
      </trkpt>
      <trkpt lat="45.87897" lon="4.7465">
        <ele>205</ele>
        <time>2018-11-06T11:18:53Z</time>
      </trkpt>
      <trkpt lat="45.87903" lon="4.74647">
        <ele>205</ele>
        <time>2018-11-06T11:18:54Z</time>
      </trkpt>
      <trkpt lat="45.8791" lon="4.74643">
        <ele>205</ele>
        <time>2018-11-06T11:18:55Z</time>
      </trkpt>
      <trkpt lat="45.87917" lon="4.74644">
        <ele>205</ele>
        <time>2018-11-06T11:18:56Z</time>
      </trkpt>
      <trkpt lat="45.87924" lon="4.74641">
        <ele>205</ele>
        <time>2018-11-06T11:18:57Z</time>
      </trkpt>
      <trkpt lat="45.87931" lon="4.7464">
        <ele>205</ele>
        <time>2018-11-06T11:18:58Z</time>
      </trkpt>
      <trkpt lat="45.87938" lon="4.74639">
        <ele>204</ele>
        <time>2018-11-06T11:18:59Z</time>
      </trkpt>
      <trkpt lat="45.87944" lon="4.74636">
        <ele>204</ele>
        <time>2018-11-06T11:19:00Z</time>
      </trkpt>
      <trkpt lat="45.8795" lon="4.74634">
        <ele>204</ele>
        <time>2018-11-06T11:19:01Z</time>
      </trkpt>
      <trkpt lat="45.87956" lon="4.74631">
        <ele>204</ele>
        <time>2018-11-06T11:19:02Z</time>
      </trkpt>
      <trkpt lat="45.87962" lon="4.74628">
        <ele>204</ele>
        <time>2018-11-06T11:19:03Z</time>
      </trkpt>
      <trkpt lat="45.87969" lon="4.74627">
        <ele>204</ele>
        <time>2018-11-06T11:19:04Z</time>
      </trkpt>
      <trkpt lat="45.87975" lon="4.74625">
        <ele>204</ele>
        <time>2018-11-06T11:19:05Z</time>
      </trkpt>
      <trkpt lat="45.87981" lon="4.74621">
        <ele>204</ele>
        <time>2018-11-06T11:19:06Z</time>
      </trkpt>
      <trkpt lat="45.87987" lon="4.74619">
        <ele>204</ele>
        <time>2018-11-06T11:19:07Z</time>
      </trkpt>
      <trkpt lat="45.87993" lon="4.74616">
        <ele>204</ele>
        <time>2018-11-06T11:19:08Z</time>
      </trkpt>
      <trkpt lat="45.87999" lon="4.74615">
        <ele>204</ele>
        <time>2018-11-06T11:19:09Z</time>
      </trkpt>
      <trkpt lat="45.88006" lon="4.74612">
        <ele>203</ele>
        <time>2018-11-06T11:19:10Z</time>
      </trkpt>
      <trkpt lat="45.88013" lon="4.74611">
        <ele>203</ele>
        <time>2018-11-06T11:19:11Z</time>
      </trkpt>
      <trkpt lat="45.88019" lon="4.74609">
        <ele>203</ele>
        <time>2018-11-06T11:19:12Z</time>
      </trkpt>
      <trkpt lat="45.88026" lon="4.74606">
        <ele>202</ele>
        <time>2018-11-06T11:19:13Z</time>
      </trkpt>
      <trkpt lat="45.88033" lon="4.74605">
        <ele>202</ele>
        <time>2018-11-06T11:19:14Z</time>
      </trkpt>
      <trkpt lat="45.8804" lon="4.74603">
        <ele>202</ele>
        <time>2018-11-06T11:19:15Z</time>
      </trkpt>
      <trkpt lat="45.88046" lon="4.746">
        <ele>202</ele>
        <time>2018-11-06T11:19:16Z</time>
      </trkpt>
      <trkpt lat="45.88053" lon="4.74598">
        <ele>202</ele>
        <time>2018-11-06T11:19:17Z</time>
      </trkpt>
      <trkpt lat="45.8806" lon="4.74594">
        <ele>202</ele>
        <time>2018-11-06T11:19:18Z</time>
      </trkpt>
      <trkpt lat="45.88067" lon="4.74592">
        <ele>202</ele>
        <time>2018-11-06T11:19:19Z</time>
      </trkpt>
      <trkpt lat="45.88074" lon="4.74589">
        <ele>201</ele>
        <time>2018-11-06T11:19:20Z</time>
      </trkpt>
      <trkpt lat="45.8808" lon="4.74587">
        <ele>201</ele>
        <time>2018-11-06T11:19:21Z</time>
      </trkpt>
      <trkpt lat="45.88087" lon="4.74584">
        <ele>201</ele>
        <time>2018-11-06T11:19:22Z</time>
      </trkpt>
      <trkpt lat="45.88093" lon="4.74582">
        <ele>201</ele>
        <time>2018-11-06T11:19:23Z</time>
      </trkpt>
      <trkpt lat="45.881" lon="4.74578">
        <ele>201</ele>
        <time>2018-11-06T11:19:24Z</time>
      </trkpt>
      <trkpt lat="45.88107" lon="4.74576">
        <ele>201</ele>
        <time>2018-11-06T11:19:25Z</time>
      </trkpt>
      <trkpt lat="45.88114" lon="4.74574">
        <ele>201</ele>
        <time>2018-11-06T11:19:26Z</time>
      </trkpt>
      <trkpt lat="45.8812" lon="4.74571">
        <ele>201</ele>
        <time>2018-11-06T11:19:27Z</time>
      </trkpt>
      <trkpt lat="45.88126" lon="4.74568">
        <ele>201</ele>
        <time>2018-11-06T11:19:28Z</time>
      </trkpt>
      <trkpt lat="45.88132" lon="4.74566">
        <ele>201</ele>
        <time>2018-11-06T11:19:29Z</time>
      </trkpt>
      <trkpt lat="45.88138" lon="4.74565">
        <ele>201</ele>
        <time>2018-11-06T11:19:30Z</time>
      </trkpt>
      <trkpt lat="45.88145" lon="4.74563">
        <ele>201</ele>
        <time>2018-11-06T11:19:31Z</time>
      </trkpt>
      <trkpt lat="45.88152" lon="4.74561">
        <ele>201</ele>
        <time>2018-11-06T11:19:32Z</time>
      </trkpt>
      <trkpt lat="45.88158" lon="4.74559">
        <ele>201</ele>
        <time>2018-11-06T11:19:33Z</time>
      </trkpt>
      <trkpt lat="45.88165" lon="4.74556">
        <ele>201</ele>
        <time>2018-11-06T11:19:34Z</time>
      </trkpt>
      <trkpt lat="45.88172" lon="4.74554">
        <ele>201</ele>
        <time>2018-11-06T11:19:35Z</time>
      </trkpt>
      <trkpt lat="45.88179" lon="4.74551">
        <ele>201</ele>
        <time>2018-11-06T11:19:36Z</time>
      </trkpt>
      <trkpt lat="45.88187" lon="4.7455">
        <ele>201</ele>
        <time>2018-11-06T11:19:37Z</time>
      </trkpt>
      <trkpt lat="45.88194" lon="4.74547">
        <ele>201</ele>
        <time>2018-11-06T11:19:38Z</time>
      </trkpt>
      <trkpt lat="45.88199" lon="4.74546">
        <ele>201</ele>
        <time>2018-11-06T11:19:39Z</time>
      </trkpt>
      <trkpt lat="45.88205" lon="4.74544">
        <ele>201</ele>
        <time>2018-11-06T11:19:40Z</time>
      </trkpt>
      <trkpt lat="45.88211" lon="4.74542">
        <ele>201</ele>
        <time>2018-11-06T11:19:41Z</time>
      </trkpt>
      <trkpt lat="45.88217" lon="4.74539">
        <ele>201</ele>
        <time>2018-11-06T11:19:42Z</time>
      </trkpt>
      <trkpt lat="45.88223" lon="4.74537">
        <ele>201</ele>
        <time>2018-11-06T11:19:43Z</time>
      </trkpt>
      <trkpt lat="45.88229" lon="4.74535">
        <ele>201</ele>
        <time>2018-11-06T11:19:44Z</time>
      </trkpt>
      <trkpt lat="45.88235" lon="4.74532">
        <ele>201</ele>
        <time>2018-11-06T11:19:45Z</time>
      </trkpt>
      <trkpt lat="45.8824" lon="4.74529">
        <ele>201</ele>
        <time>2018-11-06T11:19:46Z</time>
      </trkpt>
      <trkpt lat="45.88245" lon="4.74527">
        <ele>201</ele>
        <time>2018-11-06T11:19:47Z</time>
      </trkpt>
      <trkpt lat="45.88251" lon="4.74524">
        <ele>201</ele>
        <time>2018-11-06T11:19:48Z</time>
      </trkpt>
      <trkpt lat="45.88257" lon="4.74522">
        <ele>201</ele>
        <time>2018-11-06T11:19:49Z</time>
      </trkpt>
      <trkpt lat="45.88263" lon="4.74521">
        <ele>201</ele>
        <time>2018-11-06T11:19:50Z</time>
      </trkpt>
      <trkpt lat="45.88267" lon="4.74519">
        <ele>201</ele>
        <time>2018-11-06T11:19:51Z</time>
      </trkpt>
      <trkpt lat="45.88272" lon="4.74517">
        <ele>201</ele>
        <time>2018-11-06T11:19:52Z</time>
      </trkpt>
      <trkpt lat="45.88276" lon="4.74516">
        <ele>201</ele>
        <time>2018-11-06T11:19:53Z</time>
      </trkpt>
      <trkpt lat="45.88281" lon="4.74513">
        <ele>201</ele>
        <time>2018-11-06T11:19:54Z</time>
      </trkpt>
      <trkpt lat="45.88286" lon="4.74512">
        <ele>201</ele>
        <time>2018-11-06T11:19:55Z</time>
      </trkpt>
      <trkpt lat="45.88293" lon="4.74508">
        <ele>201</ele>
        <time>2018-11-06T11:19:56Z</time>
      </trkpt>
      <trkpt lat="45.88297" lon="4.74506">
        <ele>201</ele>
        <time>2018-11-06T11:19:57Z</time>
      </trkpt>
      <trkpt lat="45.88302" lon="4.74504">
        <ele>201</ele>
        <time>2018-11-06T11:19:58Z</time>
      </trkpt>
      <trkpt lat="45.88308" lon="4.74503">
        <ele>201</ele>
        <time>2018-11-06T11:19:59Z</time>
      </trkpt>
      <trkpt lat="45.88313" lon="4.74501">
        <ele>201</ele>
        <time>2018-11-06T11:20:00Z</time>
      </trkpt>
      <trkpt lat="45.88319" lon="4.74499">
        <ele>200</ele>
        <time>2018-11-06T11:20:01Z</time>
      </trkpt>
      <trkpt lat="45.88324" lon="4.74498">
        <ele>201</ele>
        <time>2018-11-06T11:20:02Z</time>
      </trkpt>
      <trkpt lat="45.8833" lon="4.74496">
        <ele>201</ele>
        <time>2018-11-06T11:20:03Z</time>
      </trkpt>
      <trkpt lat="45.88336" lon="4.74493">
        <ele>200</ele>
        <time>2018-11-06T11:20:04Z</time>
      </trkpt>
      <trkpt lat="45.88342" lon="4.74491">
        <ele>200</ele>
        <time>2018-11-06T11:20:05Z</time>
      </trkpt>
      <trkpt lat="45.88348" lon="4.74489">
        <ele>199</ele>
        <time>2018-11-06T11:20:06Z</time>
      </trkpt>
      <trkpt lat="45.88354" lon="4.74487">
        <ele>199</ele>
        <time>2018-11-06T11:20:07Z</time>
      </trkpt>
      <trkpt lat="45.88359" lon="4.74485">
        <ele>199</ele>
        <time>2018-11-06T11:20:08Z</time>
      </trkpt>
      <trkpt lat="45.88364" lon="4.74483">
        <ele>199</ele>
        <time>2018-11-06T11:20:09Z</time>
      </trkpt>
      <trkpt lat="45.88369" lon="4.7448">
        <ele>199</ele>
        <time>2018-11-06T11:20:10Z</time>
      </trkpt>
      <trkpt lat="45.88374" lon="4.74478">
        <ele>198</ele>
        <time>2018-11-06T11:20:11Z</time>
      </trkpt>
      <trkpt lat="45.88381" lon="4.74476">
        <ele>198</ele>
        <time>2018-11-06T11:20:12Z</time>
      </trkpt>
      <trkpt lat="45.88388" lon="4.74474">
        <ele>198</ele>
        <time>2018-11-06T11:20:13Z</time>
      </trkpt>
      <trkpt lat="45.88395" lon="4.7447">
        <ele>198</ele>
        <time>2018-11-06T11:20:14Z</time>
      </trkpt>
      <trkpt lat="45.88401" lon="4.74469">
        <ele>198</ele>
        <time>2018-11-06T11:20:15Z</time>
      </trkpt>
      <trkpt lat="45.88408" lon="4.74468">
        <ele>198</ele>
        <time>2018-11-06T11:20:16Z</time>
      </trkpt>
      <trkpt lat="45.88417" lon="4.74466">
        <ele>197</ele>
        <time>2018-11-06T11:20:17Z</time>
      </trkpt>
      <trkpt lat="45.88426" lon="4.74466">
        <ele>197</ele>
        <time>2018-11-06T11:20:18Z</time>
      </trkpt>
      <trkpt lat="45.88435" lon="4.74463">
        <ele>197</ele>
        <time>2018-11-06T11:20:19Z</time>
      </trkpt>
      <trkpt lat="45.88443" lon="4.7446">
        <ele>196</ele>
        <time>2018-11-06T11:20:20Z</time>
      </trkpt>
      <trkpt lat="45.8845" lon="4.7446">
        <ele>196</ele>
        <time>2018-11-06T11:20:21Z</time>
      </trkpt>
      <trkpt lat="45.88459" lon="4.74455">
        <ele>196</ele>
        <time>2018-11-06T11:20:22Z</time>
      </trkpt>
      <trkpt lat="45.88469" lon="4.74448">
        <ele>196</ele>
        <time>2018-11-06T11:20:23Z</time>
      </trkpt>
      <trkpt lat="45.88478" lon="4.74444">
        <ele>196</ele>
        <time>2018-11-06T11:20:24Z</time>
      </trkpt>
      <trkpt lat="45.88487" lon="4.7444">
        <ele>196</ele>
        <time>2018-11-06T11:20:25Z</time>
      </trkpt>
      <trkpt lat="45.88496" lon="4.74438">
        <ele>195</ele>
        <time>2018-11-06T11:20:26Z</time>
      </trkpt>
      <trkpt lat="45.88505" lon="4.74434">
        <ele>195</ele>
        <time>2018-11-06T11:20:27Z</time>
      </trkpt>
      <trkpt lat="45.88515" lon="4.7443">
        <ele>195</ele>
        <time>2018-11-06T11:20:28Z</time>
      </trkpt>
      <trkpt lat="45.88523" lon="4.74427">
        <ele>195</ele>
        <time>2018-11-06T11:20:29Z</time>
      </trkpt>
      <trkpt lat="45.88532" lon="4.74423">
        <ele>195</ele>
        <time>2018-11-06T11:20:30Z</time>
      </trkpt>
      <trkpt lat="45.88541" lon="4.74422">
        <ele>195</ele>
        <time>2018-11-06T11:20:31Z</time>
      </trkpt>
      <trkpt lat="45.88548" lon="4.74418">
        <ele>195</ele>
        <time>2018-11-06T11:20:32Z</time>
      </trkpt>
      <trkpt lat="45.88557" lon="4.74416">
        <ele>194</ele>
        <time>2018-11-06T11:20:33Z</time>
      </trkpt>
      <trkpt lat="45.88565" lon="4.74414">
        <ele>194</ele>
        <time>2018-11-06T11:20:34Z</time>
      </trkpt>
      <trkpt lat="45.88573" lon="4.74411">
        <ele>195</ele>
        <time>2018-11-06T11:20:35Z</time>
      </trkpt>
      <trkpt lat="45.8858" lon="4.74409">
        <ele>195</ele>
        <time>2018-11-06T11:20:36Z</time>
      </trkpt>
      <trkpt lat="45.88587" lon="4.74406">
        <ele>194</ele>
        <time>2018-11-06T11:20:37Z</time>
      </trkpt>
      <trkpt lat="45.88594" lon="4.74404">
        <ele>193</ele>
        <time>2018-11-06T11:20:38Z</time>
      </trkpt>
      <trkpt lat="45.88602" lon="4.74402">
        <ele>193</ele>
        <time>2018-11-06T11:20:39Z</time>
      </trkpt>
      <trkpt lat="45.88609" lon="4.744">
        <ele>192</ele>
        <time>2018-11-06T11:20:40Z</time>
      </trkpt>
      <trkpt lat="45.88616" lon="4.74398">
        <ele>192</ele>
        <time>2018-11-06T11:20:41Z</time>
      </trkpt>
      <trkpt lat="45.88622" lon="4.74397">
        <ele>191</ele>
        <time>2018-11-06T11:20:42Z</time>
      </trkpt>
      <trkpt lat="45.88629" lon="4.74396">
        <ele>191</ele>
        <time>2018-11-06T11:20:43Z</time>
      </trkpt>
      <trkpt lat="45.88636" lon="4.74397">
        <ele>191</ele>
        <time>2018-11-06T11:20:44Z</time>
      </trkpt>
      <trkpt lat="45.88642" lon="4.74394">
        <ele>191</ele>
        <time>2018-11-06T11:20:45Z</time>
      </trkpt>
      <trkpt lat="45.88648" lon="4.74392">
        <ele>191</ele>
        <time>2018-11-06T11:20:46Z</time>
      </trkpt>
      <trkpt lat="45.88659" lon="4.74389">
        <ele>190</ele>
        <time>2018-11-06T11:20:47Z</time>
      </trkpt>
      <trkpt lat="45.88665" lon="4.74387">
        <ele>190</ele>
        <time>2018-11-06T11:20:48Z</time>
      </trkpt>
      <trkpt lat="45.8867" lon="4.74386">
        <ele>189</ele>
        <time>2018-11-06T11:20:49Z</time>
      </trkpt>
      <trkpt lat="45.88676" lon="4.74384">
        <ele>189</ele>
        <time>2018-11-06T11:20:50Z</time>
      </trkpt>
      <trkpt lat="45.88681" lon="4.74383">
        <ele>189</ele>
        <time>2018-11-06T11:20:51Z</time>
      </trkpt>
      <trkpt lat="45.88686" lon="4.74381">
        <ele>189</ele>
        <time>2018-11-06T11:20:52Z</time>
      </trkpt>
      <trkpt lat="45.88691" lon="4.7438">
        <ele>189</ele>
        <time>2018-11-06T11:20:53Z</time>
      </trkpt>
      <trkpt lat="45.88697" lon="4.74378">
        <ele>189</ele>
        <time>2018-11-06T11:20:54Z</time>
      </trkpt>
      <trkpt lat="45.88701" lon="4.74378">
        <ele>189</ele>
        <time>2018-11-06T11:20:55Z</time>
      </trkpt>
      <trkpt lat="45.88705" lon="4.74377">
        <ele>189</ele>
        <time>2018-11-06T11:20:56Z</time>
      </trkpt>
      <trkpt lat="45.88711" lon="4.74375">
        <ele>189</ele>
        <time>2018-11-06T11:20:57Z</time>
      </trkpt>
      <trkpt lat="45.88716" lon="4.74375">
        <ele>189</ele>
        <time>2018-11-06T11:20:58Z</time>
      </trkpt>
      <trkpt lat="45.88721" lon="4.74372">
        <ele>189</ele>
        <time>2018-11-06T11:20:59Z</time>
      </trkpt>
      <trkpt lat="45.88727" lon="4.74371">
        <ele>189</ele>
        <time>2018-11-06T11:21:00Z</time>
      </trkpt>
      <trkpt lat="45.88733" lon="4.7437">
        <ele>189</ele>
        <time>2018-11-06T11:21:01Z</time>
      </trkpt>
      <trkpt lat="45.88739" lon="4.74368">
        <ele>189</ele>
        <time>2018-11-06T11:21:02Z</time>
      </trkpt>
      <trkpt lat="45.88745" lon="4.74365">
        <ele>189</ele>
        <time>2018-11-06T11:21:03Z</time>
      </trkpt>
      <trkpt lat="45.8875" lon="4.74363">
        <ele>189</ele>
        <time>2018-11-06T11:21:04Z</time>
      </trkpt>
      <trkpt lat="45.88756" lon="4.74362">
        <ele>189</ele>
        <time>2018-11-06T11:21:05Z</time>
      </trkpt>
      <trkpt lat="45.88762" lon="4.74361">
        <ele>189</ele>
        <time>2018-11-06T11:21:06Z</time>
      </trkpt>
      <trkpt lat="45.88768" lon="4.7436">
        <ele>189</ele>
        <time>2018-11-06T11:21:07Z</time>
      </trkpt>
      <trkpt lat="45.88773" lon="4.74359">
        <ele>189</ele>
        <time>2018-11-06T11:21:08Z</time>
      </trkpt>
      <trkpt lat="45.88779" lon="4.74355">
        <ele>189</ele>
        <time>2018-11-06T11:21:09Z</time>
      </trkpt>
      <trkpt lat="45.88784" lon="4.74352">
        <ele>189</ele>
        <time>2018-11-06T11:21:10Z</time>
      </trkpt>
      <trkpt lat="45.8879" lon="4.7435">
        <ele>189</ele>
        <time>2018-11-06T11:21:11Z</time>
      </trkpt>
      <trkpt lat="45.88796" lon="4.74349">
        <ele>189</ele>
        <time>2018-11-06T11:21:12Z</time>
      </trkpt>
      <trkpt lat="45.88802" lon="4.74347">
        <ele>188</ele>
        <time>2018-11-06T11:21:13Z</time>
      </trkpt>
      <trkpt lat="45.88808" lon="4.74344">
        <ele>188</ele>
        <time>2018-11-06T11:21:14Z</time>
      </trkpt>
      <trkpt lat="45.88814" lon="4.74342">
        <ele>188</ele>
        <time>2018-11-06T11:21:15Z</time>
      </trkpt>
      <trkpt lat="45.88822" lon="4.7434">
        <ele>188</ele>
        <time>2018-11-06T11:21:16Z</time>
      </trkpt>
      <trkpt lat="45.88828" lon="4.74337">
        <ele>188</ele>
        <time>2018-11-06T11:21:17Z</time>
      </trkpt>
      <trkpt lat="45.88835" lon="4.74336">
        <ele>188</ele>
        <time>2018-11-06T11:21:18Z</time>
      </trkpt>
      <trkpt lat="45.88841" lon="4.74334">
        <ele>188</ele>
        <time>2018-11-06T11:21:19Z</time>
      </trkpt>
      <trkpt lat="45.88847" lon="4.74333">
        <ele>188</ele>
        <time>2018-11-06T11:21:20Z</time>
      </trkpt>
      <trkpt lat="45.88854" lon="4.74331">
        <ele>188</ele>
        <time>2018-11-06T11:21:21Z</time>
      </trkpt>
      <trkpt lat="45.8886" lon="4.74327">
        <ele>188</ele>
        <time>2018-11-06T11:21:22Z</time>
      </trkpt>
      <trkpt lat="45.88866" lon="4.74325">
        <ele>188</ele>
        <time>2018-11-06T11:21:23Z</time>
      </trkpt>
      <trkpt lat="45.88872" lon="4.74323">
        <ele>188</ele>
        <time>2018-11-06T11:21:24Z</time>
      </trkpt>
      <trkpt lat="45.88877" lon="4.7432">
        <ele>188</ele>
        <time>2018-11-06T11:21:25Z</time>
      </trkpt>
      <trkpt lat="45.88883" lon="4.74319">
        <ele>188</ele>
        <time>2018-11-06T11:21:26Z</time>
      </trkpt>
      <trkpt lat="45.88889" lon="4.74318">
        <ele>188</ele>
        <time>2018-11-06T11:21:27Z</time>
      </trkpt>
      <trkpt lat="45.88894" lon="4.74317">
        <ele>188</ele>
        <time>2018-11-06T11:21:28Z</time>
      </trkpt>
      <trkpt lat="45.88899" lon="4.74315">
        <ele>188</ele>
        <time>2018-11-06T11:21:29Z</time>
      </trkpt>
      <trkpt lat="45.88905" lon="4.74312">
        <ele>188</ele>
        <time>2018-11-06T11:21:30Z</time>
      </trkpt>
      <trkpt lat="45.8891" lon="4.74312">
        <ele>188</ele>
        <time>2018-11-06T11:21:31Z</time>
      </trkpt>
      <trkpt lat="45.88917" lon="4.7431">
        <ele>188</ele>
        <time>2018-11-06T11:21:33Z</time>
      </trkpt>
      <trkpt lat="45.88919" lon="4.74309">
        <ele>188</ele>
        <time>2018-11-06T11:21:34Z</time>
      </trkpt>
      <trkpt lat="45.88927" lon="4.74307">
        <ele>187</ele>
        <time>2018-11-06T11:21:38Z</time>
      </trkpt>
      <trkpt lat="45.88929" lon="4.74306">
        <ele>187</ele>
        <time>2018-11-06T11:21:39Z</time>
      </trkpt>
      <trkpt lat="45.88937" lon="4.74306">
        <ele>187</ele>
        <time>2018-11-06T11:21:49Z</time>
      </trkpt>
      <trkpt lat="45.88939" lon="4.74306">
        <ele>187</ele>
        <time>2018-11-06T11:21:50Z</time>
      </trkpt>
      <trkpt lat="45.88948" lon="4.74304">
        <ele>187</ele>
        <time>2018-11-06T11:21:52Z</time>
      </trkpt>
      <trkpt lat="45.88952" lon="4.74303">
        <ele>187</ele>
        <time>2018-11-06T11:21:53Z</time>
      </trkpt>
      <trkpt lat="45.88959" lon="4.74302">
        <ele>187</ele>
        <time>2018-11-06T11:21:55Z</time>
      </trkpt>
      <trkpt lat="45.88963" lon="4.74301">
        <ele>187</ele>
        <time>2018-11-06T11:21:56Z</time>
      </trkpt>
      <trkpt lat="45.88967" lon="4.74298">
        <ele>187</ele>
        <time>2018-11-06T11:21:57Z</time>
      </trkpt>
      <trkpt lat="45.88972" lon="4.74296">
        <ele>187</ele>
        <time>2018-11-06T11:21:58Z</time>
      </trkpt>
      <trkpt lat="45.88978" lon="4.74294">
        <ele>187</ele>
        <time>2018-11-06T11:21:59Z</time>
      </trkpt>
      <trkpt lat="45.88983" lon="4.74292">
        <ele>187</ele>
        <time>2018-11-06T11:22:00Z</time>
      </trkpt>
      <trkpt lat="45.88989" lon="4.7429">
        <ele>187</ele>
        <time>2018-11-06T11:22:01Z</time>
      </trkpt>
      <trkpt lat="45.88995" lon="4.74288">
        <ele>187</ele>
        <time>2018-11-06T11:22:02Z</time>
      </trkpt>
      <trkpt lat="45.89" lon="4.74286">
        <ele>187</ele>
        <time>2018-11-06T11:22:03Z</time>
      </trkpt>
      <trkpt lat="45.89007" lon="4.74284">
        <ele>187</ele>
        <time>2018-11-06T11:22:04Z</time>
      </trkpt>
      <trkpt lat="45.89014" lon="4.74282">
        <ele>187</ele>
        <time>2018-11-06T11:22:05Z</time>
      </trkpt>
      <trkpt lat="45.89019" lon="4.7428">
        <ele>187</ele>
        <time>2018-11-06T11:22:06Z</time>
      </trkpt>
      <trkpt lat="45.89024" lon="4.74281">
        <ele>187</ele>
        <time>2018-11-06T11:22:07Z</time>
      </trkpt>
      <trkpt lat="45.8903" lon="4.74279">
        <ele>187</ele>
        <time>2018-11-06T11:22:08Z</time>
      </trkpt>
      <trkpt lat="45.89035" lon="4.74278">
        <ele>187</ele>
        <time>2018-11-06T11:22:09Z</time>
      </trkpt>
      <trkpt lat="45.89039" lon="4.74273">
        <ele>187</ele>
        <time>2018-11-06T11:22:10Z</time>
      </trkpt>
      <trkpt lat="45.89046" lon="4.74272">
        <ele>187</ele>
        <time>2018-11-06T11:22:11Z</time>
      </trkpt>
      <trkpt lat="45.8905" lon="4.7427">
        <ele>187</ele>
        <time>2018-11-06T11:22:12Z</time>
      </trkpt>
      <trkpt lat="45.89055" lon="4.74268">
        <ele>187</ele>
        <time>2018-11-06T11:22:13Z</time>
      </trkpt>
      <trkpt lat="45.89061" lon="4.74265">
        <ele>187</ele>
        <time>2018-11-06T11:22:14Z</time>
      </trkpt>
      <trkpt lat="45.89067" lon="4.74265">
        <ele>186</ele>
        <time>2018-11-06T11:22:15Z</time>
      </trkpt>
      <trkpt lat="45.89073" lon="4.74262">
        <ele>186</ele>
        <time>2018-11-06T11:22:16Z</time>
      </trkpt>
      <trkpt lat="45.89079" lon="4.74261">
        <ele>186</ele>
        <time>2018-11-06T11:22:17Z</time>
      </trkpt>
      <trkpt lat="45.89084" lon="4.7426">
        <ele>186</ele>
        <time>2018-11-06T11:22:18Z</time>
      </trkpt>
      <trkpt lat="45.8909" lon="4.74259">
        <ele>186</ele>
        <time>2018-11-06T11:22:19Z</time>
      </trkpt>
      <trkpt lat="45.89099" lon="4.74253">
        <ele>186</ele>
        <time>2018-11-06T11:22:20Z</time>
      </trkpt>
      <trkpt lat="45.89106" lon="4.74251">
        <ele>187</ele>
        <time>2018-11-06T11:22:21Z</time>
      </trkpt>
      <trkpt lat="45.89112" lon="4.74248">
        <ele>186</ele>
        <time>2018-11-06T11:22:22Z</time>
      </trkpt>
      <trkpt lat="45.89118" lon="4.74247">
        <ele>186</ele>
        <time>2018-11-06T11:22:23Z</time>
      </trkpt>
      <trkpt lat="45.89124" lon="4.74244">
        <ele>186</ele>
        <time>2018-11-06T11:22:24Z</time>
      </trkpt>
      <trkpt lat="45.8913" lon="4.74243">
        <ele>186</ele>
        <time>2018-11-06T11:22:25Z</time>
      </trkpt>
      <trkpt lat="45.89136" lon="4.74241">
        <ele>186</ele>
        <time>2018-11-06T11:22:26Z</time>
      </trkpt>
      <trkpt lat="45.89142" lon="4.74239">
        <ele>186</ele>
        <time>2018-11-06T11:22:27Z</time>
      </trkpt>
      <trkpt lat="45.89148" lon="4.74237">
        <ele>186</ele>
        <time>2018-11-06T11:22:28Z</time>
      </trkpt>
      <trkpt lat="45.89153" lon="4.74233">
        <ele>186</ele>
        <time>2018-11-06T11:22:29Z</time>
      </trkpt>
      <trkpt lat="45.8916" lon="4.74232">
        <ele>186</ele>
        <time>2018-11-06T11:22:30Z</time>
      </trkpt>
      <trkpt lat="45.89165" lon="4.74228">
        <ele>186</ele>
        <time>2018-11-06T11:22:31Z</time>
      </trkpt>
      <trkpt lat="45.89172" lon="4.74226">
        <ele>186</ele>
        <time>2018-11-06T11:22:32Z</time>
      </trkpt>
      <trkpt lat="45.89178" lon="4.74223">
        <ele>186</ele>
        <time>2018-11-06T11:22:33Z</time>
      </trkpt>
      <trkpt lat="45.89184" lon="4.7422">
        <ele>186</ele>
        <time>2018-11-06T11:22:34Z</time>
      </trkpt>
      <trkpt lat="45.8919" lon="4.74217">
        <ele>186</ele>
        <time>2018-11-06T11:22:35Z</time>
      </trkpt>
      <trkpt lat="45.89197" lon="4.74215">
        <ele>186</ele>
        <time>2018-11-06T11:22:36Z</time>
      </trkpt>
      <trkpt lat="45.89204" lon="4.74213">
        <ele>186</ele>
        <time>2018-11-06T11:22:37Z</time>
      </trkpt>
      <trkpt lat="45.8921" lon="4.7421">
        <ele>186</ele>
        <time>2018-11-06T11:22:38Z</time>
      </trkpt>
      <trkpt lat="45.89216" lon="4.74207">
        <ele>186</ele>
        <time>2018-11-06T11:22:39Z</time>
      </trkpt>
      <trkpt lat="45.89222" lon="4.74205">
        <ele>186</ele>
        <time>2018-11-06T11:22:40Z</time>
      </trkpt>
      <trkpt lat="45.89229" lon="4.74202">
        <ele>186</ele>
        <time>2018-11-06T11:22:41Z</time>
      </trkpt>
      <trkpt lat="45.89235" lon="4.742">
        <ele>186</ele>
        <time>2018-11-06T11:22:42Z</time>
      </trkpt>
      <trkpt lat="45.8924" lon="4.74196">
        <ele>186</ele>
        <time>2018-11-06T11:22:43Z</time>
      </trkpt>
      <trkpt lat="45.89245" lon="4.74194">
        <ele>186</ele>
        <time>2018-11-06T11:22:44Z</time>
      </trkpt>
      <trkpt lat="45.89251" lon="4.74192">
        <ele>186</ele>
        <time>2018-11-06T11:22:45Z</time>
      </trkpt>
      <trkpt lat="45.89257" lon="4.7419">
        <ele>186</ele>
        <time>2018-11-06T11:22:46Z</time>
      </trkpt>
      <trkpt lat="45.89263" lon="4.74188">
        <ele>186</ele>
        <time>2018-11-06T11:22:47Z</time>
      </trkpt>
      <trkpt lat="45.89269" lon="4.74182">
        <ele>186</ele>
        <time>2018-11-06T11:22:48Z</time>
      </trkpt>
      <trkpt lat="45.89275" lon="4.7418">
        <ele>186</ele>
        <time>2018-11-06T11:22:49Z</time>
      </trkpt>
      <trkpt lat="45.8928" lon="4.74178">
        <ele>186</ele>
        <time>2018-11-06T11:22:50Z</time>
      </trkpt>
      <trkpt lat="45.89285" lon="4.74176">
        <ele>186</ele>
        <time>2018-11-06T11:22:51Z</time>
      </trkpt>
      <trkpt lat="45.8929" lon="4.74172">
        <ele>186</ele>
        <time>2018-11-06T11:22:52Z</time>
      </trkpt>
      <trkpt lat="45.89296" lon="4.7417">
        <ele>186</ele>
        <time>2018-11-06T11:22:53Z</time>
      </trkpt>
      <trkpt lat="45.89301" lon="4.74167">
        <ele>186</ele>
        <time>2018-11-06T11:22:54Z</time>
      </trkpt>
      <trkpt lat="45.89308" lon="4.74164">
        <ele>185</ele>
        <time>2018-11-06T11:22:55Z</time>
      </trkpt>
      <trkpt lat="45.89314" lon="4.74161">
        <ele>185</ele>
        <time>2018-11-06T11:22:56Z</time>
      </trkpt>
      <trkpt lat="45.8932" lon="4.74158">
        <ele>185</ele>
        <time>2018-11-06T11:22:57Z</time>
      </trkpt>
      <trkpt lat="45.89326" lon="4.74156">
        <ele>185</ele>
        <time>2018-11-06T11:22:58Z</time>
      </trkpt>
      <trkpt lat="45.89332" lon="4.74153">
        <ele>185</ele>
        <time>2018-11-06T11:22:59Z</time>
      </trkpt>
      <trkpt lat="45.89339" lon="4.7415">
        <ele>185</ele>
        <time>2018-11-06T11:23:00Z</time>
      </trkpt>
      <trkpt lat="45.89345" lon="4.74148">
        <ele>185</ele>
        <time>2018-11-06T11:23:01Z</time>
      </trkpt>
      <trkpt lat="45.89351" lon="4.74146">
        <ele>185</ele>
        <time>2018-11-06T11:23:02Z</time>
      </trkpt>
      <trkpt lat="45.89358" lon="4.74144">
        <ele>184</ele>
        <time>2018-11-06T11:23:03Z</time>
      </trkpt>
      <trkpt lat="45.89365" lon="4.74141">
        <ele>184</ele>
        <time>2018-11-06T11:23:04Z</time>
      </trkpt>
      <trkpt lat="45.89372" lon="4.74139">
        <ele>184</ele>
        <time>2018-11-06T11:23:05Z</time>
      </trkpt>
      <trkpt lat="45.89377" lon="4.74136">
        <ele>184</ele>
        <time>2018-11-06T11:23:06Z</time>
      </trkpt>
      <trkpt lat="45.89383" lon="4.74134">
        <ele>184</ele>
        <time>2018-11-06T11:23:07Z</time>
      </trkpt>
      <trkpt lat="45.89388" lon="4.74132">
        <ele>184</ele>
        <time>2018-11-06T11:23:08Z</time>
      </trkpt>
      <trkpt lat="45.89394" lon="4.74129">
        <ele>184</ele>
        <time>2018-11-06T11:23:09Z</time>
      </trkpt>
      <trkpt lat="45.89399" lon="4.74127">
        <ele>184</ele>
        <time>2018-11-06T11:23:10Z</time>
      </trkpt>
      <trkpt lat="45.89405" lon="4.74125">
        <ele>184</ele>
        <time>2018-11-06T11:23:11Z</time>
      </trkpt>
      <trkpt lat="45.8941" lon="4.74123">
        <ele>184</ele>
        <time>2018-11-06T11:23:12Z</time>
      </trkpt>
      <trkpt lat="45.89416" lon="4.7412">
        <ele>184</ele>
        <time>2018-11-06T11:23:13Z</time>
      </trkpt>
      <trkpt lat="45.89422" lon="4.74117">
        <ele>183</ele>
        <time>2018-11-06T11:23:14Z</time>
      </trkpt>
      <trkpt lat="45.89428" lon="4.74115">
        <ele>183</ele>
        <time>2018-11-06T11:23:15Z</time>
      </trkpt>
      <trkpt lat="45.89434" lon="4.74111">
        <ele>183</ele>
        <time>2018-11-06T11:23:16Z</time>
      </trkpt>
      <trkpt lat="45.89441" lon="4.74109">
        <ele>183</ele>
        <time>2018-11-06T11:23:17Z</time>
      </trkpt>
      <trkpt lat="45.89447" lon="4.74106">
        <ele>183</ele>
        <time>2018-11-06T11:23:18Z</time>
      </trkpt>
      <trkpt lat="45.89453" lon="4.74103">
        <ele>182</ele>
        <time>2018-11-06T11:23:19Z</time>
      </trkpt>
      <trkpt lat="45.8946" lon="4.74101">
        <ele>182</ele>
        <time>2018-11-06T11:23:20Z</time>
      </trkpt>
      <trkpt lat="45.89467" lon="4.74099">
        <ele>182</ele>
        <time>2018-11-06T11:23:21Z</time>
      </trkpt>
      <trkpt lat="45.89473" lon="4.74096">
        <ele>182</ele>
        <time>2018-11-06T11:23:22Z</time>
      </trkpt>
      <trkpt lat="45.8948" lon="4.74094">
        <ele>182</ele>
        <time>2018-11-06T11:23:23Z</time>
      </trkpt>
      <trkpt lat="45.89486" lon="4.74091">
        <ele>182</ele>
        <time>2018-11-06T11:23:24Z</time>
      </trkpt>
      <trkpt lat="45.89493" lon="4.74088">
        <ele>182</ele>
        <time>2018-11-06T11:23:25Z</time>
      </trkpt>
      <trkpt lat="45.895" lon="4.74085">
        <ele>181</ele>
        <time>2018-11-06T11:23:26Z</time>
      </trkpt>
      <trkpt lat="45.89507" lon="4.74083">
        <ele>181</ele>
        <time>2018-11-06T11:23:27Z</time>
      </trkpt>
      <trkpt lat="45.89513" lon="4.74081">
        <ele>181</ele>
        <time>2018-11-06T11:23:28Z</time>
      </trkpt>
      <trkpt lat="45.89519" lon="4.74078">
        <ele>181</ele>
        <time>2018-11-06T11:23:29Z</time>
      </trkpt>
      <trkpt lat="45.89525" lon="4.74076">
        <ele>181</ele>
        <time>2018-11-06T11:23:30Z</time>
      </trkpt>
      <trkpt lat="45.8953" lon="4.74073">
        <ele>181</ele>
        <time>2018-11-06T11:23:31Z</time>
      </trkpt>
      <trkpt lat="45.89536" lon="4.74071">
        <ele>181</ele>
        <time>2018-11-06T11:23:32Z</time>
      </trkpt>
      <trkpt lat="45.89542" lon="4.74068">
        <ele>181</ele>
        <time>2018-11-06T11:23:33Z</time>
      </trkpt>
      <trkpt lat="45.89548" lon="4.74066">
        <ele>181</ele>
        <time>2018-11-06T11:23:34Z</time>
      </trkpt>
      <trkpt lat="45.89554" lon="4.74064">
        <ele>181</ele>
        <time>2018-11-06T11:23:35Z</time>
      </trkpt>
      <trkpt lat="45.89559" lon="4.74062">
        <ele>181</ele>
        <time>2018-11-06T11:23:36Z</time>
      </trkpt>
      <trkpt lat="45.89564" lon="4.74061">
        <ele>181</ele>
        <time>2018-11-06T11:23:37Z</time>
      </trkpt>
      <trkpt lat="45.8957" lon="4.74058">
        <ele>181</ele>
        <time>2018-11-06T11:23:38Z</time>
      </trkpt>
      <trkpt lat="45.89576" lon="4.74056">
        <ele>181</ele>
        <time>2018-11-06T11:23:39Z</time>
      </trkpt>
      <trkpt lat="45.89582" lon="4.74053">
        <ele>181</ele>
        <time>2018-11-06T11:23:40Z</time>
      </trkpt>
      <trkpt lat="45.89588" lon="4.74051">
        <ele>180</ele>
        <time>2018-11-06T11:23:41Z</time>
      </trkpt>
      <trkpt lat="45.89594" lon="4.74049">
        <ele>180</ele>
        <time>2018-11-06T11:23:42Z</time>
      </trkpt>
      <trkpt lat="45.89599" lon="4.74047">
        <ele>180</ele>
        <time>2018-11-06T11:23:43Z</time>
      </trkpt>
      <trkpt lat="45.89606" lon="4.74043">
        <ele>180</ele>
        <time>2018-11-06T11:23:44Z</time>
      </trkpt>
      <trkpt lat="45.89611" lon="4.74039">
        <ele>180</ele>
        <time>2018-11-06T11:23:45Z</time>
      </trkpt>
      <trkpt lat="45.89618" lon="4.74036">
        <ele>180</ele>
        <time>2018-11-06T11:23:46Z</time>
      </trkpt>
      <trkpt lat="45.89625" lon="4.74035">
        <ele>180</ele>
        <time>2018-11-06T11:23:47Z</time>
      </trkpt>
      <trkpt lat="45.89631" lon="4.74033">
        <ele>180</ele>
        <time>2018-11-06T11:23:48Z</time>
      </trkpt>
      <trkpt lat="45.89638" lon="4.7403">
        <ele>180</ele>
        <time>2018-11-06T11:23:49Z</time>
      </trkpt>
      <trkpt lat="45.89646" lon="4.74027">
        <ele>180</ele>
        <time>2018-11-06T11:23:50Z</time>
      </trkpt>
      <trkpt lat="45.89653" lon="4.74025">
        <ele>180</ele>
        <time>2018-11-06T11:23:51Z</time>
      </trkpt>
      <trkpt lat="45.89661" lon="4.74022">
        <ele>180</ele>
        <time>2018-11-06T11:23:52Z</time>
      </trkpt>
      <trkpt lat="45.89667" lon="4.74019">
        <ele>179</ele>
        <time>2018-11-06T11:23:53Z</time>
      </trkpt>
      <trkpt lat="45.89674" lon="4.74015">
        <ele>179</ele>
        <time>2018-11-06T11:23:54Z</time>
      </trkpt>
      <trkpt lat="45.89682" lon="4.7401">
        <ele>179</ele>
        <time>2018-11-06T11:23:55Z</time>
      </trkpt>
      <trkpt lat="45.89688" lon="4.74008">
        <ele>179</ele>
        <time>2018-11-06T11:23:56Z</time>
      </trkpt>
      <trkpt lat="45.89696" lon="4.74007">
        <ele>179</ele>
        <time>2018-11-06T11:23:57Z</time>
      </trkpt>
      <trkpt lat="45.89702" lon="4.74005">
        <ele>179</ele>
        <time>2018-11-06T11:23:58Z</time>
      </trkpt>
      <trkpt lat="45.89708" lon="4.74003">
        <ele>179</ele>
        <time>2018-11-06T11:23:59Z</time>
      </trkpt>
      <trkpt lat="45.89714" lon="4.74001">
        <ele>179</ele>
        <time>2018-11-06T11:24:00Z</time>
      </trkpt>
      <trkpt lat="45.8972" lon="4.73997">
        <ele>178</ele>
        <time>2018-11-06T11:24:01Z</time>
      </trkpt>
      <trkpt lat="45.89726" lon="4.73994">
        <ele>178</ele>
        <time>2018-11-06T11:24:02Z</time>
      </trkpt>
      <trkpt lat="45.89732" lon="4.73993">
        <ele>178</ele>
        <time>2018-11-06T11:24:03Z</time>
      </trkpt>
      <trkpt lat="45.89738" lon="4.7399">
        <ele>178</ele>
        <time>2018-11-06T11:24:04Z</time>
      </trkpt>
      <trkpt lat="45.89744" lon="4.73987">
        <ele>178</ele>
        <time>2018-11-06T11:24:05Z</time>
      </trkpt>
      <trkpt lat="45.8975" lon="4.73985">
        <ele>178</ele>
        <time>2018-11-06T11:24:06Z</time>
      </trkpt>
      <trkpt lat="45.89756" lon="4.73982">
        <ele>178</ele>
        <time>2018-11-06T11:24:07Z</time>
      </trkpt>
      <trkpt lat="45.89763" lon="4.73979">
        <ele>178</ele>
        <time>2018-11-06T11:24:08Z</time>
      </trkpt>
      <trkpt lat="45.89769" lon="4.73976">
        <ele>178</ele>
        <time>2018-11-06T11:24:09Z</time>
      </trkpt>
      <trkpt lat="45.89776" lon="4.73973">
        <ele>179</ele>
        <time>2018-11-06T11:24:10Z</time>
      </trkpt>
      <trkpt lat="45.89783" lon="4.7397">
        <ele>179</ele>
        <time>2018-11-06T11:24:11Z</time>
      </trkpt>
      <trkpt lat="45.89789" lon="4.73968">
        <ele>179</ele>
        <time>2018-11-06T11:24:12Z</time>
      </trkpt>
      <trkpt lat="45.89795" lon="4.73965">
        <ele>179</ele>
        <time>2018-11-06T11:24:13Z</time>
      </trkpt>
      <trkpt lat="45.89801" lon="4.73959">
        <ele>179</ele>
        <time>2018-11-06T11:24:14Z</time>
      </trkpt>
      <trkpt lat="45.89806" lon="4.7396">
        <ele>179</ele>
        <time>2018-11-06T11:24:15Z</time>
      </trkpt>
      <trkpt lat="45.89812" lon="4.73958">
        <ele>179</ele>
        <time>2018-11-06T11:24:16Z</time>
      </trkpt>
      <trkpt lat="45.89817" lon="4.73955">
        <ele>179</ele>
        <time>2018-11-06T11:24:17Z</time>
      </trkpt>
      <trkpt lat="45.89823" lon="4.73953">
        <ele>179</ele>
        <time>2018-11-06T11:24:18Z</time>
      </trkpt>
      <trkpt lat="45.89828" lon="4.73951">
        <ele>179</ele>
        <time>2018-11-06T11:24:19Z</time>
      </trkpt>
      <trkpt lat="45.89834" lon="4.73948">
        <ele>179</ele>
        <time>2018-11-06T11:24:20Z</time>
      </trkpt>
      <trkpt lat="45.8984" lon="4.73945">
        <ele>179</ele>
        <time>2018-11-06T11:24:21Z</time>
      </trkpt>
      <trkpt lat="45.89846" lon="4.73942">
        <ele>179</ele>
        <time>2018-11-06T11:24:22Z</time>
      </trkpt>
      <trkpt lat="45.89852" lon="4.7394">
        <ele>179</ele>
        <time>2018-11-06T11:24:23Z</time>
      </trkpt>
      <trkpt lat="45.89858" lon="4.73937">
        <ele>179</ele>
        <time>2018-11-06T11:24:24Z</time>
      </trkpt>
      <trkpt lat="45.89863" lon="4.73935">
        <ele>179</ele>
        <time>2018-11-06T11:24:25Z</time>
      </trkpt>
      <trkpt lat="45.89869" lon="4.73932">
        <ele>179</ele>
        <time>2018-11-06T11:24:26Z</time>
      </trkpt>
      <trkpt lat="45.89875" lon="4.7393">
        <ele>179</ele>
        <time>2018-11-06T11:24:27Z</time>
      </trkpt>
      <trkpt lat="45.89882" lon="4.73927">
        <ele>179</ele>
        <time>2018-11-06T11:24:28Z</time>
      </trkpt>
      <trkpt lat="45.89888" lon="4.73925">
        <ele>178</ele>
        <time>2018-11-06T11:24:29Z</time>
      </trkpt>
      <trkpt lat="45.89894" lon="4.73923">
        <ele>178</ele>
        <time>2018-11-06T11:24:30Z</time>
      </trkpt>
      <trkpt lat="45.89901" lon="4.7392">
        <ele>178</ele>
        <time>2018-11-06T11:24:31Z</time>
      </trkpt>
      <trkpt lat="45.89907" lon="4.73917">
        <ele>178</ele>
        <time>2018-11-06T11:24:32Z</time>
      </trkpt>
      <trkpt lat="45.89913" lon="4.73914">
        <ele>178</ele>
        <time>2018-11-06T11:24:33Z</time>
      </trkpt>
      <trkpt lat="45.8992" lon="4.73912">
        <ele>178</ele>
        <time>2018-11-06T11:24:34Z</time>
      </trkpt>
      <trkpt lat="45.89926" lon="4.73909">
        <ele>178</ele>
        <time>2018-11-06T11:24:35Z</time>
      </trkpt>
      <trkpt lat="45.89932" lon="4.73907">
        <ele>178</ele>
        <time>2018-11-06T11:24:36Z</time>
      </trkpt>
      <trkpt lat="45.89938" lon="4.73904">
        <ele>178</ele>
        <time>2018-11-06T11:24:37Z</time>
      </trkpt>
      <trkpt lat="45.89944" lon="4.73901">
        <ele>178</ele>
        <time>2018-11-06T11:24:38Z</time>
      </trkpt>
      <trkpt lat="45.8995" lon="4.73898">
        <ele>178</ele>
        <time>2018-11-06T11:24:39Z</time>
      </trkpt>
      <trkpt lat="45.89957" lon="4.73896">
        <ele>178</ele>
        <time>2018-11-06T11:24:40Z</time>
      </trkpt>
      <trkpt lat="45.89963" lon="4.73895">
        <ele>178</ele>
        <time>2018-11-06T11:24:41Z</time>
      </trkpt>
      <trkpt lat="45.89968" lon="4.73893">
        <ele>178</ele>
        <time>2018-11-06T11:24:42Z</time>
      </trkpt>
      <trkpt lat="45.89973" lon="4.73891">
        <ele>178</ele>
        <time>2018-11-06T11:24:43Z</time>
      </trkpt>
      <trkpt lat="45.89978" lon="4.73888">
        <ele>178</ele>
        <time>2018-11-06T11:24:44Z</time>
      </trkpt>
      <trkpt lat="45.89983" lon="4.73885">
        <ele>178</ele>
        <time>2018-11-06T11:24:45Z</time>
      </trkpt>
      <trkpt lat="45.8999" lon="4.73883">
        <ele>178</ele>
        <time>2018-11-06T11:24:46Z</time>
      </trkpt>
      <trkpt lat="45.89995" lon="4.73879">
        <ele>178</ele>
        <time>2018-11-06T11:24:47Z</time>
      </trkpt>
      <trkpt lat="45.9" lon="4.73876">
        <ele>178</ele>
        <time>2018-11-06T11:24:48Z</time>
      </trkpt>
      <trkpt lat="45.90005" lon="4.73874">
        <ele>178</ele>
        <time>2018-11-06T11:24:49Z</time>
      </trkpt>
      <trkpt lat="45.9001" lon="4.73872">
        <ele>178</ele>
        <time>2018-11-06T11:24:50Z</time>
      </trkpt>
      <trkpt lat="45.90015" lon="4.7387">
        <ele>178</ele>
        <time>2018-11-06T11:24:51Z</time>
      </trkpt>
      <trkpt lat="45.9002" lon="4.73867">
        <ele>178</ele>
        <time>2018-11-06T11:24:52Z</time>
      </trkpt>
      <trkpt lat="45.90026" lon="4.73864">
        <ele>178</ele>
        <time>2018-11-06T11:24:53Z</time>
      </trkpt>
      <trkpt lat="45.90032" lon="4.73862">
        <ele>178</ele>
        <time>2018-11-06T11:24:54Z</time>
      </trkpt>
      <trkpt lat="45.90038" lon="4.73859">
        <ele>178</ele>
        <time>2018-11-06T11:24:55Z</time>
      </trkpt>
      <trkpt lat="45.90044" lon="4.73856">
        <ele>178</ele>
        <time>2018-11-06T11:24:56Z</time>
      </trkpt>
      <trkpt lat="45.90049" lon="4.73854">
        <ele>178</ele>
        <time>2018-11-06T11:24:57Z</time>
      </trkpt>
      <trkpt lat="45.90055" lon="4.7385">
        <ele>178</ele>
        <time>2018-11-06T11:24:58Z</time>
      </trkpt>
      <trkpt lat="45.90062" lon="4.73846">
        <ele>178</ele>
        <time>2018-11-06T11:24:59Z</time>
      </trkpt>
      <trkpt lat="45.90068" lon="4.73843">
        <ele>178</ele>
        <time>2018-11-06T11:25:00Z</time>
      </trkpt>
      <trkpt lat="45.90075" lon="4.73841">
        <ele>178</ele>
        <time>2018-11-06T11:25:01Z</time>
      </trkpt>
      <trkpt lat="45.90082" lon="4.73837">
        <ele>178</ele>
        <time>2018-11-06T11:25:02Z</time>
      </trkpt>
      <trkpt lat="45.90088" lon="4.73836">
        <ele>178</ele>
        <time>2018-11-06T11:25:03Z</time>
      </trkpt>
      <trkpt lat="45.90095" lon="4.73834">
        <ele>178</ele>
        <time>2018-11-06T11:25:04Z</time>
      </trkpt>
      <trkpt lat="45.90101" lon="4.7383">
        <ele>177</ele>
        <time>2018-11-06T11:25:05Z</time>
      </trkpt>
      <trkpt lat="45.90107" lon="4.73828">
        <ele>177</ele>
        <time>2018-11-06T11:25:06Z</time>
      </trkpt>
      <trkpt lat="45.90112" lon="4.73826">
        <ele>177</ele>
        <time>2018-11-06T11:25:07Z</time>
      </trkpt>
      <trkpt lat="45.90118" lon="4.73824">
        <ele>177</ele>
        <time>2018-11-06T11:25:08Z</time>
      </trkpt>
      <trkpt lat="45.90123" lon="4.73822">
        <ele>177</ele>
        <time>2018-11-06T11:25:09Z</time>
      </trkpt>
      <trkpt lat="45.90128" lon="4.7382">
        <ele>177</ele>
        <time>2018-11-06T11:25:10Z</time>
      </trkpt>
      <trkpt lat="45.90133" lon="4.73818">
        <ele>177</ele>
        <time>2018-11-06T11:25:11Z</time>
      </trkpt>
      <trkpt lat="45.90138" lon="4.73815">
        <ele>177</ele>
        <time>2018-11-06T11:25:12Z</time>
      </trkpt>
      <trkpt lat="45.90143" lon="4.73812">
        <ele>177</ele>
        <time>2018-11-06T11:25:13Z</time>
      </trkpt>
      <trkpt lat="45.90148" lon="4.7381">
        <ele>177</ele>
        <time>2018-11-06T11:25:14Z</time>
      </trkpt>
      <trkpt lat="45.90153" lon="4.73808">
        <ele>176</ele>
        <time>2018-11-06T11:25:15Z</time>
      </trkpt>
      <trkpt lat="45.90158" lon="4.73806">
        <ele>176</ele>
        <time>2018-11-06T11:25:16Z</time>
      </trkpt>
      <trkpt lat="45.90163" lon="4.73803">
        <ele>176</ele>
        <time>2018-11-06T11:25:17Z</time>
      </trkpt>
      <trkpt lat="45.90169" lon="4.73799">
        <ele>177</ele>
        <time>2018-11-06T11:25:18Z</time>
      </trkpt>
      <trkpt lat="45.90174" lon="4.73797">
        <ele>177</ele>
        <time>2018-11-06T11:25:19Z</time>
      </trkpt>
      <trkpt lat="45.90179" lon="4.73794">
        <ele>177</ele>
        <time>2018-11-06T11:25:20Z</time>
      </trkpt>
      <trkpt lat="45.90184" lon="4.73792">
        <ele>177</ele>
        <time>2018-11-06T11:25:21Z</time>
      </trkpt>
      <trkpt lat="45.90189" lon="4.73789">
        <ele>177</ele>
        <time>2018-11-06T11:25:22Z</time>
      </trkpt>
      <trkpt lat="45.90194" lon="4.73788">
        <ele>177</ele>
        <time>2018-11-06T11:25:23Z</time>
      </trkpt>
      <trkpt lat="45.902" lon="4.73785">
        <ele>177</ele>
        <time>2018-11-06T11:25:24Z</time>
      </trkpt>
      <trkpt lat="45.90207" lon="4.73783">
        <ele>177</ele>
        <time>2018-11-06T11:25:25Z</time>
      </trkpt>
      <trkpt lat="45.90213" lon="4.7378">
        <ele>177</ele>
        <time>2018-11-06T11:25:26Z</time>
      </trkpt>
      <trkpt lat="45.90219" lon="4.73778">
        <ele>177</ele>
        <time>2018-11-06T11:25:27Z</time>
      </trkpt>
      <trkpt lat="45.90225" lon="4.73776">
        <ele>177</ele>
        <time>2018-11-06T11:25:28Z</time>
      </trkpt>
      <trkpt lat="45.90231" lon="4.73774">
        <ele>177</ele>
        <time>2018-11-06T11:25:29Z</time>
      </trkpt>
      <trkpt lat="45.90237" lon="4.73772">
        <ele>177</ele>
        <time>2018-11-06T11:25:30Z</time>
      </trkpt>
      <trkpt lat="45.90242" lon="4.73769">
        <ele>177</ele>
        <time>2018-11-06T11:25:31Z</time>
      </trkpt>
      <trkpt lat="45.90248" lon="4.73767">
        <ele>178</ele>
        <time>2018-11-06T11:25:32Z</time>
      </trkpt>
      <trkpt lat="45.90253" lon="4.73764">
        <ele>178</ele>
        <time>2018-11-06T11:25:33Z</time>
      </trkpt>
      <trkpt lat="45.90258" lon="4.73761">
        <ele>177</ele>
        <time>2018-11-06T11:25:34Z</time>
      </trkpt>
      <trkpt lat="45.90263" lon="4.73759">
        <ele>177</ele>
        <time>2018-11-06T11:25:35Z</time>
      </trkpt>
      <trkpt lat="45.90268" lon="4.73757">
        <ele>177</ele>
        <time>2018-11-06T11:25:36Z</time>
      </trkpt>
      <trkpt lat="45.90274" lon="4.73754">
        <ele>177</ele>
        <time>2018-11-06T11:25:37Z</time>
      </trkpt>
      <trkpt lat="45.90279" lon="4.73752">
        <ele>177</ele>
        <time>2018-11-06T11:25:38Z</time>
      </trkpt>
      <trkpt lat="45.90284" lon="4.73749">
        <ele>177</ele>
        <time>2018-11-06T11:25:39Z</time>
      </trkpt>
      <trkpt lat="45.90289" lon="4.73747">
        <ele>177</ele>
        <time>2018-11-06T11:25:40Z</time>
      </trkpt>
      <trkpt lat="45.90294" lon="4.73745">
        <ele>177</ele>
        <time>2018-11-06T11:25:41Z</time>
      </trkpt>
      <trkpt lat="45.90299" lon="4.7374">
        <ele>177</ele>
        <time>2018-11-06T11:25:42Z</time>
      </trkpt>
      <trkpt lat="45.90305" lon="4.73738">
        <ele>177</ele>
        <time>2018-11-06T11:25:43Z</time>
      </trkpt>
      <trkpt lat="45.9031" lon="4.73736">
        <ele>177</ele>
        <time>2018-11-06T11:25:44Z</time>
      </trkpt>
      <trkpt lat="45.90315" lon="4.73734">
        <ele>177</ele>
        <time>2018-11-06T11:25:45Z</time>
      </trkpt>
      <trkpt lat="45.90321" lon="4.73732">
        <ele>177</ele>
        <time>2018-11-06T11:25:46Z</time>
      </trkpt>
      <trkpt lat="45.90326" lon="4.7373">
        <ele>177</ele>
        <time>2018-11-06T11:25:47Z</time>
      </trkpt>
      <trkpt lat="45.90332" lon="4.73728">
        <ele>177</ele>
        <time>2018-11-06T11:25:48Z</time>
      </trkpt>
      <trkpt lat="45.90337" lon="4.73726">
        <ele>177</ele>
        <time>2018-11-06T11:25:49Z</time>
      </trkpt>
      <trkpt lat="45.90342" lon="4.73723">
        <ele>177</ele>
        <time>2018-11-06T11:25:50Z</time>
      </trkpt>
      <trkpt lat="45.90348" lon="4.7372">
        <ele>177</ele>
        <time>2018-11-06T11:25:51Z</time>
      </trkpt>
      <trkpt lat="45.90353" lon="4.73718">
        <ele>177</ele>
        <time>2018-11-06T11:25:52Z</time>
      </trkpt>
      <trkpt lat="45.90357" lon="4.73714">
        <ele>177</ele>
        <time>2018-11-06T11:25:53Z</time>
      </trkpt>
      <trkpt lat="45.90362" lon="4.73713">
        <ele>177</ele>
        <time>2018-11-06T11:25:54Z</time>
      </trkpt>
      <trkpt lat="45.90367" lon="4.73711">
        <ele>177</ele>
        <time>2018-11-06T11:25:55Z</time>
      </trkpt>
      <trkpt lat="45.90371" lon="4.73709">
        <ele>177</ele>
        <time>2018-11-06T11:25:56Z</time>
      </trkpt>
      <trkpt lat="45.90377" lon="4.73707">
        <ele>177</ele>
        <time>2018-11-06T11:25:57Z</time>
      </trkpt>
      <trkpt lat="45.90381" lon="4.73705">
        <ele>177</ele>
        <time>2018-11-06T11:25:58Z</time>
      </trkpt>
      <trkpt lat="45.90386" lon="4.73703">
        <ele>177</ele>
        <time>2018-11-06T11:25:59Z</time>
      </trkpt>
      <trkpt lat="45.9039" lon="4.73702">
        <ele>177</ele>
        <time>2018-11-06T11:26:00Z</time>
      </trkpt>
      <trkpt lat="45.90398" lon="4.73698">
        <ele>177</ele>
        <time>2018-11-06T11:26:02Z</time>
      </trkpt>
      <trkpt lat="45.90402" lon="4.73697">
        <ele>177</ele>
        <time>2018-11-06T11:26:03Z</time>
      </trkpt>
      <trkpt lat="45.9041" lon="4.73695">
        <ele>177</ele>
        <time>2018-11-06T11:26:05Z</time>
      </trkpt>
      <trkpt lat="45.90414" lon="4.73693">
        <ele>177</ele>
        <time>2018-11-06T11:26:06Z</time>
      </trkpt>
      <trkpt lat="45.90419" lon="4.73691">
        <ele>176</ele>
        <time>2018-11-06T11:26:07Z</time>
      </trkpt>
      <trkpt lat="45.90423" lon="4.73689">
        <ele>176</ele>
        <time>2018-11-06T11:26:08Z</time>
      </trkpt>
      <trkpt lat="45.90428" lon="4.73688">
        <ele>176</ele>
        <time>2018-11-06T11:26:09Z</time>
      </trkpt>
      <trkpt lat="45.90432" lon="4.73686">
        <ele>176</ele>
        <time>2018-11-06T11:26:10Z</time>
      </trkpt>
      <trkpt lat="45.90437" lon="4.73683">
        <ele>176</ele>
        <time>2018-11-06T11:26:11Z</time>
      </trkpt>
      <trkpt lat="45.90441" lon="4.73681">
        <ele>176</ele>
        <time>2018-11-06T11:26:12Z</time>
      </trkpt>
      <trkpt lat="45.90446" lon="4.7368">
        <ele>176</ele>
        <time>2018-11-06T11:26:13Z</time>
      </trkpt>
      <trkpt lat="45.90451" lon="4.73678">
        <ele>176</ele>
        <time>2018-11-06T11:26:14Z</time>
      </trkpt>
      <trkpt lat="45.90456" lon="4.73677">
        <ele>176</ele>
        <time>2018-11-06T11:26:15Z</time>
      </trkpt>
      <trkpt lat="45.90461" lon="4.73675">
        <ele>176</ele>
        <time>2018-11-06T11:26:16Z</time>
      </trkpt>
      <trkpt lat="45.90466" lon="4.73673">
        <ele>176</ele>
        <time>2018-11-06T11:26:17Z</time>
      </trkpt>
      <trkpt lat="45.90472" lon="4.73671">
        <ele>176</ele>
        <time>2018-11-06T11:26:18Z</time>
      </trkpt>
      <trkpt lat="45.90477" lon="4.73668">
        <ele>176</ele>
        <time>2018-11-06T11:26:19Z</time>
      </trkpt>
      <trkpt lat="45.90483" lon="4.73666">
        <ele>177</ele>
        <time>2018-11-06T11:26:20Z</time>
      </trkpt>
      <trkpt lat="45.90488" lon="4.73663">
        <ele>177</ele>
        <time>2018-11-06T11:26:21Z</time>
      </trkpt>
      <trkpt lat="45.90494" lon="4.73662">
        <ele>177</ele>
        <time>2018-11-06T11:26:22Z</time>
      </trkpt>
      <trkpt lat="45.90499" lon="4.7366">
        <ele>177</ele>
        <time>2018-11-06T11:26:23Z</time>
      </trkpt>
      <trkpt lat="45.90504" lon="4.73658">
        <ele>177</ele>
        <time>2018-11-06T11:26:24Z</time>
      </trkpt>
      <trkpt lat="45.90508" lon="4.73657">
        <ele>178</ele>
        <time>2018-11-06T11:26:25Z</time>
      </trkpt>
      <trkpt lat="45.90515" lon="4.73655">
        <ele>178</ele>
        <time>2018-11-06T11:26:26Z</time>
      </trkpt>
      <trkpt lat="45.9052" lon="4.73653">
        <ele>178</ele>
        <time>2018-11-06T11:26:27Z</time>
      </trkpt>
      <trkpt lat="45.90525" lon="4.73651">
        <ele>178</ele>
        <time>2018-11-06T11:26:28Z</time>
      </trkpt>
      <trkpt lat="45.90529" lon="4.7365">
        <ele>178</ele>
        <time>2018-11-06T11:26:29Z</time>
      </trkpt>
      <trkpt lat="45.90534" lon="4.73648">
        <ele>178</ele>
        <time>2018-11-06T11:26:30Z</time>
      </trkpt>
      <trkpt lat="45.90539" lon="4.73645">
        <ele>178</ele>
        <time>2018-11-06T11:26:31Z</time>
      </trkpt>
      <trkpt lat="45.90544" lon="4.73644">
        <ele>178</ele>
        <time>2018-11-06T11:26:32Z</time>
      </trkpt>
      <trkpt lat="45.90548" lon="4.73641">
        <ele>179</ele>
        <time>2018-11-06T11:26:33Z</time>
      </trkpt>
      <trkpt lat="45.90554" lon="4.73639">
        <ele>179</ele>
        <time>2018-11-06T11:26:34Z</time>
      </trkpt>
      <trkpt lat="45.90559" lon="4.73637">
        <ele>179</ele>
        <time>2018-11-06T11:26:35Z</time>
      </trkpt>
      <trkpt lat="45.90563" lon="4.73635">
        <ele>179</ele>
        <time>2018-11-06T11:26:36Z</time>
      </trkpt>
      <trkpt lat="45.90568" lon="4.73634">
        <ele>179</ele>
        <time>2018-11-06T11:26:37Z</time>
      </trkpt>
      <trkpt lat="45.90573" lon="4.73631">
        <ele>179</ele>
        <time>2018-11-06T11:26:38Z</time>
      </trkpt>
      <trkpt lat="45.90578" lon="4.73629">
        <ele>179</ele>
        <time>2018-11-06T11:26:39Z</time>
      </trkpt>
      <trkpt lat="45.90582" lon="4.73626">
        <ele>179</ele>
        <time>2018-11-06T11:26:40Z</time>
      </trkpt>
      <trkpt lat="45.90588" lon="4.73624">
        <ele>181</ele>
        <time>2018-11-06T11:26:41Z</time>
      </trkpt>
      <trkpt lat="45.90592" lon="4.73622">
        <ele>181</ele>
        <time>2018-11-06T11:26:42Z</time>
      </trkpt>
      <trkpt lat="45.90597" lon="4.7362">
        <ele>181</ele>
        <time>2018-11-06T11:26:43Z</time>
      </trkpt>
      <trkpt lat="45.90601" lon="4.73618">
        <ele>181</ele>
        <time>2018-11-06T11:26:44Z</time>
      </trkpt>
      <trkpt lat="45.90606" lon="4.73616">
        <ele>181</ele>
        <time>2018-11-06T11:26:45Z</time>
      </trkpt>
      <trkpt lat="45.90611" lon="4.73613">
        <ele>181</ele>
        <time>2018-11-06T11:26:46Z</time>
      </trkpt>
      <trkpt lat="45.90616" lon="4.73611">
        <ele>181</ele>
        <time>2018-11-06T11:26:47Z</time>
      </trkpt>
      <trkpt lat="45.90621" lon="4.73608">
        <ele>181</ele>
        <time>2018-11-06T11:26:48Z</time>
      </trkpt>
      <trkpt lat="45.90625" lon="4.73607">
        <ele>181</ele>
        <time>2018-11-06T11:26:49Z</time>
      </trkpt>
      <trkpt lat="45.9063" lon="4.73605">
        <ele>181</ele>
        <time>2018-11-06T11:26:50Z</time>
      </trkpt>
      <trkpt lat="45.90635" lon="4.73602">
        <ele>181</ele>
        <time>2018-11-06T11:26:51Z</time>
      </trkpt>
      <trkpt lat="45.9064" lon="4.736">
        <ele>181</ele>
        <time>2018-11-06T11:26:52Z</time>
      </trkpt>
      <trkpt lat="45.90645" lon="4.73598">
        <ele>181</ele>
        <time>2018-11-06T11:26:53Z</time>
      </trkpt>
      <trkpt lat="45.90651" lon="4.73596">
        <ele>181</ele>
        <time>2018-11-06T11:26:54Z</time>
      </trkpt>
      <trkpt lat="45.90657" lon="4.73593">
        <ele>181</ele>
        <time>2018-11-06T11:26:55Z</time>
      </trkpt>
      <trkpt lat="45.90663" lon="4.73591">
        <ele>180</ele>
        <time>2018-11-06T11:26:56Z</time>
      </trkpt>
      <trkpt lat="45.90669" lon="4.73588">
        <ele>180</ele>
        <time>2018-11-06T11:26:57Z</time>
      </trkpt>
      <trkpt lat="45.90675" lon="4.73586">
        <ele>180</ele>
        <time>2018-11-06T11:26:58Z</time>
      </trkpt>
      <trkpt lat="45.90681" lon="4.73584">
        <ele>181</ele>
        <time>2018-11-06T11:26:59Z</time>
      </trkpt>
      <trkpt lat="45.90687" lon="4.73581">
        <ele>179</ele>
        <time>2018-11-06T11:27:00Z</time>
      </trkpt>
      <trkpt lat="45.90694" lon="4.73578">
        <ele>178</ele>
        <time>2018-11-06T11:27:01Z</time>
      </trkpt>
      <trkpt lat="45.907" lon="4.73575">
        <ele>178</ele>
        <time>2018-11-06T11:27:02Z</time>
      </trkpt>
      <trkpt lat="45.90706" lon="4.73573">
        <ele>178</ele>
        <time>2018-11-06T11:27:03Z</time>
      </trkpt>
      <trkpt lat="45.90712" lon="4.7357">
        <ele>178</ele>
        <time>2018-11-06T11:27:04Z</time>
      </trkpt>
      <trkpt lat="45.90718" lon="4.73569">
        <ele>178</ele>
        <time>2018-11-06T11:27:05Z</time>
      </trkpt>
      <trkpt lat="45.90725" lon="4.73566">
        <ele>178</ele>
        <time>2018-11-06T11:27:06Z</time>
      </trkpt>
      <trkpt lat="45.90732" lon="4.73564">
        <ele>178</ele>
        <time>2018-11-06T11:27:07Z</time>
      </trkpt>
      <trkpt lat="45.90739" lon="4.73558">
        <ele>178</ele>
        <time>2018-11-06T11:27:08Z</time>
      </trkpt>
      <trkpt lat="45.90746" lon="4.73555">
        <ele>178</ele>
        <time>2018-11-06T11:27:09Z</time>
      </trkpt>
      <trkpt lat="45.90754" lon="4.73552">
        <ele>177</ele>
        <time>2018-11-06T11:27:10Z</time>
      </trkpt>
      <trkpt lat="45.90761" lon="4.7355">
        <ele>176</ele>
        <time>2018-11-06T11:27:11Z</time>
      </trkpt>
      <trkpt lat="45.90767" lon="4.73546">
        <ele>176</ele>
        <time>2018-11-06T11:27:12Z</time>
      </trkpt>
      <trkpt lat="45.90775" lon="4.73543">
        <ele>176</ele>
        <time>2018-11-06T11:27:13Z</time>
      </trkpt>
      <trkpt lat="45.90782" lon="4.7354">
        <ele>176</ele>
        <time>2018-11-06T11:27:14Z</time>
      </trkpt>
      <trkpt lat="45.90789" lon="4.73537">
        <ele>176</ele>
        <time>2018-11-06T11:27:15Z</time>
      </trkpt>
      <trkpt lat="45.90796" lon="4.73535">
        <ele>176</ele>
        <time>2018-11-06T11:27:16Z</time>
      </trkpt>
      <trkpt lat="45.90803" lon="4.73532">
        <ele>175</ele>
        <time>2018-11-06T11:27:17Z</time>
      </trkpt>
      <trkpt lat="45.90809" lon="4.73529">
        <ele>175</ele>
        <time>2018-11-06T11:27:18Z</time>
      </trkpt>
      <trkpt lat="45.90816" lon="4.73528">
        <ele>175</ele>
        <time>2018-11-06T11:27:19Z</time>
      </trkpt>
      <trkpt lat="45.90823" lon="4.73527">
        <ele>175</ele>
        <time>2018-11-06T11:27:20Z</time>
      </trkpt>
      <trkpt lat="45.90829" lon="4.73524">
        <ele>175</ele>
        <time>2018-11-06T11:27:21Z</time>
      </trkpt>
      <trkpt lat="45.90835" lon="4.73521">
        <ele>174</ele>
        <time>2018-11-06T11:27:22Z</time>
      </trkpt>
      <trkpt lat="45.90841" lon="4.7352">
        <ele>174</ele>
        <time>2018-11-06T11:27:23Z</time>
      </trkpt>
      <trkpt lat="45.90847" lon="4.73516">
        <ele>174</ele>
        <time>2018-11-06T11:27:24Z</time>
      </trkpt>
      <trkpt lat="45.90854" lon="4.73514">
        <ele>174</ele>
        <time>2018-11-06T11:27:25Z</time>
      </trkpt>
      <trkpt lat="45.9086" lon="4.73512">
        <ele>174</ele>
        <time>2018-11-06T11:27:26Z</time>
      </trkpt>
      <trkpt lat="45.90864" lon="4.7351">
        <ele>174</ele>
        <time>2018-11-06T11:27:27Z</time>
      </trkpt>
      <trkpt lat="45.90869" lon="4.73508">
        <ele>174</ele>
        <time>2018-11-06T11:27:28Z</time>
      </trkpt>
      <trkpt lat="45.90873" lon="4.73506">
        <ele>174</ele>
        <time>2018-11-06T11:27:29Z</time>
      </trkpt>
      <trkpt lat="45.90879" lon="4.73505">
        <ele>175</ele>
        <time>2018-11-06T11:27:30Z</time>
      </trkpt>
      <trkpt lat="45.90884" lon="4.73503">
        <ele>175</ele>
        <time>2018-11-06T11:27:31Z</time>
      </trkpt>
      <trkpt lat="45.90889" lon="4.73501">
        <ele>175</ele>
        <time>2018-11-06T11:27:32Z</time>
      </trkpt>
      <trkpt lat="45.90894" lon="4.73499">
        <ele>175</ele>
        <time>2018-11-06T11:27:33Z</time>
      </trkpt>
      <trkpt lat="45.90899" lon="4.73496">
        <ele>175</ele>
        <time>2018-11-06T11:27:34Z</time>
      </trkpt>
      <trkpt lat="45.90904" lon="4.73495">
        <ele>175</ele>
        <time>2018-11-06T11:27:35Z</time>
      </trkpt>
      <trkpt lat="45.9091" lon="4.73492">
        <ele>175</ele>
        <time>2018-11-06T11:27:36Z</time>
      </trkpt>
      <trkpt lat="45.90916" lon="4.73488">
        <ele>175</ele>
        <time>2018-11-06T11:27:37Z</time>
      </trkpt>
      <trkpt lat="45.90921" lon="4.73485">
        <ele>175</ele>
        <time>2018-11-06T11:27:38Z</time>
      </trkpt>
      <trkpt lat="45.90926" lon="4.73483">
        <ele>175</ele>
        <time>2018-11-06T11:27:39Z</time>
      </trkpt>
      <trkpt lat="45.90931" lon="4.73481">
        <ele>175</ele>
        <time>2018-11-06T11:27:40Z</time>
      </trkpt>
      <trkpt lat="45.90936" lon="4.7348">
        <ele>175</ele>
        <time>2018-11-06T11:27:41Z</time>
      </trkpt>
      <trkpt lat="45.90942" lon="4.73477">
        <ele>175</ele>
        <time>2018-11-06T11:27:42Z</time>
      </trkpt>
      <trkpt lat="45.90947" lon="4.73475">
        <ele>175</ele>
        <time>2018-11-06T11:27:43Z</time>
      </trkpt>
      <trkpt lat="45.90952" lon="4.73472">
        <ele>175</ele>
        <time>2018-11-06T11:27:44Z</time>
      </trkpt>
      <trkpt lat="45.90958" lon="4.7347">
        <ele>175</ele>
        <time>2018-11-06T11:27:45Z</time>
      </trkpt>
      <trkpt lat="45.90964" lon="4.73467">
        <ele>175</ele>
        <time>2018-11-06T11:27:46Z</time>
      </trkpt>
      <trkpt lat="45.90969" lon="4.73465">
        <ele>175</ele>
        <time>2018-11-06T11:27:47Z</time>
      </trkpt>
      <trkpt lat="45.90974" lon="4.73463">
        <ele>175</ele>
        <time>2018-11-06T11:27:48Z</time>
      </trkpt>
      <trkpt lat="45.90979" lon="4.73461">
        <ele>175</ele>
        <time>2018-11-06T11:27:49Z</time>
      </trkpt>
      <trkpt lat="45.90984" lon="4.73459">
        <ele>175</ele>
        <time>2018-11-06T11:27:50Z</time>
      </trkpt>
      <trkpt lat="45.90989" lon="4.73456">
        <ele>175</ele>
        <time>2018-11-06T11:27:51Z</time>
      </trkpt>
      <trkpt lat="45.90994" lon="4.73455">
        <ele>175</ele>
        <time>2018-11-06T11:27:52Z</time>
      </trkpt>
      <trkpt lat="45.91002" lon="4.73454">
        <ele>175</ele>
        <time>2018-11-06T11:27:54Z</time>
      </trkpt>
      <trkpt lat="45.91006" lon="4.73454">
        <ele>175</ele>
        <time>2018-11-06T11:27:55Z</time>
      </trkpt>
      <trkpt lat="45.91013" lon="4.73458">
        <ele>175</ele>
        <time>2018-11-06T11:27:57Z</time>
      </trkpt>
      <trkpt lat="45.91017" lon="4.7346">
        <ele>175</ele>
        <time>2018-11-06T11:27:58Z</time>
      </trkpt>
      <trkpt lat="45.91025" lon="4.73465">
        <ele>175</ele>
        <time>2018-11-06T11:28:00Z</time>
      </trkpt>
      <trkpt lat="45.91028" lon="4.73469">
        <ele>175</ele>
        <time>2018-11-06T11:28:01Z</time>
      </trkpt>
      <trkpt lat="45.91032" lon="4.73474">
        <ele>175</ele>
        <time>2018-11-06T11:28:02Z</time>
      </trkpt>
      <trkpt lat="45.91035" lon="4.73481">
        <ele>175</ele>
        <time>2018-11-06T11:28:03Z</time>
      </trkpt>
      <trkpt lat="45.91038" lon="4.73488">
        <ele>175</ele>
        <time>2018-11-06T11:28:04Z</time>
      </trkpt>
      <trkpt lat="45.91041" lon="4.73496">
        <ele>175</ele>
        <time>2018-11-06T11:28:05Z</time>
      </trkpt>
      <trkpt lat="45.91045" lon="4.73505">
        <ele>175</ele>
        <time>2018-11-06T11:28:06Z</time>
      </trkpt>
      <trkpt lat="45.91049" lon="4.73512">
        <ele>175</ele>
        <time>2018-11-06T11:28:07Z</time>
      </trkpt>
      <trkpt lat="45.91052" lon="4.73519">
        <ele>175</ele>
        <time>2018-11-06T11:28:08Z</time>
      </trkpt>
      <trkpt lat="45.91055" lon="4.73526">
        <ele>175</ele>
        <time>2018-11-06T11:28:09Z</time>
      </trkpt>
      <trkpt lat="45.91058" lon="4.73532">
        <ele>175</ele>
        <time>2018-11-06T11:28:10Z</time>
      </trkpt>
      <trkpt lat="45.91061" lon="4.73539">
        <ele>175</ele>
        <time>2018-11-06T11:28:11Z</time>
      </trkpt>
      <trkpt lat="45.91064" lon="4.73546">
        <ele>174</ele>
        <time>2018-11-06T11:28:12Z</time>
      </trkpt>
      <trkpt lat="45.91067" lon="4.73552">
        <ele>174</ele>
        <time>2018-11-06T11:28:13Z</time>
      </trkpt>
      <trkpt lat="45.9107" lon="4.73559">
        <ele>174</ele>
        <time>2018-11-06T11:28:14Z</time>
      </trkpt>
      <trkpt lat="45.91073" lon="4.73566">
        <ele>174</ele>
        <time>2018-11-06T11:28:15Z</time>
      </trkpt>
      <trkpt lat="45.91075" lon="4.73573">
        <ele>174</ele>
        <time>2018-11-06T11:28:16Z</time>
      </trkpt>
      <trkpt lat="45.91078" lon="4.73579">
        <ele>174</ele>
        <time>2018-11-06T11:28:17Z</time>
      </trkpt>
      <trkpt lat="45.91081" lon="4.73585">
        <ele>174</ele>
        <time>2018-11-06T11:28:18Z</time>
      </trkpt>
      <trkpt lat="45.91084" lon="4.73592">
        <ele>174</ele>
        <time>2018-11-06T11:28:19Z</time>
      </trkpt>
      <trkpt lat="45.91087" lon="4.73598">
        <ele>174</ele>
        <time>2018-11-06T11:28:20Z</time>
      </trkpt>
      <trkpt lat="45.91091" lon="4.73604">
        <ele>174</ele>
        <time>2018-11-06T11:28:21Z</time>
      </trkpt>
      <trkpt lat="45.91095" lon="4.73612">
        <ele>174</ele>
        <time>2018-11-06T11:28:22Z</time>
      </trkpt>
      <trkpt lat="45.91098" lon="4.7362">
        <ele>174</ele>
        <time>2018-11-06T11:28:23Z</time>
      </trkpt>
      <trkpt lat="45.91102" lon="4.73628">
        <ele>174</ele>
        <time>2018-11-06T11:28:24Z</time>
      </trkpt>
      <trkpt lat="45.91106" lon="4.73636">
        <ele>174</ele>
        <time>2018-11-06T11:28:25Z</time>
      </trkpt>
      <trkpt lat="45.91109" lon="4.73645">
        <ele>174</ele>
        <time>2018-11-06T11:28:26Z</time>
      </trkpt>
      <trkpt lat="45.91113" lon="4.73653">
        <ele>174</ele>
        <time>2018-11-06T11:28:27Z</time>
      </trkpt>
      <trkpt lat="45.91118" lon="4.7366">
        <ele>174</ele>
        <time>2018-11-06T11:28:28Z</time>
      </trkpt>
      <trkpt lat="45.91123" lon="4.73667">
        <ele>174</ele>
        <time>2018-11-06T11:28:29Z</time>
      </trkpt>
      <trkpt lat="45.91126" lon="4.73675">
        <ele>174</ele>
        <time>2018-11-06T11:28:30Z</time>
      </trkpt>
      <trkpt lat="45.9113" lon="4.73683">
        <ele>174</ele>
        <time>2018-11-06T11:28:31Z</time>
      </trkpt>
      <trkpt lat="45.91133" lon="4.7369">
        <ele>174</ele>
        <time>2018-11-06T11:28:32Z</time>
      </trkpt>
      <trkpt lat="45.91137" lon="4.73698">
        <ele>174</ele>
        <time>2018-11-06T11:28:33Z</time>
      </trkpt>
      <trkpt lat="45.9114" lon="4.73705">
        <ele>174</ele>
        <time>2018-11-06T11:28:34Z</time>
      </trkpt>
      <trkpt lat="45.91143" lon="4.73712">
        <ele>174</ele>
        <time>2018-11-06T11:28:35Z</time>
      </trkpt>
      <trkpt lat="45.91146" lon="4.7372">
        <ele>174</ele>
        <time>2018-11-06T11:28:36Z</time>
      </trkpt>
      <trkpt lat="45.91151" lon="4.73726">
        <ele>175</ele>
        <time>2018-11-06T11:28:37Z</time>
      </trkpt>
      <trkpt lat="45.91156" lon="4.7373">
        <ele>175</ele>
        <time>2018-11-06T11:28:38Z</time>
      </trkpt>
      <trkpt lat="45.91161" lon="4.73733">
        <ele>175</ele>
        <time>2018-11-06T11:28:39Z</time>
      </trkpt>
      <trkpt lat="45.91167" lon="4.73734">
        <ele>175</ele>
        <time>2018-11-06T11:28:40Z</time>
      </trkpt>
      <trkpt lat="45.91173" lon="4.73736">
        <ele>175</ele>
        <time>2018-11-06T11:28:41Z</time>
      </trkpt>
      <trkpt lat="45.91179" lon="4.73738">
        <ele>175</ele>
        <time>2018-11-06T11:28:42Z</time>
      </trkpt>
      <trkpt lat="45.91185" lon="4.73741">
        <ele>175</ele>
        <time>2018-11-06T11:28:43Z</time>
      </trkpt>
      <trkpt lat="45.91191" lon="4.73742">
        <ele>175</ele>
        <time>2018-11-06T11:28:44Z</time>
      </trkpt>
      <trkpt lat="45.91197" lon="4.73743">
        <ele>175</ele>
        <time>2018-11-06T11:28:45Z</time>
      </trkpt>
      <trkpt lat="45.91202" lon="4.73745">
        <ele>175</ele>
        <time>2018-11-06T11:28:46Z</time>
      </trkpt>
      <trkpt lat="45.91209" lon="4.73746">
        <ele>175</ele>
        <time>2018-11-06T11:28:47Z</time>
      </trkpt>
      <trkpt lat="45.91215" lon="4.73745">
        <ele>175</ele>
        <time>2018-11-06T11:28:48Z</time>
      </trkpt>
      <trkpt lat="45.91222" lon="4.73745">
        <ele>175</ele>
        <time>2018-11-06T11:28:49Z</time>
      </trkpt>
      <trkpt lat="45.91228" lon="4.73745">
        <ele>175</ele>
        <time>2018-11-06T11:28:50Z</time>
      </trkpt>
      <trkpt lat="45.91235" lon="4.73745">
        <ele>175</ele>
        <time>2018-11-06T11:28:51Z</time>
      </trkpt>
      <trkpt lat="45.91242" lon="4.73745">
        <ele>175</ele>
        <time>2018-11-06T11:28:52Z</time>
      </trkpt>
      <trkpt lat="45.91249" lon="4.73744">
        <ele>175</ele>
        <time>2018-11-06T11:28:53Z</time>
      </trkpt>
      <trkpt lat="45.91256" lon="4.73744">
        <ele>175</ele>
        <time>2018-11-06T11:28:54Z</time>
      </trkpt>
      <trkpt lat="45.91262" lon="4.73743">
        <ele>175</ele>
        <time>2018-11-06T11:28:55Z</time>
      </trkpt>
      <trkpt lat="45.91268" lon="4.73743">
        <ele>174</ele>
        <time>2018-11-06T11:28:56Z</time>
      </trkpt>
      <trkpt lat="45.91274" lon="4.73743">
        <ele>174</ele>
        <time>2018-11-06T11:28:57Z</time>
      </trkpt>
      <trkpt lat="45.9128" lon="4.73743">
        <ele>174</ele>
        <time>2018-11-06T11:28:58Z</time>
      </trkpt>
      <trkpt lat="45.91285" lon="4.73743">
        <ele>174</ele>
        <time>2018-11-06T11:28:59Z</time>
      </trkpt>
      <trkpt lat="45.91291" lon="4.73742">
        <ele>174</ele>
        <time>2018-11-06T11:29:00Z</time>
      </trkpt>
      <trkpt lat="45.91297" lon="4.73741">
        <ele>174</ele>
        <time>2018-11-06T11:29:01Z</time>
      </trkpt>
      <trkpt lat="45.91302" lon="4.73741">
        <ele>174</ele>
        <time>2018-11-06T11:29:02Z</time>
      </trkpt>
      <trkpt lat="45.91308" lon="4.73741">
        <ele>174</ele>
        <time>2018-11-06T11:29:03Z</time>
      </trkpt>
      <trkpt lat="45.91313" lon="4.73742">
        <ele>174</ele>
        <time>2018-11-06T11:29:04Z</time>
      </trkpt>
      <trkpt lat="45.91319" lon="4.73742">
        <ele>174</ele>
        <time>2018-11-06T11:29:05Z</time>
      </trkpt>
      <trkpt lat="45.91325" lon="4.73741">
        <ele>173</ele>
        <time>2018-11-06T11:29:06Z</time>
      </trkpt>
      <trkpt lat="45.91332" lon="4.73741">
        <ele>173</ele>
        <time>2018-11-06T11:29:07Z</time>
      </trkpt>
      <trkpt lat="45.91337" lon="4.7374">
        <ele>173</ele>
        <time>2018-11-06T11:29:08Z</time>
      </trkpt>
      <trkpt lat="45.91343" lon="4.7374">
        <ele>173</ele>
        <time>2018-11-06T11:29:09Z</time>
      </trkpt>
      <trkpt lat="45.91349" lon="4.73739">
        <ele>173</ele>
        <time>2018-11-06T11:29:10Z</time>
      </trkpt>
      <trkpt lat="45.91355" lon="4.73738">
        <ele>173</ele>
        <time>2018-11-06T11:29:11Z</time>
      </trkpt>
      <trkpt lat="45.91362" lon="4.73738">
        <ele>173</ele>
        <time>2018-11-06T11:29:12Z</time>
      </trkpt>
      <trkpt lat="45.91369" lon="4.73738">
        <ele>173</ele>
        <time>2018-11-06T11:29:13Z</time>
      </trkpt>
      <trkpt lat="45.91377" lon="4.73738">
        <ele>173</ele>
        <time>2018-11-06T11:29:14Z</time>
      </trkpt>
      <trkpt lat="45.91383" lon="4.73738">
        <ele>173</ele>
        <time>2018-11-06T11:29:15Z</time>
      </trkpt>
      <trkpt lat="45.91389" lon="4.73738">
        <ele>173</ele>
        <time>2018-11-06T11:29:16Z</time>
      </trkpt>
      <trkpt lat="45.91395" lon="4.73737">
        <ele>173</ele>
        <time>2018-11-06T11:29:17Z</time>
      </trkpt>
      <trkpt lat="45.914" lon="4.73737">
        <ele>173</ele>
        <time>2018-11-06T11:29:18Z</time>
      </trkpt>
      <trkpt lat="45.91405" lon="4.73737">
        <ele>173</ele>
        <time>2018-11-06T11:29:19Z</time>
      </trkpt>
      <trkpt lat="45.9141" lon="4.73737">
        <ele>173</ele>
        <time>2018-11-06T11:29:20Z</time>
      </trkpt>
      <trkpt lat="45.91415" lon="4.73736">
        <ele>173</ele>
        <time>2018-11-06T11:29:21Z</time>
      </trkpt>
      <trkpt lat="45.9142" lon="4.73736">
        <ele>173</ele>
        <time>2018-11-06T11:29:22Z</time>
      </trkpt>
      <trkpt lat="45.91425" lon="4.73737">
        <ele>173</ele>
        <time>2018-11-06T11:29:23Z</time>
      </trkpt>
      <trkpt lat="45.91431" lon="4.73737">
        <ele>173</ele>
        <time>2018-11-06T11:29:24Z</time>
      </trkpt>
      <trkpt lat="45.91437" lon="4.73737">
        <ele>173</ele>
        <time>2018-11-06T11:29:25Z</time>
      </trkpt>
      <trkpt lat="45.91442" lon="4.73737">
        <ele>173</ele>
        <time>2018-11-06T11:29:26Z</time>
      </trkpt>
      <trkpt lat="45.91448" lon="4.73737">
        <ele>173</ele>
        <time>2018-11-06T11:29:27Z</time>
      </trkpt>
      <trkpt lat="45.91453" lon="4.73738">
        <ele>173</ele>
        <time>2018-11-06T11:29:28Z</time>
      </trkpt>
      <trkpt lat="45.91459" lon="4.73738">
        <ele>174</ele>
        <time>2018-11-06T11:29:29Z</time>
      </trkpt>
      <trkpt lat="45.91464" lon="4.73739">
        <ele>174</ele>
        <time>2018-11-06T11:29:30Z</time>
      </trkpt>
      <trkpt lat="45.91469" lon="4.73739">
        <ele>174</ele>
        <time>2018-11-06T11:29:31Z</time>
      </trkpt>
      <trkpt lat="45.91473" lon="4.73739">
        <ele>174</ele>
        <time>2018-11-06T11:29:32Z</time>
      </trkpt>
      <trkpt lat="45.91478" lon="4.73739">
        <ele>174</ele>
        <time>2018-11-06T11:29:33Z</time>
      </trkpt>
      <trkpt lat="45.91486" lon="4.7374">
        <ele>174</ele>
        <time>2018-11-06T11:29:35Z</time>
      </trkpt>
      <trkpt lat="45.9149" lon="4.7374">
        <ele>174</ele>
        <time>2018-11-06T11:29:36Z</time>
      </trkpt>
      <trkpt lat="45.91494" lon="4.73739">
        <ele>174</ele>
        <time>2018-11-06T11:29:37Z</time>
      </trkpt>
      <trkpt lat="45.915" lon="4.73738">
        <ele>174</ele>
        <time>2018-11-06T11:29:38Z</time>
      </trkpt>
      <trkpt lat="45.91505" lon="4.73738">
        <ele>174</ele>
        <time>2018-11-06T11:29:39Z</time>
      </trkpt>
      <trkpt lat="45.9151" lon="4.73738">
        <ele>174</ele>
        <time>2018-11-06T11:29:40Z</time>
      </trkpt>
      <trkpt lat="45.91516" lon="4.73738">
        <ele>174</ele>
        <time>2018-11-06T11:29:41Z</time>
      </trkpt>
      <trkpt lat="45.91521" lon="4.73738">
        <ele>174</ele>
        <time>2018-11-06T11:29:42Z</time>
      </trkpt>
      <trkpt lat="45.91527" lon="4.73737">
        <ele>174</ele>
        <time>2018-11-06T11:29:43Z</time>
      </trkpt>
      <trkpt lat="45.91533" lon="4.73737">
        <ele>174</ele>
        <time>2018-11-06T11:29:44Z</time>
      </trkpt>
      <trkpt lat="45.91539" lon="4.73737">
        <ele>174</ele>
        <time>2018-11-06T11:29:45Z</time>
      </trkpt>
      <trkpt lat="45.91544" lon="4.73738">
        <ele>174</ele>
        <time>2018-11-06T11:29:46Z</time>
      </trkpt>
      <trkpt lat="45.91549" lon="4.73738">
        <ele>174</ele>
        <time>2018-11-06T11:29:47Z</time>
      </trkpt>
      <trkpt lat="45.91555" lon="4.73738">
        <ele>174</ele>
        <time>2018-11-06T11:29:48Z</time>
      </trkpt>
      <trkpt lat="45.9156" lon="4.73739">
        <ele>173</ele>
        <time>2018-11-06T11:29:49Z</time>
      </trkpt>
      <trkpt lat="45.91565" lon="4.73738">
        <ele>173</ele>
        <time>2018-11-06T11:29:50Z</time>
      </trkpt>
      <trkpt lat="45.91569" lon="4.73738">
        <ele>173</ele>
        <time>2018-11-06T11:29:51Z</time>
      </trkpt>
      <trkpt lat="45.91575" lon="4.73738">
        <ele>173</ele>
        <time>2018-11-06T11:29:52Z</time>
      </trkpt>
      <trkpt lat="45.9158" lon="4.73738">
        <ele>173</ele>
        <time>2018-11-06T11:29:53Z</time>
      </trkpt>
      <trkpt lat="45.91586" lon="4.73737">
        <ele>173</ele>
        <time>2018-11-06T11:29:54Z</time>
      </trkpt>
      <trkpt lat="45.9159" lon="4.73737">
        <ele>173</ele>
        <time>2018-11-06T11:29:55Z</time>
      </trkpt>
      <trkpt lat="45.91596" lon="4.73738">
        <ele>173</ele>
        <time>2018-11-06T11:29:56Z</time>
      </trkpt>
      <trkpt lat="45.91601" lon="4.73738">
        <ele>173</ele>
        <time>2018-11-06T11:29:57Z</time>
      </trkpt>
      <trkpt lat="45.91607" lon="4.73738">
        <ele>173</ele>
        <time>2018-11-06T11:29:58Z</time>
      </trkpt>
      <trkpt lat="45.91613" lon="4.73738">
        <ele>173</ele>
        <time>2018-11-06T11:29:59Z</time>
      </trkpt>
      <trkpt lat="45.91618" lon="4.73737">
        <ele>173</ele>
        <time>2018-11-06T11:30:00Z</time>
      </trkpt>
      <trkpt lat="45.91624" lon="4.73737">
        <ele>173</ele>
        <time>2018-11-06T11:30:01Z</time>
      </trkpt>
      <trkpt lat="45.9163" lon="4.73736">
        <ele>172</ele>
        <time>2018-11-06T11:30:02Z</time>
      </trkpt>
      <trkpt lat="45.91636" lon="4.73737">
        <ele>172</ele>
        <time>2018-11-06T11:30:03Z</time>
      </trkpt>
      <trkpt lat="45.91642" lon="4.73737">
        <ele>172</ele>
        <time>2018-11-06T11:30:04Z</time>
      </trkpt>
      <trkpt lat="45.91649" lon="4.73737">
        <ele>172</ele>
        <time>2018-11-06T11:30:05Z</time>
      </trkpt>
      <trkpt lat="45.91655" lon="4.73737">
        <ele>172</ele>
        <time>2018-11-06T11:30:06Z</time>
      </trkpt>
      <trkpt lat="45.91661" lon="4.73737">
        <ele>172</ele>
        <time>2018-11-06T11:30:07Z</time>
      </trkpt>
      <trkpt lat="45.91667" lon="4.73737">
        <ele>172</ele>
        <time>2018-11-06T11:30:08Z</time>
      </trkpt>
      <trkpt lat="45.91674" lon="4.73737">
        <ele>172</ele>
        <time>2018-11-06T11:30:09Z</time>
      </trkpt>
      <trkpt lat="45.91679" lon="4.73737">
        <ele>172</ele>
        <time>2018-11-06T11:30:10Z</time>
      </trkpt>
      <trkpt lat="45.91685" lon="4.73737">
        <ele>172</ele>
        <time>2018-11-06T11:30:11Z</time>
      </trkpt>
      <trkpt lat="45.9169" lon="4.73737">
        <ele>172</ele>
        <time>2018-11-06T11:30:12Z</time>
      </trkpt>
      <trkpt lat="45.91696" lon="4.73735">
        <ele>172</ele>
        <time>2018-11-06T11:30:13Z</time>
      </trkpt>
      <trkpt lat="45.91701" lon="4.73734">
        <ele>172</ele>
        <time>2018-11-06T11:30:14Z</time>
      </trkpt>
      <trkpt lat="45.91707" lon="4.73734">
        <ele>172</ele>
        <time>2018-11-06T11:30:15Z</time>
      </trkpt>
      <trkpt lat="45.91712" lon="4.73735">
        <ele>173</ele>
        <time>2018-11-06T11:30:16Z</time>
      </trkpt>
      <trkpt lat="45.91717" lon="4.73734">
        <ele>173</ele>
        <time>2018-11-06T11:30:17Z</time>
      </trkpt>
      <trkpt lat="45.91721" lon="4.73734">
        <ele>173</ele>
        <time>2018-11-06T11:30:18Z</time>
      </trkpt>
      <trkpt lat="45.91726" lon="4.73735">
        <ele>173</ele>
        <time>2018-11-06T11:30:19Z</time>
      </trkpt>
      <trkpt lat="45.91732" lon="4.73731">
        <ele>173</ele>
        <time>2018-11-06T11:30:20Z</time>
      </trkpt>
      <trkpt lat="45.91737" lon="4.73732">
        <ele>173</ele>
        <time>2018-11-06T11:30:21Z</time>
      </trkpt>
      <trkpt lat="45.91744" lon="4.7373">
        <ele>173</ele>
        <time>2018-11-06T11:30:22Z</time>
      </trkpt>
      <trkpt lat="45.9175" lon="4.73729">
        <ele>173</ele>
        <time>2018-11-06T11:30:23Z</time>
      </trkpt>
      <trkpt lat="45.91755" lon="4.7373">
        <ele>173</ele>
        <time>2018-11-06T11:30:24Z</time>
      </trkpt>
      <trkpt lat="45.91761" lon="4.7373">
        <ele>173</ele>
        <time>2018-11-06T11:30:25Z</time>
      </trkpt>
      <trkpt lat="45.91765" lon="4.73731">
        <ele>173</ele>
        <time>2018-11-06T11:30:26Z</time>
      </trkpt>
      <trkpt lat="45.9177" lon="4.73732">
        <ele>173</ele>
        <time>2018-11-06T11:30:27Z</time>
      </trkpt>
      <trkpt lat="45.91774" lon="4.73733">
        <ele>173</ele>
        <time>2018-11-06T11:30:28Z</time>
      </trkpt>
      <trkpt lat="45.91783" lon="4.73733">
        <ele>173</ele>
        <time>2018-11-06T11:30:30Z</time>
      </trkpt>
      <trkpt lat="45.91788" lon="4.73732">
        <ele>173</ele>
        <time>2018-11-06T11:30:31Z</time>
      </trkpt>
      <trkpt lat="45.91795" lon="4.73734">
        <ele>172</ele>
        <time>2018-11-06T11:30:32Z</time>
      </trkpt>
      <trkpt lat="45.91801" lon="4.73733">
        <ele>172</ele>
        <time>2018-11-06T11:30:33Z</time>
      </trkpt>
      <trkpt lat="45.91807" lon="4.73732">
        <ele>172</ele>
        <time>2018-11-06T11:30:34Z</time>
      </trkpt>
      <trkpt lat="45.91813" lon="4.73732">
        <ele>172</ele>
        <time>2018-11-06T11:30:35Z</time>
      </trkpt>
      <trkpt lat="45.91819" lon="4.73731">
        <ele>172</ele>
        <time>2018-11-06T11:30:36Z</time>
      </trkpt>
      <trkpt lat="45.91825" lon="4.73731">
        <ele>172</ele>
        <time>2018-11-06T11:30:37Z</time>
      </trkpt>
      <trkpt lat="45.91831" lon="4.73731">
        <ele>172</ele>
        <time>2018-11-06T11:30:38Z</time>
      </trkpt>
      <trkpt lat="45.91836" lon="4.7373">
        <ele>172</ele>
        <time>2018-11-06T11:30:39Z</time>
      </trkpt>
      <trkpt lat="45.91842" lon="4.73729">
        <ele>172</ele>
        <time>2018-11-06T11:30:40Z</time>
      </trkpt>
      <trkpt lat="45.91848" lon="4.7373">
        <ele>172</ele>
        <time>2018-11-06T11:30:41Z</time>
      </trkpt>
      <trkpt lat="45.91854" lon="4.7373">
        <ele>171</ele>
        <time>2018-11-06T11:30:42Z</time>
      </trkpt>
      <trkpt lat="45.9186" lon="4.73731">
        <ele>171</ele>
        <time>2018-11-06T11:30:43Z</time>
      </trkpt>
      <trkpt lat="45.91866" lon="4.7373">
        <ele>171</ele>
        <time>2018-11-06T11:30:44Z</time>
      </trkpt>
      <trkpt lat="45.91872" lon="4.7373">
        <ele>171</ele>
        <time>2018-11-06T11:30:45Z</time>
      </trkpt>
      <trkpt lat="45.91878" lon="4.7373">
        <ele>171</ele>
        <time>2018-11-06T11:30:46Z</time>
      </trkpt>
      <trkpt lat="45.91884" lon="4.73729">
        <ele>171</ele>
        <time>2018-11-06T11:30:47Z</time>
      </trkpt>
      <trkpt lat="45.9189" lon="4.73729">
        <ele>171</ele>
        <time>2018-11-06T11:30:48Z</time>
      </trkpt>
      <trkpt lat="45.91897" lon="4.73729">
        <ele>171</ele>
        <time>2018-11-06T11:30:49Z</time>
      </trkpt>
      <trkpt lat="45.91902" lon="4.73728">
        <ele>171</ele>
        <time>2018-11-06T11:30:50Z</time>
      </trkpt>
      <trkpt lat="45.91909" lon="4.73728">
        <ele>171</ele>
        <time>2018-11-06T11:30:51Z</time>
      </trkpt>
      <trkpt lat="45.91915" lon="4.73728">
        <ele>171</ele>
        <time>2018-11-06T11:30:52Z</time>
      </trkpt>
      <trkpt lat="45.9192" lon="4.73728">
        <ele>170</ele>
        <time>2018-11-06T11:30:53Z</time>
      </trkpt>
      <trkpt lat="45.91926" lon="4.73729">
        <ele>170</ele>
        <time>2018-11-06T11:30:54Z</time>
      </trkpt>
      <trkpt lat="45.91931" lon="4.73729">
        <ele>170</ele>
        <time>2018-11-06T11:30:55Z</time>
      </trkpt>
      <trkpt lat="45.91936" lon="4.73729">
        <ele>170</ele>
        <time>2018-11-06T11:30:56Z</time>
      </trkpt>
      <trkpt lat="45.9194" lon="4.7373">
        <ele>170</ele>
        <time>2018-11-06T11:30:57Z</time>
      </trkpt>
      <trkpt lat="45.91946" lon="4.73729">
        <ele>170</ele>
        <time>2018-11-06T11:30:58Z</time>
      </trkpt>
      <trkpt lat="45.91951" lon="4.73729">
        <ele>170</ele>
        <time>2018-11-06T11:30:59Z</time>
      </trkpt>
      <trkpt lat="45.91956" lon="4.73729">
        <ele>170</ele>
        <time>2018-11-06T11:31:00Z</time>
      </trkpt>
      <trkpt lat="45.91961" lon="4.7373">
        <ele>171</ele>
        <time>2018-11-06T11:31:01Z</time>
      </trkpt>
      <trkpt lat="45.91967" lon="4.73729">
        <ele>171</ele>
        <time>2018-11-06T11:31:02Z</time>
      </trkpt>
      <trkpt lat="45.91973" lon="4.7373">
        <ele>171</ele>
        <time>2018-11-06T11:31:03Z</time>
      </trkpt>
      <trkpt lat="45.91979" lon="4.73729">
        <ele>171</ele>
        <time>2018-11-06T11:31:04Z</time>
      </trkpt>
      <trkpt lat="45.91985" lon="4.7373">
        <ele>171</ele>
        <time>2018-11-06T11:31:05Z</time>
      </trkpt>
      <trkpt lat="45.91991" lon="4.73729">
        <ele>171</ele>
        <time>2018-11-06T11:31:06Z</time>
      </trkpt>
      <trkpt lat="45.91997" lon="4.73728">
        <ele>171</ele>
        <time>2018-11-06T11:31:07Z</time>
      </trkpt>
      <trkpt lat="45.92003" lon="4.73729">
        <ele>171</ele>
        <time>2018-11-06T11:31:08Z</time>
      </trkpt>
      <trkpt lat="45.92009" lon="4.73729">
        <ele>171</ele>
        <time>2018-11-06T11:31:09Z</time>
      </trkpt>
      <trkpt lat="45.92015" lon="4.73729">
        <ele>171</ele>
        <time>2018-11-06T11:31:10Z</time>
      </trkpt>
      <trkpt lat="45.92021" lon="4.73728">
        <ele>171</ele>
        <time>2018-11-06T11:31:11Z</time>
      </trkpt>
      <trkpt lat="45.92027" lon="4.73727">
        <ele>171</ele>
        <time>2018-11-06T11:31:12Z</time>
      </trkpt>
      <trkpt lat="45.92032" lon="4.73727">
        <ele>171</ele>
        <time>2018-11-06T11:31:13Z</time>
      </trkpt>
      <trkpt lat="45.92038" lon="4.73726">
        <ele>171</ele>
        <time>2018-11-06T11:31:14Z</time>
      </trkpt>
      <trkpt lat="45.92043" lon="4.73726">
        <ele>171</ele>
        <time>2018-11-06T11:31:15Z</time>
      </trkpt>
      <trkpt lat="45.92049" lon="4.73727">
        <ele>171</ele>
        <time>2018-11-06T11:31:16Z</time>
      </trkpt>
      <trkpt lat="45.92055" lon="4.73726">
        <ele>171</ele>
        <time>2018-11-06T11:31:17Z</time>
      </trkpt>
      <trkpt lat="45.92061" lon="4.73726">
        <ele>171</ele>
        <time>2018-11-06T11:31:18Z</time>
      </trkpt>
      <trkpt lat="45.92067" lon="4.73726">
        <ele>171</ele>
        <time>2018-11-06T11:31:19Z</time>
      </trkpt>
      <trkpt lat="45.92074" lon="4.73725">
        <ele>171</ele>
        <time>2018-11-06T11:31:20Z</time>
      </trkpt>
      <trkpt lat="45.9208" lon="4.73725">
        <ele>171</ele>
        <time>2018-11-06T11:31:21Z</time>
      </trkpt>
      <trkpt lat="45.92086" lon="4.73724">
        <ele>171</ele>
        <time>2018-11-06T11:31:22Z</time>
      </trkpt>
      <trkpt lat="45.92092" lon="4.73723">
        <ele>171</ele>
        <time>2018-11-06T11:31:23Z</time>
      </trkpt>
      <trkpt lat="45.92098" lon="4.73723">
        <ele>171</ele>
        <time>2018-11-06T11:31:24Z</time>
      </trkpt>
      <trkpt lat="45.92104" lon="4.73722">
        <ele>171</ele>
        <time>2018-11-06T11:31:25Z</time>
      </trkpt>
      <trkpt lat="45.92109" lon="4.7372">
        <ele>171</ele>
        <time>2018-11-06T11:31:26Z</time>
      </trkpt>
      <trkpt lat="45.92115" lon="4.73719">
        <ele>171</ele>
        <time>2018-11-06T11:31:27Z</time>
      </trkpt>
      <trkpt lat="45.92121" lon="4.73719">
        <ele>171</ele>
        <time>2018-11-06T11:31:28Z</time>
      </trkpt>
      <trkpt lat="45.92126" lon="4.73717">
        <ele>171</ele>
        <time>2018-11-06T11:31:29Z</time>
      </trkpt>
      <trkpt lat="45.92132" lon="4.73715">
        <ele>171</ele>
        <time>2018-11-06T11:31:30Z</time>
      </trkpt>
      <trkpt lat="45.92138" lon="4.73713">
        <ele>171</ele>
        <time>2018-11-06T11:31:31Z</time>
      </trkpt>
      <trkpt lat="45.92144" lon="4.73711">
        <ele>171</ele>
        <time>2018-11-06T11:31:32Z</time>
      </trkpt>
      <trkpt lat="45.9215" lon="4.7371">
        <ele>171</ele>
        <time>2018-11-06T11:31:33Z</time>
      </trkpt>
      <trkpt lat="45.92155" lon="4.73707">
        <ele>171</ele>
        <time>2018-11-06T11:31:34Z</time>
      </trkpt>
      <trkpt lat="45.92161" lon="4.73706">
        <ele>171</ele>
        <time>2018-11-06T11:31:35Z</time>
      </trkpt>
      <trkpt lat="45.92167" lon="4.73703">
        <ele>171</ele>
        <time>2018-11-06T11:31:36Z</time>
      </trkpt>
      <trkpt lat="45.92173" lon="4.737">
        <ele>171</ele>
        <time>2018-11-06T11:31:37Z</time>
      </trkpt>
      <trkpt lat="45.9218" lon="4.73697">
        <ele>171</ele>
        <time>2018-11-06T11:31:38Z</time>
      </trkpt>
      <trkpt lat="45.92185" lon="4.73694">
        <ele>171</ele>
        <time>2018-11-06T11:31:39Z</time>
      </trkpt>
      <trkpt lat="45.92191" lon="4.73691">
        <ele>171</ele>
        <time>2018-11-06T11:31:40Z</time>
      </trkpt>
      <trkpt lat="45.92197" lon="4.73689">
        <ele>171</ele>
        <time>2018-11-06T11:31:41Z</time>
      </trkpt>
      <trkpt lat="45.92201" lon="4.73686">
        <ele>171</ele>
        <time>2018-11-06T11:31:42Z</time>
      </trkpt>
      <trkpt lat="45.92207" lon="4.73683">
        <ele>171</ele>
        <time>2018-11-06T11:31:43Z</time>
      </trkpt>
      <trkpt lat="45.92212" lon="4.7368">
        <ele>171</ele>
        <time>2018-11-06T11:31:44Z</time>
      </trkpt>
      <trkpt lat="45.92218" lon="4.73677">
        <ele>171</ele>
        <time>2018-11-06T11:31:45Z</time>
      </trkpt>
      <trkpt lat="45.92222" lon="4.73673">
        <ele>171</ele>
        <time>2018-11-06T11:31:46Z</time>
      </trkpt>
      <trkpt lat="45.92227" lon="4.73671">
        <ele>171</ele>
        <time>2018-11-06T11:31:47Z</time>
      </trkpt>
      <trkpt lat="45.92232" lon="4.73669">
        <ele>171</ele>
        <time>2018-11-06T11:31:48Z</time>
      </trkpt>
      <trkpt lat="45.92236" lon="4.73666">
        <ele>171</ele>
        <time>2018-11-06T11:31:49Z</time>
      </trkpt>
      <trkpt lat="45.92241" lon="4.73663">
        <ele>171</ele>
        <time>2018-11-06T11:31:50Z</time>
      </trkpt>
      <trkpt lat="45.92245" lon="4.7366">
        <ele>171</ele>
        <time>2018-11-06T11:31:51Z</time>
      </trkpt>
      <trkpt lat="45.92249" lon="4.73658">
        <ele>171</ele>
        <time>2018-11-06T11:31:52Z</time>
      </trkpt>
      <trkpt lat="45.92253" lon="4.73655">
        <ele>171</ele>
        <time>2018-11-06T11:31:53Z</time>
      </trkpt>
      <trkpt lat="45.92258" lon="4.73652">
        <ele>171</ele>
        <time>2018-11-06T11:31:54Z</time>
      </trkpt>
      <trkpt lat="45.92263" lon="4.73649">
        <ele>171</ele>
        <time>2018-11-06T11:31:55Z</time>
      </trkpt>
      <trkpt lat="45.92268" lon="4.73646">
        <ele>172</ele>
        <time>2018-11-06T11:31:56Z</time>
      </trkpt>
      <trkpt lat="45.92274" lon="4.73643">
        <ele>172</ele>
        <time>2018-11-06T11:31:57Z</time>
      </trkpt>
      <trkpt lat="45.92279" lon="4.7364">
        <ele>172</ele>
        <time>2018-11-06T11:31:58Z</time>
      </trkpt>
      <trkpt lat="45.92285" lon="4.73636">
        <ele>172</ele>
        <time>2018-11-06T11:31:59Z</time>
      </trkpt>
      <trkpt lat="45.9229" lon="4.73634">
        <ele>172</ele>
        <time>2018-11-06T11:32:00Z</time>
      </trkpt>
      <trkpt lat="45.92296" lon="4.73631">
        <ele>172</ele>
        <time>2018-11-06T11:32:01Z</time>
      </trkpt>
      <trkpt lat="45.92301" lon="4.73629">
        <ele>172</ele>
        <time>2018-11-06T11:32:02Z</time>
      </trkpt>
      <trkpt lat="45.92306" lon="4.73627">
        <ele>172</ele>
        <time>2018-11-06T11:32:03Z</time>
      </trkpt>
      <trkpt lat="45.9231" lon="4.73624">
        <ele>172</ele>
        <time>2018-11-06T11:32:04Z</time>
      </trkpt>
      <trkpt lat="45.92316" lon="4.73621">
        <ele>172</ele>
        <time>2018-11-06T11:32:05Z</time>
      </trkpt>
      <trkpt lat="45.9232" lon="4.73618">
        <ele>172</ele>
        <time>2018-11-06T11:32:06Z</time>
      </trkpt>
      <trkpt lat="45.92324" lon="4.73614">
        <ele>172</ele>
        <time>2018-11-06T11:32:07Z</time>
      </trkpt>
      <trkpt lat="45.92329" lon="4.73612">
        <ele>172</ele>
        <time>2018-11-06T11:32:08Z</time>
      </trkpt>
      <trkpt lat="45.92333" lon="4.73609">
        <ele>172</ele>
        <time>2018-11-06T11:32:09Z</time>
      </trkpt>
      <trkpt lat="45.92338" lon="4.73606">
        <ele>173</ele>
        <time>2018-11-06T11:32:10Z</time>
      </trkpt>
      <trkpt lat="45.92342" lon="4.73604">
        <ele>173</ele>
        <time>2018-11-06T11:32:11Z</time>
      </trkpt>
      <trkpt lat="45.92349" lon="4.73599">
        <ele>173</ele>
        <time>2018-11-06T11:32:13Z</time>
      </trkpt>
      <trkpt lat="45.92353" lon="4.73597">
        <ele>173</ele>
        <time>2018-11-06T11:32:14Z</time>
      </trkpt>
      <trkpt lat="45.92358" lon="4.73595">
        <ele>173</ele>
        <time>2018-11-06T11:32:15Z</time>
      </trkpt>
      <trkpt lat="45.92363" lon="4.73594">
        <ele>173</ele>
        <time>2018-11-06T11:32:16Z</time>
      </trkpt>
      <trkpt lat="45.92368" lon="4.73593">
        <ele>173</ele>
        <time>2018-11-06T11:32:17Z</time>
      </trkpt>
      <trkpt lat="45.92373" lon="4.7359">
        <ele>173</ele>
        <time>2018-11-06T11:32:18Z</time>
      </trkpt>
      <trkpt lat="45.92378" lon="4.73587">
        <ele>173</ele>
        <time>2018-11-06T11:32:19Z</time>
      </trkpt>
      <trkpt lat="45.92383" lon="4.73584">
        <ele>173</ele>
        <time>2018-11-06T11:32:20Z</time>
      </trkpt>
      <trkpt lat="45.92388" lon="4.73579">
        <ele>173</ele>
        <time>2018-11-06T11:32:21Z</time>
      </trkpt>
      <trkpt lat="45.92394" lon="4.73576">
        <ele>173</ele>
        <time>2018-11-06T11:32:22Z</time>
      </trkpt>
      <trkpt lat="45.92399" lon="4.73574">
        <ele>173</ele>
        <time>2018-11-06T11:32:23Z</time>
      </trkpt>
      <trkpt lat="45.92403" lon="4.73572">
        <ele>173</ele>
        <time>2018-11-06T11:32:24Z</time>
      </trkpt>
      <trkpt lat="45.92407" lon="4.7357">
        <ele>173</ele>
        <time>2018-11-06T11:32:25Z</time>
      </trkpt>
      <trkpt lat="45.92411" lon="4.73566">
        <ele>173</ele>
        <time>2018-11-06T11:32:26Z</time>
      </trkpt>
      <trkpt lat="45.92419" lon="4.7356">
        <ele>174</ele>
        <time>2018-11-06T11:32:28Z</time>
      </trkpt>
      <trkpt lat="45.92423" lon="4.73559">
        <ele>174</ele>
        <time>2018-11-06T11:32:29Z</time>
      </trkpt>
      <trkpt lat="45.92431" lon="4.73556">
        <ele>174</ele>
        <time>2018-11-06T11:32:31Z</time>
      </trkpt>
      <trkpt lat="45.92434" lon="4.73554">
        <ele>174</ele>
        <time>2018-11-06T11:32:32Z</time>
      </trkpt>
      <trkpt lat="45.92441" lon="4.7355">
        <ele>174</ele>
        <time>2018-11-06T11:32:34Z</time>
      </trkpt>
      <trkpt lat="45.92444" lon="4.73549">
        <ele>174</ele>
        <time>2018-11-06T11:32:35Z</time>
      </trkpt>
      <trkpt lat="45.92449" lon="4.73546">
        <ele>174</ele>
        <time>2018-11-06T11:32:37Z</time>
      </trkpt>
      <trkpt lat="45.92453" lon="4.73545">
        <ele>174</ele>
        <time>2018-11-06T11:32:38Z</time>
      </trkpt>
      <trkpt lat="45.9246" lon="4.73543">
        <ele>173</ele>
        <time>2018-11-06T11:32:39Z</time>
      </trkpt>
      <trkpt lat="45.92462" lon="4.73545">
        <ele>173</ele>
        <time>2018-11-06T11:32:40Z</time>
      </trkpt>
      <trkpt lat="45.92469" lon="4.73551">
        <ele>173</ele>
        <time>2018-11-06T11:32:42Z</time>
      </trkpt>
      <trkpt lat="45.9247" lon="4.73557">
        <ele>173</ele>
        <time>2018-11-06T11:32:43Z</time>
      </trkpt>
      <trkpt lat="45.92467" lon="4.73568">
        <ele>173</ele>
        <time>2018-11-06T11:32:44Z</time>
      </trkpt>
      <trkpt lat="45.92467" lon="4.73575">
        <ele>173</ele>
        <time>2018-11-06T11:32:45Z</time>
      </trkpt>
      <trkpt lat="45.92466" lon="4.73583">
        <ele>173</ele>
        <time>2018-11-06T11:32:46Z</time>
      </trkpt>
      <trkpt lat="45.92467" lon="4.73591">
        <ele>174</ele>
        <time>2018-11-06T11:32:47Z</time>
      </trkpt>
      <trkpt lat="45.92467" lon="4.73599">
        <ele>174</ele>
        <time>2018-11-06T11:32:48Z</time>
      </trkpt>
      <trkpt lat="45.92467" lon="4.73607">
        <ele>174</ele>
        <time>2018-11-06T11:32:49Z</time>
      </trkpt>
      <trkpt lat="45.92467" lon="4.73614">
        <ele>174</ele>
        <time>2018-11-06T11:32:50Z</time>
      </trkpt>
      <trkpt lat="45.92468" lon="4.73621">
        <ele>174</ele>
        <time>2018-11-06T11:32:51Z</time>
      </trkpt>
      <trkpt lat="45.92468" lon="4.73629">
        <ele>174</ele>
        <time>2018-11-06T11:32:52Z</time>
      </trkpt>
      <trkpt lat="45.92469" lon="4.73636">
        <ele>174</ele>
        <time>2018-11-06T11:32:53Z</time>
      </trkpt>
      <trkpt lat="45.92469" lon="4.73649">
        <ele>174</ele>
        <time>2018-11-06T11:32:55Z</time>
      </trkpt>
      <trkpt lat="45.92469" lon="4.73654">
        <ele>174</ele>
        <time>2018-11-06T11:32:56Z</time>
      </trkpt>
      <trkpt lat="45.92468" lon="4.73666">
        <ele>174</ele>
        <time>2018-11-06T11:32:58Z</time>
      </trkpt>
      <trkpt lat="45.92467" lon="4.73672">
        <ele>174</ele>
        <time>2018-11-06T11:32:59Z</time>
      </trkpt>
      <trkpt lat="45.92467" lon="4.73682">
        <ele>174</ele>
        <time>2018-11-06T11:33:01Z</time>
      </trkpt>
      <trkpt lat="45.92466" lon="4.73685">
        <ele>174</ele>
        <time>2018-11-06T11:33:02Z</time>
      </trkpt>
      <trkpt lat="45.92465" lon="4.73697">
        <ele>174</ele>
        <time>2018-11-06T11:33:05Z</time>
      </trkpt>
      <trkpt lat="45.92465" lon="4.737">
        <ele>174</ele>
        <time>2018-11-06T11:33:06Z</time>
      </trkpt>
      <trkpt lat="45.92462" lon="4.73706">
        <ele>174</ele>
        <time>2018-11-06T11:35:02.703Z</time>
      </trkpt>
    </trkseg>
  </trk>
</gpx>